# Wetter Temperatur Luftdruck Luftfeuchtigkeit Sichtweite Windgeschwindigkeit Windrichtung Zeit
1 Clear 23 1014 94 11265 1.4 282.933 13:21 14.10.2019
2 Clear 23 1012 80 0 2.24 278 12:55 14.10.2019
3 Clear 23 1012 80 0 0.89 289 12:55 14.10.2019
4 Clear 23 1012 80 0 1.34 305 12:36 14.10.2019
5 Clear 23 1012 80 0 0.89 280 12:18 14.10.2019
6 Clear 23 1012 80 0 0.89 305 11:44 14.10.2019
7 Clear 23 1012 80 0 0.89 313 11:24 14.10.2019
8 Clear 23 1012 80 0 0.45 315 10:55 14.10.2019
9 Clear 23 1012 80 0 0.45 315 10:37 14.10.2019
10 Clear 23 1011 80 0 0.89 315 10:18 14.10.2019
11 Clear 24 1012 79 0 1.42 272.547 09:42 14.10.2019
12 -273 0 0 0 0 0 09:41 14.10.2019
13 Clouds 24 1012 78 0 1.12 276.934 09:21 14.10.2019
14 Clouds 24 1013 78 0 0.45 313 08:50 14.10.2019
15 Clouds 24 1013 78 0 0.45 313 08:23 14.10.2019
16 Clouds 24 1013 77 0 0.89 313 07:47 14.10.2019
17 -273 0 0 0 0 0 07:25 14.10.2019
18 Clouds 25 1015 88 11265 2.1 360 06:59 14.10.2019
19 Clouds 25 1015 88 11265 2.1 360 06:28 14.10.2019
20 Clouds 25 1015 94 11265 2.1 360 05:57 14.10.2019
21 Clouds 26 1015 94 11265 2.1 360 05:26 14.10.2019
22 Clouds 26 1013 83 11265 4.6 20 03:50 14.10.2019
23 Clouds 26 1013 83 11265 4.6 20 03:26 14.10.2019
24 Clouds 26 1013 83 11265 3.1 10 02:32 14.10.2019
25 Clouds 27 1012 78 11265 4.6 360 01:21 14.10.2019
26 Clouds 28 1012 74 11265 4.1 30 00:42 14.10.2019
27 Clouds 28 1012 74 11265 4.1 30 00:18 14.10.2019
28 Clouds 28 1012 74 11265 5.1 30 23:41 13.10.2019
29 Clouds 28 1012 74 11265 5.1 30 23:20 13.10.2019
30 Clouds 29 1013 70 11265 3.1 30 22:57 13.10.2019
31 Clouds 29 1013 70 11265 3.1 30 22:39 13.10.2019
32 Clouds 29 1013 70 11265 3.1 30 22:20 13.10.2019
33 Clouds 29 1013 70 11265 3.1 30 22:20 13.10.2019
34 Clouds 29 1014 66 11265 2.1 350 21:57 13.10.2019
35 Clouds 29 1014 66 11265 2.1 350 21:36 13.10.2019
36 Clouds 29 1014 66 11265 2.1 350 21:18 13.10.2019
37 Clouds 28 1014 69 11265 2.04 90.954 20:56 13.10.2019
38 Clouds 28 1014 69 11265 1.81 87.532 20:37 13.10.2019
39 Clouds 28 1014 69 11265 1.81 87.532 20:37 13.10.2019
40 Clouds 28 1014 69 11265 1.81 87.532 20:37 13.10.2019
41 Clouds 28 1014 69 11265 1.81 87.532 20:37 13.10.2019
42 Clouds 28 1014 69 11265 1.81 87.532 20:18 13.10.2019
43 Clouds 28 1015 69 11265 1.81 87.532 19:55 13.10.2019
44 Clouds 28 1015 69 11265 1.81 87.532 19:36 13.10.2019
45 Clouds 28 1015 69 11265 1.81 87.532 19:36 13.10.2019
46 Clouds 28 1015 69 11265 1.81 87.532 19:18 13.10.2019
47 Clouds 28 1016 65 11265 2.1 320 18:41 13.10.2019
48 Clouds 28 1016 65 11265 2.1 320 18:21 13.10.2019
49 Clouds 27 1016 74 11265 0.96 27.019 17:59 13.10.2019
50 Clouds 26 1016 74 11265 0.96 27.019 17:41 13.10.2019
51 Clouds 26 1016 74 11265 0.96 27.019 17:41 13.10.2019
52 Clouds 26 1016 74 11265 0.96 27.019 17:23 13.10.2019
53 Clouds 25 1015 83 11265 0.96 27.019 16:44 13.10.2019
54 Clouds 25 1015 83 11265 0.96 27.019 16:20 13.10.2019
55 Clouds 25 1015 83 11265 0.96 27.019 16:20 13.10.2019
56 Clouds 23 1014 94 8047 0.96 27.019 15:58 13.10.2019
57 Clouds 23 1014 94 8047 0.96 27.019 15:58 13.10.2019
58 Clouds 22 1014 94 8047 0.96 27.019 15:39 13.10.2019
59 Clouds 22 1014 94 8047 0.96 27.019 15:39 13.10.2019
60 Clouds 22 1014 94 8047 0.85 345.67 15:20 13.10.2019
61 Clouds 22 1014 94 9656 0.85 345.67 14:58 13.10.2019
62 Clouds 21 1014 94 9656 0.85 345.67 14:39 13.10.2019
63 Clouds 21 1014 94 9656 0.85 345.67 14:21 13.10.2019
64 Clouds 21 1014 94 11265 0.85 345.67 13:58 13.10.2019
65 Clouds 21 1014 94 11265 0.85 345.67 13:37 13.10.2019
66 Clouds 21 1014 94 11265 1.01 331.507 13:19 13.10.2019
67 Clouds 22 1012 79 0 0.89 263 12:56 13.10.2019
68 Clouds 22 1012 78 0 0.45 290 12:37 13.10.2019
69 Clouds 22 1012 78 0 0.45 301 12:18 13.10.2019
70 Clouds 20 1016 97 0 0.92 275.127 11:55 13.10.2019
71 Clouds 22 1012 74 0 1.34 309 11:37 13.10.2019
72 Clouds 20 1016 97 0 0.92 275.127 11:18 13.10.2019
73 Clouds 20 1016 97 0 0.92 275.127 11:18 13.10.2019
74 Clouds 23 1012 71 0 0.89 309 10:41 13.10.2019
75 Clouds 23 1012 71 0 0.89 309 10:41 13.10.2019
76 Clouds 23 1012 72 0 2.24 313 10:23 13.10.2019
77 Clouds 24 1012 71 0 1.79 325 09:41 13.10.2019
78 Clouds 24 1012 71 0 4.02 339 09:21 13.10.2019
79 Clouds 24 1012 71 0 4.02 339 09:21 13.10.2019
80 Clouds 24 1013 70 0 4.02 355 08:58 13.10.2019
81 Clouds 24 1013 70 0 4.02 355 08:58 13.10.2019
82 Clouds 25 1013 69 0 4.47 355 08:38 13.10.2019
83 Clouds 25 1013 69 0 4.47 5 08:19 13.10.2019
84 Clouds 25 1013 68 0 5.36 355 07:46 13.10.2019
85 Clouds 25 1013 68 0 4.02 360 07:21 13.10.2019
86 Clouds 25 1016 78 11265 5.1 360 06:41 13.10.2019
87 Clouds 25 1015 73 11265 9.3 360 05:39 13.10.2019
88 Clouds 25 1015 73 11265 8.2 20 04:46 13.10.2019
89 Clouds 25 1014 69 11265 8.7 20 03:51 13.10.2019
90 Clouds 26 1014 69 11265 7.7 360 02:41 13.10.2019
91 Clouds 26 1013 69 11265 8.7 10 01:53 13.10.2019
92 Clouds 26 1013 69 11265 8.7 10 01:30 13.10.2019
93 Clouds 26 1013 74 11265 7.7 360 00:47 13.10.2019
94 Clouds 26 1013 74 11265 7.7 360 00:47 13.10.2019
95 Clouds 26 1013 74 11265 7.7 360 00:21 13.10.2019
96 Clouds 27 1013 69 11265 6.7 350 23:56 12.10.2019
97 Clouds 27 1013 69 11265 6.7 350 23:37 12.10.2019
98 Clouds 27 1013 69 11265 6.7 350 23:19 12.10.2019
99 Clouds 27 1013 74 11265 4.1 360 22:57 12.10.2019
100 Clouds 28 1013 74 11265 4.1 360 22:38 12.10.2019
101 Clouds 28 1013 74 11265 4.1 360 22:20 12.10.2019
102 Rain 27 1014 78 8047 5.1 350 21:54 12.10.2019
103 Rain 27 1014 78 8047 5.1 350 21:36 12.10.2019
104 Rain 27 1014 78 8047 5.1 350 21:18 12.10.2019
105 Clouds 26 1015 94 8047 2.6 340 20:39 12.10.2019
106 Clouds 25 1015 94 8047 2.6 340 20:21 12.10.2019
107 Clouds 26 1016 88 8047 3.1 360 19:37 12.10.2019
108 Rain 25 1016 88 8047 3.1 360 19:19 12.10.2019
109 Rain 25 1016 94 9656 5.1 350 18:56 12.10.2019
110 Clouds 25 1016 94 9656 5.1 350 18:36 12.10.2019
111 Clouds 25 1016 94 9656 5.1 350 18:18 12.10.2019
112 Rain 26 1015 88 9656 5.1 360 17:42 12.10.2019
113 Rain 26 1015 88 9656 5.1 360 17:19 12.10.2019
114 Rain 25 1014 100 8047 3.6 350 16:42 12.10.2019
115 Rain 25 1014 94 8047 1.5 360 16:22 12.10.2019
116 Rain 24 1014 88 8047 2.1 80 15:59 12.10.2019
117 Rain 24 1014 88 8047 2.1 80 15:40 12.10.2019
118 Rain 24 1014 88 8047 2.1 80 15:21 12.10.2019
119 Rain 24 1014 88 8047 2.1 80 15:21 12.10.2019
120 Rain 24 1013 88 9656 2.1 330 14:41 12.10.2019
121 Clouds 24 1013 88 9656 2.1 330 14:21 12.10.2019
122 Clouds 24 1013 88 9656 2.1 330 14:21 12.10.2019
123 Clouds 24 1013 83 9656 2.1 360 13:53 12.10.2019
124 Clouds 24 1013 83 9656 2.1 360 13:53 12.10.2019
125 Clouds 24 1013 83 9656 2.1 360 13:33 12.10.2019
126 Rain 23 1010 80 0 1.34 284 12:59 12.10.2019
127 Rain 23 1010 81 0 1.79 288 12:38 12.10.2019
128 Rain 23 1010 81 0 1.34 281 12:20 12.10.2019
129 Rain 23 1010 81 0 1.34 281 11:56 12.10.2019
130 Rain 23 1010 81 0 1.34 292 11:38 12.10.2019
131 Rain 23 1010 81 0 1.34 292 11:38 12.10.2019
132 Rain 23 1010 81 0 1.79 290 11:18 12.10.2019
133 Rain 23 1010 81 0 2.24 303 10:40 12.10.2019
134 Rain 23 1011 81 0 3.13 278 10:22 12.10.2019
135 Rain 24 1011 81 0 2.24 282 09:57 12.10.2019
136 Rain 24 1011 80 0 1.34 288 09:39 12.10.2019
137 Rain 24 1011 79 0 1.79 296 09:20 12.10.2019
138 -273 0 0 0 0 0 08:55 12.10.2019
139 Rain 24 1012 78 0 2.68 284 08:36 12.10.2019
140 Rain 24 1012 78 0 4.02 292 08:18 12.10.2019
141 Rain 24 1012 78 0 4.02 292 08:18 12.10.2019
142 Rain 25 1012 76 0 2.24 326 07:32 12.10.2019
143 Clouds 28 1014 88 9656 1.51 311.891 06:38 12.10.2019
144 Clouds 28 1013 83 9656 1.75 328.924 05:44 12.10.2019
145 Clouds 28 1013 83 9656 1.75 328.924 04:43 12.10.2019
146 Clouds 28 1011 83 11265 1.75 328.924 03:56 12.10.2019
147 Clouds 29 1010 79 9656 2.1 100 02:54 12.10.2019
148 Clouds 30 1009 74 9656 2.1 100 01:35 12.10.2019
149 Clouds 31 1009 70 9656 3.1 100 00:57 12.10.2019
150 Clouds 31 1009 70 9656 3.1 100 00:38 12.10.2019
151 Clear 32 1009 66 8047 3.6 100 23:55 11.10.2019
152 Clear 32 1009 66 8047 3.6 100 23:37 11.10.2019
153 Clear 32 1009 66 8047 3.6 100 23:18 11.10.2019
154 Clouds 32 1010 62 11265 2.6 90 22:38 11.10.2019
155 Clouds 32 1010 62 11265 2.6 90 22:19 11.10.2019
156 Clouds 32 1011 70 11265 4.1 60 21:44 11.10.2019
157 Clouds 32 1011 70 11265 4.1 60 21:22 11.10.2019
158 Clouds 32 1011 70 8047 1.5 80 20:59 11.10.2019
159 Clouds 31 1011 70 8047 1.5 80 20:41 11.10.2019
160 Clouds 31 1011 70 8047 1.5 80 20:23 11.10.2019
161 Clouds 31 1012 70 9656 2.6 170 19:55 11.10.2019
162 Clouds 31 1012 70 9656 2.6 170 19:37 11.10.2019
163 Clouds 31 1012 70 9656 2.6 170 19:37 11.10.2019
164 Clouds 31 1012 70 9656 2.6 170 19:18 11.10.2019
165 Clouds 31 1012 70 9656 2.6 170 19:18 11.10.2019
166 Clouds 31 1012 70 9656 2.6 170 19:18 11.10.2019
167 Clouds 31 1012 70 9656 1.5 320 18:56 11.10.2019
168 Clouds 31 1012 70 9656 1.5 320 18:37 11.10.2019
169 Clouds 30 1012 70 9656 1.5 320 18:18 11.10.2019
170 Clouds 30 1012 70 9656 1.5 320 18:18 11.10.2019
171 Clouds 29 1012 83 11265 0.43 304.763 17:55 11.10.2019
172 Clouds 29 1012 83 11265 0.43 304.763 17:36 11.10.2019
173 Clouds 29 1012 83 11265 0.43 304.763 17:18 11.10.2019
174 Haze 28 1011 88 4828 0.43 304.763 16:40 11.10.2019
175 Haze 27 1011 88 4828 0.43 304.763 16:20 11.10.2019
176 Clear 26 1010 94 6437 0.43 304.763 15:59 11.10.2019
177 Clear 26 1010 94 6437 0.43 304.763 15:38 11.10.2019
178 Clear 25 1010 94 6437 1.47 271.284 15:19 11.10.2019
179 Clear 24 1010 100 9656 1.47 271.284 14:47 11.10.2019
180 Clear 24 1010 100 9656 1.47 271.284 14:29 11.10.2019
181 Clear 25 1010 94 9656 1.47 271.284 13:56 11.10.2019
182 Clear 25 1010 94 9656 1.47 271.284 13:38 11.10.2019
183 Clear 25 1010 94 9656 1.32 276.637 13:19 11.10.2019
184 Clear 25 1010 94 9656 1.32 276.637 12:54 11.10.2019
185 Clear 25 1010 94 9656 1.32 276.637 12:36 11.10.2019
186 Clouds 25 1008 82 0 0.9 265.553 12:18 11.10.2019
187 Clouds 26 1008 82 0 0.9 265.553 11:41 11.10.2019
188 Clouds 26 1008 81 0 0.9 265.553 11:22 11.10.2019
189 Clouds 26 1009 81 0 0.45 277 10:56 11.10.2019
190 Clouds 26 1009 81 0 0.45 277 10:38 11.10.2019
191 Clouds 26 1009 81 0 0.89 277 10:20 11.10.2019
192 Clouds 26 1009 81 0 0.89 277 10:20 11.10.2019
193 Clouds 26 1009 81 0 0.89 277 10:20 11.10.2019
194 Clouds 26 1009 81 0 0.89 275 09:55 11.10.2019
195 Clouds 26 1009 81 0 0.45 275 09:37 11.10.2019
196 Clouds 26 1009 81 0 1.34 275 09:18 11.10.2019
197 Clouds 26 1010 81 0 0.45 89 08:40 11.10.2019
198 Clouds 26 1010 81 0 0.45 89 08:21 11.10.2019
199 Clouds 26 1010 81 0 0.91 293.687 07:59 11.10.2019
200 Clouds 26 1010 81 0 0.91 293.687 07:40 11.10.2019
201 Clouds 26 1010 81 0 0.89 89 07:20 11.10.2019
202 Clear 26 1012 88 11265 0.91 293.687 06:44 11.10.2019
203 Clear 26 1012 88 11265 1.36 316.909 06:21 11.10.2019
204 Clouds 26 1012 94 11265 1.36 316.909 05:37 11.10.2019
205 Clear 27 1010 83 11265 1.36 316.909 04:59 11.10.2019
206 Clear 27 1010 83 11265 1.36 316.909 04:24 11.10.2019
207 Clouds 29 1008 74 11265 2.6 70 01:58 11.10.2019
208 Clouds 30 1008 74 11265 4.1 80 00:42 11.10.2019
209 Clouds 30 1008 74 11265 4.1 80 00:42 11.10.2019
210 Clouds 30 1008 74 11265 4.1 80 00:23 11.10.2019
211 Clouds 30 1008 74 11265 4.1 80 00:23 11.10.2019
212 Clouds 30 1009 66 11265 2.6 90 23:42 10.10.2019
213 Clouds 30 1009 66 11265 2.6 90 23:20 10.10.2019
214 Clouds 31 1009 66 11265 2.6 120 22:57 10.10.2019
215 Clouds 31 1009 66 11265 2.6 120 22:38 10.10.2019
216 Clouds 31 1009 66 11265 2.6 120 22:19 10.10.2019
217 Clouds 31 1010 66 11265 3.1 100 21:54 10.10.2019
218 Clouds 31 1010 66 11265 3.1 100 21:36 10.10.2019
219 Clouds 31 1010 66 11265 3.1 100 21:18 10.10.2019
220 Clouds 31 1011 70 11265 3.1 80 20:41 10.10.2019
221 Clouds 31 1011 70 11265 3.1 80 20:21 10.10.2019
222 Clouds 31 1012 66 11265 1 180 19:58 10.10.2019
223 Clouds 31 1012 66 11265 1 180 19:39 10.10.2019
224 Clouds 31 1012 66 11265 1 180 19:19 10.10.2019
225 Clouds 30 1013 70 11265 1.02 108.648 18:54 10.10.2019
226 Clouds 30 1013 70 11265 1.02 108.648 18:36 10.10.2019
227 Clouds 30 1013 70 11265 0.62 297.926 18:18 10.10.2019
228 Rain 28 1013 88 9656 0.62 297.926 17:40 10.10.2019
229 Rain 28 1013 88 9656 0.62 297.926 17:20 10.10.2019
230 Clouds 26 1013 100 8047 0.62 297.926 16:58 10.10.2019
231 Clouds 25 1013 100 8047 0.62 297.926 16:39 10.10.2019
232 Clouds 25 1013 100 8047 0.62 297.926 16:21 10.10.2019
233 Mist 25 1012 100 4828 0.62 297.926 15:43 10.10.2019
234 Fog 24 1012 100 805 1.54 280.595 15:23 10.10.2019
235 Clouds 24 1012 100 9656 1.54 280.595 14:59 10.10.2019
236 Clouds 24 1012 100 9656 1.54 280.595 14:37 10.10.2019
237 Clouds 24 1012 100 9656 1.54 280.595 14:19 10.10.2019
238 Clouds 24 1015 100 11265 1.54 280.595 13:58 10.10.2019
239 Clouds 24 1015 100 11265 1.54 280.595 13:39 10.10.2019
240 Clouds 24 1015 100 11265 1.36 281.235 13:18 10.10.2019
241 Clouds 24 1009 83 0 1.36 281.235 12:42 10.10.2019
242 Clouds 24 1009 83 0 0.45 229 12:21 10.10.2019
243 Clouds 22 1013 92 0 1.46 264.61 11:58 10.10.2019
244 Clouds 24 1009 83 0 1.46 264.61 11:40 10.10.2019
245 Clouds 24 1009 83 0 1.46 264.61 11:19 10.10.2019
246 Clouds 24 1009 83 0 1.46 264.61 10:57 10.10.2019
247 Rain 24 1010 83 0 0.89 229 10:39 10.10.2019
248 Rain 24 1010 83 0 0.89 229 10:20 10.10.2019
249 Rain 25 1010 83 0 0.89 229 09:41 10.10.2019
250 Rain 25 1011 82 0 1.34 182 09:23 10.10.2019
251 Rain 25 1011 82 0 1.34 182 08:59 10.10.2019
252 Rain 25 1011 82 0 0.45 107 08:40 10.10.2019
253 Rain 25 1011 81 0 0.89 141 08:21 10.10.2019
254 Clouds 26 1011 81 0 0.89 265 07:48 10.10.2019
255 Clouds 25 1011 81 0 0.89 57 07:26 10.10.2019
256 Clouds 25 1013 94 11265 1.35 264.37 06:56 10.10.2019
257 Clouds 25 1013 94 11265 1.35 264.37 06:38 10.10.2019
258 Clouds 26 1012 94 11265 1.16 257.016 05:50 10.10.2019
259 Clouds 26 1012 94 11265 1.16 257.016 05:19 10.10.2019
260 Clouds 27 1011 83 11265 1.16 257.016 04:35 10.10.2019
261 Clouds 28 1010 78 11265 2.6 360 02:42 10.10.2019
262 Clouds 29 1009 74 11265 3.6 20 01:37 10.10.2019
263 Clouds 29 1009 74 11265 3.6 20 01:18 10.10.2019
264 Clouds 29 1009 74 11265 3.6 20 01:18 10.10.2019
265 Clouds 30 1010 62 11265 5.1 70 00:38 10.10.2019
266 Clouds 31 1011 58 11265 7.7 50 23:55 09.10.2019
267 Clouds 31 1011 58 11265 7.7 50 23:36 09.10.2019
268 Clouds 31 1011 58 11265 7.7 50 23:18 09.10.2019
269 Clouds 31 1011 62 11265 5.7 360 22:41 09.10.2019
270 Clouds 31 1011 62 11265 5.7 360 22:22 09.10.2019
271 Clouds 31 1012 66 11265 6.7 20 21:57 09.10.2019
272 Clouds 31 1012 66 11265 6.7 20 21:38 09.10.2019
273 Clouds 31 1012 66 11265 6.7 20 21:19 09.10.2019
274 Clouds 31 1013 62 11265 5.1 330 20:55 09.10.2019
275 Clouds 31 1013 62 11265 5.1 330 20:36 09.10.2019
276 Clouds 30 1013 62 11265 5.1 330 20:18 09.10.2019
277 Clouds 30 1013 62 11265 5.1 330 20:18 09.10.2019
278 Clouds 30 1013 62 11265 5.1 330 20:18 09.10.2019
279 Clouds 30 1014 66 11265 2.1 360 19:43 09.10.2019
280 Clouds 30 1014 66 11265 2.1 360 19:23 09.10.2019
281 Clouds 28 1014 69 11265 4.1 350 18:39 09.10.2019
282 Clouds 28 1014 69 11265 4.1 350 18:21 09.10.2019
283 Clouds 27 1014 83 11265 3.1 340 17:58 09.10.2019
284 Rain 27 1014 83 11265 3.1 340 17:40 09.10.2019
285 Rain 27 1014 83 11265 3.1 340 17:22 09.10.2019
286 -273 0 0 0 0 0 16:57 09.10.2019
287 Clouds 25 1014 88 9656 4.1 330 16:39 09.10.2019
288 Clouds 25 1014 88 9656 4.1 330 16:21 09.10.2019
289 Clouds 25 1014 88 9656 4.1 330 16:21 09.10.2019
290 Clouds 25 1014 94 11265 3.6 330 15:57 09.10.2019
291 Rain 24 1014 94 11265 3.6 330 15:38 09.10.2019
292 Rain 24 1013 94 6437 5.1 350 15:19 09.10.2019
293 Rain 25 1014 88 6437 4.1 20 14:55 09.10.2019
294 Rain 26 1014 88 6437 4.1 20 14:36 09.10.2019
295 Rain 26 1014 88 6437 4.1 20 14:36 09.10.2019
296 Rain 25 1013 88 11265 4.1 10 14:18 09.10.2019
297 Rain 25 1012 83 8047 6.2 360 13:38 09.10.2019
298 Rain 25 1012 83 8047 6.2 360 13:19 09.10.2019
299 Rain 26 1010 72 0 4.02 17 12:55 09.10.2019
300 Rain 26 1010 75 0 4.92 360 12:37 09.10.2019
301 Rain 26 1010 74 0 5.36 355 12:18 09.10.2019
302 Rain 26 1010 75 0 4.92 360 11:40 09.10.2019
303 Rain 25 1010 76 0 2.24 10 11:20 09.10.2019
304 Rain 24 1010 77 0 2.68 351 10:59 09.10.2019
305 Rain 25 1010 72 0 1.79 339 10:40 09.10.2019
306 Clouds 26 1010 68 0 1.34 330 10:19 09.10.2019
307 Clouds 26 1010 68 0 1.34 330 10:19 09.10.2019
308 Clouds 26 1010 68 0 1.79 329 09:43 09.10.2019
309 Clouds 27 1010 65 0 3.13 335 09:21 09.10.2019
310 Clouds 28 1010 63 0 4.47 342 08:58 09.10.2019
311 Clouds 28 1011 63 0 4.47 349 08:39 09.10.2019
312 Clouds 28 1011 62 0 5.81 350 08:19 09.10.2019
313 Clouds 28 1011 63 0 5.36 355 07:47 09.10.2019
314 Clouds 27 1011 65 0 4.47 360 07:25 09.10.2019
315 Clouds 28 1013 69 11265 7.2 360 06:58 09.10.2019
316 Clouds 28 1013 69 11265 7.2 360 06:35 09.10.2019
317 Clouds 28 1013 69 11265 3.6 360 05:52 09.10.2019
318 Clouds 28 1012 74 11265 6.7 360 04:50 09.10.2019
319 Sand 27 1012 78 9656 6.7 10 03:47 09.10.2019
320 Sand 28 1010 78 9656 9.3 360 02:27 09.10.2019
321 Clouds 29 1010 74 11265 9.3 360 01:39 09.10.2019
322 Clouds 29 1010 74 11265 9.3 360 01:18 09.10.2019
323 Clouds 30 1010 66 9656 9.3 10 00:41 09.10.2019
324 Clouds 30 1010 66 9656 9.3 10 00:23 09.10.2019
325 Clouds 30 1010 66 11265 6.2 360 23:58 08.10.2019
326 Clouds 31 1010 66 11265 6.2 360 23:38 08.10.2019
327 Clouds 31 1010 66 11265 6.2 360 23:18 08.10.2019
328 Clouds 31 1010 66 11265 6.2 360 23:18 08.10.2019
329 Clouds 31 1011 66 11265 6.2 360 22:41 08.10.2019
330 Clouds 31 1011 66 11265 6.2 360 22:22 08.10.2019
331 Clouds 31 1011 62 11265 6.2 360 21:58 08.10.2019
332 Clouds 31 1011 62 11265 6.2 360 21:39 08.10.2019
333 Clouds 31 1011 62 11265 6.2 360 21:20 08.10.2019
334 Clouds 31 1012 58 11265 7.7 10 20:58 08.10.2019
335 Clouds 32 1012 58 11265 7.7 10 20:39 08.10.2019
336 Clouds 31 1012 58 11265 7.7 10 20:21 08.10.2019
337 Clouds 31 1014 66 11265 7.2 360 19:59 08.10.2019
338 Clouds 31 1014 66 11265 7.2 360 19:41 08.10.2019
339 Clouds 30 1014 66 11265 7.2 360 19:23 08.10.2019
340 Clouds 29 1014 74 9656 4.6 350 18:57 08.10.2019
341 Clouds 29 1014 74 9656 4.6 350 18:39 08.10.2019
342 Clouds 29 1014 74 9656 4.6 350 18:19 08.10.2019
343 Clouds 28 1014 78 9656 0.55 225.595 17:55 08.10.2019
344 Rain 28 1014 78 9656 0.55 225.595 17:36 08.10.2019
345 Rain 27 1014 78 9656 0.55 225.595 17:18 08.10.2019
346 Rain 25 1013 88 9656 0.55 225.595 16:40 08.10.2019
347 Clouds 25 1013 88 9656 0.55 225.595 16:22 08.10.2019
348 Clouds 24 1013 94 9656 0.55 225.595 15:56 08.10.2019
349 Clouds 23 1013 94 9656 0.55 225.595 15:37 08.10.2019
350 Clouds 23 1013 94 9656 1.09 231.299 15:19 08.10.2019
351 Clouds 23 1012 94 9656 2.1 350 14:42 08.10.2019
352 Clouds 23 1012 94 9656 2.1 350 14:21 08.10.2019
353 -273 0 0 0 0 0 13:57 08.10.2019
354 Clouds 24 1012 88 9656 3.6 330 13:39 08.10.2019
355 Clouds 24 1012 88 9656 3.6 330 13:19 08.10.2019
356 Clouds 24 1010 79 0 3.13 327 12:59 08.10.2019
357 Clouds 24 1010 79 0 3.58 336 12:38 08.10.2019
358 Rain 24 1010 80 0 3.58 313 12:18 08.10.2019
359 Rain 24 1011 80 0 4.02 325 11:43 08.10.2019
360 Rain 24 1010 81 0 3.58 322 11:24 08.10.2019
361 Rain 22 1014 92 0 1.3 280.807 10:58 08.10.2019
362 Rain 24 1011 82 0 3.13 334 10:38 08.10.2019
363 Rain 24 1011 82 0 2.68 326 10:20 08.10.2019
364 Rain 24 1011 82 0 1.34 306 09:56 08.10.2019
365 Rain 24 1011 82 0 1.34 306 09:56 08.10.2019
366 Rain 23 1011 82 0 0.89 32 09:37 08.10.2019
367 Rain 24 1011 81 0 0.89 90 09:19 08.10.2019
368 Rain 23 1011 81 0 1.34 98 08:42 08.10.2019
369 Rain 24 1011 80 0 1.34 96 08:23 08.10.2019
370 Rain 24 1011 80 0 3.58 327 07:45 08.10.2019
371 Rain 24 1011 80 0 5.36 333 07:21 08.10.2019
372 Drizzle 24 1014 94 9656 7.7 360 06:53 08.10.2019
373 Drizzle 25 1014 94 9656 7.7 360 06:29 08.10.2019
374 Clouds 25 1013 88 9656 5.1 360 05:55 08.10.2019
375 Clouds 25 1013 88 9656 5.1 360 05:36 08.10.2019
376 Rain 25 1012 88 9656 7.7 340 04:31 08.10.2019
377 Rain 25 1012 88 8047 7.7 350 03:28 08.10.2019
378 Clouds 28 1010 74 9656 6.2 350 02:37 08.10.2019
379 Clouds 28 1009 74 9656 7.7 360 01:47 08.10.2019
380 Clouds 28 1009 74 9656 7.7 360 01:27 08.10.2019
381 Clouds 29 1009 74 9656 9.3 360 00:46 08.10.2019
382 Clouds 29 1009 74 9656 9.3 360 00:21 08.10.2019
383 Clouds 29 1009 74 9656 7.7 360 23:40 07.10.2019
384 Clouds 29 1009 74 9656 7.7 360 23:20 07.10.2019
385 Clouds 29 1010 79 9656 8.2 350 22:56 07.10.2019
386 Clouds 29 1010 79 9656 8.2 350 22:38 07.10.2019
387 Clouds 29 1010 79 9656 8.2 350 22:20 07.10.2019
388 Clouds 30 1011 70 11265 6.2 40 21:56 07.10.2019
389 Clouds 30 1011 70 11265 6.2 40 21:37 07.10.2019
390 Clouds 30 1011 70 11265 6.2 40 21:19 07.10.2019
391 Clouds 30 1011 70 11265 6.2 40 21:19 07.10.2019
392 Clouds 31 1012 62 11265 0.85 23.163 20:57 07.10.2019
393 Clouds 31 1012 62 11265 0.85 23.163 20:39 07.10.2019
394 Clouds 31 1012 62 11265 0.85 23.163 20:19 07.10.2019
395 Clouds 31 1013 55 9656 0.85 23.163 19:56 07.10.2019
396 Clouds 31 1013 55 9656 0.85 23.163 19:38 07.10.2019
397 Clouds 31 1013 55 9656 0.85 23.163 19:18 07.10.2019
398 Clouds 31 1013 70 9656 0.85 23.163 18:55 07.10.2019
399 Clouds 30 1013 70 9656 0.85 23.163 18:37 07.10.2019
400 Clouds 30 1013 70 9656 0.56 120.806 18:18 07.10.2019
401 Clouds 29 1013 78 9656 0.56 120.806 17:41 07.10.2019
402 Clouds 28 1013 78 9656 0.56 120.806 17:19 07.10.2019
403 Clouds 27 1013 83 9656 0.56 120.806 16:55 07.10.2019
404 Clouds 27 1013 83 9656 0.56 120.806 16:55 07.10.2019
405 Clouds 27 1013 83 9656 0.56 120.806 16:55 07.10.2019
406 Clouds 27 1013 83 9656 0.56 120.806 16:55 07.10.2019
407 Clouds 27 1013 83 9656 0.56 120.806 16:37 07.10.2019
408 Clouds 27 1013 83 9656 0.56 120.806 16:18 07.10.2019
409 Clouds 24 1012 94 9656 0.56 120.806 15:41 07.10.2019
410 Clouds 24 1012 94 9656 0.56 120.806 15:41 07.10.2019
411 Clouds 24 1012 94 9656 0.56 120.806 15:41 07.10.2019
412 Clouds 24 1012 94 9656 1.04 268.345 15:22 07.10.2019
413 Clouds 24 1011 88 11265 1.04 268.345 14:42 07.10.2019
414 Clouds 24 1011 88 11265 1.04 268.345 14:42 07.10.2019
415 Clouds 24 1011 88 11265 1.04 268.345 14:23 07.10.2019
416 Clouds 24 1010 88 11265 1.04 268.345 13:59 07.10.2019
417 Clouds 24 1010 88 11265 1.04 268.345 13:40 07.10.2019
418 Clouds 24 1010 88 11265 1.25 276.057 13:18 07.10.2019
419 Clouds 24 1009 80 0 1.34 261 12:54 07.10.2019
420 Clouds 24 1009 80 0 0.45 261 12:36 07.10.2019
421 Clouds 24 1009 80 0 0.45 261 12:36 07.10.2019
422 Clouds 24 1009 80 0 1.05 260.817 12:18 07.10.2019
423 Clouds 24 1009 81 0 0.89 261 11:56 07.10.2019
424 Clouds 24 1009 81 0 0.89 261 11:36 07.10.2019
425 Clouds 24 1009 81 0 1.34 261 11:18 07.10.2019
426 Clouds 24 1009 79 0 0.45 225 10:40 07.10.2019
427 Clouds 24 1009 79 0 1.05 260.817 10:20 07.10.2019
428 Clouds 25 1009 75 0 0.89 225 09:42 07.10.2019
429 Rain 28 1009 66 0 1.79 321 09:23 07.10.2019
430 Rain 28 1009 67 0 4.92 9 08:55 07.10.2019
431 Clouds 28 1009 66 0 3.58 355 08:37 07.10.2019
432 Clouds 28 1010 66 0 4.02 5 08:18 07.10.2019
433 Clouds 28 1012 78 11265 5.1 330 07:40 07.10.2019
434 Clouds 28 1012 78 11265 5.1 330 07:20 07.10.2019
435 Clouds 28 1012 83 11265 5.7 360 06:44 07.10.2019
436 Clouds 28 1012 83 11265 5.7 360 06:22 07.10.2019
437 Clouds 28 1012 83 11265 3.1 360 05:27 07.10.2019
438 Clouds 28 1012 83 11265 5.1 360 04:58 07.10.2019
439 Clouds 28 1012 83 11265 5.1 360 04:20 07.10.2019
440 Clouds 28 1011 83 11265 6.7 350 03:39 07.10.2019
441 Clouds 28 1011 83 11265 6.7 350 03:18 07.10.2019
442 Clouds 29 1010 79 11265 9.3 360 02:20 07.10.2019
443 Clouds 30 1009 74 11265 7.2 20 01:42 07.10.2019
444 Clouds 30 1009 74 11265 7.2 20 01:18 07.10.2019
445 Clouds 30 1009 70 11265 8.2 10 00:38 07.10.2019
446 Clouds 30 1009 70 11265 8.2 10 00:19 07.10.2019
447 Clouds 32 1010 62 11265 6.7 10 23:42 06.10.2019
448 Clouds 32 1010 62 11265 6.7 10 23:21 06.10.2019
449 Clouds 31 1010 66 11265 5.1 30 22:58 06.10.2019
450 Clouds 31 1010 66 11265 5.1 30 22:40 06.10.2019
451 Clouds 32 1010 66 11265 5.1 30 22:21 06.10.2019
452 Clouds 32 1011 59 11265 6.2 20 21:57 06.10.2019
453 Clouds 32 1011 59 11265 6.2 20 21:37 06.10.2019
454 Clouds 32 1011 59 11265 6.2 20 21:37 06.10.2019
455 Clouds 32 1011 59 11265 6.2 20 21:37 06.10.2019
456 Clouds 32 1011 59 11265 6.2 20 21:19 06.10.2019
457 Clouds 32 1012 62 11265 2.1 320 20:57 06.10.2019
458 Clouds 32 1012 62 11265 2.1 320 20:38 06.10.2019
459 Clouds 32 1012 62 11265 2.1 320 20:20 06.10.2019
460 Clouds 32 1013 66 11265 1 250 19:57 06.10.2019
461 Clouds 31 1013 66 11265 1 250 19:37 06.10.2019
462 Clouds 31 1013 66 11265 1 250 19:18 06.10.2019
463 Clouds 31 1013 70 11265 1.18 98.062 18:56 06.10.2019
464 Clouds 31 1013 70 11265 1.18 98.062 18:56 06.10.2019
465 Clouds 30 1013 70 11265 1.18 98.062 18:37 06.10.2019
466 Clouds 30 1013 70 11265 0.17 289.093 18:18 06.10.2019
467 Clouds 29 1013 79 11265 0.17 289.093 17:43 06.10.2019
468 Clouds 29 1013 74 11265 0.17 289.093 17:20 06.10.2019
469 Clear 27 1013 83 11265 0.17 289.093 16:56 06.10.2019
470 Clear 27 1013 83 11265 0.17 289.093 16:38 06.10.2019
471 Clear 27 1013 83 11265 0.17 289.093 16:19 06.10.2019
472 Clouds 24 1012 94 11265 0.17 289.093 15:44 06.10.2019
473 Clouds 24 1012 94 11265 0.17 289.093 15:44 06.10.2019
474 Clouds 23 1012 94 11265 1.01 306.394 15:22 06.10.2019
475 Clear 23 1012 100 11265 1.01 306.394 14:57 06.10.2019
476 Clear 23 1012 100 11265 1.01 306.394 14:39 06.10.2019
477 Clear 23 1012 100 11265 1.01 306.394 14:20 06.10.2019
478 Clear 23 1011 100 11265 1.01 306.394 13:54 06.10.2019
479 Clear 23 1011 100 11265 1.01 306.394 13:54 06.10.2019
480 Clear 23 1011 100 11265 1.01 306.394 13:54 06.10.2019
481 Clear 23 1011 100 11265 1.01 306.394 13:36 06.10.2019
482 Clear 23 1011 100 11265 1.01 306.394 13:36 06.10.2019
483 Clear 23 1011 100 11265 1.07 296.685 13:18 06.10.2019
484 Clouds 24 1010 82 0 1.07 296.685 12:54 06.10.2019
485 Clouds 24 1010 82 0 1.07 296.685 12:54 06.10.2019
486 Clouds 24 1010 82 0 0.89 243 12:36 06.10.2019
487 Clouds 24 1009 82 0 1.34 243 12:18 06.10.2019
488 Clouds 24 1009 82 0 0.45 243 11:41 06.10.2019
489 Clouds 24 1010 81 0 0.45 243 11:23 06.10.2019
490 Clouds 24 1010 81 0 1.29 284.512 10:56 06.10.2019
491 Clouds 24 1010 81 0 1.29 284.512 10:37 06.10.2019
492 Clouds 24 1010 81 0 1.29 284.512 10:19 06.10.2019
493 Clouds 24 1010 81 0 1.29 284.512 10:19 06.10.2019
494 Clouds 24 1010 81 0 0.89 244 09:41 06.10.2019
495 Clouds 24 1010 81 0 0.89 244 09:41 06.10.2019
496 Rain 24 1011 80 0 0.45 241 09:19 06.10.2019
497 Rain 24 1011 80 0 0.45 241 09:19 06.10.2019
498 Rain 25 1011 79 0 0.45 241 08:48 06.10.2019
499 Clouds 26 1013 83 11265 1.68 253.141 08:22 06.10.2019
500 Clouds 26 1013 83 11265 1.68 253.141 07:58 06.10.2019
501 Clouds 27 1013 83 11265 1.68 253.141 07:39 06.10.2019
502 Clouds 28 1013 83 11265 2.6 20 06:50 06.10.2019
503 Clouds 28 1013 83 11265 2.1 350 05:41 06.10.2019
504 Clouds 28 1013 83 11265 2.1 350 05:41 06.10.2019
505 Clouds 28 1012 83 11265 4.1 20 04:35 06.10.2019
506 Clouds 28 1011 78 11265 4.6 20 02:53 06.10.2019
507 Clouds 28 1011 78 11265 4.6 20 02:30 06.10.2019
508 Clouds 29 1010 74 11265 7.2 10 01:48 06.10.2019
509 Clouds 29 1010 74 11265 7.2 10 01:30 06.10.2019
510 Clouds 30 1011 70 11265 4.6 360 00:59 06.10.2019
511 Clouds 30 1011 70 11265 4.6 360 00:59 06.10.2019
512 Clouds 30 1011 70 11265 4.6 360 00:33 06.10.2019
513 Clouds 31 1011 66 11265 5.1 10 23:58 05.10.2019
514 Clouds 31 1011 66 11265 5.1 10 23:40 05.10.2019
515 Clouds 31 1011 66 11265 5.1 10 23:19 05.10.2019
516 Clouds 31 1012 62 11265 4.1 20 22:54 05.10.2019
517 Clouds 31 1012 62 11265 4.1 20 22:54 05.10.2019
518 Clouds 31 1012 62 11265 4.1 20 22:36 05.10.2019
519 Clouds 31 1012 62 11265 4.1 20 22:18 05.10.2019
520 Clouds 32 1013 59 11265 5.1 10 21:40 05.10.2019
521 Clouds 32 1013 59 11265 5.1 10 21:21 05.10.2019
522 Clouds 31 1014 58 11265 5.7 20 20:57 05.10.2019
523 Clouds 31 1014 58 11265 5.7 20 20:39 05.10.2019
524 Clouds 31 1014 58 11265 5.7 20 20:19 05.10.2019
525 Clouds 31 1014 66 11265 1.31 94.426 19:40 05.10.2019
526 Clouds 30 1014 66 11265 1.31 94.426 19:22 05.10.2019
527 Clouds 30 1014 70 11265 1.31 94.426 18:57 05.10.2019
528 Clouds 30 1014 70 11265 1.31 94.426 18:39 05.10.2019
529 Clouds 30 1014 70 11265 0.72 357.434 18:20 05.10.2019
530 Clouds 29 1014 74 9656 0.72 357.434 17:55 05.10.2019
531 Clouds 29 1014 74 9656 0.72 357.434 17:55 05.10.2019
532 Clouds 29 1014 74 9656 0.72 357.434 17:37 05.10.2019
533 Clouds 29 1014 74 9656 0.72 357.434 17:18 05.10.2019
534 Clouds 27 1014 83 9656 0.72 357.434 16:42 05.10.2019
535 Clouds 26 1014 83 9656 0.72 357.434 16:21 05.10.2019
536 Clear 25 1014 94 9656 0.72 357.434 15:57 05.10.2019
537 Clear 24 1014 94 9656 0.72 357.434 15:39 05.10.2019
538 Clear 24 1014 94 9656 1.4 288.864 15:21 05.10.2019
539 Clear 23 1014 94 9656 1.4 288.864 14:57 05.10.2019
540 Clear 23 1014 94 9656 1.4 288.864 14:38 05.10.2019
541 Rain 23 1014 94 9656 1.4 288.864 14:20 05.10.2019
542 Rain 23 1013 94 9656 1.4 288.864 13:41 05.10.2019
543 Clear 23 1013 94 9656 1.47 278.465 13:22 05.10.2019
544 Clouds 23 1011 84 0 1.47 278.465 12:46 05.10.2019
545 Rain 24 1011 83 0 0.89 211 12:21 05.10.2019
546 Rain 24 1011 83 0 0.89 211 11:58 05.10.2019
547 Rain 24 1011 83 0 0.89 211 11:37 05.10.2019
548 Rain 24 1012 83 0 1.34 211 11:18 05.10.2019
549 Rain 24 1012 83 0 0.89 211 10:44 05.10.2019
550 Rain 24 1012 83 0 0.89 211 10:25 05.10.2019
551 Rain 24 1012 83 0 0.45 211 09:58 05.10.2019
552 Rain 24 1012 82 0 0.89 211 09:38 05.10.2019
553 Rain 24 1012 82 0 1.34 211 09:20 05.10.2019
554 Rain 25 1013 81 0 2.1 235.448 08:39 05.10.2019
555 Rain 25 1013 81 0 2.1 235.448 08:19 05.10.2019
556 Rain 26 1013 80 0 0.89 200 07:57 05.10.2019
557 Rain 26 1013 79 0 1.34 255 07:34 05.10.2019
558 Clouds 27 1015 83 11265 2.6 360 06:58 05.10.2019
559 Clouds 27 1015 83 11265 2.6 360 06:27 05.10.2019
560 Clouds 28 1014 83 11265 3.1 360 05:40 05.10.2019
561 Clouds 28 1013 78 11265 4.1 40 03:57 05.10.2019
562 Clouds 28 1013 78 11265 4.1 40 03:28 05.10.2019
563 Clouds 30 1012 66 11265 6.2 20 01:41 05.10.2019
564 Clouds 30 1012 66 11265 6.2 20 01:18 05.10.2019
565 Clouds 30 1012 66 11265 6.2 30 00:41 05.10.2019
566 Clouds 30 1012 66 11265 6.2 30 00:23 05.10.2019
567 Clouds 31 1012 62 11265 6.7 20 23:44 04.10.2019
568 Clouds 31 1012 62 11265 6.7 20 23:25 04.10.2019
569 Clouds 31 1012 62 11265 6.7 20 23:25 04.10.2019
570 Clouds 31 1013 62 11265 5.1 360 22:59 04.10.2019
571 Clouds 31 1013 62 11265 5.1 360 22:39 04.10.2019
572 Clouds 31 1013 62 11265 5.1 360 22:20 04.10.2019
573 Clouds 32 1013 62 11265 6.2 20 21:56 04.10.2019
574 Clouds 32 1013 62 11265 6.2 20 21:38 04.10.2019
575 Clouds 31 1013 62 11265 6.2 20 21:19 04.10.2019
576 Clouds 31 1014 66 11265 4.1 360 20:54 04.10.2019
577 Clouds 31 1014 66 11265 4.1 360 20:36 04.10.2019
578 Clouds 31 1014 66 11265 4.1 360 20:18 04.10.2019
579 Clouds 31 1015 74 11265 3.6 10 19:41 04.10.2019
580 Clouds 31 1015 74 11265 3.6 10 19:23 04.10.2019
581 Clouds 30 1015 70 11265 3.1 360 18:56 04.10.2019
582 Clouds 30 1015 70 11265 3.1 360 18:37 04.10.2019
583 Clouds 30 1015 70 11265 3.1 360 18:18 04.10.2019
584 Clouds 28 1015 83 11265 0.89 240.983 17:41 04.10.2019
585 Clouds 28 1015 83 11265 0.89 240.983 17:41 04.10.2019
586 Clouds 28 1015 83 11265 0.89 240.983 17:22 04.10.2019
587 Clouds 26 1014 88 11265 0.89 240.983 16:59 04.10.2019
588 Clouds 25 1014 88 11265 0.89 240.983 16:41 04.10.2019
589 Clouds 25 1014 88 11265 0.89 240.983 16:19 04.10.2019
590 Clouds 25 1014 88 11265 0.89 240.983 16:19 04.10.2019
591 Clouds 24 1014 88 11265 0.89 240.983 15:58 04.10.2019
592 Clouds 24 1014 88 11265 0.89 240.983 15:39 04.10.2019
593 Clouds 24 1014 88 11265 1.38 268.011 15:20 04.10.2019
594 Clear 24 1014 88 11265 1.38 268.011 14:57 04.10.2019
595 Clear 24 1014 88 11265 1.38 268.011 14:39 04.10.2019
596 Clear 24 1014 88 11265 1.38 268.011 14:21 04.10.2019
597 Clear 24 1014 88 11265 1.38 268.011 13:45 04.10.2019
598 Clear 24 1014 88 11265 1.41 268.501 13:22 04.10.2019
599 Clear 23 1012 83 0 0.45 134 12:56 04.10.2019
600 Clear 23 1012 83 0 0.45 134 12:37 04.10.2019
601 Clear 23 1012 83 0 1.27 260.084 12:18 04.10.2019
602 Clear 23 1012 83 0 0.89 134 11:42 04.10.2019
603 Clear 23 1012 83 0 0.89 134 11:42 04.10.2019
604 Clear 23 1012 83 0 0.89 134 11:42 04.10.2019
605 Clear 23 1012 83 0 0.89 134 11:42 04.10.2019
606 Clear 23 1012 83 0 0.89 134 11:42 04.10.2019
607 Clear 23 1012 82 0 1.27 260.084 11:21 04.10.2019
608 Clear 23 1012 82 0 1.27 260.084 11:21 04.10.2019
609 Clear 24 1012 82 0 1.27 260.084 10:42 04.10.2019
610 Clear 24 1012 82 0 0.45 134 10:21 04.10.2019
611 Clear 24 1012 82 0 0.45 134 10:21 04.10.2019
612 Clear 24 1012 82 0 0.45 134 09:58 04.10.2019
613 Clear 24 1012 82 0 0.45 134 09:58 04.10.2019
614 Clear 24 1012 81 0 0.45 134 09:40 04.10.2019
615 Rain 24 1012 80 0 0.89 134 09:22 04.10.2019
616 Rain 26 1013 79 0 0.89 271 08:44 04.10.2019
617 Rain 26 1013 79 0 0.89 271 08:25 04.10.2019
618 Rain 26 1013 79 0 0.89 271 07:47 04.10.2019
619 Rain 26 1012 79 0 0.89 269 07:24 04.10.2019
620 Clouds 27 1014 83 11265 1.5 270 06:56 04.10.2019
621 Clouds 27 1014 83 11265 1.5 270 06:56 04.10.2019
622 Clouds 27 1014 83 11265 1.5 270 06:37 04.10.2019
623 Clouds 26 1014 83 11265 1.5 270 06:18 04.10.2019
624 Clouds 26 1014 83 11265 1.5 270 06:18 04.10.2019
625 Clouds 27 1014 83 11265 2.6 350 05:19 04.10.2019
626 Clouds 27 1013 83 11265 2.6 360 04:35 04.10.2019
627 Clouds 28 1011 78 11265 4.1 20 02:56 04.10.2019
628 Clouds 28 1011 78 11265 4.1 20 02:37 04.10.2019
629 Clouds 28 1011 78 11265 4.1 20 02:37 04.10.2019
630 Clouds 29 1011 79 11265 3.6 30 01:43 04.10.2019
631 Clouds 29 1011 79 11265 3.6 30 01:25 04.10.2019
632 Clouds 30 1011 79 11265 5.1 70 00:29 04.10.2019
633 Clouds 30 1011 79 11265 1.5 80 23:38 03.10.2019
634 Clouds 30 1011 79 11265 1.5 80 23:20 03.10.2019
635 Clouds 30 1012 79 11265 3.6 90 22:57 03.10.2019
636 Clouds 30 1012 79 11265 3.6 90 22:39 03.10.2019
637 Clouds 30 1012 79 11265 3.6 90 22:39 03.10.2019
638 Clouds 30 1012 79 11265 3.6 90 22:21 03.10.2019
639 Clouds 30 1012 79 11265 3.1 70 21:56 03.10.2019
640 Clouds 30 1012 79 11265 3.1 70 21:38 03.10.2019
641 Clouds 31 1012 79 11265 3.1 70 21:19 03.10.2019
642 Clouds 30 1013 74 11265 3.6 10 20:57 03.10.2019
643 Clouds 30 1013 74 11265 3.6 10 20:37 03.10.2019
644 Clouds 30 1013 74 11265 3.6 10 20:37 03.10.2019
645 Clouds 29 1013 74 11265 3.6 10 20:19 03.10.2019
646 Clouds 31 1014 79 11265 2.6 10 19:55 03.10.2019
647 Clouds 30 1014 79 11265 2.6 10 19:36 03.10.2019
648 Clouds 30 1014 79 11265 2.6 10 19:18 03.10.2019
649 Clouds 30 1014 83 9656 2.6 360 18:54 03.10.2019
650 Clouds 30 1014 83 9656 2.6 360 18:36 03.10.2019
651 Clouds 30 1014 83 9656 2.6 360 18:18 03.10.2019
652 Clouds 29 1013 83 9656 0.99 257.383 17:42 03.10.2019
653 Clouds 29 1013 83 9656 0.99 257.383 17:20 03.10.2019
654 Clouds 27 1013 88 11265 1.5 300 16:54 03.10.2019
655 Clouds 27 1013 88 11265 1.5 300 16:54 03.10.2019
656 Clouds 27 1013 88 11265 1.5 300 16:36 03.10.2019
657 Clouds 27 1013 88 11265 1.5 300 16:18 03.10.2019
658 Clouds 26 1013 94 9656 0.99 257.383 15:42 03.10.2019
659 Clouds 25 1013 94 9656 1.7 277.288 15:23 03.10.2019
660 Clouds 25 1012 94 11265 1.7 277.288 14:56 03.10.2019
661 Clouds 25 1012 94 11265 1.7 277.288 14:56 03.10.2019
662 Clouds 25 1012 94 11265 1.7 277.288 14:36 03.10.2019
663 Clouds 25 1012 94 11265 1.7 277.288 14:18 03.10.2019
664 Clouds 24 1012 94 11265 1.7 277.288 13:43 03.10.2019
665 Clouds 24 1012 94 11265 1.72 275.065 13:22 03.10.2019
666 Clouds 24 1010 81 0 1.72 275.065 12:58 03.10.2019
667 Clouds 24 1009 82 0 0.89 91 12:39 03.10.2019
668 Clouds 24 1009 82 0 0.89 91 12:39 03.10.2019
669 Clouds 24 1009 81 0 1.45 268.462 12:19 03.10.2019
670 Clouds 24 1009 81 0 1.45 268.462 12:19 03.10.2019
671 Clouds 24 1009 81 0 0.89 92 11:55 03.10.2019
672 Clouds 24 1009 80 0 1.45 268.462 11:37 03.10.2019
673 Clouds 24 1009 80 0 0.45 92 11:18 03.10.2019
674 Clouds 24 1009 81 0 0.45 92 10:41 03.10.2019
675 Clouds 24 1010 80 0 1.45 268.462 10:19 03.10.2019
676 Clouds 24 1010 80 0 1.45 268.462 09:59 03.10.2019
677 Clouds 24 1010 80 0 0.45 92 09:40 03.10.2019
678 Rain 25 1010 79 0 1.14 263.299 09:21 03.10.2019
679 Rain 26 1010 78 0 1.14 263.299 08:55 03.10.2019
680 Rain 26 1010 80 0 0.45 92 08:36 03.10.2019
681 Rain 25 1011 79 0 1.14 247.65 08:18 03.10.2019
682 Rain 25 1011 79 0 0.89 317 07:41 03.10.2019
683 Rain 25 1011 78 0 0.45 317 07:19 03.10.2019
684 Clouds 26 1013 83 11265 1.14 247.65 06:51 03.10.2019
685 Clouds 26 1013 83 11265 1.26 264.353 06:25 03.10.2019
686 Clouds 27 1012 83 11265 1.5 330 05:47 03.10.2019
687 Clouds 27 1012 83 11265 1.5 330 05:20 03.10.2019
688 Clouds 27 1011 83 11265 2.6 360 04:39 03.10.2019
689 Clouds 28 1010 83 11265 4.1 30 03:24 03.10.2019
690 Clouds 29 1010 79 11265 2.6 360 02:43 03.10.2019
691 Clouds 30 1009 79 11265 2.6 60 01:59 03.10.2019
692 Clouds 30 1009 79 11265 2.6 60 01:37 03.10.2019
693 Clouds 30 1010 79 11265 4.1 50 00:51 03.10.2019
694 Clouds 30 1010 79 11265 4.1 50 00:23 03.10.2019
695 Clouds 31 1010 74 11265 4.6 40 23:44 02.10.2019
696 Clouds 31 1010 74 11265 4.6 40 23:22 02.10.2019
697 Clouds 31 1011 70 11265 5.7 30 22:46 02.10.2019
698 Clouds 31 1011 70 11265 5.7 30 22:23 02.10.2019
699 Clouds 31 1011 66 11265 4.6 20 21:58 02.10.2019
700 Clouds 31 1011 66 11265 4.6 20 21:58 02.10.2019
701 Clouds 31 1011 66 11265 4.6 20 21:39 02.10.2019
702 Clouds 31 1011 66 11265 4.6 20 21:20 02.10.2019
703 Clouds 31 1012 66 11265 5.1 360 20:57 02.10.2019
704 Clouds 31 1012 66 11265 5.1 360 20:39 02.10.2019
705 Clouds 31 1012 66 11265 5.1 360 20:20 02.10.2019
706 Clouds 30 1013 79 11265 4.1 20 19:56 02.10.2019
707 Clouds 30 1013 79 11265 4.1 20 19:38 02.10.2019
708 Clouds 30 1013 79 11265 4.1 20 19:19 02.10.2019
709 Clouds 29 1013 88 11265 3.1 340 18:56 02.10.2019
710 Clouds 28 1013 88 11265 3.1 340 18:37 02.10.2019
711 Clouds 28 1013 88 11265 3.1 340 18:19 02.10.2019
712 Rain 27 1013 94 9656 3.1 340 17:42 02.10.2019
713 Rain 25 1013 94 9656 3.1 340 17:21 02.10.2019
714 Rain 25 1013 94 9656 3.1 340 17:21 02.10.2019
715 Rain 25 1012 100 3219 3.1 60 16:59 02.10.2019
716 Rain 25 1012 100 3219 3.1 60 16:39 02.10.2019
717 Rain 25 1012 100 3219 1.5 60 16:20 02.10.2019
718 Rain 25 1012 100 3219 1.5 60 15:57 02.10.2019
719 Clouds 26 1012 94 9656 0.82 287.949 15:38 02.10.2019
720 Clouds 26 1012 94 9656 1.45 289.771 15:18 02.10.2019
721 Clouds 26 1011 94 11265 1.45 289.771 14:55 02.10.2019
722 Clouds 25 1011 94 11265 1.45 289.771 14:36 02.10.2019
723 Clouds 25 1011 94 11265 1.45 289.771 14:36 02.10.2019
724 Clouds 25 1011 94 11265 1.45 289.771 14:18 02.10.2019
725 Clear 25 1010 94 11265 1.45 289.771 13:41 02.10.2019
726 Clear 25 1010 94 11265 1.46 290.093 13:22 02.10.2019
727 Clear 25 1010 94 11265 1.46 290.093 12:54 02.10.2019
728 Clouds 24 1008 79 0 0.45 338 12:36 02.10.2019
729 Rain 24 1008 79 0 0.89 338 12:18 02.10.2019
730 Rain 24 1008 79 0 0.89 338 12:18 02.10.2019
731 Rain 25 1009 79 0 1.34 339 11:41 02.10.2019
732 Rain 25 1009 79 0 1.34 339 11:21 02.10.2019
733 Rain 24 1009 79 0 1.62 283.599 10:40 02.10.2019
734 Rain 24 1009 79 0 1.62 283.599 10:19 02.10.2019
735 Rain 25 1009 79 0 0.45 263 09:42 02.10.2019
736 Rain 25 1009 79 0 0.45 263 09:20 02.10.2019
737 Clouds 26 1012 83 11265 1.59 291.346 08:57 02.10.2019
738 Clouds 26 1012 83 11265 1.58 287.608 08:39 02.10.2019
739 Clouds 26 1012 83 11265 1.58 287.608 08:20 02.10.2019
740 Clouds 26 1012 83 11265 1.58 287.608 07:55 02.10.2019
741 Clouds 26 1012 83 11265 1.58 287.608 07:36 02.10.2019
742 Clouds 26 1012 83 11265 1.58 287.608 07:36 02.10.2019
743 Clouds 26 1012 83 11265 1.58 287.608 07:18 02.10.2019
744 Clouds 26 1012 83 11265 1.58 287.608 06:27 02.10.2019
745 Clouds 27 1012 88 11265 2.6 10 05:51 02.10.2019
746 Clouds 27 1012 88 11265 2.6 10 05:21 02.10.2019
747 Clouds 28 1011 83 11265 2.6 10 04:18 02.10.2019
748 Clouds 29 1010 83 11265 2.6 20 03:45 02.10.2019
749 Clouds 29 1009 83 11265 2.6 30 02:38 02.10.2019
750 Clouds 29 1009 83 11265 2.6 30 02:20 02.10.2019
751 Clouds 31 1009 79 11265 4.6 10 00:53 02.10.2019
752 Clouds 31 1009 79 11265 4.6 10 00:30 02.10.2019
753 Clouds 31 1009 79 11265 5.7 60 23:56 01.10.2019
754 Clouds 31 1009 79 11265 5.7 60 23:37 01.10.2019
755 Clouds 31 1009 79 11265 5.7 60 23:19 01.10.2019
756 Clouds 31 1010 79 11265 4.1 350 22:58 01.10.2019
757 Clouds 31 1010 79 11265 4.1 350 22:37 01.10.2019
758 Clouds 31 1010 79 11265 4.1 350 22:18 01.10.2019
759 Clouds 31 1011 84 11265 6.2 10 21:43 01.10.2019
760 Clouds 31 1011 84 11265 6.2 10 21:22 01.10.2019
761 Clouds 31 1012 79 11265 3.6 50 20:58 01.10.2019
762 Clouds 31 1012 79 11265 3.6 50 20:39 01.10.2019
763 Clouds 31 1012 79 11265 3.6 50 20:20 01.10.2019
764 Clouds 31 1012 84 11265 4.6 50 19:58 01.10.2019
765 Clouds 30 1012 84 11265 4.6 50 19:39 01.10.2019
766 Clouds 30 1012 84 11265 4.6 50 19:21 01.10.2019
767 Clouds 31 1012 84 11265 2.6 20 18:56 01.10.2019
768 Clouds 30 1012 84 11265 2.6 20 18:38 01.10.2019
769 Clouds 30 1012 84 11265 2.6 20 18:19 01.10.2019
770 Clouds 29 1012 83 11265 1.5 310 17:43 01.10.2019
771 Clouds 29 1012 83 11265 1.5 310 17:20 01.10.2019
772 Clouds 28 1012 83 11265 1.54 351.045 16:59 01.10.2019
773 Clouds 28 1012 83 11265 1.54 351.045 16:40 01.10.2019
774 Clouds 28 1012 83 11265 1.54 351.045 16:22 01.10.2019
775 Clouds 27 1012 88 11265 1.54 351.045 15:48 01.10.2019
776 Clouds 26 1012 88 11265 1.77 286.653 15:24 01.10.2019
777 Clouds 26 1011 94 9656 1.77 286.653 14:58 01.10.2019
778 Clouds 25 1011 94 9656 1.77 286.653 14:38 01.10.2019
779 Clouds 25 1011 94 9656 1.77 286.653 14:19 01.10.2019
780 Thunderstorm 25 1011 94 9656 1.77 286.653 13:56 01.10.2019
781 Thunderstorm 25 1011 94 9656 1.77 286.653 13:37 01.10.2019
782 Thunderstorm 25 1011 94 9656 1.83 290.237 13:18 01.10.2019
783 Rain 23 1009 80 0 0.45 273 12:54 01.10.2019
784 Rain 23 1009 80 0 1.34 271 12:36 01.10.2019
785 Clear 24 1009 80 0 1.48 293.372 12:18 01.10.2019
786 Clear 24 1009 79 0 1.48 293.372 11:54 01.10.2019
787 Clear 24 1009 79 0 1.48 293.372 11:36 01.10.2019
788 Clear 24 1009 79 0 1.48 293.372 11:18 01.10.2019
789 Clear 24 1009 76 0 0.89 309 10:43 01.10.2019
790 Clear 24 1009 76 0 1.79 301 10:24 01.10.2019
791 Clear 25 1010 73 0 0.89 295 09:44 01.10.2019
792 Clear 25 1010 73 0 0.89 295 09:25 01.10.2019
793 Clear 25 1010 73 0 0.89 295 09:25 01.10.2019
794 Clouds 26 1010 79 0 2.24 278 08:44 01.10.2019
795 Clouds 27 1010 80 0 0.89 303 08:25 01.10.2019
796 Clouds 27 1010 81 0 0.89 303 07:49 01.10.2019
797 Clouds 27 1010 81 0 0.45 60 07:26 01.10.2019
798 Clear 28 1012 74 11265 1 60 06:51 01.10.2019
799 Clear 28 1012 74 11265 1 60 06:25 01.10.2019
800 Clear 29 1011 70 11265 2.6 60 05:50 01.10.2019
801 Clear 29 1011 70 11265 2.6 60 05:20 01.10.2019
802 Clouds 29 1011 70 11265 2.6 60 04:35 01.10.2019
803 Clouds 29 1010 70 11265 1.5 60 03:32 01.10.2019
804 Clouds 29 1009 70 11265 1.66 80.748 02:19 01.10.2019
805 Clouds 30 1009 70 11265 3.1 70 01:41 01.10.2019
806 Clouds 30 1009 74 11265 1.5 110 00:42 01.10.2019
807 Clouds 30 1009 74 11265 1.5 110 00:24 01.10.2019
808 Clouds 30 1009 79 11265 2.1 120 23:42 30.09.2019
809 Clouds 30 1009 79 11265 2.1 120 23:22 30.09.2019
810 Clouds 31 1010 74 11265 3.1 90 22:46 30.09.2019
811 Clouds 30 1010 74 11265 3.1 90 22:27 30.09.2019
812 Rain 31 1011 70 11265 1.5 160 21:58 30.09.2019
813 Rain 31 1011 70 11265 1.5 160 21:40 30.09.2019
814 Rain 31 1011 70 11265 1.5 160 21:20 30.09.2019
815 Rain 32 1011 70 11265 2.27 149.604 20:58 30.09.2019
816 Clouds 32 1011 70 11265 2.27 149.604 20:40 30.09.2019
817 Clouds 32 1011 70 11265 1.86 135.719 20:21 30.09.2019
818 Clouds 31 1012 74 11265 2.1 180 19:58 30.09.2019
819 Clouds 31 1012 74 11265 2.1 180 19:40 30.09.2019
820 Clouds 31 1012 74 11265 2.1 180 19:20 30.09.2019
821 Clouds 30 1013 74 11265 2.1 220 18:58 30.09.2019
822 Clouds 30 1013 74 11265 2.1 220 18:40 30.09.2019
823 Clouds 30 1013 74 11265 2.1 220 18:20 30.09.2019
824 Clouds 29 1013 83 11265 0.6 0.289 17:55 30.09.2019
825 Clouds 29 1013 83 11265 0.6 0.289 17:37 30.09.2019
826 Clouds 28 1013 83 11265 0.6 0.289 17:18 30.09.2019
827 Clouds 28 1013 83 9656 0.6 0.289 16:42 30.09.2019
828 Clouds 28 1013 83 9656 0.6 0.289 16:20 30.09.2019
829 Clouds 27 1013 88 11265 0.6 0.289 15:59 30.09.2019
830 Clouds 27 1013 88 11265 0.6 0.289 15:59 30.09.2019
831 Clouds 26 1013 88 11265 0.6 0.289 15:38 30.09.2019
832 Clouds 26 1013 88 11265 0.65 238.154 15:19 30.09.2019
833 Clouds 25 1013 94 9656 0.65 238.154 14:58 30.09.2019
834 Clouds 25 1013 94 9656 0.65 238.154 14:38 30.09.2019
835 Clouds 25 1013 94 9656 0.65 238.154 14:19 30.09.2019
836 Clouds 25 1013 94 9656 0.65 238.154 14:19 30.09.2019
837 Clouds 25 1013 94 11265 0.65 238.154 13:58 30.09.2019
838 Clouds 25 1013 94 11265 0.65 238.154 13:40 30.09.2019
839 Clouds 25 1013 94 11265 0.88 306.492 13:20 30.09.2019
840 Clouds 24 1011 83 0 0.88 306.492 12:44 30.09.2019
841 Rain 24 1010 84 0 0.89 247 12:23 30.09.2019
842 Rain 24 1010 84 0 0.68 267.628 11:59 30.09.2019
843 Rain 24 1010 84 0 0.68 267.628 11:59 30.09.2019
844 Rain 24 1010 83 0 0.68 267.628 11:40 30.09.2019
845 Rain 24 1010 83 0 0.45 247 11:20 30.09.2019
846 Rain 24 1010 83 0 0.68 267.628 10:55 30.09.2019
847 Rain 24 1010 83 0 0.68 267.628 10:37 30.09.2019
848 Rain 24 1010 83 0 0.68 267.628 10:18 30.09.2019
849 Rain 24 1010 82 0 0.68 267.628 09:40 30.09.2019
850 Rain 24 1010 82 0 0.68 267.628 09:40 30.09.2019
851 Rain 24 1010 82 0 1.37 144.351 09:21 30.09.2019
852 Rain 25 1011 82 0 0.45 247 08:51 30.09.2019
853 Clouds 24 1011 82 0 0.45 247 08:33 30.09.2019
854 Clouds 26 1013 78 11265 0.68 190.63 07:47 30.09.2019
855 Clouds 26 1013 78 11265 0.68 190.63 07:28 30.09.2019
856 Clouds 26 1013 83 11265 0.68 190.63 06:59 30.09.2019
857 Clouds 26 1013 83 11265 0.68 190.63 06:41 30.09.2019
858 Clouds 26 1012 78 11265 1 170 05:56 30.09.2019
859 Clouds 27 1012 78 11265 1 170 05:38 30.09.2019
860 Clouds 27 1011 78 11265 1.5 190 02:50 30.09.2019
861 Clouds 27 1010 74 11265 3.6 170 01:50 30.09.2019
862 Clouds 27 1010 78 11265 2.1 190 00:57 30.09.2019
863 Clouds 27 1010 78 11265 2.1 190 00:37 30.09.2019
864 Clouds 27 1010 78 11265 2.1 190 00:18 30.09.2019
865 Clouds 28 1010 89 11265 3.6 180 23:39 29.09.2019
866 Clouds 28 1010 89 11265 3.6 180 23:20 29.09.2019
867 Clouds 29 1011 84 11265 2.6 190 22:44 29.09.2019
868 Clouds 28 1011 84 11265 2.6 190 22:25 29.09.2019
869 Clouds 28 1012 89 11265 2.6 180 21:59 29.09.2019
870 Clouds 28 1012 89 11265 2.6 180 21:39 29.09.2019
871 Clouds 28 1012 89 11265 2.6 180 21:20 29.09.2019
872 Rain 27 1013 94 11265 3.1 170 20:59 29.09.2019
873 Rain 27 1013 94 11265 3.1 170 20:41 29.09.2019
874 Rain 27 1013 94 11265 3.1 170 20:19 29.09.2019
875 Clouds 27 1013 94 9656 1.5 160 19:55 29.09.2019
876 Clouds 26 1013 94 9656 1.5 160 19:36 29.09.2019
877 Clouds 26 1013 94 9656 1.5 160 19:18 29.09.2019
878 Rain 26 1013 94 9656 3.1 170 18:55 29.09.2019
879 Rain 26 1013 94 9656 3.1 170 18:36 29.09.2019
880 Rain 26 1013 94 9656 3.1 170 18:18 29.09.2019
881 Clouds 26 1013 94 9656 3.1 170 17:54 29.09.2019
882 Clouds 26 1013 94 9656 3.1 170 17:54 29.09.2019
883 Clouds 26 1013 94 9656 3.1 170 17:54 29.09.2019
884 Clouds 26 1013 94 9656 3.1 170 17:36 29.09.2019
885 Clouds 26 1013 94 9656 3.1 170 17:18 29.09.2019
886 Clouds 26 1013 94 9656 2.1 190 16:41 29.09.2019
887 Clouds 26 1013 94 9656 2.1 190 16:20 29.09.2019
888 Rain 26 1012 94 9656 1 150 15:59 29.09.2019
889 Rain 25 1012 94 9656 1 150 15:38 29.09.2019
890 Rain 25 1012 94 9656 1 150 15:19 29.09.2019
891 Clouds 25 1012 94 9656 1.5 160 14:58 29.09.2019
892 Clouds 25 1012 94 9656 1.5 160 14:38 29.09.2019
893 Clouds 25 1012 94 9656 1.5 160 14:19 29.09.2019
894 Clouds 25 1011 94 9656 1.5 150 13:56 29.09.2019
895 Clouds 25 1011 94 9656 1.5 150 13:37 29.09.2019
896 Clouds 25 1011 94 9656 1.5 150 13:18 29.09.2019
897 Clouds 25 1011 94 9656 1.5 150 12:56 29.09.2019
898 Rain 24 1009 82 0 1.34 163 12:38 29.09.2019
899 Rain 24 1009 82 0 1.34 178 12:20 29.09.2019
900 Rain 24 1009 83 0 1.34 183 11:41 29.09.2019
901 Rain 24 1009 83 0 0.89 194 11:20 29.09.2019
902 Rain 24 1009 83 0 0.89 201 10:58 29.09.2019
903 Rain 24 1009 84 0 0.89 229 10:39 29.09.2019
904 Rain 24 1009 84 0 1.32 49.234 10:20 29.09.2019
905 Rain 24 1009 84 0 1.32 49.234 10:20 29.09.2019
906 Rain 24 1009 84 0 0.45 229 09:57 29.09.2019
907 Rain 24 1009 83 0 0.89 229 09:39 29.09.2019
908 Rain 24 1009 83 0 0.89 229 09:39 29.09.2019
909 Rain 24 1009 83 0 0.45 229 09:19 29.09.2019
910 Rain 24 1010 83 0 0.45 229 08:43 29.09.2019
911 Rain 24 1010 83 0 0.89 246 08:22 29.09.2019
912 Rain 24 1010 83 0 2.24 236 07:44 29.09.2019
913 Rain 24 1010 83 0 2.24 236 07:44 29.09.2019
914 Rain 25 1010 83 0 0.89 274 07:26 29.09.2019
915 Rain 26 1012 94 11265 0.5 105.365 06:50 29.09.2019
916 Rain 25 1011 94 9656 0.89 134.229 05:59 29.09.2019
917 Rain 25 1011 94 8047 0.89 134.229 04:46 29.09.2019
918 Rain 25 1011 94 8047 0.89 134.229 04:23 29.09.2019
919 Clouds 28 1008 83 11265 3.6 80 02:58 29.09.2019
920 Clouds 28 1008 83 11265 3.6 80 02:19 29.09.2019
921 Clouds 29 1008 83 11265 4.1 70 01:42 29.09.2019
922 Clouds 30 1008 74 11265 4.1 60 00:59 29.09.2019
923 Clouds 30 1008 74 11265 4.1 60 00:59 29.09.2019
924 Clouds 30 1008 74 11265 4.1 60 00:40 29.09.2019
925 Clouds 30 1008 74 11265 4.1 60 00:19 29.09.2019
926 Rain 31 1008 70 11265 2.1 100 23:37 28.09.2019
927 Rain 31 1008 70 11265 2.1 100 23:37 28.09.2019
928 Rain 31 1008 70 11265 2.1 100 23:19 28.09.2019
929 Clouds 31 1009 70 11265 2.04 133.789 22:40 28.09.2019
930 Clouds 31 1009 70 11265 2.04 133.789 22:21 28.09.2019
931 Clouds 30 1009 74 11265 1 180 21:58 28.09.2019
932 Clouds 30 1009 74 11265 1 180 21:58 28.09.2019
933 Clouds 30 1009 74 11265 1 180 21:40 28.09.2019
934 Clouds 30 1009 74 11265 1 180 21:21 28.09.2019
935 Clouds 30 1010 74 11265 0.85 161.055 20:57 28.09.2019
936 Clouds 30 1010 74 11265 2.57 149.548 20:38 28.09.2019
937 Clouds 30 1010 74 11265 2.57 149.548 20:19 28.09.2019
938 Clouds 29 1011 74 9656 2.57 149.548 19:56 28.09.2019
939 Clouds 30 1011 74 9656 2.57 149.548 19:38 28.09.2019
940 Clouds 29 1011 74 9656 2.57 149.548 19:19 28.09.2019
941 Clouds 28 1011 74 9656 2.57 149.548 18:55 28.09.2019
942 Clouds 28 1011 74 9656 2.57 149.548 18:37 28.09.2019
943 Clouds 28 1011 74 9656 1.35 213.255 18:18 28.09.2019
944 Clouds 27 1011 78 9656 1.35 213.255 17:54 28.09.2019
945 Clouds 27 1011 78 9656 1.35 213.255 17:36 28.09.2019
946 Clouds 27 1011 78 9656 1.35 213.255 17:18 28.09.2019
947 Rain 26 1010 83 8047 1 310 16:41 28.09.2019
948 Rain 26 1010 83 8047 1 310 16:22 28.09.2019
949 Clouds 26 1009 78 9656 1 320 15:41 28.09.2019
950 Clouds 26 1009 78 9656 1 320 15:23 28.09.2019
951 Clouds 26 1009 78 9656 1.1 263.66 14:56 28.09.2019
952 Clouds 25 1009 78 9656 1.1 263.66 14:38 28.09.2019
953 Clouds 25 1009 78 9656 1.1 263.66 14:38 28.09.2019
954 Clouds 25 1009 78 9656 1.1 263.66 14:20 28.09.2019
955 Clouds 26 1008 78 9656 1.1 263.66 13:56 28.09.2019
956 Clouds 26 1008 78 9656 1.1 263.66 13:37 28.09.2019
957 Clouds 26 1008 78 9656 1.02 274.838 13:19 28.09.2019
958 Clouds 26 1007 82 0 0.45 289 12:40 28.09.2019
959 Rain 26 1007 82 0 0.45 289 12:19 28.09.2019
960 Rain 26 1007 82 0 1.46 270.665 11:54 28.09.2019
961 Rain 26 1007 82 0 0.45 289 11:36 28.09.2019
962 Rain 26 1007 82 0 0.45 289 11:18 28.09.2019
963 Rain 26 1007 82 0 0.45 289 10:40 28.09.2019
964 Rain 26 1007 83 0 0.89 289 10:20 28.09.2019
965 Rain 26 1007 83 0 0.89 289 09:42 28.09.2019
966 Rain 26 1008 83 0 0.45 248 09:24 28.09.2019
967 Rain 26 1008 83 0 0.45 248 08:58 28.09.2019
968 Clouds 26 1008 83 0 0.89 225 08:40 28.09.2019
969 Clouds 26 1008 82 0 0.45 225 08:22 28.09.2019
970 Clouds 26 1008 82 0 1.34 231 07:44 28.09.2019
971 Clouds 26 1008 81 0 0.89 221 07:21 28.09.2019
972 Clouds 27 1010 83 11265 1.43 276.633 06:53 28.09.2019
973 Clouds 27 1010 83 11265 1.43 276.633 06:31 28.09.2019
974 Clouds 27 1009 83 11265 1.23 298.269 05:43 28.09.2019
975 Clouds 27 1009 83 11265 1.23 298.269 05:20 28.09.2019
976 Clouds 28 1008 83 11265 2.6 360 04:38 28.09.2019
977 Clouds 28 1008 83 11265 2.1 50 03:55 28.09.2019
978 Clouds 28 1008 83 11265 2.1 50 03:21 28.09.2019
979 Clouds 29 1007 83 11265 3.1 30 02:45 28.09.2019
980 Clouds 29 1007 83 11265 3.1 30 02:27 28.09.2019
981 Clouds 29 1007 83 11265 3.1 50 01:48 28.09.2019
982 Clouds 29 1007 83 11265 3.1 50 01:26 28.09.2019
983 Thunderstorm 29 1007 83 11265 4.6 40 00:52 28.09.2019
984 Thunderstorm 29 1007 89 9656 4.1 30 00:31 28.09.2019
985 Thunderstorm 29 1007 84 9656 4.1 40 23:58 27.09.2019
986 Clouds 30 1008 84 11265 5.7 40 23:36 27.09.2019
987 Clouds 31 1008 84 11265 5.7 40 23:18 27.09.2019
988 Clouds 31 1008 74 11265 3.1 60 22:44 27.09.2019
989 Clouds 31 1008 74 11265 3.1 60 22:19 27.09.2019
990 Clouds 31 1009 74 11265 3.1 70 21:56 27.09.2019
991 Clouds 31 1009 74 11265 3.1 70 21:37 27.09.2019
992 Clouds 31 1009 74 11265 3.1 70 21:18 27.09.2019
993 Clouds 31 1010 74 11265 3.1 360 20:55 27.09.2019
994 Clouds 31 1010 74 11265 3.1 360 20:36 27.09.2019
995 Clouds 30 1010 74 11265 3.1 360 20:18 27.09.2019
996 Clouds 31 1010 66 11265 3.1 20 19:42 27.09.2019
997 Clouds 31 1010 66 11265 3.1 20 19:23 27.09.2019
998 Clouds 30 1010 83 11265 2.1 360 18:57 27.09.2019
999 Clouds 30 1010 83 11265 2.1 360 18:38 27.09.2019
1000 Clouds 30 1010 83 11265 2.1 360 18:20 27.09.2019
1001 Clouds 30 1010 83 11265 2.1 360 18:20 27.09.2019
1002 Clouds 30 1010 83 11265 2.1 360 18:20 27.09.2019
1003 Clouds 29 1010 83 11265 0.96 82.551 17:54 27.09.2019
1004 Clouds 29 1010 83 11265 0.96 82.551 17:36 27.09.2019
1005 Clouds 29 1010 83 11265 0.96 82.551 17:18 27.09.2019
1006 Clouds 28 1010 78 11265 1.5 310 16:42 27.09.2019
1007 Clouds 28 1010 78 11265 1.5 310 16:20 27.09.2019
1008 Clouds 27 1010 83 8047 0.96 82.551 15:58 27.09.2019
1009 Clouds 26 1010 83 8047 0.96 82.551 15:39 27.09.2019
1010 Clouds 26 1010 83 8047 0.75 282.479 15:19 27.09.2019
1011 Clear 26 1009 83 11265 0.75 282.479 14:56 27.09.2019
1012 Clear 25 1009 83 11265 0.75 282.479 14:37 27.09.2019
1013 Clear 25 1009 83 11265 0.75 282.479 14:18 27.09.2019
1014 Clear 25 1009 83 11265 0.75 282.479 13:55 27.09.2019
1015 Clear 25 1009 83 11265 0.75 282.479 13:37 27.09.2019
1016 Clear 25 1009 83 11265 0.78 278.545 13:18 27.09.2019
1017 Clouds 24 1008 80 0 0.78 278.545 12:42 27.09.2019
1018 Clouds 24 1007 80 0 0.45 286 12:20 27.09.2019
1019 Clouds 25 1008 79 0 0.89 286 11:40 27.09.2019
1020 Clouds 25 1008 79 0 0.89 286 11:40 27.09.2019
1021 Clouds 25 1008 79 0 0.89 286 11:22 27.09.2019
1022 Clouds 25 1008 79 0 0.89 286 10:57 27.09.2019
1023 Clouds 26 1008 79 0 0.45 286 10:39 27.09.2019
1024 Clouds 26 1008 79 0 1.49 286.446 10:20 27.09.2019
1025 Clouds 26 1009 79 0 0.89 286 09:42 27.09.2019
1026 Clouds 26 1009 77 0 0.45 40 09:22 27.09.2019
1027 Clouds 26 1009 77 0 1.54 287.516 08:58 27.09.2019
1028 Clouds 26 1009 75 0 1.54 287.516 08:39 27.09.2019
1029 Clouds 26 1009 73 0 1.5 288.302 08:20 27.09.2019
1030 Clouds 27 1009 70 0 0.45 40 07:45 27.09.2019
1031 Clouds 28 1010 66 0 0.89 40 07:23 27.09.2019
1032 Clouds 28 1011 78 11265 2.6 40 06:43 27.09.2019
1033 Clouds 28 1011 78 11265 2.6 40 06:23 27.09.2019
1034 Clouds 28 1011 83 11265 3.6 20 05:50 27.09.2019
1035 Clouds 28 1011 83 11265 3.6 20 05:50 27.09.2019
1036 Clouds 28 1011 83 11265 3.6 20 05:32 27.09.2019
1037 Clouds 29 1009 79 11265 4.1 30 03:55 27.09.2019
1038 Clouds 29 1008 83 11265 2.6 40 02:42 27.09.2019
1039 Clouds 30 1007 84 11265 5.1 30 01:47 27.09.2019
1040 Clouds 30 1007 84 11265 5.1 30 01:27 27.09.2019
1041 Clouds 31 1008 79 11265 4.1 40 00:22 27.09.2019
1042 Clouds 32 1008 70 11265 4.6 70 23:56 26.09.2019
1043 Clouds 32 1008 70 11265 4.6 70 23:38 26.09.2019
1044 Clouds 32 1008 70 11265 4.6 70 23:18 26.09.2019
1045 Clouds 32 1009 70 11265 3.6 60 22:56 26.09.2019
1046 Clouds 32 1009 70 11265 3.6 60 22:38 26.09.2019
1047 Clouds 32 1009 70 11265 3.6 60 22:18 26.09.2019
1048 Clouds 32 1010 75 11265 3.6 80 21:55 26.09.2019
1049 Clouds 32 1010 75 11265 3.6 80 21:36 26.09.2019
1050 Clouds 32 1010 75 11265 3.6 80 21:18 26.09.2019
1051 Clouds 32 1010 75 11265 3.6 80 21:18 26.09.2019
1052 Clouds 32 1012 75 11265 1.42 74.819 20:56 26.09.2019
1053 Clouds 32 1012 75 11265 1.42 74.819 20:38 26.09.2019
1054 Clouds 32 1012 75 11265 1.42 74.819 20:38 26.09.2019
1055 Clouds 32 1012 75 11265 1.42 74.819 20:20 26.09.2019
1056 Clouds 31 1012 74 11265 2.1 20 19:40 26.09.2019
1057 Clouds 31 1012 74 11265 2.1 20 19:19 26.09.2019
1058 Clouds 28 1013 88 9656 1.42 74.819 18:59 26.09.2019
1059 Clouds 28 1013 88 9656 1.42 74.819 18:59 26.09.2019
1060 Clouds 28 1013 88 9656 1.42 74.819 18:59 26.09.2019
1061 Clouds 29 1013 88 9656 1.42 74.819 18:39 26.09.2019
1062 Clouds 28 1013 88 9656 0.97 3.474 18:21 26.09.2019
1063 Rain 27 1012 94 9656 0.97 3.474 17:56 26.09.2019
1064 Rain 27 1012 94 9656 0.97 3.474 17:37 26.09.2019
1065 Rain 26 1012 94 9656 0.97 3.474 17:18 26.09.2019
1066 Rain 26 1012 94 9656 0.97 3.474 17:18 26.09.2019
1067 Rain 26 1012 100 4828 0.97 3.474 16:40 26.09.2019
1068 Rain 26 1012 100 4828 0.97 3.474 16:21 26.09.2019
1069 Rain 26 1012 100 4828 0.97 3.474 16:21 26.09.2019
1070 Rain 27 1011 88 9656 0.97 3.474 15:59 26.09.2019
1071 Rain 27 1011 88 9656 0.97 3.474 15:38 26.09.2019
1072 Rain 27 1011 88 9656 0.85 343.878 15:20 26.09.2019
1073 Rain 26 1011 94 6437 0.85 343.878 14:57 26.09.2019
1074 Clouds 27 1011 88 11265 0.85 343.878 14:38 26.09.2019
1075 Clouds 27 1011 88 11265 0.85 343.878 14:38 26.09.2019
1076 Clouds 27 1011 88 11265 0.85 343.878 14:20 26.09.2019
1077 Clouds 27 1011 88 9656 0.85 343.878 13:41 26.09.2019
1078 Clouds 27 1011 88 9656 0.73 352.748 13:20 26.09.2019
1079 Clouds 27 1011 88 9656 0.73 352.748 13:20 26.09.2019
1080 Clouds 27 1011 88 9656 0.73 352.748 13:20 26.09.2019
1081 Clouds 27 1011 88 9656 0.73 352.748 12:59 26.09.2019
1082 Clouds 27 1009 79 0 0.45 59 12:41 26.09.2019
1083 Clouds 27 1009 79 0 0.45 59 12:41 26.09.2019
1084 Clouds 28 1008 77 0 0.99 314.14 12:21 26.09.2019
1085 Clouds 28 1008 73 0 0.99 314.14 11:42 26.09.2019
1086 Clouds 28 1008 72 0 0.45 55 11:23 26.09.2019
1087 Clouds 28 1008 72 0 0.89 55 10:58 26.09.2019
1088 Clouds 28 1008 73 0 0.45 46 10:40 26.09.2019
1089 Clouds 28 1008 73 0 1.34 46 10:20 26.09.2019
1090 Clouds 28 1008 73 0 1.34 46 10:20 26.09.2019
1091 Clouds 28 1008 73 0 1.34 46 10:20 26.09.2019
1092 Clouds 28 1008 77 0 0.99 314.14 09:44 26.09.2019
1093 Clouds 27 1009 78 0 0.99 314.14 09:26 26.09.2019
1094 Clouds 27 1012 88 11265 1.38 329.651 08:57 26.09.2019
1095 Clouds 27 1012 88 11265 1.03 328.653 08:39 26.09.2019
1096 Clouds 27 1012 88 11265 1.03 328.653 08:21 26.09.2019
1097 Clouds 27 1012 88 11265 1.03 328.653 07:43 26.09.2019
1098 Clouds 27 1012 88 11265 1.03 328.653 07:21 26.09.2019
1099 Clouds 28 1012 83 11265 1.03 328.653 06:44 26.09.2019
1100 Clouds 28 1012 83 11265 1.03 328.653 06:25 26.09.2019
1101 Clouds 28 1012 83 11265 1.16 344.136 05:44 26.09.2019
1102 Clouds 28 1012 83 11265 1.16 344.136 05:24 26.09.2019
1103 Clouds 29 1009 74 11265 1.5 80 02:51 26.09.2019
1104 Clouds 30 1008 74 11265 2.1 90 01:53 26.09.2019
1105 Clouds 31 1008 74 11265 2.1 90 01:28 26.09.2019
1106 Clouds 31 1008 79 11265 1.5 100 00:55 26.09.2019
1107 Clouds 31 1008 79 11265 1.5 100 00:37 26.09.2019
1108 Clouds 32 1009 75 11265 3.1 110 23:57 25.09.2019
1109 Clouds 32 1009 75 11265 3.1 110 23:38 25.09.2019
1110 Clouds 32 1009 75 11265 3.1 110 23:18 25.09.2019
1111 Clouds 32 1010 75 11265 2.6 60 22:41 25.09.2019
1112 Clouds 32 1010 75 11265 2.6 60 22:20 25.09.2019
1113 Clouds 32 1011 70 11265 1 140 21:57 25.09.2019
1114 Clouds 32 1011 70 11265 1 140 21:39 25.09.2019
1115 Clouds 32 1011 70 11265 1 140 21:19 25.09.2019
1116 Clouds 32 1012 62 11265 1 170 20:57 25.09.2019
1117 Clouds 32 1012 62 11265 1 170 20:39 25.09.2019
1118 Clouds 32 1012 62 11265 1 170 20:20 25.09.2019
1119 Clouds 31 1012 74 11265 1.55 131.36 19:43 25.09.2019
1120 Clouds 31 1012 74 11265 1.55 131.36 19:25 25.09.2019
1121 Clouds 31 1013 84 11265 1.55 131.36 18:58 25.09.2019
1122 Clouds 30 1013 84 11265 1.55 131.36 18:39 25.09.2019
1123 Clouds 30 1013 84 11265 0.43 196.056 18:21 25.09.2019
1124 Clear 29 1013 83 11265 0.43 196.056 17:59 25.09.2019
1125 Clear 29 1013 83 11265 0.43 196.056 17:38 25.09.2019
1126 Clear 29 1013 83 11265 0.43 196.056 17:19 25.09.2019
1127 Clear 29 1013 83 11265 0.43 196.056 17:19 25.09.2019
1128 Clear 28 1012 88 11265 0.43 196.056 16:45 25.09.2019
1129 Clear 28 1012 88 11265 0.43 196.056 16:27 25.09.2019
1130 Clear 27 1012 88 11265 0.43 196.056 15:59 25.09.2019
1131 Clear 27 1012 88 11265 0.43 196.056 15:41 25.09.2019
1132 Clear 26 1012 88 11265 1.15 290.047 15:22 25.09.2019
1133 Clear 26 1011 88 11265 1.15 290.047 14:56 25.09.2019
1134 Clear 26 1011 88 11265 1.15 290.047 14:38 25.09.2019
1135 Clear 26 1011 88 11265 1.15 290.047 14:20 25.09.2019
1136 Clear 25 1011 94 11265 1.15 290.047 13:41 25.09.2019
1137 Clear 25 1011 94 11265 1.14 293.952 13:22 25.09.2019
1138 Clear 25 1011 94 11265 1.14 293.952 12:58 25.09.2019
1139 Clouds 26 1009 82 0 1.14 293.952 12:39 25.09.2019
1140 Clouds 26 1009 82 0 0.99 289.312 12:21 25.09.2019
1141 Clouds 26 1009 82 0 0.99 289.312 11:45 25.09.2019
1142 Clouds 26 1009 82 0 0.99 289.312 11:22 25.09.2019
1143 Clouds 26 1009 82 0 0.45 115 10:59 25.09.2019
1144 Clouds 26 1008 82 0 0.45 115 10:41 25.09.2019
1145 Clouds 26 1009 82 0 0.99 289.312 10:21 25.09.2019
1146 Clouds 26 1009 82 0 0.99 289.312 09:56 25.09.2019
1147 Clouds 26 1009 82 0 0.45 115 09:36 25.09.2019
1148 Clouds 26 1010 82 0 0.92 259.353 09:18 25.09.2019
1149 Rain 26 1010 82 0 0.91 252.56 08:41 25.09.2019
1150 Rain 26 1010 82 0 0.91 252.56 08:21 25.09.2019
1151 Rain 26 1010 82 0 0.91 252.56 07:56 25.09.2019
1152 Rain 26 1011 81 0 0.89 115 07:37 25.09.2019
1153 Rain 26 1011 81 0 0.91 252.56 07:19 25.09.2019
1154 Clouds 27 1013 83 11265 0.91 252.56 06:38 25.09.2019
1155 Clouds 27 1013 83 11265 1.22 297.591 05:52 25.09.2019
1156 Clouds 27 1013 83 11265 1.22 297.591 05:27 25.09.2019
1157 Clouds 27 1012 78 11265 1.22 297.591 04:49 25.09.2019
1158 Clouds 27 1012 78 11265 1.22 297.591 04:49 25.09.2019
1159 Clouds 29 1010 79 11265 2.6 70 01:54 25.09.2019
1160 Clouds 30 1010 74 11265 3.6 90 00:43 25.09.2019
1161 Clouds 30 1010 74 11265 3.6 90 00:23 25.09.2019
1162 Clouds 31 1011 74 11265 4.6 60 23:55 24.09.2019
1163 Clouds 31 1011 74 11265 4.6 60 23:36 24.09.2019
1164 Clouds 31 1011 74 11265 4.6 60 23:18 24.09.2019
1165 Clouds 31 1011 74 11265 3.6 30 22:38 24.09.2019
1166 Clouds 31 1011 74 11265 3.6 30 22:20 24.09.2019
1167 Clouds 31 1012 79 11265 5.1 60 21:56 24.09.2019
1168 Clouds 30 1012 79 11265 5.1 60 21:37 24.09.2019
1169 Clouds 30 1012 79 11265 5.1 60 21:37 24.09.2019
1170 Clouds 30 1012 79 11265 5.1 60 21:19 24.09.2019
1171 Clouds 31 1013 74 11265 2.6 50 20:57 24.09.2019
1172 Clouds 31 1013 74 11265 2.6 50 20:57 24.09.2019
1173 Clouds 31 1013 74 11265 2.6 50 20:38 24.09.2019
1174 Clouds 31 1013 74 11265 2.6 50 20:19 24.09.2019
1175 Clouds 31 1014 74 11265 2.6 360 19:43 24.09.2019
1176 Clouds 31 1014 74 11265 2.6 360 19:21 24.09.2019
1177 Clouds 30 1014 79 11265 3.6 10 18:59 24.09.2019
1178 Clouds 30 1014 79 11265 3.6 10 18:39 24.09.2019
1179 Clouds 30 1014 79 11265 3.6 10 18:21 24.09.2019
1180 Clouds 29 1014 78 11265 1 300 17:57 24.09.2019
1181 Clouds 28 1014 78 11265 1 300 17:38 24.09.2019
1182 Clouds 28 1014 78 11265 1 300 17:20 24.09.2019
1183 Clouds 27 1014 88 11265 0.64 256.161 16:56 24.09.2019
1184 Clouds 27 1014 88 11265 0.64 256.161 16:38 24.09.2019
1185 Clouds 27 1014 88 11265 0.64 256.161 16:18 24.09.2019
1186 Clouds 27 1014 88 11265 0.64 256.161 16:18 24.09.2019
1187 Clouds 26 1014 94 9656 2.1 10 15:41 24.09.2019
1188 Clouds 26 1014 94 9656 2.1 10 15:23 24.09.2019
1189 Clouds 26 1013 94 9656 2.1 10 14:43 24.09.2019
1190 Clouds 25 1013 94 9656 2.1 10 14:20 24.09.2019
1191 Clouds 25 1013 94 9656 4.6 350 13:56 24.09.2019
1192 Clouds 25 1013 94 9656 4.6 350 13:37 24.09.2019
1193 Rain 25 1013 94 9656 4.6 350 13:19 24.09.2019
1194 Rain 24 1011 83 0 1.79 332 12:39 24.09.2019
1195 Clouds 24 1011 83 0 1.34 360 12:19 24.09.2019
1196 Clouds 24 1010 83 0 0.45 269 11:43 24.09.2019
1197 Clouds 24 1010 83 0 0.45 269 11:43 24.09.2019
1198 Clouds 24 1010 83 0 0.45 269 11:22 24.09.2019
1199 Rain 24 1010 83 0 0.89 269 10:58 24.09.2019
1200 Rain 24 1011 83 0 1.63 273.443 10:38 24.09.2019
1201 Rain 24 1011 82 0 1.34 272 10:19 24.09.2019
1202 Rain 24 1011 82 0 0.89 273 09:46 24.09.2019
1203 Rain 24 1011 82 0 0.89 273 09:27 24.09.2019
1204 Rain 24 1012 82 0 1.79 324 08:58 24.09.2019
1205 Rain 25 1012 82 0 1.34 55 08:40 24.09.2019
1206 Rain 25 1012 82 0 0.89 167 08:21 24.09.2019
1207 Rain 25 1012 81 0 0.89 195 07:57 24.09.2019
1208 Rain 26 1012 80 0 1.79 248 07:37 24.09.2019
1209 Rain 27 1014 74 11265 1.41 252.796 07:18 24.09.2019
1210 Rain 27 1014 74 11265 1.41 252.796 06:37 24.09.2019
1211 Rain 27 1014 74 11265 1.41 252.796 06:37 24.09.2019
1212 Rain 28 1014 74 11265 2.1 360 05:53 24.09.2019
1213 Clouds 28 1014 74 11265 2.1 360 05:20 24.09.2019
1214 Rain 28 1013 78 11265 3.6 10 03:46 24.09.2019
1215 Clouds 28 1013 74 11265 3.1 10 03:20 24.09.2019
1216 Clouds 29 1013 70 11265 4.6 360 02:43 24.09.2019
1217 Clouds 30 1012 79 11265 6.2 20 01:40 24.09.2019
1218 Clouds 31 1012 74 11265 5.1 40 00:40 24.09.2019
1219 Clouds 31 1012 74 11265 5.1 40 00:21 24.09.2019
1220 Clouds 32 1012 66 11265 4.6 30 23:41 23.09.2019
1221 Clouds 32 1012 66 11265 4.6 30 23:22 23.09.2019
1222 Clouds 32 1013 70 11265 5.1 40 22:40 23.09.2019
1223 Clouds 32 1013 70 11265 5.1 40 22:21 23.09.2019
1224 Clouds 32 1013 70 11265 5.1 40 22:21 23.09.2019
1225 Clouds 32 1014 70 11265 4.6 20 21:58 23.09.2019
1226 Clouds 32 1014 70 11265 4.6 20 21:40 23.09.2019
1227 Clouds 32 1014 70 11265 4.6 20 21:20 23.09.2019
1228 Clouds 32 1014 70 11265 4.6 20 21:20 23.09.2019
1229 Clouds 31 1015 70 11265 4.1 360 20:56 23.09.2019
1230 Clouds 31 1015 70 11265 4.1 360 20:37 23.09.2019
1231 Clouds 31 1015 70 11265 4.1 360 20:18 23.09.2019
1232 Clouds 31 1016 74 11265 5.1 20 19:39 23.09.2019
1233 Clouds 30 1016 74 11265 5.1 20 19:21 23.09.2019
1234 Clouds 30 1016 79 11265 3.6 40 18:58 23.09.2019
1235 Clouds 30 1016 79 11265 3.6 40 18:39 23.09.2019
1236 Clouds 29 1016 79 11265 3.6 40 18:18 23.09.2019
1237 Clouds 29 1015 83 11265 1.5 330 17:56 23.09.2019
1238 Clouds 30 1015 83 11265 1.5 330 17:37 23.09.2019
1239 Clouds 29 1015 83 11265 1.5 330 17:19 23.09.2019
1240 Clear 28 1014 88 11265 0.66 283.421 16:41 23.09.2019
1241 Clear 27 1014 88 11265 0.66 283.421 16:22 23.09.2019
1242 Clear 27 1014 88 11265 0.66 283.421 15:59 23.09.2019
1243 Clear 27 1014 88 11265 0.66 283.421 15:41 23.09.2019
1244 Clear 26 1014 88 11265 1.56 279.98 15:20 23.09.2019
1245 Clear 26 1014 88 11265 1.56 279.98 15:20 23.09.2019
1246 Clouds 26 1014 94 9656 1.56 279.98 14:59 23.09.2019
1247 Clouds 25 1014 94 9656 1.56 279.98 14:39 23.09.2019
1248 Clouds 25 1014 94 9656 1.56 279.98 14:19 23.09.2019
1249 Clouds 25 1013 94 9656 1.56 279.98 13:58 23.09.2019
1250 Clouds 25 1013 94 9656 1.56 279.98 13:37 23.09.2019
1251 Clouds 25 1013 94 9656 1.53 285.364 13:18 23.09.2019
1252 Clear 26 1011 77 0 1.53 285.364 12:41 23.09.2019
1253 Clear 26 1011 78 0 1.37 272.047 12:22 23.09.2019
1254 Clear 26 1011 77 0 0.89 288 11:55 23.09.2019
1255 Clear 26 1011 79 0 1.34 26 11:37 23.09.2019
1256 Clear 25 1011 79 0 0.45 278 11:19 23.09.2019
1257 Clear 24 1012 80 0 0.89 278 10:48 23.09.2019
1258 Clear 25 1012 79 0 0.89 278 10:21 23.09.2019
1259 Clear 26 1015 78 11265 1.37 272.047 09:51 23.09.2019
1260 Clear 26 1015 78 11265 1.37 272.047 09:29 23.09.2019
1261 Clear 26 1015 78 11265 1.5 280.298 08:59 23.09.2019
1262 Clear 25 1015 78 11265 1.37 273.066 08:39 23.09.2019
1263 Clear 26 1015 78 11265 1.37 273.066 08:20 23.09.2019
1264 Clear 26 1015 78 11265 1 310 07:44 23.09.2019
1265 Clear 25 1015 78 11265 1 310 07:23 23.09.2019
1266 Clear 27 1015 78 11265 1.5 360 06:20 23.09.2019
1267 Clouds 27 1015 78 11265 1.5 360 05:44 23.09.2019
1268 Clouds 28 1015 78 11265 1.5 360 05:18 23.09.2019
1269 Clouds 28 1014 74 11265 2.1 10 04:52 23.09.2019
1270 Clouds 30 1012 74 11265 4.6 50 01:29 23.09.2019
1271 Clouds 31 1012 70 11265 4.6 40 00:40 23.09.2019
1272 Clouds 31 1012 70 11265 4.6 40 00:21 23.09.2019
1273 Clouds 32 1012 62 11265 4.1 70 23:44 22.09.2019
1274 Clouds 32 1012 62 11265 4.1 70 23:44 22.09.2019
1275 Clouds 32 1012 62 11265 4.1 70 23:26 22.09.2019
1276 Clouds 32 1013 59 11265 4.1 20 22:56 22.09.2019
1277 Clouds 32 1013 59 11265 4.1 20 22:37 22.09.2019
1278 Clouds 32 1013 59 11265 4.1 20 22:19 22.09.2019
1279 Clouds 31 1014 66 11265 1.5 20 21:43 22.09.2019
1280 Clouds 31 1014 66 11265 1.5 20 21:21 22.09.2019
1281 Clouds 31 1015 70 11265 3.1 360 20:46 22.09.2019
1282 Clouds 31 1015 70 11265 3.1 360 20:28 22.09.2019
1283 Clouds 30 1016 74 11265 1.5 10 19:59 22.09.2019
1284 Clouds 30 1016 74 11265 1.5 10 19:41 22.09.2019
1285 Clouds 29 1016 74 11265 1.5 10 19:21 22.09.2019
1286 Clouds 29 1016 78 11265 2.6 10 18:58 22.09.2019
1287 Clouds 28 1016 78 11265 2.6 10 18:38 22.09.2019
1288 Clouds 28 1016 78 11265 2.6 10 18:18 22.09.2019
1289 Clouds 28 1016 78 11265 2.6 350 17:48 22.09.2019
1290 Clouds 27 1016 78 11265 2.6 350 17:27 22.09.2019
1291 Clouds 27 1015 78 9656 1.5 350 16:59 22.09.2019
1292 Clouds 27 1015 78 9656 1.5 350 16:59 22.09.2019
1293 Clouds 27 1015 78 9656 1.5 350 16:40 22.09.2019
1294 Clouds 27 1015 78 9656 1.5 350 16:40 22.09.2019
1295 Clouds 27 1015 78 9656 1.5 350 16:21 22.09.2019
1296 Mist 26 1015 83 9656 1 320 15:46 22.09.2019
1297 Mist 26 1015 83 9656 1 320 15:27 22.09.2019
1298 Mist 25 1014 88 9656 1 310 14:57 22.09.2019
1299 Mist 25 1014 88 9656 1 310 14:57 22.09.2019
1300 Mist 25 1014 88 9656 1 310 14:39 22.09.2019
1301 Mist 25 1014 88 9656 1 310 14:21 22.09.2019
1302 Clouds 25 1013 88 9656 1.28 292.461 13:45 22.09.2019
1303 Clouds 25 1013 88 9656 1.29 291.152 13:26 22.09.2019
1304 Clear 24 1012 81 0 1.29 291.152 12:58 22.09.2019
1305 Clear 24 1011 81 0 0.45 298 12:40 22.09.2019
1306 Clouds 24 1011 80 0 0.89 298 12:21 22.09.2019
1307 Clouds 24 1011 80 0 0.45 298 11:56 22.09.2019
1308 Clouds 25 1011 78 0 0.89 298 11:38 22.09.2019
1309 Clouds 25 1011 78 0 0.89 298 11:19 22.09.2019
1310 Clouds 25 1011 77 0 0.89 324 10:43 22.09.2019
1311 Clouds 26 1012 76 0 1.34 355 10:20 22.09.2019
1312 Clouds 25 1012 79 0 1.79 35 09:56 22.09.2019
1313 Clouds 24 1012 79 0 0.45 256 09:37 22.09.2019
1314 Clouds 25 1012 80 0 1.34 255 09:19 22.09.2019
1315 Clouds 25 1013 78 0 1.79 232 08:42 22.09.2019
1316 Clouds 25 1013 78 0 0.89 193 08:22 22.09.2019
1317 Clouds 26 1013 74 0 0.89 185 07:49 22.09.2019
1318 Clouds 26 1013 71 0 0.89 185 07:31 22.09.2019
1319 Clouds 27 1015 83 11265 1.54 279.92 06:59 22.09.2019
1320 Clouds 27 1015 83 11265 1.54 279.92 06:37 22.09.2019
1321 Clouds 28 1015 78 11265 1.4 299.289 05:19 22.09.2019
1322 Clouds 29 1012 79 11265 3.6 60 02:45 22.09.2019
1323 Clouds 29 1012 79 11265 3.6 60 02:25 22.09.2019
1324 Clouds 30 1012 74 11265 3.1 70 01:45 22.09.2019
1325 Clear 31 1012 70 11265 4.1 60 00:54 22.09.2019
1326 Clear 31 1012 70 11265 4.1 60 00:32 22.09.2019
1327 Clear 32 1012 62 11265 4.1 60 23:54 21.09.2019
1328 Clear 32 1012 62 11265 4.1 60 23:36 21.09.2019
1329 Clear 32 1013 62 11265 2.6 100 22:47 21.09.2019
1330 Clear 32 1013 62 11265 2.6 100 22:26 21.09.2019
1331 Clouds 32 1014 62 11265 4.1 70 21:59 21.09.2019
1332 Clouds 32 1014 62 11265 4.1 70 21:59 21.09.2019
1333 Clouds 32 1014 62 11265 4.1 70 21:41 21.09.2019
1334 Clouds 32 1014 62 11265 4.1 70 21:19 21.09.2019
1335 Clouds 31 1015 70 11265 1.5 100 20:56 21.09.2019
1336 Clouds 31 1015 70 11265 1.5 100 20:36 21.09.2019
1337 Clouds 31 1015 70 11265 1.5 100 20:18 21.09.2019
1338 Clouds 31 1016 74 11265 1.25 52.246 19:45 21.09.2019
1339 Clouds 31 1016 74 11265 1.25 52.246 19:21 21.09.2019
1340 Clouds 30 1016 74 11265 1.5 10 18:40 21.09.2019
1341 Clouds 30 1016 74 11265 1.5 10 18:21 21.09.2019
1342 Clouds 28 1016 78 9656 1.23 355.881 17:43 21.09.2019
1343 Clouds 28 1016 78 9656 1.23 355.881 17:23 21.09.2019
1344 Clouds 27 1015 83 9656 1.23 355.881 16:57 21.09.2019
1345 Clouds 26 1015 83 9656 1.23 355.881 16:38 21.09.2019
1346 Clouds 26 1015 83 9656 1.23 355.881 16:19 21.09.2019
1347 Clouds 25 1015 94 9656 1.23 355.881 15:44 21.09.2019
1348 Clouds 25 1015 94 9656 1.79 294.417 15:22 21.09.2019
1349 Clouds 24 1015 94 9656 1.79 294.417 14:48 21.09.2019
1350 Clouds 25 1015 94 9656 1.79 294.417 14:30 21.09.2019
1351 Clouds 25 1014 94 9656 2.1 320 13:54 21.09.2019
1352 Clouds 24 1014 94 9656 2.1 320 13:36 21.09.2019
1353 Clouds 24 1014 94 9656 2.1 320 13:18 21.09.2019
1354 Clouds 24 1012 81 0 1.79 294.603 12:41 21.09.2019
1355 Clouds 24 1012 81 0 1.63 292.953 12:22 21.09.2019
1356 Clouds 24 1012 82 0 1.63 292.953 11:59 21.09.2019
1357 Clouds 23 1011 81 0 0.45 263 11:41 21.09.2019
1358 Clouds 23 1011 81 0 0.45 263 11:21 21.09.2019
1359 Rain 23 1011 78 0 0.45 169 10:41 21.09.2019
1360 Rain 23 1011 78 0 0.45 169 10:23 21.09.2019
1361 Rain 23 1011 78 0 1.79 5 09:57 21.09.2019
1362 Rain 23 1012 75 0 1.34 269 09:38 21.09.2019
1363 Rain 23 1012 75 0 1.34 269 09:20 21.09.2019
1364 Rain 25 1012 69 0 4.02 342 08:51 21.09.2019
1365 Clouds 26 1012 79 0 0.89 276 08:26 21.09.2019
1366 Clouds 27 1012 77 0 0.89 325 07:41 21.09.2019
1367 Clouds 27 1012 77 0 0.45 71 07:22 21.09.2019
1368 Clouds 28 1014 78 11265 1.5 350 06:49 21.09.2019
1369 Clouds 28 1014 78 11265 1.5 350 06:30 21.09.2019
1370 Clouds 28 1013 78 11265 1.5 360 04:50 21.09.2019
1371 Clouds 28 1013 78 11265 1.5 360 04:32 21.09.2019
1372 Clear 30 1010 74 11265 3.1 50 02:30 21.09.2019
1373 Clear 31 1011 66 11265 4.1 60 01:53 21.09.2019
1374 Clear 31 1011 66 11265 4.1 60 01:34 21.09.2019
1375 Clear 32 1011 59 11265 3.6 60 00:39 21.09.2019
1376 Clear 32 1011 59 11265 3.6 60 00:18 21.09.2019
1377 Clear 32 1011 62 11265 2.1 100 23:42 20.09.2019
1378 Clear 32 1011 62 11265 2.1 100 23:42 20.09.2019
1379 Clear 32 1011 62 11265 2.1 100 23:22 20.09.2019
1380 Clouds 32 1012 59 11265 1.5 80 22:41 20.09.2019
1381 Clouds 32 1012 59 11265 1.5 80 22:41 20.09.2019
1382 Clouds 32 1012 59 11265 1.5 80 22:23 20.09.2019
1383 Clouds 32 1012 62 11265 4.1 80 21:56 20.09.2019
1384 Clouds 32 1012 62 11265 4.1 80 21:37 20.09.2019
1385 Clouds 32 1012 62 11265 4.1 80 21:18 20.09.2019
1386 -273 0 0 0 0 0 20:55 20.09.2019
1387 Clouds 31 1013 70 11265 4.1 90 20:36 20.09.2019
1388 Clouds 31 1013 70 11265 4.1 90 20:36 20.09.2019
1389 Clouds 31 1013 70 11265 4.1 90 20:18 20.09.2019
1390 Clouds 31 1013 74 11265 3.1 90 19:41 20.09.2019
1391 Clouds 31 1013 74 11265 3.1 90 19:21 20.09.2019
1392 Clouds 31 1013 74 11265 3.6 90 18:56 20.09.2019
1393 Clouds 31 1013 74 11265 3.6 90 18:36 20.09.2019
1394 Clouds 31 1012 57 0 3.58 111 18:18 20.09.2019
1395 Clouds 30 1013 79 9656 1.5 320 17:43 20.09.2019
1396 Clouds 30 1013 79 9656 1.5 320 17:25 20.09.2019
1397 Mist 28 1013 83 8047 0.6 348.072 16:43 20.09.2019
1398 Mist 27 1013 83 8047 0.6 348.072 16:21 20.09.2019
1399 Mist 27 1012 83 8047 0.6 348.072 15:58 20.09.2019
1400 Clouds 27 1011 77 0 0.89 313 15:40 20.09.2019
1401 Mist 26 1012 88 8047 1.2 284.965 15:21 20.09.2019
1402 Mist 26 1012 88 8047 1.2 284.965 14:42 20.09.2019
1403 Mist 26 1012 88 8047 1.2 284.965 14:19 20.09.2019
1404 Clouds 26 1010 82 0 0.45 100 13:48 20.09.2019
1405 Clouds 26 1010 82 0 0.45 100 13:48 20.09.2019
1406 Clouds 26 1009 82 0 0.45 100 13:28 20.09.2019
1407 Clouds 26 1009 82 0 0.45 100 12:58 20.09.2019
1408 Clouds 26 1009 82 0 1.06 295.086 12:37 20.09.2019
1409 Clouds 26 1009 82 0 0.45 100 12:19 20.09.2019
1410 Clouds 26 1009 82 0 0.45 100 12:19 20.09.2019
1411 Clouds 26 1009 82 0 0.45 100 12:19 20.09.2019
1412 Clouds 27 1009 82 0 1.07 289.65 11:49 20.09.2019
1413 Clouds 27 1009 81 0 1.07 289.65 11:21 20.09.2019
1414 Clouds 27 1010 81 0 1.07 289.65 10:44 20.09.2019
1415 Clouds 27 1010 81 0 1.07 289.65 10:24 20.09.2019
1416 Clouds 27 1010 81 0 1.07 289.65 09:59 20.09.2019
1417 Clouds 27 1010 81 0 1.07 289.65 09:38 20.09.2019
1418 Clouds 27 1010 81 0 1.03 294.384 09:18 20.09.2019
1419 Clouds 27 1010 80 0 1.03 294.384 08:42 20.09.2019
1420 Clouds 27 1010 80 0 1.03 294.384 08:23 20.09.2019
1421 Clouds 27 1012 88 11265 1.03 294.384 07:47 20.09.2019
1422 Clouds 27 1012 88 11265 1.12 281.048 07:28 20.09.2019
1423 Clouds 27 1010 79 0 0.45 100 06:45 20.09.2019
1424 Clouds 27 1010 79 0 0.45 100 06:45 20.09.2019
1425 Clouds 28 1010 77 0 0.45 100 06:25 20.09.2019
1426 Clouds 28 1011 83 11265 1.43 299.82 05:50 20.09.2019
1427 Clear 29 1009 79 11265 1.5 100 03:42 20.09.2019
1428 Clear 29 1009 79 11265 1.5 100 03:19 20.09.2019
1429 Clear 31 1009 74 11265 3.6 120 01:45 20.09.2019
1430 Clouds 31 1007 65 0 4.02 98 01:18 20.09.2019
1431 Clear 31 1009 74 11265 3.1 90 00:26 20.09.2019
1432 Clouds 32 1009 70 11265 1.5 110 23:44 19.09.2019
1433 Clouds 32 1009 70 11265 1.5 110 23:20 19.09.2019
1434 Clouds 32 1010 70 11265 3.6 100 22:57 19.09.2019
1435 Clouds 32 1010 70 11265 3.6 100 22:37 19.09.2019
1436 Clouds 32 1010 70 11265 3.6 100 22:19 19.09.2019
1437 Clouds 33 1011 63 9656 2.1 170 21:56 19.09.2019
1438 Clouds 33 1011 63 9656 2.1 170 21:37 19.09.2019
1439 Clouds 33 1011 63 9656 2.1 170 21:18 19.09.2019
1440 Clouds 32 1012 70 9656 2.6 180 20:43 19.09.2019
1441 Clouds 32 1012 70 9656 2.6 180 20:22 19.09.2019
1442 Clouds 32 1013 70 9656 1.43 140.046 19:55 19.09.2019
1443 Clouds 31 1013 70 9656 1.43 140.046 19:37 19.09.2019
1444 Clouds 31 1013 74 8047 1.43 140.046 19:19 19.09.2019
1445 Clouds 31 1013 74 8047 1.43 140.046 18:42 19.09.2019
1446 Clouds 30 1013 74 8047 0.45 323.616 18:24 19.09.2019
1447 Clouds 30 1013 74 6437 0.45 323.616 17:54 19.09.2019
1448 Clouds 30 1013 74 6437 0.45 323.616 17:36 19.09.2019
1449 Clouds 29 1013 74 6437 0.45 323.616 17:18 19.09.2019
1450 Clouds 28 1013 78 6437 0.45 323.616 16:56 19.09.2019
1451 Clouds 28 1013 78 6437 0.45 323.616 16:37 19.09.2019
1452 Clouds 28 1013 78 6437 0.45 323.616 16:18 19.09.2019
1453 Mist 26 1012 88 6437 0.45 323.616 15:38 19.09.2019
1454 Mist 25 1012 88 6437 1.15 318.955 15:18 19.09.2019
1455 Clouds 26 1012 88 9656 1.5 310 14:41 19.09.2019
1456 Clouds 25 1012 88 9656 1.5 310 14:22 19.09.2019
1457 Clouds 26 1011 88 9656 1.15 318.955 13:58 19.09.2019
1458 Clouds 26 1011 88 9656 1.15 318.955 13:38 19.09.2019
1459 Clouds 26 1011 88 9656 1.15 318.955 13:38 19.09.2019
1460 Clouds 25 1011 88 9656 1.17 319.887 13:19 19.09.2019
1461 Clouds 25 1011 88 9656 1.17 319.887 13:19 19.09.2019
1462 Clouds 25 1009 82 0 1.17 319.887 12:38 19.09.2019
1463 Clouds 25 1009 82 0 1.34 278.076 12:18 19.09.2019
1464 Clouds 25 1009 82 0 0.45 250 11:56 19.09.2019
1465 Clouds 26 1009 81 0 1.34 278.076 11:37 19.09.2019
1466 Clouds 26 1009 81 0 1.34 278.076 11:18 19.09.2019
1467 Clouds 26 1010 81 0 1.34 278.076 10:40 19.09.2019
1468 Clouds 26 1010 81 0 1.34 278.076 10:21 19.09.2019
1469 Clouds 26 1010 81 0 1.34 278.076 09:58 19.09.2019
1470 Clouds 26 1010 81 0 1.34 278.076 09:40 19.09.2019
1471 Clouds 26 1010 81 0 1.34 278.076 09:40 19.09.2019
1472 Clouds 26 1010 81 0 1.34 278.076 09:40 19.09.2019
1473 Rain 26 1010 80 0 1.24 288.727 09:19 19.09.2019
1474 Rain 26 1010 80 0 1.24 288.727 08:51 19.09.2019
1475 Rain 26 1011 81 0 1.27 284.036 08:24 19.09.2019
1476 Clear 27 1013 88 11265 1.27 284.036 07:45 19.09.2019
1477 Clear 27 1013 88 11265 1.27 284.036 07:22 19.09.2019
1478 Clouds 27 1013 88 11265 1.27 284.036 06:57 19.09.2019
1479 Clouds 27 1013 88 11265 1.27 284.036 06:37 19.09.2019
1480 Clouds 27 1013 88 11265 1.39 301.424 06:19 19.09.2019
1481 Clouds 27 1013 83 11265 1.39 301.424 05:42 19.09.2019
1482 Clouds 28 1012 83 11265 1.39 301.424 04:19 19.09.2019
1483 Clouds 29 1011 83 9656 1.81 79.996 03:20 19.09.2019
1484 Clouds 29 1010 84 9656 2.6 100 01:40 19.09.2019
1485 Clouds 30 1010 84 9656 2.6 100 01:19 19.09.2019
1486 Clouds 31 1010 74 11265 1.5 100 00:42 19.09.2019
1487 Clouds 30 1010 74 11265 1.5 100 00:18 19.09.2019
1488 Clouds 32 1011 70 11265 2.6 100 23:37 18.09.2019
1489 Clouds 31 1012 70 11265 3.6 90 23:19 18.09.2019
1490 Clouds 31 1012 70 11265 3.6 90 22:38 18.09.2019
1491 Clouds 31 1012 70 11265 3.6 90 22:19 18.09.2019
1492 Clouds 32 1013 75 11265 5.1 80 21:57 18.09.2019
1493 Clouds 32 1013 75 11265 5.1 80 21:39 18.09.2019
1494 Clouds 32 1013 75 11265 5.1 80 21:18 18.09.2019
1495 Clouds 33 1013 66 11265 3.6 110 20:57 18.09.2019
1496 Clouds 33 1013 66 11265 3.6 110 20:57 18.09.2019
1497 Clouds 33 1013 66 11265 3.6 110 20:39 18.09.2019
1498 Clouds 33 1013 66 11265 3.6 110 20:20 18.09.2019
1499 Clouds 33 1013 66 11265 3.6 110 20:20 18.09.2019
1500 Clouds 32 1014 66 11265 1.5 150 19:56 18.09.2019
1501 Clouds 32 1014 66 11265 1.5 150 19:37 18.09.2019
1502 Clouds 30 1013 74 11265 1 240 19:18 18.09.2019
1503 Clouds 30 1013 74 11265 1 240 18:54 18.09.2019
1504 Clouds 30 1013 74 11265 1 240 18:36 18.09.2019
1505 Clouds 30 1013 74 11265 1 240 18:18 18.09.2019
1506 Clouds 28 1013 78 11265 3.1 170 17:54 18.09.2019
1507 Clouds 28 1013 78 11265 3.1 170 17:36 18.09.2019
1508 Clouds 28 1013 78 11265 3.1 170 17:18 18.09.2019
1509 Clear 27 1013 78 11265 0.67 210.672 16:42 18.09.2019
1510 Clear 27 1013 78 11265 0.67 210.672 16:22 18.09.2019
1511 Clouds 26 1013 83 9656 1 160 15:57 18.09.2019
1512 Clouds 26 1013 83 9656 1 160 15:39 18.09.2019
1513 Clouds 26 1013 83 9656 1 160 15:20 18.09.2019
1514 Clear 25 1013 83 11265 0.54 199.604 14:58 18.09.2019
1515 Clear 25 1013 83 11265 0.54 199.604 14:40 18.09.2019
1516 Clear 25 1013 83 11265 0.54 199.604 14:21 18.09.2019
1517 Clouds 25 1013 83 11265 0.54 199.604 13:58 18.09.2019
1518 Clouds 25 1013 83 11265 0.54 199.604 13:58 18.09.2019
1519 Clouds 25 1013 83 11265 0.54 199.604 13:37 18.09.2019
1520 Clouds 25 1013 83 11265 0.76 191.043 13:18 18.09.2019
1521 Clouds 22 1014 93 0 0.76 191.043 12:42 18.09.2019
1522 Clouds 22 1014 92 0 1.44 246.191 12:22 18.09.2019
1523 Clouds 22 1014 92 0 1.44 246.191 11:40 18.09.2019
1524 Clouds 22 1014 92 0 1.44 246.191 11:40 18.09.2019
1525 Clouds 22 1014 92 0 1.44 246.191 11:20 18.09.2019
1526 Clouds 22 1014 92 0 1.44 246.191 10:57 18.09.2019
1527 Clouds 22 1014 92 0 1.44 246.191 10:39 18.09.2019
1528 Clouds 22 1014 92 0 1.44 246.191 10:19 18.09.2019
1529 Clouds 22 1014 92 0 1.44 246.191 09:54 18.09.2019
1530 Clouds 22 1014 92 0 1.44 246.191 09:36 18.09.2019
1531 Clouds 23 1015 94 0 1.01 228.178 09:18 18.09.2019
1532 Clouds 22 1015 87 0 1.54 238.915 08:41 18.09.2019
1533 Clouds 22 1015 87 0 1.54 238.915 08:21 18.09.2019
1534 Clear 26 1015 83 11265 1.54 238.915 07:44 18.09.2019
1535 Clear 26 1015 83 11265 1.54 238.915 07:23 18.09.2019
1536 Clear 26 1014 83 11265 1.54 238.915 06:49 18.09.2019
1537 Clear 26 1014 83 11265 2.14 247.216 06:24 18.09.2019
1538 Clear 26 1013 83 11265 2.14 247.216 05:27 18.09.2019
1539 Clouds 28 1012 83 11265 2.14 247.216 03:40 18.09.2019
1540 Clouds 29 1012 79 11265 1.5 130 02:40 18.09.2019
1541 Clouds 30 1011 79 11265 2.6 110 01:44 18.09.2019
1542 Clouds 30 1012 94 11265 1.5 110 00:56 18.09.2019
1543 Clouds 30 1012 94 11265 1.5 110 00:32 18.09.2019
1544 Clouds 31 1012 70 11265 1 130 23:48 17.09.2019
1545 Clouds 31 1012 70 11265 1 130 23:25 17.09.2019
1546 Clouds 33 1013 59 11265 2.6 180 22:57 17.09.2019
1547 Clouds 33 1013 59 11265 2.6 180 22:38 17.09.2019
1548 Clouds 33 1013 59 11265 2.6 180 22:19 17.09.2019
1549 Clouds 32 1014 66 11265 1 180 21:54 17.09.2019
1550 Clouds 32 1014 66 11265 1 180 21:36 17.09.2019
1551 Clouds 32 1014 66 11265 1 180 21:18 17.09.2019
1552 Clouds 30 1014 70 9656 1.5 190 20:55 17.09.2019
1553 Clouds 30 1014 70 9656 1.5 190 20:55 17.09.2019
1554 Clouds 30 1014 70 9656 1.5 190 20:37 17.09.2019
1555 Clouds 30 1014 70 9656 1.5 190 20:37 17.09.2019
1556 Clouds 30 1014 70 9656 1.5 190 20:37 17.09.2019
1557 Clouds 30 1014 70 9656 1.5 190 20:19 17.09.2019
1558 Clouds 30 1014 70 9656 1.5 190 20:19 17.09.2019
1559 Clouds 27 1016 83 9656 2.1 180 19:40 17.09.2019
1560 Clouds 33 1015 51 0 1.6 60.918 19:20 17.09.2019
1561 Clouds 26 1016 94 9656 1.6 60.918 18:59 17.09.2019
1562 Clouds 26 1016 94 9656 1.6 60.918 18:59 17.09.2019
1563 Clouds 26 1016 94 9656 1.6 60.918 18:41 17.09.2019
1564 Clouds 26 1016 94 9656 1.6 60.918 18:41 17.09.2019
1565 Clouds 26 1016 94 9656 0.14 3.18 18:22 17.09.2019
1566 Rain 26 1016 94 8047 2.1 190 17:55 17.09.2019
1567 Rain 26 1016 94 8047 2.1 190 17:36 17.09.2019
1568 Rain 26 1016 94 8047 2.1 190 17:18 17.09.2019
1569 Rain 26 1016 94 8047 2.1 190 17:18 17.09.2019
1570 Mist 26 1015 94 8047 0.14 3.18 16:41 17.09.2019
1571 Mist 26 1015 94 8047 0.14 3.18 16:22 17.09.2019
1572 Mist 25 1015 94 6437 0.14 3.18 15:55 17.09.2019
1573 Mist 25 1015 94 6437 0.14 3.18 15:55 17.09.2019
1574 Mist 25 1015 94 6437 0.14 3.18 15:37 17.09.2019
1575 Mist 25 1015 94 6437 1.36 270 15:18 17.09.2019
1576 Clouds 25 1014 94 11265 1.36 270 14:55 17.09.2019
1577 Clouds 25 1014 94 11265 1.36 270 14:55 17.09.2019
1578 Clouds 25 1014 94 11265 1.36 270 14:37 17.09.2019
1579 Clouds 25 1014 94 11265 1.36 270 14:18 17.09.2019
1580 Clouds 25 1014 94 11265 1.36 270 14:18 17.09.2019
1581 Clouds 25 1013 94 11265 1.36 270 13:41 17.09.2019
1582 Clouds 25 1013 94 11265 1.38 271.575 13:22 17.09.2019
1583 Clouds 25 1013 94 11265 1.38 271.575 12:54 17.09.2019
1584 Clouds 22 1016 94 0 1.38 271.575 12:36 17.09.2019
1585 Clouds 22 1015 94 0 1.46 263.318 12:18 17.09.2019
1586 Clouds 22 1015 94 0 1.46 263.318 11:41 17.09.2019
1587 Clouds 22 1015 94 0 1.46 263.318 11:19 17.09.2019
1588 Clouds 22 1015 94 0 1.46 263.318 10:42 17.09.2019
1589 Clouds 22 1015 94 0 1.46 263.318 10:22 17.09.2019
1590 Clouds 22 1015 94 0 1.46 263.318 09:58 17.09.2019
1591 Clouds 22 1015 94 0 1.46 263.318 09:40 17.09.2019
1592 Clouds 23 1016 93 0 1.28 273.574 09:20 17.09.2019
1593 Clouds 23 1016 93 0 1.28 273.574 08:44 17.09.2019
1594 Clouds 23 1016 94 0 1.27 270.541 08:25 17.09.2019
1595 Clouds 23 1016 94 0 1.27 270.541 07:55 17.09.2019
1596 Clouds 23 1016 94 0 1.27 270.541 07:36 17.09.2019
1597 Clouds 23 1016 94 0 1.27 270.541 07:18 17.09.2019
1598 Clouds 22 1015 100 11265 1 40 06:44 17.09.2019
1599 Clouds 27 1014 74 11265 2.1 30 05:58 17.09.2019
1600 Clouds 27 1014 74 11265 2.1 30 05:33 17.09.2019
1601 Clouds 27 1013 74 11265 1.5 20 04:20 17.09.2019
1602 Clouds 30 1011 70 11265 2.6 50 02:41 17.09.2019
1603 Clouds 31 1011 66 11265 4.6 60 01:53 17.09.2019
1604 Clouds 30 1012 70 11265 2.1 110 00:58 17.09.2019
1605 Clouds 32 1012 62 11265 2.1 60 23:57 16.09.2019
1606 Clouds 32 1012 62 11265 2.1 60 23:36 16.09.2019
1607 Clouds 32 1012 62 11265 2.1 60 23:18 16.09.2019
1608 Clouds 32 1013 66 11265 2.1 90 22:41 16.09.2019
1609 Clouds 32 1013 66 11265 2.1 90 22:23 16.09.2019
1610 Clouds 32 1013 62 11265 2.6 70 21:58 16.09.2019
1611 Clouds 32 1013 62 11265 2.6 70 21:38 16.09.2019
1612 Clouds 32 1013 62 11265 2.6 70 21:20 16.09.2019
1613 Clouds 32 1014 62 11265 2.6 230 20:55 16.09.2019
1614 Clouds 32 1014 62 11265 2.6 230 20:37 16.09.2019
1615 Clouds 32 1014 62 11265 2.6 230 20:18 16.09.2019
1616 Clouds 31 1016 62 11265 1.2 119.68 19:42 16.09.2019
1617 Clouds 31 1016 62 11265 1.2 119.68 19:21 16.09.2019
1618 Clouds 30 1016 70 11265 1.2 119.68 18:59 16.09.2019
1619 Clouds 30 1016 70 11265 1.2 119.68 18:41 16.09.2019
1620 Clouds 30 1016 70 11265 0.8 225.908 18:21 16.09.2019
1621 Clouds 29 1016 79 11265 1.5 350 17:43 16.09.2019
1622 Clouds 29 1016 79 11265 1.5 350 17:24 16.09.2019
1623 Clouds 28 1016 78 8047 0.8 225.908 16:58 16.09.2019
1624 Clouds 28 1016 78 8047 0.8 225.908 16:39 16.09.2019
1625 Clouds 28 1016 78 8047 0.8 225.908 16:21 16.09.2019
1626 Clouds 28 1016 78 8047 0.8 225.908 16:21 16.09.2019
1627 Clouds 26 1015 88 8047 0.8 225.908 15:56 16.09.2019
1628 Clouds 26 1015 88 8047 0.8 225.908 15:37 16.09.2019
1629 Clouds 26 1015 88 8047 1.48 274.289 15:19 16.09.2019
1630 Clouds 25 1015 88 11265 1.48 274.289 14:56 16.09.2019
1631 Clouds 25 1015 88 11265 1.48 274.289 14:37 16.09.2019
1632 Clouds 25 1015 88 11265 1.48 274.289 14:19 16.09.2019
1633 Clear 25 1014 88 11265 1.48 274.289 13:40 16.09.2019
1634 Clear 25 1014 88 11265 1.38 273.626 13:21 16.09.2019
1635 Clouds 21 1016 94 0 1.38 273.626 12:46 16.09.2019
1636 Clouds 22 1016 95 0 1.35 275.846 12:27 16.09.2019
1637 Clouds 22 1016 95 0 1.35 275.846 11:58 16.09.2019
1638 Clouds 22 1016 95 0 1.35 275.846 11:39 16.09.2019
1639 Clouds 22 1016 95 0 1.35 275.846 11:21 16.09.2019
1640 Clouds 22 1016 95 0 1.35 275.846 10:39 16.09.2019
1641 Clouds 22 1016 95 0 1.35 275.846 10:21 16.09.2019
1642 Clouds 22 1016 95 0 1.35 275.846 09:58 16.09.2019
1643 Clouds 22 1016 95 0 1.35 275.846 09:40 16.09.2019
1644 Clouds 22 1016 95 0 1.35 275.846 09:40 16.09.2019
1645 Clouds 22 1017 95 0 1.24 276.791 09:20 16.09.2019
1646 Clouds 22 1017 95 0 1.24 276.791 08:47 16.09.2019
1647 Clouds 22 1017 93 0 1.29 253.032 08:28 16.09.2019
1648 Clouds 22 1017 93 0 1.29 253.032 07:56 16.09.2019
1649 Clouds 22 1017 93 0 1.29 253.032 07:56 16.09.2019
1650 Clouds 22 1017 93 0 1.29 253.032 07:38 16.09.2019
1651 Clouds 22 1017 93 0 1.29 253.032 07:38 16.09.2019
1652 Clouds 22 1017 93 0 1.29 253.032 07:20 16.09.2019
1653 Rain 28 1015 83 11265 1.29 253.032 06:46 16.09.2019
1654 Rain 28 1015 83 11265 1.29 253.032 06:27 16.09.2019
1655 Rain 28 1015 78 9656 1 250 05:51 16.09.2019
1656 Rain 28 1015 78 9656 1 250 05:29 16.09.2019
1657 Clouds 28 1014 78 11265 1.25 283.149 04:38 16.09.2019
1658 Clouds 28 1013 78 9656 2.6 60 02:36 16.09.2019
1659 Clouds 31 1013 70 11265 3.6 60 00:44 16.09.2019
1660 Clouds 31 1013 70 11265 3.6 60 00:26 16.09.2019
1661 Clouds 31 1013 66 11265 4.1 50 23:44 15.09.2019
1662 Clouds 31 1013 66 11265 4.1 50 23:21 15.09.2019
1663 Clouds 31 1013 62 11265 3.6 10 22:56 15.09.2019
1664 Clouds 31 1013 62 11265 3.6 10 22:36 15.09.2019
1665 Clouds 31 1013 62 11265 3.6 10 22:18 15.09.2019
1666 Clouds 32 1014 55 11265 4.1 40 21:55 15.09.2019
1667 Clouds 32 1014 55 11265 4.1 40 21:55 15.09.2019
1668 Clouds 32 1014 55 11265 4.1 40 21:36 15.09.2019
1669 Clouds 32 1014 55 11265 4.1 40 21:18 15.09.2019
1670 Clouds 31 1015 58 11265 4.6 10 20:42 15.09.2019
1671 Clouds 31 1015 58 11265 4.6 10 20:24 15.09.2019
1672 Clouds 31 1015 62 11265 1.5 100 19:46 15.09.2019
1673 Clouds 31 1015 62 11265 1.5 100 19:26 15.09.2019
1674 Clouds 30 1016 74 11265 1.5 310 18:55 15.09.2019
1675 Clouds 30 1016 74 11265 1.5 310 18:36 15.09.2019
1676 Clouds 30 1016 74 11265 1.5 310 18:18 15.09.2019
1677 Clouds 28 1015 78 11265 0.3 287.229 17:41 15.09.2019
1678 Clouds 28 1015 78 11265 0.3 287.229 17:21 15.09.2019
1679 Clouds 27 1015 83 11265 0.3 287.229 16:55 15.09.2019
1680 Clouds 27 1015 83 11265 0.3 287.229 16:36 15.09.2019
1681 Clouds 27 1015 83 11265 0.3 287.229 16:18 15.09.2019
1682 Clouds 26 1014 83 11265 0.3 287.229 15:41 15.09.2019
1683 Clouds 26 1014 83 11265 1.17 287.085 15:21 15.09.2019
1684 Clouds 25 1014 88 9656 1.17 287.085 14:58 15.09.2019
1685 Clouds 25 1014 88 9656 1.17 287.085 14:40 15.09.2019
1686 Clouds 25 1014 88 9656 1.17 287.085 14:20 15.09.2019
1687 Clouds 25 1014 88 9656 1.17 287.085 13:47 15.09.2019
1688 Clouds 25 1014 88 9656 1.14 296.363 13:24 15.09.2019
1689 Clouds 25 1014 88 9656 1.14 296.363 12:57 15.09.2019
1690 Clouds 21 1016 92 0 1.14 296.363 12:39 15.09.2019
1691 Clouds 21 1016 93 0 1.35 281.784 12:18 15.09.2019
1692 Clouds 21 1016 93 0 1.35 281.784 11:42 15.09.2019
1693 Clouds 21 1016 93 0 1.35 281.784 11:22 15.09.2019
1694 Clouds 21 1016 93 0 1.35 281.784 10:58 15.09.2019
1695 Clouds 21 1016 93 0 1.35 281.784 10:40 15.09.2019
1696 Clouds 21 1016 93 0 1.35 281.784 10:21 15.09.2019
1697 Clouds 21 1016 93 0 1.35 281.784 09:42 15.09.2019
1698 Clouds 22 1018 95 0 1.74 252.284 09:20 15.09.2019
1699 Clouds 22 1018 95 0 1.74 252.284 08:53 15.09.2019
1700 Rain 21 1017 95 0 1.43 253.489 08:30 15.09.2019
1701 Rain 21 1017 95 0 1.43 253.489 07:57 15.09.2019
1702 Rain 21 1017 95 0 1.43 253.489 07:39 15.09.2019
1703 Clouds 27 1016 88 11265 3.6 40 06:43 15.09.2019
1704 Clouds 28 1015 83 11265 7.7 30 04:59 15.09.2019
1705 Clouds 28 1014 83 11265 5.1 20 03:18 15.09.2019
1706 Clouds 29 1013 89 11265 10.3 20 01:58 15.09.2019
1707 Clouds 29 1013 89 11265 10.3 20 01:58 15.09.2019
1708 Clouds 29 1013 89 11265 10.3 20 01:35 15.09.2019
1709 Clouds 30 1013 74 11265 9.3 20 00:56 15.09.2019
1710 Clouds 30 1013 74 11265 9.3 20 00:36 15.09.2019
1711 Clouds 30 1013 74 11265 9.3 20 00:18 15.09.2019
1712 Clear 31 1013 70 11265 9.3 10 23:54 14.09.2019
1713 Clear 31 1013 70 11265 9.3 10 23:54 14.09.2019
1714 Clear 31 1013 70 11265 9.3 10 23:36 14.09.2019
1715 Clear 31 1013 70 11265 9.3 10 23:18 14.09.2019
1716 Clear 31 1014 70 11265 8.7 20 22:55 14.09.2019
1717 Clear 31 1014 70 11265 8.7 20 22:36 14.09.2019
1718 Clear 31 1014 70 11265 8.7 20 22:18 14.09.2019
1719 Clouds 31 1014 74 11265 8.2 360 21:40 14.09.2019
1720 Clouds 31 1014 74 11265 8.2 360 21:20 14.09.2019
1721 Clouds 31 1015 62 11265 5.7 10 20:56 14.09.2019
1722 Clouds 31 1015 62 11265 5.7 10 20:38 14.09.2019
1723 Clouds 31 1015 62 11265 5.7 10 20:19 14.09.2019
1724 Clouds 30 1015 66 11265 8.7 30 19:45 14.09.2019
1725 Clouds 30 1015 66 11265 8.7 30 19:21 14.09.2019
1726 Clouds 28 1016 69 11265 0.95 116.7 18:57 14.09.2019
1727 Clouds 28 1016 69 11265 0.95 116.7 18:37 14.09.2019
1728 Clouds 28 1016 69 11265 0.77 183.358 18:19 14.09.2019
1729 Clouds 27 1016 74 9656 0.77 183.358 17:43 14.09.2019
1730 Clouds 27 1016 74 9656 0.77 183.358 17:22 14.09.2019
1731 Clouds 26 1016 83 9656 0.77 183.358 16:48 14.09.2019
1732 Clouds 26 1016 83 9656 0.77 183.358 16:28 14.09.2019
1733 Clouds 25 1015 88 9656 0.77 183.358 15:59 14.09.2019
1734 Clouds 25 1015 88 9656 0.77 183.358 15:40 14.09.2019
1735 Clouds 25 1015 88 9656 1.92 246.903 15:21 14.09.2019
1736 Clouds 25 1015 88 9656 1.92 246.903 14:44 14.09.2019
1737 Clouds 25 1015 88 9656 1.92 246.903 14:19 14.09.2019
1738 Clouds 25 1014 88 9656 1.92 246.903 13:55 14.09.2019
1739 Clouds 25 1014 88 9656 1.92 246.903 13:37 14.09.2019
1740 Clouds 25 1014 88 9656 1.81 259.571 13:18 14.09.2019
1741 Rain 22 1016 95 0 1.81 259.571 12:40 14.09.2019
1742 Rain 22 1016 94 0 0.62 302.713 12:18 14.09.2019
1743 Rain 22 1016 94 0 0.62 302.713 11:40 14.09.2019
1744 Rain 22 1016 94 0 0.62 302.713 11:20 14.09.2019
1745 Rain 22 1016 94 0 0.62 302.713 10:39 14.09.2019
1746 Rain 22 1016 94 0 0.62 302.713 10:21 14.09.2019
1747 Rain 22 1016 94 0 0.62 302.713 09:57 14.09.2019
1748 Rain 22 1016 94 0 0.62 302.713 09:39 14.09.2019
1749 Rain 26 1016 94 11265 2.6 340 09:19 14.09.2019
1750 Rain 26 1016 94 11265 2.6 340 08:47 14.09.2019
1751 Rain 26 1016 94 11265 2.6 340 08:25 14.09.2019
1752 Rain 26 1016 94 8047 6.2 350 07:48 14.09.2019
1753 Rain 26 1016 94 8047 6.2 350 07:28 14.09.2019
1754 Rain 26 1016 94 8047 6.2 350 07:28 14.09.2019
1755 Clouds 26 1015 94 11265 1.7 275.748 06:52 14.09.2019
1756 Clouds 26 1015 94 11265 1.7 275.748 06:29 14.09.2019
1757 Clouds 27 1015 94 11265 2.6 350 05:26 14.09.2019
1758 Clouds 28 1014 88 11265 6.7 360 03:46 14.09.2019
1759 Clouds 28 1013 88 11265 5.1 20 02:55 14.09.2019
1760 Clouds 29 1013 83 11265 8.7 20 01:54 14.09.2019
1761 Clouds 29 1013 83 11265 8.7 20 01:23 14.09.2019
1762 Clouds 29 1013 83 11265 8.7 20 01:23 14.09.2019
1763 Clouds 30 1013 74 11265 7.2 360 00:59 14.09.2019
1764 Clouds 30 1013 74 11265 7.2 360 00:39 14.09.2019
1765 Clouds 30 1013 74 11265 7.2 360 00:20 14.09.2019
1766 Clouds 30 1013 79 11265 8.2 10 23:38 13.09.2019
1767 Clouds 30 1013 79 11265 8.2 10 23:19 13.09.2019
1768 Clouds 31 1014 74 11265 5.1 10 22:59 13.09.2019
1769 Clouds 31 1014 74 11265 5.1 10 22:38 13.09.2019
1770 Clouds 30 1014 74 11265 5.1 10 22:20 13.09.2019
1771 Clouds 30 1015 74 11265 5.1 30 21:54 13.09.2019
1772 Clouds 30 1015 74 11265 5.1 30 21:36 13.09.2019
1773 Clouds 30 1015 74 11265 5.1 30 21:18 13.09.2019
1774 Rain 29 1016 74 11265 3.6 20 20:41 13.09.2019
1775 Rain 29 1016 74 11265 3.6 20 20:21 13.09.2019
1776 Rain 29 1016 78 9656 1.2 292.985 19:58 13.09.2019
1777 Clouds 28 1016 78 9656 1.2 292.985 19:40 13.09.2019
1778 Clouds 28 1016 83 9656 1.2 292.985 19:19 13.09.2019
1779 Clouds 27 1016 83 9656 1.2 292.985 18:57 13.09.2019
1780 Rain 26 1016 88 8047 1.2 292.985 18:37 13.09.2019
1781 Rain 25 1016 94 6437 1.21 285.978 18:18 13.09.2019
1782 Rain 25 1016 94 6437 1.21 285.978 18:18 13.09.2019
1783 Rain 25 1016 94 6437 1.21 285.978 17:41 13.09.2019
1784 Rain 25 1016 94 6437 1.21 285.978 17:19 13.09.2019
1785 Rain 25 1015 94 8047 1.21 285.978 16:43 13.09.2019
1786 Rain 25 1015 94 8047 1.21 285.978 16:22 13.09.2019
1787 Rain 25 1015 94 6437 1.21 285.978 15:59 13.09.2019
1788 Rain 24 1015 94 6437 1.21 285.978 15:40 13.09.2019
1789 Rain 24 1015 94 6437 3.23 301.66 15:20 13.09.2019
1790 Rain 24 1016 94 805 6.2 20 14:44 13.09.2019
1791 Rain 24 1016 94 805 6.2 20 14:22 13.09.2019
1792 Rain 25 1014 94 9656 3.23 301.66 13:56 13.09.2019
1793 Clouds 24 1014 94 9656 3.23 301.66 13:37 13.09.2019
1794 Clouds 25 1014 94 9656 1.23 289.648 13:19 13.09.2019
1795 Clouds 24 1012 83 0 0.45 234 12:41 13.09.2019
1796 Clouds 24 1012 82 0 0.89 271 12:23 13.09.2019
1797 Clouds 24 1012 81 0 0.89 271 11:56 13.09.2019
1798 Clouds 24 1012 82 0 1.49 288.496 11:20 13.09.2019
1799 Clouds 24 1012 81 0 0.45 271 10:41 13.09.2019
1800 Clouds 24 1012 81 0 0.45 271 10:20 13.09.2019
1801 Clouds 24 1012 81 0 1.49 288.496 09:46 13.09.2019
1802 Clouds 24 1012 81 0 0.45 271 09:25 13.09.2019
1803 Rain 24 1012 81 0 0.45 271 08:59 13.09.2019
1804 Clouds 24 1013 81 0 1.54 254.396 08:41 13.09.2019
1805 Clouds 24 1013 80 0 1.54 254.396 08:21 13.09.2019
1806 Clouds 25 1016 88 9656 1.54 254.396 07:56 13.09.2019
1807 Clouds 25 1016 88 9656 1.54 254.396 07:38 13.09.2019
1808 Clouds 25 1016 88 9656 1.54 254.396 06:48 13.09.2019
1809 Clouds 26 1015 88 9656 0.91 302.119 05:49 13.09.2019
1810 Clouds 26 1015 88 9656 0.91 302.119 04:59 13.09.2019
1811 Clouds 26 1014 88 9656 1.5 350 03:40 13.09.2019
1812 Clouds 26 1013 88 8047 3.1 360 02:21 13.09.2019
1813 Clouds 27 1012 88 9656 5.7 20 01:59 13.09.2019
1814 Clouds 27 1012 88 9656 5.7 20 01:34 13.09.2019
1815 Rain 26 1012 94 6437 5.1 20 00:47 13.09.2019
1816 Rain 26 1012 94 6437 5.1 20 00:21 13.09.2019
1817 Rain 25 1013 94 8047 6.7 50 23:38 12.09.2019
1818 Rain 26 1013 94 8047 6.7 50 23:19 12.09.2019
1819 Clouds 27 1014 78 8047 9.8 40 22:42 12.09.2019
1820 Clouds 28 1014 78 8047 9.8 40 22:23 12.09.2019
1821 Clouds 29 1014 70 11265 5.1 10 21:57 12.09.2019
1822 Clouds 29 1014 70 11265 5.1 10 21:38 12.09.2019
1823 Clouds 29 1014 70 11265 5.1 10 21:38 12.09.2019
1824 Clouds 30 1014 70 11265 5.1 10 21:20 12.09.2019
1825 Clouds 30 1014 70 11265 4.1 10 20:56 12.09.2019
1826 Clouds 30 1014 70 11265 4.1 10 20:38 12.09.2019
1827 Clouds 30 1014 70 11265 4.1 10 20:20 12.09.2019
1828 Clouds 29 1015 79 11265 5.7 20 19:54 12.09.2019
1829 Clouds 29 1015 79 11265 5.7 20 19:36 12.09.2019
1830 Clouds 29 1015 79 11265 5.7 20 19:36 12.09.2019
1831 Rain 29 1013 65 0 4.02 348 19:18 12.09.2019
1832 Clouds 29 1015 74 11265 4.6 30 18:37 12.09.2019
1833 Clouds 29 1015 74 11265 4.6 30 18:19 12.09.2019
1834 Clouds 28 1014 83 11265 1.07 357.59 17:56 12.09.2019
1835 Clouds 28 1014 83 11265 1.07 357.59 17:38 12.09.2019
1836 Clouds 27 1014 83 11265 1.07 357.59 17:19 12.09.2019
1837 Clouds 26 1014 83 9656 1.07 357.59 16:41 12.09.2019
1838 Clouds 26 1014 83 9656 1.07 357.59 16:21 12.09.2019
1839 Rain 23 1014 94 9656 1 300 15:43 12.09.2019
1840 Rain 23 1014 94 9656 1 300 15:24 12.09.2019
1841 Rain 23 1014 94 9656 2.6 340 14:58 12.09.2019
1842 Rain 23 1014 94 9656 2.6 340 14:39 12.09.2019
1843 Rain 23 1014 94 9656 2.6 340 14:20 12.09.2019
1844 Rain 22 1015 100 9656 1.71 284.826 13:39 12.09.2019
1845 Rain 22 1015 100 9656 1.71 284.826 13:39 12.09.2019
1846 Rain 22 1015 100 9656 1.85 291.928 13:21 12.09.2019
1847 Rain 22 1013 83 0 1.79 292 12:49 12.09.2019
1848 Rain 22 1013 83 0 1.79 292 12:20 12.09.2019
1849 Rain 22 1013 83 0 1.34 306 11:58 12.09.2019
1850 Rain 22 1013 83 0 1.34 327 11:40 12.09.2019
1851 Rain 22 1013 83 0 0.89 327 11:21 12.09.2019
1852 Rain 22 1013 83 0 0.89 327 10:54 12.09.2019
1853 Rain 22 1013 83 0 0.89 327 10:36 12.09.2019
1854 Rain 22 1013 82 0 2.24 276 10:18 12.09.2019
1855 Rain 22 1014 82 0 0.89 282 09:42 12.09.2019
1856 Rain 22 1014 81 0 1.34 226 09:20 12.09.2019
1857 Rain 26 1014 78 0 0.89 260 08:44 12.09.2019
1858 Rain 26 1014 78 0 0.89 260 08:23 12.09.2019
1859 Clouds 27 1015 88 11265 1.5 340 07:54 12.09.2019
1860 Clouds 27 1015 88 11265 1.5 340 07:36 12.09.2019
1861 Rain 26 1013 78 0 0.89 321 07:18 12.09.2019
1862 Clouds 27 1015 88 11265 1.62 282.479 06:44 12.09.2019
1863 Clouds 27 1015 88 11265 2.1 340 05:59 12.09.2019
1864 Clouds 26 1015 88 11265 2.1 340 05:39 12.09.2019
1865 Clouds 27 1014 94 11265 1.24 295.842 04:47 12.09.2019
1866 Clouds 27 1014 94 11265 2.6 10 03:23 12.09.2019
1867 Clouds 28 1013 83 11265 4.1 10 01:43 12.09.2019
1868 Clouds 28 1013 83 11265 4.1 10 01:23 12.09.2019
1869 Clouds 28 1014 83 11265 3.1 20 00:47 12.09.2019
1870 Clouds 28 1014 83 11265 3.1 20 00:28 12.09.2019
1871 Clouds 28 1014 74 11265 3.6 20 23:43 11.09.2019
1872 Clouds 28 1014 74 11265 3.6 20 23:25 11.09.2019
1873 Clouds 28 1014 74 11265 3.1 20 22:58 11.09.2019
1874 Clouds 28 1014 74 11265 3.1 20 22:38 11.09.2019
1875 Clouds 28 1014 74 11265 3.1 20 22:19 11.09.2019
1876 Clouds 28 1015 74 9656 3.1 350 21:57 11.09.2019
1877 Clouds 28 1015 74 9656 3.1 350 21:39 11.09.2019
1878 Clouds 28 1015 74 9656 3.1 350 21:20 11.09.2019
1879 Clouds 28 1016 74 9656 4.1 360 20:54 11.09.2019
1880 Clouds 28 1016 74 9656 4.1 360 20:36 11.09.2019
1881 Clouds 28 1016 74 9656 4.1 360 20:18 11.09.2019
1882 Clouds 29 1016 70 9656 6.7 40 19:55 11.09.2019
1883 Clouds 29 1016 70 9656 6.7 40 19:37 11.09.2019
1884 Clouds 29 1016 70 9656 6.7 40 19:18 11.09.2019
1885 Clouds 29 1016 74 9656 5.1 30 18:42 11.09.2019
1886 Clouds 29 1016 74 9656 5.1 30 18:22 11.09.2019
1887 Clouds 29 1016 78 9656 3.1 330 17:58 11.09.2019
1888 Clouds 28 1016 78 9656 3.1 330 17:39 11.09.2019
1889 Clouds 28 1016 78 9656 3.1 330 17:20 11.09.2019
1890 Clouds 27 1016 83 8047 1.5 310 16:54 11.09.2019
1891 Clouds 27 1016 83 8047 1.5 310 16:36 11.09.2019
1892 Clouds 27 1016 83 8047 1.5 310 16:36 11.09.2019
1893 Clouds 27 1016 83 8047 1.5 310 16:18 11.09.2019
1894 Clouds 26 1015 83 8047 2.6 30 15:43 11.09.2019
1895 Clouds 25 1015 83 8047 2.6 30 15:20 11.09.2019
1896 Clouds 25 1014 83 9656 1.5 340 14:57 11.09.2019
1897 Clouds 25 1014 83 9656 1.5 340 14:37 11.09.2019
1898 Clouds 25 1014 83 9656 1.5 340 14:18 11.09.2019
1899 Clouds 25 1014 83 9656 1.47 303.377 13:40 11.09.2019
1900 Clouds 25 1014 83 9656 1.41 296.892 13:21 11.09.2019
1901 Clouds 25 1014 83 9656 1.41 296.892 12:59 11.09.2019
1902 Clouds 25 1014 83 9656 1.41 296.892 12:59 11.09.2019
1903 Clouds 26 1012 82 0 0.45 299 12:38 11.09.2019
1904 Clouds 25 1012 81 0 0.45 300 12:20 11.09.2019
1905 Rain 25 1012 79 0 1.71 297.029 11:40 11.09.2019
1906 Rain 26 1013 80 0 1.34 177 11:21 11.09.2019
1907 Clouds 26 1013 80 0 1.71 297.029 10:57 11.09.2019
1908 Clouds 26 1013 80 0 1.71 297.029 10:39 11.09.2019
1909 Clouds 26 1013 80 0 0.45 232 10:20 11.09.2019
1910 Clouds 27 1013 78 0 1.71 297.029 09:40 11.09.2019
1911 Rain 27 1014 79 0 2.03 293.465 09:20 11.09.2019
1912 Rain 27 1013 79 0 0.89 302 08:56 11.09.2019
1913 Rain 27 1013 79 0 0.89 302 08:38 11.09.2019
1914 Clouds 27 1016 100 9656 1.79 290.114 08:20 11.09.2019
1915 Clouds 27 1016 100 9656 1.79 290.114 07:40 11.09.2019
1916 Clouds 27 1016 100 9656 1.79 290.114 07:22 11.09.2019
1917 Clouds 28 1016 100 9656 1.79 290.114 06:48 11.09.2019
1918 Clouds 28 1016 100 9656 1.79 290.114 06:29 11.09.2019
1919 Clouds 29 1015 100 11265 3.1 60 05:37 11.09.2019
1920 Clouds 29 1015 100 11265 3.1 60 05:18 11.09.2019
1921 Clouds 29 1014 100 11265 1.5 60 04:23 11.09.2019
1922 Clouds 29 1013 100 11265 2.02 291.996 03:31 11.09.2019
1923 Clouds 29 1013 100 11265 2.6 60 02:41 11.09.2019
1924 Clouds 30 1012 79 9656 3.6 70 01:50 11.09.2019
1925 Clouds 32 1012 70 9656 3.1 90 00:49 11.09.2019
1926 Clouds 32 1012 70 9656 3.1 90 00:20 11.09.2019
1927 Clouds 32 1012 70 9656 3.1 90 00:20 11.09.2019
1928 Clouds 31 1013 74 11265 3.1 70 23:41 10.09.2019
1929 Clouds 31 1013 74 11265 3.1 70 23:22 10.09.2019
1930 Clouds 32 1014 63 11265 3.1 60 22:59 10.09.2019
1931 Clouds 33 1014 63 11265 3.1 60 22:40 10.09.2019
1932 Clouds 33 1014 63 11265 3.1 60 22:19 10.09.2019
1933 Clouds 32 1015 70 11265 5.1 60 21:55 10.09.2019
1934 Clouds 32 1015 70 11265 5.1 60 21:37 10.09.2019
1935 Clouds 32 1015 70 11265 5.1 60 21:18 10.09.2019
1936 Clouds 32 1015 66 11265 3.1 10 20:56 10.09.2019
1937 Clouds 32 1015 66 11265 3.1 10 20:38 10.09.2019
1938 Clouds 32 1015 66 11265 3.1 10 20:38 10.09.2019
1939 Clouds 32 1015 66 11265 3.1 10 20:19 10.09.2019
1940 Clouds 31 1015 62 11265 3.1 70 19:55 10.09.2019
1941 Clouds 31 1015 62 11265 3.1 70 19:36 10.09.2019
1942 Clouds 31 1015 62 9656 1 360 19:18 10.09.2019
1943 Clouds 31 1015 62 9656 1 360 19:18 10.09.2019
1944 Clouds 31 1015 62 9656 1 360 18:45 10.09.2019
1945 Clouds 31 1015 62 9656 1 360 18:23 10.09.2019
1946 Smoke 30 1016 70 9656 1.63 302.558 17:59 10.09.2019
1947 Smoke 30 1016 70 9656 1.63 302.558 17:40 10.09.2019
1948 Smoke 29 1016 70 9656 1.63 302.558 17:20 10.09.2019
1949 Clouds 28 1015 83 9656 1.63 302.558 16:57 10.09.2019
1950 Clouds 28 1015 83 9656 1.63 302.558 16:38 10.09.2019
1951 Clouds 28 1015 83 9656 1.63 302.558 16:38 10.09.2019
1952 Clouds 28 1015 83 9656 1.63 302.558 16:19 10.09.2019
1953 Clouds 26 1015 88 8047 1.63 302.558 15:44 10.09.2019
1954 Clouds 25 1015 88 8047 1.4 296.767 15:23 10.09.2019
1955 Clouds 25 1015 83 9656 1.4 296.767 14:58 10.09.2019
1956 Clouds 25 1015 83 9656 1.4 296.767 14:39 10.09.2019
1957 Clouds 25 1015 83 9656 1.4 296.767 14:21 10.09.2019
1958 Clouds 24 1014 83 9656 1.4 296.767 13:47 10.09.2019
1959 Clouds 24 1014 83 9656 1.4 296.767 13:47 10.09.2019
1960 Clouds 24 1014 83 9656 1.09 351.795 13:23 10.09.2019
1961 Rain 25 1014 83 9656 1.09 351.795 12:54 10.09.2019
1962 Rain 24 1012 80 0 1.09 351.795 12:36 10.09.2019
1963 Rain 24 1012 80 0 1.58 293.785 12:18 10.09.2019
1964 Rain 24 1012 79 0 1.34 332 11:41 10.09.2019
1965 Rain 24 1012 79 0 1.79 315 11:22 10.09.2019
1966 Clouds 24 1012 79 0 0.45 300 10:54 10.09.2019
1967 Clouds 24 1012 79 0 0.89 300 10:36 10.09.2019
1968 Clouds 24 1012 79 0 0.45 290 10:18 10.09.2019
1969 Clouds 24 1013 79 0 0.45 301 09:43 10.09.2019
1970 Rain 24 1013 78 0 1.4 280.239 09:20 10.09.2019
1971 Rain 24 1013 79 0 0.45 301 08:48 10.09.2019
1972 Rain 25 1013 78 0 0.89 301 08:29 10.09.2019
1973 Rain 25 1013 78 0 0.89 301 08:29 10.09.2019
1974 Rain 26 1013 74 0 0.45 192 07:59 10.09.2019
1975 Rain 26 1013 73 0 1.37 281.564 07:41 10.09.2019
1976 Rain 26 1013 73 0 1.37 281.564 07:23 10.09.2019
1977 Clouds 28 1015 74 11265 1 80 06:40 10.09.2019
1978 Clouds 28 1015 74 11265 1 80 06:40 10.09.2019
1979 Clouds 28 1014 74 11265 1.5 70 06:20 10.09.2019
1980 Clouds 28 1013 74 11265 1.5 90 04:19 10.09.2019
1981 Clouds 29 1012 70 11265 1.5 100 02:39 10.09.2019
1982 Clouds 29 1012 70 11265 1.5 100 02:39 10.09.2019
1983 Clouds 29 1012 70 11265 1.5 100 02:39 10.09.2019
1984 Clouds 29 1012 70 11265 1.5 100 02:39 10.09.2019
1985 Clouds 29 1012 70 11265 1.5 100 02:39 10.09.2019
1986 Clouds 29 1012 70 11265 1.5 100 02:20 10.09.2019
1987 Clouds 29 1012 70 11265 1.5 100 02:20 10.09.2019
1988 Clouds 29 1012 70 11265 1.5 100 02:20 10.09.2019
1989 Clouds 29 1012 74 11265 2.1 90 01:50 10.09.2019
1990 Clouds 29 1012 74 11265 2.1 90 01:22 10.09.2019
1991 Clouds 30 1012 70 11265 4.1 90 00:36 10.09.2019
1992 Clouds 30 1012 84 11265 4.6 60 23:58 09.09.2019
1993 Clouds 30 1012 84 11265 4.6 60 23:40 09.09.2019
1994 Clouds 31 1014 62 11265 7.2 60 23:18 09.09.2019
1995 Clouds 32 1014 62 11265 7.2 60 22:54 09.09.2019
1996 Clouds 32 1014 62 11265 7.2 60 22:36 09.09.2019
1997 Clouds 32 1014 59 11265 3.6 60 22:18 09.09.2019
1998 Clouds 32 1014 59 11265 3.6 60 21:55 09.09.2019
1999 Clouds 32 1014 59 11265 3.6 60 21:55 09.09.2019
2000 Clouds 33 1014 59 11265 3.6 60 21:36 09.09.2019
2001 Clouds 33 1015 59 11265 1.5 140 21:18 09.09.2019
2002 Clouds 33 1015 59 11265 1.5 140 20:55 09.09.2019
2003 Clouds 33 1015 59 11265 1.5 140 20:36 09.09.2019
2004 Clouds 32 1015 66 11265 1 220 20:18 09.09.2019
2005 Clouds 32 1015 66 11265 1 220 19:55 09.09.2019
2006 Clouds 32 1015 66 11265 1 220 19:37 09.09.2019
2007 Clouds 32 1015 66 11265 1 220 19:18 09.09.2019
2008 Clouds 31 1015 70 9656 1 250 18:54 09.09.2019
2009 Clouds 30 1015 70 9656 1 250 18:36 09.09.2019
2010 Clouds 30 1015 70 9656 1 250 18:36 09.09.2019
2011 Clouds 29 1015 74 8047 1.5 230 18:18 09.09.2019
2012 Clouds 29 1015 74 8047 1.5 230 17:41 09.09.2019
2013 Clouds 29 1015 74 8047 1.5 230 17:41 09.09.2019
2014 Clouds 28 1015 74 8047 1.5 230 17:21 09.09.2019
2015 Clouds 28 1015 78 6437 0.89 325.97 16:59 09.09.2019
2016 Clouds 27 1015 78 6437 0.89 325.97 16:39 09.09.2019
2017 Clouds 27 1015 78 6437 0.89 325.97 16:20 09.09.2019
2018 Clouds 27 1015 78 6437 0.89 325.97 16:20 09.09.2019
2019 Clouds 25 1014 83 8047 0.89 325.97 15:56 09.09.2019
2020 Clouds 25 1014 83 8047 0.89 325.97 15:56 09.09.2019
2021 Clouds 25 1014 83 8047 0.89 325.97 15:37 09.09.2019
2022 Clouds 24 1013 82 0 0.89 185 15:18 09.09.2019
2023 Clear 24 1014 83 8047 1.1 285.424 14:56 09.09.2019
2024 Clear 24 1014 83 8047 1.1 285.424 14:37 09.09.2019
2025 Clear 24 1014 83 8047 1.1 285.424 14:37 09.09.2019
2026 Clouds 23 1012 83 0 1.1 285.424 14:19 09.09.2019
2027 Clear 24 1014 83 9656 1.1 285.424 13:44 09.09.2019
2028 Clear 24 1014 83 9656 1.15 302.158 13:21 09.09.2019
2029 Clear 24 1014 83 9656 1.15 302.158 12:58 09.09.2019
2030 Clouds 24 1012 82 0 0.89 185 12:38 09.09.2019
2031 Clouds 24 1012 81 0 1.34 247 12:20 09.09.2019
2032 Clouds 24 1012 80 0 1.18 280.118 11:47 09.09.2019
2033 Clouds 24 1012 80 0 1.18 280.118 11:47 09.09.2019
2034 Clouds 25 1012 79 0 1.18 280.118 11:23 09.09.2019
2035 Clouds 25 1011 78 0 0.89 360 10:59 09.09.2019
2036 Clouds 26 1011 78 0 0.45 360 10:41 09.09.2019
2037 Clouds 26 1012 78 0 0.89 5 10:20 09.09.2019
2038 Clouds 26 1012 78 0 0.89 22 09:57 09.09.2019
2039 Clouds 27 1012 74 0 0.45 22 09:38 09.09.2019
2040 Rain 27 1013 75 0 1.58 283.755 09:19 09.09.2019
2041 Rain 26 1013 76 0 0.89 275 08:39 09.09.2019
2042 Rain 26 1013 76 0 0.89 275 08:39 09.09.2019
2043 Rain 26 1013 76 0 0.89 275 08:20 09.09.2019
2044 Rain 26 1013 77 0 1.34 275 07:46 09.09.2019
2045 Rain 26 1014 77 0 0.89 277 07:23 09.09.2019
2046 Clouds 27 1016 74 11265 1.59 281.105 06:57 09.09.2019
2047 Clouds 27 1016 74 11265 1.59 281.105 06:35 09.09.2019
2048 Clouds 28 1015 74 11265 1.85 290.263 04:55 09.09.2019
2049 Clouds 28 1015 74 11265 1.85 290.263 04:55 09.09.2019
2050 Clouds 28 1015 74 11265 1.85 290.263 04:55 09.09.2019
2051 Clouds 29 1013 70 11265 2.1 110 02:54 09.09.2019
2052 Clouds 29 1013 70 11265 2.1 110 02:34 09.09.2019
2053 Clouds 29 1013 74 11265 2.6 100 00:41 09.09.2019
2054 Clouds 30 1013 70 11265 2.6 100 00:21 09.09.2019
2055 Clouds 30 1013 70 11265 2.6 100 23:44 08.09.2019
2056 Clouds 30 1013 70 11265 2.6 100 23:23 08.09.2019
2057 Clouds 31 1014 62 11265 3.1 110 22:56 08.09.2019
2058 Clouds 31 1014 62 11265 3.1 110 22:37 08.09.2019
2059 Clouds 32 1014 62 11265 4.6 70 22:19 08.09.2019
2060 Clouds 32 1014 62 11265 4.6 70 21:42 08.09.2019
2061 Clouds 32 1014 62 11265 4.6 70 21:22 08.09.2019
2062 Clouds 31 1015 66 11265 3.6 80 20:57 08.09.2019
2063 Clouds 31 1015 66 11265 3.6 80 20:38 08.09.2019
2064 Clouds 31 1015 66 11265 3.6 80 20:20 08.09.2019
2065 Clouds 31 1015 66 11265 2.6 40 19:57 08.09.2019
2066 Clouds 31 1015 66 11265 2.6 40 19:37 08.09.2019
2067 Clear 30 1015 74 9656 2.15 55.174 19:18 08.09.2019
2068 Clear 31 1015 74 9656 2.15 55.174 18:56 08.09.2019
2069 Clear 30 1015 74 9656 2.15 55.174 18:37 08.09.2019
2070 Clouds 30 1014 56 0 1.79 120 18:18 08.09.2019
2071 Clear 28 1015 78 9656 0.67 334.74 17:38 08.09.2019
2072 Clouds 28 1014 63 0 0.45 197 17:19 08.09.2019
2073 Clear 28 1016 78 9656 2.6 200 16:59 08.09.2019
2074 Clear 27 1016 78 9656 2.6 200 16:40 08.09.2019
2075 Clear 27 1016 78 9656 2.6 200 16:21 08.09.2019
2076 Clouds 25 1015 78 9656 0.67 334.74 15:57 08.09.2019
2077 Clouds 24 1015 78 9656 0.67 334.74 15:39 08.09.2019
2078 Clouds 24 1015 78 9656 1.75 283.616 15:20 08.09.2019
2079 Clouds 23 1015 78 9656 1.75 283.616 14:41 08.09.2019
2080 Clouds 23 1015 78 9656 1.75 283.616 14:23 08.09.2019
2081 Clear 24 1015 78 9656 1.75 283.616 13:59 08.09.2019
2082 Clear 23 1015 78 9656 1.75 283.616 13:40 08.09.2019
2083 Clear 24 1015 78 9656 1.58 288.641 13:22 08.09.2019
2084 Clear 23 1015 78 9656 1.58 288.641 12:59 08.09.2019
2085 Clear 23 1013 80 0 1.79 242 12:41 08.09.2019
2086 Clear 23 1013 81 0 0.89 205 12:22 08.09.2019
2087 Clear 23 1013 81 0 0.89 205 12:22 08.09.2019
2088 Clear 23 1013 80 0 0.89 204 11:57 08.09.2019
2089 Clear 23 1013 78 0 1.79 211 11:38 08.09.2019
2090 Clear 23 1013 78 0 1.62 281.129 11:19 08.09.2019
2091 Clear 24 1013 75 0 1.62 281.129 10:43 08.09.2019
2092 Clear 24 1013 74 0 1.62 281.129 10:23 08.09.2019
2093 Clear 24 1013 76 0 1.62 281.129 09:58 08.09.2019
2094 Clear 24 1014 73 0 1.62 281.129 09:38 08.09.2019
2095 Rain 24 1014 73 0 1.66 268.234 09:19 08.09.2019
2096 Rain 24 1014 74 0 0.89 341 08:40 08.09.2019
2097 Rain 24 1014 74 0 0.45 341 08:19 08.09.2019
2098 Rain 24 1015 75 0 1.63 267.146 07:59 08.09.2019
2099 Rain 24 1015 74 0 1.63 267.146 07:37 08.09.2019
2100 Thunderstorm 25 1017 100 11265 2.6 360 07:19 08.09.2019
2101 Thunderstorm 25 1017 100 11265 2.6 360 06:44 08.09.2019
2102 Thunderstorm 25 1016 100 11265 2.1 20 05:45 08.09.2019
2103 Thunderstorm 26 1016 100 11265 2.1 20 05:27 08.09.2019
2104 Clouds 26 1014 94 11265 2.1 290 03:30 08.09.2019
2105 Clouds 28 1014 100 11265 3.1 360 02:51 08.09.2019
2106 Clouds 30 1014 79 11265 4.1 30 01:57 08.09.2019
2107 Clouds 29 1014 79 11265 4.1 30 01:34 08.09.2019
2108 Clouds 30 1014 74 11265 4.1 80 00:50 08.09.2019
2109 Clouds 30 1014 74 11265 4.1 80 00:32 08.09.2019
2110 Clouds 31 1014 70 11265 4.1 60 23:59 07.09.2019
2111 Clouds 31 1014 70 11265 4.1 60 23:37 07.09.2019
2112 Clouds 32 1014 70 11265 5.1 60 23:19 07.09.2019
2113 Clouds 32 1014 70 11265 5.1 60 22:44 07.09.2019
2114 Clouds 32 1014 70 11265 5.1 60 22:25 07.09.2019
2115 Clouds 32 1015 70 11265 2.1 50 21:59 07.09.2019
2116 Clouds 32 1015 70 11265 2.1 50 21:39 07.09.2019
2117 Clouds 32 1015 70 11265 2.1 50 21:21 07.09.2019
2118 Clouds 31 1016 66 11265 3.1 60 20:41 07.09.2019
2119 Clouds 31 1016 66 11265 3.1 60 20:22 07.09.2019
2120 Clouds 31 1017 66 11265 4.1 70 19:57 07.09.2019
2121 Clouds 31 1017 66 11265 4.1 70 19:38 07.09.2019
2122 Clear 31 1015 55 0 3.13 94 19:20 07.09.2019
2123 Clouds 31 1017 66 11265 1.5 40 18:59 07.09.2019
2124 Clouds 31 1017 66 11265 1.5 40 18:39 07.09.2019
2125 Clear 31 1015 56 0 1.34 35 18:20 07.09.2019
2126 Clouds 30 1016 70 11265 2.1 350 17:59 07.09.2019
2127 Clouds 29 1016 70 11265 2.1 350 17:39 07.09.2019
2128 Clear 29 1015 60 0 0.89 42 17:18 07.09.2019
2129 Clouds 28 1016 74 11265 0.87 357.945 16:56 07.09.2019
2130 Clouds 27 1016 74 11265 0.87 357.945 16:38 07.09.2019
2131 Clear 28 1015 69 0 0.89 265 16:18 07.09.2019
2132 Clouds 25 1016 83 11265 0.87 357.945 15:44 07.09.2019
2133 Clouds 25 1016 83 11265 0.87 357.945 15:25 07.09.2019
2134 Clouds 24 1016 83 9656 1.56 278.651 14:56 07.09.2019
2135 Clouds 24 1016 83 9656 1.56 278.651 14:36 07.09.2019
2136 Clouds 25 1016 78 9656 1.56 278.651 14:18 07.09.2019
2137 Clouds 24 1016 78 9656 1.56 278.651 13:55 07.09.2019
2138 Clouds 24 1016 78 9656 1.56 278.651 13:55 07.09.2019
2139 Clouds 24 1016 78 9656 1.56 278.651 13:37 07.09.2019
2140 Clouds 24 1016 78 9656 1.31 278.716 13:18 07.09.2019
2141 Clouds 24 1016 78 9656 1.31 278.716 13:18 07.09.2019
2142 Clear 24 1014 80 0 0.45 311 12:42 07.09.2019
2143 Clear 24 1014 80 0 0.45 311 12:23 07.09.2019
2144 Clear 24 1013 81 0 0.89 311 11:41 07.09.2019
2145 Clear 24 1013 81 0 0.45 309 11:22 07.09.2019
2146 Clear 25 1014 78 0 1.72 273.543 10:56 07.09.2019
2147 Clear 25 1014 78 0 1.72 273.543 10:37 07.09.2019
2148 Clear 25 1014 79 0 1.72 273.543 10:18 07.09.2019
2149 Clear 25 1014 78 0 0.89 309 09:42 07.09.2019
2150 Clouds 25 1014 79 0 0.89 288 09:22 07.09.2019
2151 Clouds 25 1014 79 0 0.89 288 09:22 07.09.2019
2152 Rain 25 1015 80 0 0.89 246 08:55 07.09.2019
2153 Rain 25 1015 80 0 0.89 246 08:36 07.09.2019
2154 Rain 25 1015 80 0 0.89 232 08:18 07.09.2019
2155 Rain 24 1015 79 0 0.45 232 07:43 07.09.2019
2156 Rain 25 1017 100 11265 1.94 271.924 07:22 07.09.2019
2157 Rain 26 1017 100 11265 1.94 271.924 06:42 07.09.2019
2158 Rain 25 1017 100 9656 1.63 298.546 05:40 07.09.2019
2159 Thunderstorm 25 1016 100 11265 1.63 298.546 04:26 07.09.2019
2160 Thunderstorm 26 1015 94 9656 1.63 298.546 03:41 07.09.2019
2161 Clouds 29 1014 84 9656 4.1 20 02:22 07.09.2019
2162 Clouds 30 1014 84 9656 4.1 20 01:29 07.09.2019
2163 Clouds 31 1014 89 9656 4.1 350 00:54 07.09.2019
2164 Clouds 31 1014 89 9656 4.1 350 00:36 07.09.2019
2165 Clouds 31 1014 70 9656 4.1 10 00:18 07.09.2019
2166 Clouds 31 1014 70 9656 4.1 10 23:38 06.09.2019
2167 Clouds 32 1015 66 9656 7.7 40 23:19 06.09.2019
2168 Clouds 32 1015 66 9656 7.7 40 22:56 06.09.2019
2169 Clouds 32 1015 66 9656 7.7 40 22:36 06.09.2019
2170 Clouds 31 1013 60 0 4.47 22 22:18 06.09.2019
2171 Clouds 31 1013 60 0 4.47 22 22:18 06.09.2019
2172 Clouds 32 1016 66 9656 5.1 20 21:54 06.09.2019
2173 Clouds 32 1016 66 9656 5.1 20 21:36 06.09.2019
2174 Clouds 32 1016 66 9656 5.1 20 21:36 06.09.2019
2175 Clouds 32 1016 66 11265 4.6 30 21:18 06.09.2019
2176 Clouds 32 1016 66 11265 4.6 30 20:41 06.09.2019
2177 Rain 32 1016 66 11265 4.6 30 20:22 06.09.2019
2178 Rain 32 1016 66 9656 3.1 50 19:59 06.09.2019
2179 Rain 32 1016 66 9656 3.1 50 19:41 06.09.2019
2180 Rain 32 1016 66 9656 3.1 50 19:41 06.09.2019
2181 Clouds 32 1014 54 0 4.47 46 19:21 06.09.2019
2182 Clouds 32 1016 66 8047 1.9 20.69 18:55 06.09.2019
2183 Clouds 32 1016 66 8047 1.9 20.69 18:37 06.09.2019
2184 Clouds 32 1016 66 8047 1.9 20.69 18:37 06.09.2019
2185 Clouds 30 1015 74 6437 0.65 320.667 18:18 06.09.2019
2186 Clouds 30 1015 74 6437 0.65 320.667 17:39 06.09.2019
2187 Clouds 29 1015 74 6437 0.65 320.667 17:20 06.09.2019
2188 Mist 27 1015 83 8047 0.65 320.667 16:43 06.09.2019
2189 Mist 26 1015 83 8047 0.65 320.667 16:20 06.09.2019
2190 Mist 26 1015 94 6437 1.5 310 15:59 06.09.2019
2191 Mist 26 1015 94 6437 1.5 310 15:41 06.09.2019
2192 Mist 26 1015 94 6437 1.5 310 15:22 06.09.2019
2193 -273 0 0 0 0 0 14:46 06.09.2019
2194 Clouds 24 1014 82 0 1.84 277.778 14:19 06.09.2019
2195 Clouds 26 1015 94 9656 1.84 277.778 13:44 06.09.2019
2196 Clouds 26 1015 94 9656 1.85 278.156 13:23 06.09.2019
2197 Clouds 26 1015 94 9656 1.85 278.156 12:57 06.09.2019
2198 Clouds 26 1013 82 0 1.85 278.156 12:37 06.09.2019
2199 Clouds 26 1013 83 0 1.72 268.57 12:18 06.09.2019
2200 Clouds 26 1013 83 0 1.72 268.57 11:41 06.09.2019
2201 Clouds 26 1012 82 0 1.72 268.57 11:23 06.09.2019
2202 Clouds 26 1013 82 0 1.72 268.57 10:56 06.09.2019
2203 Clouds 26 1013 82 0 1.72 268.57 10:56 06.09.2019
2204 Clouds 27 1013 81 0 1.72 268.57 10:38 06.09.2019
2205 Clouds 27 1013 82 0 1.51 262.983 10:18 06.09.2019
2206 Clouds 27 1014 82 0 1.51 262.983 09:38 06.09.2019
2207 Rain 27 1014 82 0 2.15 279.454 09:20 06.09.2019
2208 Rain 27 1014 81 0 0.89 315 08:55 06.09.2019
2209 -273 0 0 0 0 0 08:55 06.09.2019
2210 Rain 28 1014 81 0 0.45 315 08:37 06.09.2019
2211 Rain 28 1014 81 0 0.45 315 08:18 06.09.2019
2212 Rain 28 1014 81 0 0.45 315 08:18 06.09.2019
2213 Rain 28 1014 81 0 0.89 92 07:42 06.09.2019
2214 Rain 28 1014 81 0 0.89 92 07:42 06.09.2019
2215 Rain 28 1014 80 0 0.45 92 07:23 06.09.2019
2216 Clouds 29 1016 84 9656 2.15 279.454 06:43 06.09.2019
2217 Clouds 29 1016 84 9656 1.66 310.411 05:58 06.09.2019
2218 Clouds 30 1015 79 9656 1.66 310.411 04:57 06.09.2019
2219 Clouds 30 1015 79 9656 1.66 310.411 04:26 06.09.2019
2220 Clouds 30 1014 79 9656 2.1 70 03:29 06.09.2019
2221 Clouds 32 1013 75 8047 5.1 60 01:47 06.09.2019
2222 Clouds 33 1013 66 8047 5.1 90 00:23 06.09.2019
2223 Clouds 33 1013 66 8047 5.1 90 00:23 06.09.2019
2224 Clouds 34 1013 63 8047 5.7 80 23:43 05.09.2019
2225 Clouds 34 1013 63 8047 5.7 80 23:23 05.09.2019
2226 Rain 34 1014 67 11265 3.6 100 22:47 05.09.2019
2227 Rain 34 1014 67 11265 3.6 100 22:28 05.09.2019
2228 Clouds 35 1014 59 6437 2.36 53.13 21:58 05.09.2019
2229 Clouds 35 1014 59 6437 2.36 53.13 21:40 05.09.2019
2230 Clouds 35 1014 59 6437 1.19 127.719 21:20 05.09.2019
2231 Clouds 34 1015 70 6437 2.6 200 20:58 05.09.2019
2232 Clouds 33 1015 70 6437 2.6 200 20:40 05.09.2019
2233 Clouds 33 1015 70 6437 2.6 200 20:22 05.09.2019
2234 Clouds 33 1015 70 6437 1.27 141.537 19:59 05.09.2019
2235 Clouds 33 1015 70 6437 1.27 141.537 19:41 05.09.2019
2236 Clouds 33 1014 55 0 1.34 217 19:22 05.09.2019
2237 Mist 32 1015 79 4828 1.27 141.537 18:45 05.09.2019
2238 Mist 32 1015 79 4828 1.27 141.537 18:45 05.09.2019
2239 Mist 32 1015 79 4828 1.27 141.537 18:27 05.09.2019
2240 Clouds 30 1016 94 6437 0.99 77.816 17:59 05.09.2019
2241 Clouds 29 1016 94 6437 0.99 77.816 17:40 05.09.2019
2242 Clouds 29 1016 94 6437 0.99 77.816 17:40 05.09.2019
2243 Clouds 29 1016 94 6437 0.99 77.816 17:22 05.09.2019
2244 Clouds 28 1015 94 6437 0.99 77.816 16:57 05.09.2019
2245 Clouds 28 1015 94 6437 0.99 77.816 16:57 05.09.2019
2246 Clouds 27 1015 94 6437 0.99 77.816 16:39 05.09.2019
2247 Clouds 26 1014 94 6437 0.99 77.816 16:19 05.09.2019
2248 Clouds 26 1014 94 6437 0.99 77.816 15:40 05.09.2019
2249 Clouds 26 1014 94 6437 0.99 77.816 15:40 05.09.2019
2250 Clouds 26 1014 94 8047 1.65 283.015 15:19 05.09.2019
2251 Clouds 26 1014 94 8047 1.65 283.015 14:58 05.09.2019
2252 Clouds 25 1014 94 8047 1.65 283.015 14:40 05.09.2019
2253 Clouds 24 1012 83 0 1.65 283.015 14:19 05.09.2019
2254 Clouds 25 1013 100 9656 1.65 283.015 13:43 05.09.2019
2255 Clouds 25 1013 100 9656 1.62 283.916 13:21 05.09.2019
2256 Clouds 24 1011 83 0 0.45 241 12:47 05.09.2019
2257 Clouds 24 1011 83 0 0.45 241 12:27 05.09.2019
2258 Clouds 24 1011 81 0 0.89 241 11:58 05.09.2019
2259 Clouds 24 1011 81 0 0.89 241 11:40 05.09.2019
2260 Clouds 24 1011 80 0 0.89 241 11:19 05.09.2019
2261 Rain 25 1011 78 0 1.77 271.721 10:42 05.09.2019
2262 Rain 26 1011 74 0 1.79 253 10:22 05.09.2019
2263 Rain 26 1011 74 0 1.79 253 09:58 05.09.2019
2264 Rain 26 1011 74 0 1.79 253 09:58 05.09.2019
2265 Clouds 27 1012 79 0 0.89 207 09:39 05.09.2019
2266 Rain 27 1012 79 0 0.89 207 09:18 05.09.2019
2267 Rain 27 1012 79 0 0.89 207 09:18 05.09.2019
2268 Rain 27 1012 79 0 0.45 207 08:45 05.09.2019
2269 Rain 28 1012 78 0 0.89 105 08:26 05.09.2019
2270 Rain 28 1012 76 0 1.5 287.299 07:46 05.09.2019
2271 Rain 29 1012 75 0 1.5 287.299 07:27 05.09.2019
2272 Clouds 29 1013 83 11265 1.5 287.299 06:58 05.09.2019
2273 Clouds 29 1013 83 11265 1.5 287.299 06:31 05.09.2019
2274 Clouds 29 1013 83 11265 1.5 287.299 06:31 05.09.2019
2275 Clear 29 1012 83 11265 1.04 356.814 05:51 05.09.2019
2276 Clear 29 1012 83 11265 1.04 356.814 05:32 05.09.2019
2277 Clear 29 1011 83 11265 1.5 80 04:53 05.09.2019
2278 Clear 29 1011 83 11265 1.5 80 04:28 05.09.2019
2279 Clear 29 1010 89 11265 3.1 80 03:40 05.09.2019
2280 Clear 30 1010 84 11265 3.1 90 02:51 05.09.2019
2281 Clear 30 1010 84 11265 3.1 90 02:27 05.09.2019
2282 Clear 31 1009 79 11265 2.1 120 01:37 05.09.2019
2283 Clear 31 1009 74 11265 3.6 100 00:46 05.09.2019
2284 Clouds 32 1009 63 11265 3.1 110 00:21 05.09.2019
2285 Clouds 32 1009 63 11265 3.1 110 23:56 04.09.2019
2286 Clouds 32 1009 63 11265 3.1 110 23:37 04.09.2019
2287 Clouds 33 1010 66 11265 4.1 80 23:18 04.09.2019
2288 Clouds 33 1010 66 11265 4.1 80 22:41 04.09.2019
2289 Clouds 33 1008 54 0 4.92 82 22:19 04.09.2019
2290 Clouds 33 1011 66 11265 2.1 150 21:40 04.09.2019
2291 Clouds 33 1011 66 11265 2.1 150 21:20 04.09.2019
2292 Clouds 33 1011 66 11265 2.1 150 21:20 04.09.2019
2293 Clouds 32 1011 66 11265 3.6 180 20:57 04.09.2019
2294 Clouds 32 1011 66 11265 3.6 180 20:39 04.09.2019
2295 Clouds 33 1009 53 0 4.92 111 20:19 04.09.2019
2296 Clouds 32 1012 75 9656 1.5 210 19:57 04.09.2019
2297 Clouds 32 1012 75 9656 1.5 210 19:38 04.09.2019
2298 Clouds 32 1012 75 9656 1.5 210 19:19 04.09.2019
2299 Clouds 30 1012 100 9656 3.1 200 18:38 04.09.2019
2300 Rain 29 1012 100 9656 1.5 210 18:20 04.09.2019
2301 Rain 29 1012 100 9656 1.5 210 18:20 04.09.2019
2302 Rain 29 1012 100 9656 1.5 210 17:54 04.09.2019
2303 Rain 28 1012 100 9656 1.5 210 17:36 04.09.2019
2304 Clouds 28 1012 88 9656 2.82 167.114 17:18 04.09.2019
2305 Clouds 27 1012 88 9656 2.82 167.114 16:42 04.09.2019
2306 Rain 27 1012 88 9656 2.82 167.114 16:24 04.09.2019
2307 Rain 26 1011 94 9656 2.82 167.114 15:56 04.09.2019
2308 Rain 25 1011 94 9656 2.82 167.114 15:38 04.09.2019
2309 Clouds 25 1011 100 9656 1.34 250.283 15:20 04.09.2019
2310 Clouds 24 1011 100 9656 1.34 250.283 14:55 04.09.2019
2311 Clouds 24 1011 100 9656 1.34 250.283 14:36 04.09.2019
2312 Clouds 24 1011 100 9656 1.34 250.283 14:18 04.09.2019
2313 Clouds 24 1011 100 11265 1.34 250.283 13:40 04.09.2019
2314 Clouds 24 1009 82 0 0.89 274 13:21 04.09.2019
2315 Clouds 24 1009 82 0 1.34 274 12:56 04.09.2019
2316 Clouds 24 1009 82 0 0.89 275 12:37 04.09.2019
2317 Clouds 24 1009 82 0 0.89 275 12:37 04.09.2019
2318 Clouds 24 1009 82 0 1.34 273 12:18 04.09.2019
2319 Clouds 24 1009 83 0 2.68 259 11:41 04.09.2019
2320 Clouds 24 1009 83 0 1.79 246 11:21 04.09.2019
2321 Rain 24 1009 83 0 3.58 230 10:59 04.09.2019
2322 Rain 24 1010 83 0 2.24 235 10:40 04.09.2019
2323 Rain 24 1010 82 0 3.58 242 10:21 04.09.2019
2324 Rain 24 1010 82 0 3.13 224 09:46 04.09.2019
2325 Rain 24 1010 82 0 2.68 178 09:22 04.09.2019
2326 Rain 25 1010 82 0 1.79 178 08:58 04.09.2019
2327 Rain 26 1010 81 0 2.24 185 08:39 04.09.2019
2328 Rain 26 1010 81 0 0.89 121 08:19 04.09.2019
2329 Rain 27 1010 78 0 1.34 74 07:43 04.09.2019
2330 Rain 27 1010 76 0 1.34 38 07:24 04.09.2019
2331 Clouds 29 1011 89 11265 2.1 30 06:39 04.09.2019
2332 Clear 29 1009 48 11265 5.7 30 04:56 04.09.2019
2333 Clear 29 1009 48 11265 5.7 30 04:25 04.09.2019
2334 Clouds 29 1008 83 11265 2.6 60 03:45 04.09.2019
2335 Clear 32 1007 59 11265 3.6 70 01:22 04.09.2019
2336 Clouds 33 1007 59 11265 2.6 50 00:50 04.09.2019
2337 Clouds 33 1007 59 11265 2.6 50 00:31 04.09.2019
2338 Clouds 33 1007 59 11265 5.1 70 23:54 03.09.2019
2339 Clouds 33 1007 59 11265 5.1 70 23:27 03.09.2019
2340 Clouds 34 1008 59 11265 3.6 70 22:57 03.09.2019
2341 Clouds 34 1008 59 11265 3.6 70 22:39 03.09.2019
2342 Clouds 33 1006 53 0 3.58 101 22:21 03.09.2019
2343 Clouds 33 1009 66 11265 3.1 90 21:55 03.09.2019
2344 Clouds 33 1009 66 11265 3.1 90 21:36 03.09.2019
2345 Clouds 34 1009 63 11265 1.48 125.294 21:18 03.09.2019
2346 Clouds 34 1009 63 11265 1.48 125.294 20:42 03.09.2019
2347 Clouds 32 1007 56 0 3.13 102 20:24 03.09.2019
2348 Clouds 33 1009 63 11265 1.48 125.294 20:24 03.09.2019
2349 Clouds 32 1007 56 0 3.13 102 20:24 03.09.2019
2350 Clouds 32 1010 70 11265 1.48 125.294 19:55 03.09.2019
2351 Clouds 31 1010 70 11265 1.48 125.294 19:37 03.09.2019
2352 Clouds 31 1010 70 11265 1.48 125.294 19:18 03.09.2019
2353 Clouds 31 1010 79 11265 1.5 230 18:44 03.09.2019
2354 Clouds 31 1010 79 11265 1.5 230 18:25 03.09.2019
2355 -273 0 0 0 0 0 18:25 03.09.2019
2356 Clouds 30 1011 94 8047 2.1 210 17:57 03.09.2019
2357 Clouds 30 1011 94 8047 2.1 210 17:39 03.09.2019
2358 Clouds 30 1009 65 0 0.89 227 17:19 03.09.2019
2359 Clouds 28 1011 100 6437 0.66 105.049 16:43 03.09.2019
2360 Clouds 28 1011 100 6437 0.66 105.049 16:23 03.09.2019
2361 Clouds 27 1011 88 6437 0.66 105.049 15:59 03.09.2019
2362 Clouds 26 1011 88 6437 0.66 105.049 15:39 03.09.2019
2363 Clouds 26 1011 88 6437 1.38 273.288 15:20 03.09.2019
2364 Clouds 26 1010 88 9656 1.38 273.288 14:57 03.09.2019
2365 Clouds 25 1010 88 9656 1.38 273.288 14:39 03.09.2019
2366 Clouds 25 1008 78 0 0.45 249 14:20 03.09.2019
2367 Clear 26 1009 88 11265 1.38 273.288 13:56 03.09.2019
2368 Clear 26 1009 88 11265 1.38 273.288 13:37 03.09.2019
2369 Clear 26 1009 88 11265 1.38 273.288 13:37 03.09.2019
2370 Clear 25 1009 88 11265 1.31 275.155 13:19 03.09.2019
2371 Clouds 25 1008 80 0 0.45 243 12:48 03.09.2019
2372 Clouds 25 1008 80 0 0.45 243 12:29 03.09.2019
2373 Clouds 25 1007 80 0 0.89 243 11:44 03.09.2019
2374 Clouds 25 1008 80 0 0.45 243 11:26 03.09.2019
2375 Clouds 26 1008 79 0 1.47 286.02 10:59 03.09.2019
2376 Clouds 26 1008 79 0 1.47 286.02 10:40 03.09.2019
2377 Clouds 26 1008 79 0 0.45 243 10:22 03.09.2019
2378 Clouds 26 1008 79 0 0.45 243 10:22 03.09.2019
2379 Clouds 26 1008 80 0 0.89 243 09:53 03.09.2019
2380 Clouds 26 1008 79 0 0.45 243 09:33 03.09.2019
2381 Clear 26 1009 79 0 1.34 239 08:59 03.09.2019
2382 Clear 26 1009 78 0 0.89 248 08:39 03.09.2019
2383 -273 0 0 0 0 0 08:20 03.09.2019
2384 Clouds 27 1012 74 11265 1.88 239.261 07:43 03.09.2019
2385 Clear 27 1009 73 0 0.89 263 07:24 03.09.2019
2386 Clear 28 1012 74 11265 3.1 10 06:55 03.09.2019
2387 Clear 28 1012 74 11265 3.1 10 06:37 03.09.2019
2388 Clouds 29 1011 70 11265 5.7 20 03:44 03.09.2019
2389 Clouds 30 1010 66 11265 7.2 10 02:52 03.09.2019
2390 Clouds 30 1010 66 11265 7.2 10 02:32 03.09.2019
2391 Clouds 31 1010 70 11265 6.7 40 01:59 03.09.2019
2392 Clouds 31 1010 70 11265 6.7 40 01:41 03.09.2019
2393 Clear 31 1008 56 0 7.15 42 01:22 03.09.2019
2394 Clear 32 1010 62 11265 7.2 10 00:31 03.09.2019
2395 Clouds 32 1010 59 11265 8.2 10 23:57 02.09.2019
2396 Clouds 32 1010 59 11265 8.2 10 23:57 02.09.2019
2397 Clouds 33 1010 59 11265 8.2 10 23:37 02.09.2019
2398 Clear 32 1008 52 0 5.81 29 23:18 02.09.2019
2399 Clear 32 1008 52 0 5.81 29 23:18 02.09.2019
2400 Clouds 32 1011 62 11265 2.1 30 22:55 02.09.2019
2401 Clouds 32 1011 62 11265 2.1 30 22:55 02.09.2019
2402 -273 0 0 0 0 0 22:55 02.09.2019
2403 Clouds 32 1011 62 11265 2.1 30 22:36 02.09.2019
2404 Clear 32 1009 55 0 4.47 49 22:18 02.09.2019
2405 Clouds 32 1012 59 11265 4.1 70 21:55 02.09.2019
2406 Clouds 32 1012 59 11265 4.1 70 21:36 02.09.2019
2407 Clouds 33 1012 55 11265 4.1 40 21:18 02.09.2019
2408 Clouds 33 1012 55 11265 4.1 40 20:41 02.09.2019
2409 Clear 32 1010 46 0 3.58 88 20:22 02.09.2019
2410 Clouds 33 1012 55 11265 4.1 40 20:22 02.09.2019
2411 Clouds 32 1013 62 11265 1.5 10 19:57 02.09.2019
2412 Clouds 32 1013 62 11265 1.5 10 19:57 02.09.2019
2413 Clouds 32 1013 62 11265 1.5 10 19:39 02.09.2019
2414 Clouds 32 1013 62 11265 1.5 10 19:39 02.09.2019
2415 Clouds 32 1013 62 11265 1.5 10 19:21 02.09.2019
2416 Clouds 31 1013 70 11265 1.47 84.03 18:41 02.09.2019
2417 Clear 31 1011 53 0 3.13 42 18:23 02.09.2019
2418 Clear 30 1013 79 11265 0.46 351.158 17:59 02.09.2019
2419 Clear 30 1013 79 11265 0.46 351.158 17:40 02.09.2019
2420 Clear 29 1013 79 11265 0.46 351.158 17:21 02.09.2019
2421 Clear 28 1012 83 11265 0.46 351.158 16:58 02.09.2019
2422 Clear 28 1012 83 11265 0.46 351.158 16:38 02.09.2019
2423 Rain 27 1011 74 0 0.45 234 16:20 02.09.2019
2424 Rain 26 1012 88 11265 0.46 351.158 15:45 02.09.2019
2425 Rain 26 1012 88 11265 0.46 351.158 15:26 02.09.2019
2426 Clear 25 1012 88 11265 1.24 286.199 14:57 02.09.2019
2427 Clear 25 1012 88 11265 1.24 286.199 14:57 02.09.2019
2428 Clear 25 1012 88 11265 1.24 286.199 14:57 02.09.2019
2429 Clear 25 1012 88 11265 1.24 286.199 14:38 02.09.2019
2430 Clear 24 1012 94 11265 1.24 286.199 14:20 02.09.2019
2431 Clear 24 1012 94 11265 1.24 286.199 13:55 02.09.2019
2432 Clear 24 1012 94 11265 1.24 286.199 13:55 02.09.2019
2433 Clear 24 1012 94 11265 1.24 286.199 13:36 02.09.2019
2434 Clear 24 1012 94 11265 1.18 295.105 13:18 02.09.2019
2435 Clouds 23 1010 83 0 1.18 295.105 12:42 02.09.2019
2436 Rain 24 1010 82 0 1.2 282.959 12:24 02.09.2019
2437 Rain 24 1010 82 0 1.2 282.959 11:58 02.09.2019
2438 Rain 24 1011 82 0 0.89 182 11:38 02.09.2019
2439 Rain 24 1011 82 0 0.45 182 11:20 02.09.2019
2440 Rain 24 1011 82 0 1.2 282.959 10:55 02.09.2019
2441 Rain 24 1011 82 0 1.2 282.959 10:36 02.09.2019
2442 Rain 24 1011 82 0 1.2 282.959 10:36 02.09.2019
2443 Rain 25 1011 81 0 1.2 282.959 10:18 02.09.2019
2444 Rain 25 1011 81 0 1.2 282.959 10:18 02.09.2019
2445 Rain 25 1012 81 0 1.2 282.959 09:42 02.09.2019
2446 Rain 24 1012 81 0 0.45 182 09:21 02.09.2019
2447 Rain 24 1012 80 0 1.34 167 08:44 02.09.2019
2448 Rain 25 1012 78 0 0.45 56 08:22 02.09.2019
2449 Rain 26 1013 77 0 1.56 244.619 07:57 02.09.2019
2450 Rain 26 1013 76 0 1.56 244.619 07:39 02.09.2019
2451 Rain 27 1013 74 0 3.13 290 07:20 02.09.2019
2452 Clouds 26 1014 78 11265 1.56 244.619 06:43 02.09.2019
2453 Clouds 26 1014 78 11265 1.56 244.619 06:43 02.09.2019
2454 Clouds 28 1014 74 11265 0.83 272.628 05:54 02.09.2019
2455 Clouds 28 1014 74 11265 0.83 272.628 05:54 02.09.2019
2456 Clouds 28 1014 74 11265 0.83 272.628 05:54 02.09.2019
2457 Clouds 28 1014 74 11265 0.83 272.628 05:26 02.09.2019
2458 Clouds 28 1013 78 11265 3.1 10 04:53 02.09.2019
2459 Clouds 29 1012 79 11265 4.1 10 02:42 02.09.2019
2460 Clouds 30 1012 74 11265 6.2 30 01:43 02.09.2019
2461 Clouds 31 1012 74 11265 5.1 60 00:46 02.09.2019
2462 Clouds 31 1012 74 11265 5.1 60 00:26 02.09.2019
2463 Clouds 32 1012 70 11265 6.7 20 23:39 01.09.2019
2464 Clouds 32 1012 70 11265 6.7 20 23:20 01.09.2019
2465 Clouds 32 1013 70 11265 3.6 30 22:57 01.09.2019
2466 Clouds 32 1013 70 11265 3.6 30 22:57 01.09.2019
2467 Clouds 32 1013 70 11265 3.6 30 22:39 01.09.2019
2468 Clouds 32 1014 70 11265 6.2 50 22:18 01.09.2019
2469 Clouds 32 1014 70 11265 6.2 50 21:54 01.09.2019
2470 Clouds 32 1014 70 11265 6.2 50 21:36 01.09.2019
2471 Clouds 32 1014 66 11265 3.6 360 21:18 01.09.2019
2472 Clouds 32 1014 66 11265 3.6 360 20:55 01.09.2019
2473 Clouds 32 1014 66 11265 3.6 360 20:36 01.09.2019
2474 Clouds 32 1014 62 11265 4.1 70 20:18 01.09.2019
2475 Clouds 32 1014 62 11265 4.1 70 19:41 01.09.2019
2476 Clouds 32 1014 62 11265 4.1 70 19:21 01.09.2019
2477 Clouds 32 1014 59 11265 2.1 40 18:55 01.09.2019
2478 Clouds 32 1014 59 11265 2.1 40 18:37 01.09.2019
2479 Clouds 32 1014 59 11265 2.1 40 18:18 01.09.2019
2480 Clouds 31 1014 66 11265 1.5 310 17:40 01.09.2019
2481 Clouds 31 1014 66 11265 1.5 310 17:40 01.09.2019
2482 Clouds 30 1014 66 11265 1.5 310 17:22 01.09.2019
2483 Clear 29 1014 88 9656 0.2 1.146 16:58 01.09.2019
2484 Clear 28 1014 88 9656 0.2 1.146 16:38 01.09.2019
2485 Clear 27 1014 88 9656 1.5 340 16:18 01.09.2019
2486 Clear 27 1014 88 9656 1.5 340 15:42 01.09.2019
2487 Clear 26 1014 88 9656 1.5 340 15:24 01.09.2019
2488 Clear 25 1013 88 11265 1.52 285.374 14:45 01.09.2019
2489 Clear 25 1013 88 11265 1.52 285.374 14:27 01.09.2019
2490 Clear 25 1013 88 11265 1.52 285.374 13:59 01.09.2019
2491 Clear 25 1013 88 11265 1.52 285.374 13:41 01.09.2019
2492 Clear 25 1013 88 11265 1.67 285.577 13:23 01.09.2019
2493 Clouds 24 1011 79 0 0.89 274 12:45 01.09.2019
2494 Clouds 24 1011 78 0 0.45 274 12:26 01.09.2019
2495 Clear 25 1011 78 0 1.5 278.621 11:58 01.09.2019
2496 Clear 25 1011 78 0 0.45 273 11:38 01.09.2019
2497 Clear 25 1011 77 0 0.45 274 11:19 01.09.2019
2498 Clear 26 1012 76 0 0.45 274 10:45 01.09.2019
2499 Clear 25 1012 77 0 0.89 274 10:23 01.09.2019
2500 Clear 25 1012 77 0 0.89 274 09:48 01.09.2019
2501 Clear 26 1012 76 0 0.45 274 09:26 01.09.2019
2502 Clear 26 1013 76 0 1.91 265.219 09:26 01.09.2019
2503 Clear 26 1013 76 0 0.89 274 08:58 01.09.2019
2504 Clear 26 1013 75 0 1.91 265.219 08:39 01.09.2019
2505 Clear 26 1013 76 0 0.89 274 08:20 01.09.2019
2506 Clear 26 1013 75 0 0.89 274 07:42 01.09.2019
2507 Clear 26 1013 76 0 1.34 274 07:21 01.09.2019
2508 Clear 27 1013 75 0 0.89 323 06:39 01.09.2019
2509 Clouds 27 1014 100 11265 2.1 360 05:59 01.09.2019
2510 Clouds 27 1014 100 11265 2.1 360 05:59 01.09.2019
2511 Clouds 27 1014 100 11265 2.1 360 05:59 01.09.2019
2512 Clouds 28 1013 100 11265 1.5 40 04:53 01.09.2019
2513 Clouds 28 1013 100 11265 3.1 30 03:50 01.09.2019
2514 Clouds 28 1013 100 11265 3.1 30 03:32 01.09.2019
2515 Clouds 30 1012 79 11265 4.1 30 02:40 01.09.2019
2516 Clear 30 1010 62 0 3.13 31 02:19 01.09.2019
2517 Clouds 31 1011 66 11265 5.1 50 01:29 01.09.2019
2518 Clouds 31 1012 62 11265 4.1 60 00:57 01.09.2019
2519 Clouds 31 1012 62 11265 4.1 60 00:38 01.09.2019
2520 Clouds 32 1012 55 11265 5.7 50 00:19 01.09.2019
2521 Clouds 32 1012 55 11265 5.7 50 23:41 31.08.2019
2522 Clouds 32 1013 59 11265 4.6 70 23:21 31.08.2019
2523 Clouds 32 1013 59 11265 4.6 70 22:55 31.08.2019
2524 Clouds 32 1013 59 11265 4.6 70 22:55 31.08.2019
2525 Clouds 32 1013 59 11265 4.6 70 22:37 31.08.2019
2526 Clouds 33 1014 55 11265 5.7 80 22:19 31.08.2019
2527 Clouds 33 1014 55 11265 5.7 80 21:42 31.08.2019
2528 Clouds 33 1014 55 11265 5.7 80 21:22 31.08.2019
2529 Clouds 32 1014 59 9656 3.1 90 20:59 31.08.2019
2530 Clouds 32 1014 59 9656 3.1 90 20:41 31.08.2019
2531 Clouds 32 1014 59 9656 3.1 90 20:22 31.08.2019
2532 Clouds 32 1014 55 9656 2.1 30 19:41 31.08.2019
2533 Clouds 32 1014 55 9656 2.1 30 19:22 31.08.2019
2534 Clouds 32 1014 59 9656 1.6 58.827 18:55 31.08.2019
2535 Clouds 32 1014 59 9656 1.6 58.827 18:37 31.08.2019
2536 Clouds 30 1015 62 9656 0.37 319.148 18:18 31.08.2019
2537 Clouds 30 1015 62 9656 0.37 319.148 17:54 31.08.2019
2538 Clouds 30 1015 62 9656 0.37 319.148 17:36 31.08.2019
2539 Clouds 27 1014 74 9656 0.37 319.148 17:18 31.08.2019
2540 Clouds 27 1014 74 9656 0.37 319.148 17:18 31.08.2019
2541 Clouds 27 1014 74 9656 0.37 319.148 16:41 31.08.2019
2542 Clouds 27 1014 74 9656 0.37 319.148 16:23 31.08.2019
2543 Clouds 25 1014 78 9656 1 320 15:59 31.08.2019
2544 Clouds 24 1014 78 9656 1 320 15:38 31.08.2019
2545 Clear 24 1014 78 11265 1.55 278.308 15:18 31.08.2019
2546 Clear 24 1014 78 11265 1.55 278.308 14:42 31.08.2019
2547 Clear 24 1014 78 11265 1.55 278.308 14:24 31.08.2019
2548 Clear 24 1014 78 11265 1.55 278.308 13:57 31.08.2019
2549 Clear 24 1014 78 11265 1.55 278.308 13:57 31.08.2019
2550 Clear 24 1014 78 11265 1.55 278.308 13:37 31.08.2019
2551 Clear 24 1014 78 11265 1.59 275.826 13:18 31.08.2019
2552 Clouds 24 1012 78 0 1.59 275.826 12:42 31.08.2019
2553 Clouds 24 1012 78 0 1.59 275.826 12:42 31.08.2019
2554 Clouds 24 1012 80 0 0.45 269 12:21 31.08.2019
2555 Clouds 24 1012 80 0 0.45 269 11:59 31.08.2019
2556 Clouds 24 1012 80 0 0.45 269 11:40 31.08.2019
2557 Clouds 24 1012 80 0 1.59 277.335 11:22 31.08.2019
2558 Clouds 25 1012 80 0 0.89 269 10:54 31.08.2019
2559 Clouds 25 1012 80 0 0.89 269 10:36 31.08.2019
2560 Clouds 25 1012 79 0 1.59 277.335 10:18 31.08.2019
2561 Clouds 25 1012 79 0 1.59 277.335 10:18 31.08.2019
2562 Clear 25 1013 79 0 1.64 277.583 09:39 31.08.2019
2563 Clouds 25 1013 78 0 1.32 280.545 09:21 31.08.2019
2564 Clouds 26 1016 100 11265 1.32 280.545 08:45 31.08.2019
2565 Clouds 26 1016 100 11265 1.32 280.545 08:27 31.08.2019
2566 Clouds 26 1016 100 11265 1.32 280.545 07:43 31.08.2019
2567 Clouds 26 1016 100 11265 1.32 280.545 07:23 31.08.2019
2568 Clear 26 1015 100 11265 1.32 280.545 06:56 31.08.2019
2569 Clear 26 1015 100 11265 1.32 280.545 06:56 31.08.2019
2570 Clear 27 1014 100 11265 1.42 312.317 06:21 31.08.2019
2571 Clear 28 1014 100 11265 1.42 312.317 05:34 31.08.2019
2572 Clear 28 1014 94 11265 1.42 312.317 04:39 31.08.2019
2573 Clouds 28 1013 94 11265 1.5 60 03:50 31.08.2019
2574 Clouds 29 1012 74 11265 2.6 90 02:59 31.08.2019
2575 Clouds 30 1012 74 11265 2.1 70 01:56 31.08.2019
2576 Clouds 31 1012 74 11265 2.1 70 01:36 31.08.2019
2577 Clouds 32 1013 59 9656 1.5 110 01:18 31.08.2019
2578 Clouds 32 1013 59 9656 1.5 110 00:41 31.08.2019
2579 Clouds 32 1013 59 9656 1.5 110 00:41 31.08.2019
2580 Clouds 32 1011 51 0 3.58 101 00:23 31.08.2019
2581 Clouds 33 1013 59 9656 1.5 130 23:40 30.08.2019
2582 Clouds 32 1011 45 0 4.47 113 23:18 30.08.2019
2583 Clouds 33 1014 59 9656 2.6 110 22:43 30.08.2019
2584 Clouds 33 1014 59 9656 2.6 110 22:25 30.08.2019
2585 Clouds 33 1014 63 9656 1.5 130 21:59 30.08.2019
2586 Clouds 33 1014 63 9656 1.5 130 21:38 30.08.2019
2587 Clouds 33 1014 63 9656 1.5 130 21:20 30.08.2019
2588 Clouds 33 1015 59 9656 2.1 100 20:59 30.08.2019
2589 Clouds 33 1015 59 9656 2.1 100 20:41 30.08.2019
2590 Clouds 33 1013 49 0 3.58 69 20:21 30.08.2019
2591 Clouds 32 1015 62 9656 1.67 74.012 19:59 30.08.2019
2592 Clouds 32 1015 62 9656 1.67 74.012 19:40 30.08.2019
2593 Clouds 32 1015 62 9656 1.67 74.012 19:40 30.08.2019
2594 Clouds 32 1015 62 9656 1.67 74.012 19:19 30.08.2019
2595 Clouds 31 1015 66 9656 1.67 74.012 18:55 30.08.2019
2596 Clouds 31 1015 66 9656 1.67 74.012 18:55 30.08.2019
2597 Clouds 31 1015 66 9656 1.67 74.012 18:37 30.08.2019
2598 Clouds 30 1015 70 9656 0.19 8.926 18:18 30.08.2019
2599 Clouds 29 1015 70 9656 0.19 8.926 17:55 30.08.2019
2600 Clouds 29 1015 70 9656 0.19 8.926 17:37 30.08.2019
2601 Clouds 28 1015 69 9656 0.19 8.926 17:18 30.08.2019
2602 Clouds 27 1015 69 9656 0.19 8.926 16:43 30.08.2019
2603 Clouds 27 1015 69 9656 0.19 8.926 16:22 30.08.2019
2604 Mist 25 1015 83 11265 0.19 8.926 15:45 30.08.2019
2605 Mist 24 1015 83 11265 1.65 276.892 15:24 30.08.2019
2606 Mist 24 1015 83 11265 1.65 276.892 15:24 30.08.2019
2607 Mist 24 1015 83 9656 1.65 276.892 14:57 30.08.2019
2608 Mist 24 1015 83 9656 1.65 276.892 14:38 30.08.2019
2609 Clear 24 1014 83 9656 1.65 276.892 14:20 30.08.2019
2610 Clear 24 1014 83 9656 1.65 276.892 13:43 30.08.2019
2611 Clear 24 1014 83 9656 1.7 278.135 13:23 30.08.2019
2612 Clear 24 1014 83 9656 1.7 278.135 13:23 30.08.2019
2613 Clouds 24 1012 79 0 0.45 279 12:56 30.08.2019
2614 Clouds 24 1012 78 0 1.7 278.135 12:38 30.08.2019
2615 Clouds 24 1012 78 0 1.77 274.279 12:20 30.08.2019
2616 Clouds 24 1012 78 0 0.89 279 11:41 30.08.2019
2617 Clouds 24 1012 78 0 0.89 279 11:23 30.08.2019
2618 Clouds 25 1013 78 0 0.89 279 10:40 30.08.2019
2619 Clouds 25 1013 78 0 0.89 279 10:22 30.08.2019
2620 Clouds 25 1013 78 0 1.34 279 09:58 30.08.2019
2621 Clouds 25 1013 78 0 1.34 279 09:58 30.08.2019
2622 Clouds 26 1013 79 0 1.79 272 09:39 30.08.2019
2623 Rain 26 1013 79 0 0.45 345 09:19 30.08.2019
2624 Rain 26 1013 79 0 0.45 345 09:19 30.08.2019
2625 Clouds 27 1016 100 11265 1.85 278.099 08:44 30.08.2019
2626 Clouds 27 1016 100 11265 1.85 278.099 08:25 30.08.2019
2627 Clouds 27 1017 100 11265 1.85 278.099 07:59 30.08.2019
2628 Clouds 27 1017 100 11265 1.85 278.099 07:39 30.08.2019
2629 Clouds 28 1016 100 11265 1.85 278.099 07:21 30.08.2019
2630 Clouds 28 1016 100 11265 1.85 278.099 06:44 30.08.2019
2631 Clouds 28 1016 100 11265 1.85 278.099 06:26 30.08.2019
2632 Clouds 28 1016 100 11265 1.54 304.392 05:43 30.08.2019
2633 Clouds 29 1014 100 9656 1.54 304.392 03:58 30.08.2019
2634 Clouds 29 1014 100 9656 1.54 304.392 03:38 30.08.2019
2635 Clouds 30 1014 84 9656 1.5 80 02:49 30.08.2019
2636 Clouds 30 1014 84 9656 1.5 80 02:24 30.08.2019
2637 Clouds 31 1014 70 11265 3.1 80 01:28 30.08.2019
2638 Clouds 32 1012 56 0 3.13 88 00:27 30.08.2019
2639 Clouds 32 1014 66 11265 4.1 70 23:57 29.08.2019
2640 Clouds 32 1014 66 11265 4.1 70 23:38 29.08.2019
2641 Clouds 32 1012 51 0 3.13 69 23:20 29.08.2019
2642 Clouds 33 1014 59 9656 1.5 100 22:42 29.08.2019
2643 Clouds 33 1014 59 9656 1.5 100 22:23 29.08.2019
2644 Clouds 32 1015 66 9656 1 80 21:55 29.08.2019
2645 Clouds 32 1015 66 9656 1 80 21:55 29.08.2019
2646 Clouds 32 1015 66 9656 1 80 21:36 29.08.2019
2647 Clouds 32 1015 79 9656 2.6 90 21:18 29.08.2019
2648 Clouds 32 1015 79 9656 2.6 90 20:42 29.08.2019
2649 Clouds 31 1015 79 9656 2.6 90 20:20 29.08.2019
2650 Clouds 29 1016 88 9656 1 170 19:58 29.08.2019
2651 Clouds 29 1016 88 9656 1 170 19:58 29.08.2019
2652 Clouds 29 1016 88 9656 1 170 19:39 29.08.2019
2653 Clouds 29 1016 88 9656 1 170 19:21 29.08.2019
2654 Clouds 28 1016 88 8047 4.1 200 18:42 29.08.2019
2655 Clouds 27 1016 88 8047 4.1 200 18:20 29.08.2019
2656 Clouds 27 1015 69 0 3.58 211 17:56 29.08.2019
2657 Clouds 29 1015 71 0 1.79 230 17:38 29.08.2019
2658 Clouds 28 1016 88 8047 1.32 315.642 17:19 29.08.2019
2659 Clouds 28 1016 88 8047 1.32 315.642 16:55 29.08.2019
2660 Clouds 27 1014 77 0 1.79 263 16:36 29.08.2019
2661 Clouds 27 1015 88 8047 1.5 310 16:18 29.08.2019
2662 Clouds 27 1015 88 8047 1.5 310 15:38 29.08.2019
2663 Clouds 27 1015 88 8047 1.5 310 15:20 29.08.2019
2664 Clouds 26 1015 88 9656 1.38 289.304 14:50 29.08.2019
2665 Clouds 26 1015 88 9656 1.38 289.304 14:23 29.08.2019
2666 Clouds 26 1014 88 9656 2.1 340 13:59 29.08.2019
2667 Clouds 27 1014 88 9656 2.1 340 13:39 29.08.2019
2668 Clouds 27 1014 88 9656 2.1 340 13:20 29.08.2019
2669 Clouds 27 1014 88 9656 2.1 340 12:59 29.08.2019
2670 Clear 26 1013 82 0 0.89 286 12:39 29.08.2019
2671 Clear 26 1012 82 0 0.45 286 12:21 29.08.2019
2672 Clear 27 1012 81 0 0.45 286 11:58 29.08.2019
2673 Clear 27 1012 82 0 0.45 286 11:38 29.08.2019
2674 Clear 27 1012 82 0 0.45 286 11:19 29.08.2019
2675 Clear 27 1012 82 0 1.83 280.844 10:44 29.08.2019
2676 Clear 27 1012 82 0 1.83 280.844 10:25 29.08.2019
2677 Clear 27 1013 82 0 0.45 286 09:42 29.08.2019
2678 Rain 27 1013 81 0 1.68 281.109 09:22 29.08.2019
2679 Rain 27 1013 81 0 1.68 281.109 08:59 29.08.2019
2680 Rain 28 1014 81 0 1.68 281.109 08:40 29.08.2019
2681 Rain 28 1014 81 0 1.68 281.109 08:22 29.08.2019
2682 Rain 28 1014 81 0 0.45 260 07:49 29.08.2019
2683 Rain 28 1014 81 0 0.89 260 07:26 29.08.2019
2684 Clear 28 1016 100 11265 1.68 281.109 06:48 29.08.2019
2685 Clear 28 1016 100 11265 1.68 281.109 06:30 29.08.2019
2686 Clear 29 1015 100 11265 2.1 10 05:43 29.08.2019
2687 Clouds 28 1014 100 11265 1.5 70 04:51 29.08.2019
2688 Clouds 29 1014 100 11265 1.5 70 04:29 29.08.2019
2689 Clouds 29 1013 100 9656 2.6 60 03:35 29.08.2019
2690 Clouds 31 1012 74 11265 4.6 70 01:49 29.08.2019
2691 Clouds 31 1012 74 11265 4.6 70 01:30 29.08.2019
2692 Clouds 32 1012 75 9656 5.1 50 00:42 29.08.2019
2693 Clouds 32 1012 75 9656 5.1 50 00:21 29.08.2019
2694 Clouds 32 1013 70 9656 4.6 80 23:44 28.08.2019
2695 Clouds 32 1013 70 9656 4.6 80 23:25 28.08.2019
2696 Clouds 33 1013 63 9656 4.1 40 22:59 28.08.2019
2697 Clouds 33 1013 63 9656 4.1 40 22:39 28.08.2019
2698 Clouds 33 1014 66 8047 1 120 22:18 28.08.2019
2699 Clouds 33 1014 66 8047 1 120 21:57 28.08.2019
2700 Clouds 33 1014 66 8047 1 120 21:39 28.08.2019
2701 Clouds 32 1015 70 8047 2.6 50 21:20 28.08.2019
2702 Clouds 32 1015 70 8047 2.6 50 20:41 28.08.2019
2703 Clouds 32 1015 70 8047 2.6 50 20:22 28.08.2019
2704 Clouds 32 1015 70 8047 2.6 50 19:57 28.08.2019
2705 Clouds 32 1015 70 8047 2.6 10 19:39 28.08.2019
2706 Clouds 31 1015 70 8047 2.6 10 19:20 28.08.2019
2707 Clouds 31 1015 74 8047 3.1 10 18:42 28.08.2019
2708 Clouds 30 1015 74 8047 3.1 10 18:21 28.08.2019
2709 Clouds 30 1015 74 8047 3.1 10 18:21 28.08.2019
2710 Clouds 30 1015 74 8047 3.1 10 17:55 28.08.2019
2711 Clouds 29 1014 83 8047 2.1 330 17:37 28.08.2019
2712 Clouds 29 1013 66 0 2.24 290 17:19 28.08.2019
2713 Clouds 28 1014 79 8047 2.1 300 16:42 28.08.2019
2714 Clouds 27 1012 73 0 1.34 300 16:18 28.08.2019
2715 Clouds 27 1013 83 9656 2.6 330 15:57 28.08.2019
2716 Clouds 26 1013 83 9656 2.6 330 15:36 28.08.2019
2717 Clear 26 1013 94 9656 1.31 284.366 15:18 28.08.2019
2718 Clear 26 1013 94 9656 1.31 284.366 14:55 28.08.2019
2719 Clear 26 1013 94 9656 1.31 284.366 14:37 28.08.2019
2720 Clear 26 1013 94 9656 1.31 284.366 14:37 28.08.2019
2721 Clear 26 1013 83 9656 2.1 330 14:18 28.08.2019
2722 Clear 26 1013 83 9656 2.1 330 13:56 28.08.2019
2723 Clear 26 1013 83 9656 2.1 330 13:36 28.08.2019
2724 Clear 26 1013 83 9656 2.1 330 13:18 28.08.2019
2725 Clouds 26 1011 83 0 0.45 285 12:40 28.08.2019
2726 Clouds 26 1011 83 0 0.45 285 12:21 28.08.2019
2727 Clouds 26 1011 82 0 0.45 285 11:41 28.08.2019
2728 Clouds 26 1011 81 0 0.89 56 11:22 28.08.2019
2729 Clouds 26 1011 82 0 1.05 280.062 10:58 28.08.2019
2730 Clouds 26 1011 82 0 0.45 56 10:40 28.08.2019
2731 Clouds 26 1011 82 0 0.45 56 10:20 28.08.2019
2732 Clouds 27 1011 81 0 0.45 56 09:42 28.08.2019
2733 Clouds 27 1011 81 0 0.45 56 09:22 28.08.2019
2734 Clouds 27 1011 81 0 1.18 286.406 08:57 28.08.2019
2735 Clouds 27 1012 81 0 1.18 286.406 08:38 28.08.2019
2736 Clouds 27 1012 81 0 1.18 286.406 08:19 28.08.2019
2737 Clouds 27 1012 79 0 0.45 56 07:38 28.08.2019
2738 Clouds 27 1012 79 0 0.45 56 07:20 28.08.2019
2739 Clear 28 1013 100 9656 2.1 50 06:49 28.08.2019
2740 Clear 28 1013 100 9656 2.1 50 06:31 28.08.2019
2741 Clouds 29 1013 100 11265 1.31 342.242 05:24 28.08.2019
2742 Clear 32 1009 66 9656 5.7 70 02:20 28.08.2019
2743 Clear 32 1009 66 9656 5.7 70 01:31 28.08.2019
2744 Clouds 33 1009 63 9656 4.6 60 00:52 28.08.2019
2745 Clouds 33 1009 63 9656 4.6 60 00:33 28.08.2019
2746 Clouds 33 1009 66 9656 4.1 70 23:58 27.08.2019
2747 Clouds 33 1009 66 9656 4.1 70 23:38 27.08.2019
2748 Clear 34 1007 55 0 3.58 94 23:19 27.08.2019
2749 Clouds 34 1009 67 8047 2.6 100 22:41 27.08.2019
2750 Clouds 34 1009 67 8047 2.6 100 22:23 27.08.2019
2751 Clouds 34 1010 67 8047 3.1 110 21:57 27.08.2019
2752 Clouds 34 1010 67 8047 3.1 110 21:38 27.08.2019
2753 Clouds 34 1011 67 8047 3.6 90 21:20 27.08.2019
2754 Clouds 34 1011 67 8047 3.6 90 20:58 27.08.2019
2755 Clouds 34 1011 67 8047 3.6 90 20:39 27.08.2019
2756 Clouds 33 1009 57 0 2.24 69 20:19 27.08.2019
2757 Clouds 33 1012 70 8047 2.1 180 19:44 27.08.2019
2758 Clouds 33 1012 70 8047 2.1 180 19:26 27.08.2019
2759 Clouds 32 1012 70 8047 2.1 180 18:57 27.08.2019
2760 Clear 31 1012 70 8047 1.47 141.243 18:39 27.08.2019
2761 Clear 31 1012 70 8047 0.07 158.199 18:18 27.08.2019
2762 Clear 30 1012 74 8047 1.5 190 17:46 27.08.2019
2763 Clear 30 1012 74 8047 1.5 190 17:27 27.08.2019
2764 Clear 29 1012 79 8047 1.5 150 16:58 27.08.2019
2765 Clear 29 1012 79 8047 1.5 150 16:40 27.08.2019
2766 Clouds 28 1011 88 9656 0.07 158.199 16:21 27.08.2019
2767 Clouds 28 1011 88 9656 0.07 158.199 15:54 27.08.2019
2768 Clouds 28 1011 88 9656 0.07 158.199 15:36 27.08.2019
2769 Clouds 27 1010 88 9656 1.35 278.543 15:18 27.08.2019
2770 Clouds 27 1010 88 9656 1.35 278.543 15:18 27.08.2019
2771 Clouds 27 1010 88 9656 1.35 278.543 14:42 27.08.2019
2772 Clouds 27 1010 88 9656 1.35 278.543 14:23 27.08.2019
2773 Clear 27 1009 88 9656 1.35 278.543 13:43 27.08.2019
2774 Clear 27 1009 88 9656 1.15 285.133 13:24 27.08.2019
2775 Clear 27 1009 88 9656 1.15 285.133 12:58 27.08.2019
2776 Clear 27 1008 82 0 1.15 285.133 12:39 27.08.2019
2777 Clear 27 1008 82 0 0.93 268.951 12:19 27.08.2019
2778 Clear 27 1008 82 0 0.93 268.951 11:46 27.08.2019
2779 Clear 27 1008 82 0 0.45 123 11:26 27.08.2019
2780 Clear 27 1008 82 0 0.93 268.951 10:46 27.08.2019
2781 Clear 27 1008 82 0 0.93 268.951 10:27 27.08.2019
2782 Clear 27 1008 82 0 0.45 123 09:59 27.08.2019
2783 Clear 27 1008 82 0 0.45 123 09:59 27.08.2019
2784 Clear 28 1008 81 0 0.93 268.951 09:39 27.08.2019
2785 Clear 28 1008 81 0 1.03 287.304 09:21 27.08.2019
2786 Clear 28 1009 80 0 1.03 287.304 08:56 27.08.2019
2787 Clear 28 1009 79 0 1.03 287.304 08:37 27.08.2019
2788 Clear 28 1009 79 0 1.03 287.304 08:37 27.08.2019
2789 Clouds 29 1011 79 11265 1.03 287.304 08:18 27.08.2019
2790 Clouds 29 1011 79 11265 1.03 287.304 07:41 27.08.2019
2791 Clouds 29 1011 79 11265 1.03 287.304 07:19 27.08.2019
2792 Clouds 29 1011 79 11265 1.03 287.304 06:54 27.08.2019
2793 Clouds 29 1011 79 11265 1.03 287.304 06:26 27.08.2019
2794 Clear 29 1010 79 11265 2.1 90 05:42 27.08.2019
2795 Clouds 29 1009 74 11265 2.6 90 04:43 27.08.2019
2796 Clouds 30 1007 74 9656 2.1 80 03:35 27.08.2019
2797 Clouds 31 1007 74 11265 2.1 100 02:23 27.08.2019
2798 Clear 32 1007 75 11265 3.6 90 01:40 27.08.2019
2799 Clear 32 1007 75 11265 3.6 90 01:21 27.08.2019
2800 Clear 33 1007 70 11265 3.1 100 00:41 27.08.2019
2801 Clear 33 1005 59 0 3.58 96 00:22 27.08.2019
2802 Clear 33 1008 75 9656 3.1 100 23:38 26.08.2019
2803 Clear 33 1008 75 9656 1 140 23:19 26.08.2019
2804 Clear 33 1008 75 9656 1 140 22:39 26.08.2019
2805 Clear 33 1008 75 9656 1 140 22:19 26.08.2019
2806 Clouds 33 1009 70 8047 3.1 100 21:58 26.08.2019
2807 Clouds 33 1009 70 8047 3.1 100 21:38 26.08.2019
2808 Clouds 33 1009 70 8047 3.1 100 21:19 26.08.2019
2809 -273 0 0 0 0 0 20:55 26.08.2019
2810 Clouds 33 1010 75 8047 1.5 130 20:37 26.08.2019
2811 Clouds 33 1010 75 8047 1.5 130 20:37 26.08.2019
2812 Clouds 33 1010 75 8047 1.5 130 20:37 26.08.2019
2813 Clouds 33 1010 75 8047 1.5 130 20:18 26.08.2019
2814 Clouds 32 1010 79 8047 1.5 130 19:42 26.08.2019
2815 Clouds 32 1010 79 8047 1.5 130 19:19 26.08.2019
2816 Clouds 32 1010 79 8047 1.5 130 19:19 26.08.2019
2817 Clouds 32 1010 79 8047 1.5 130 19:19 26.08.2019
2818 Clear 32 1010 79 8047 3.1 170 18:58 26.08.2019
2819 Clear 32 1010 79 8047 3.1 170 18:38 26.08.2019
2820 Clear 32 1010 79 8047 3.1 170 18:19 26.08.2019
2821 Clear 30 1010 84 8047 0.85 110.351 17:44 26.08.2019
2822 Clear 30 1010 84 8047 0.85 110.351 17:20 26.08.2019
2823 Clear 29 1011 83 8047 0.85 110.351 16:57 26.08.2019
2824 Clear 28 1011 83 8047 0.85 110.351 16:39 26.08.2019
2825 Clear 28 1011 83 8047 0.85 110.351 16:18 26.08.2019
2826 Clouds 27 1010 83 8047 0.85 110.351 15:54 26.08.2019
2827 Clouds 27 1010 83 8047 0.85 110.351 15:36 26.08.2019
2828 Clouds 26 1010 83 8047 1.36 266.89 15:18 26.08.2019
2829 Clouds 25 1009 83 8047 1.36 266.89 14:42 26.08.2019
2830 Clouds 25 1009 83 8047 1.36 266.89 14:22 26.08.2019
2831 Clouds 26 1009 94 8047 1.36 266.89 13:44 26.08.2019
2832 Clouds 26 1009 94 8047 1.14 268.441 13:23 26.08.2019
2833 Clouds 26 1007 83 0 0.89 121 12:57 26.08.2019
2834 Clouds 26 1007 83 0 0.89 121 12:39 26.08.2019
2835 Clouds 27 1007 82 0 0.89 101 12:20 26.08.2019
2836 Clouds 27 1007 82 0 1.55 265.298 11:39 26.08.2019
2837 Clouds 27 1007 81 0 1.55 265.298 11:21 26.08.2019
2838 Clouds 27 1007 82 0 1.55 265.298 10:58 26.08.2019
2839 Clouds 27 1007 82 0 1.55 265.298 10:39 26.08.2019
2840 Clouds 27 1007 81 0 1.55 265.298 10:19 26.08.2019
2841 Clouds 28 1008 81 0 0.45 101 09:42 26.08.2019
2842 Clouds 28 1008 81 0 0.94 301.141 09:24 26.08.2019
2843 Clear 28 1011 78 9656 0.94 301.141 08:56 26.08.2019
2844 Clear 28 1011 78 9656 0.94 301.141 08:38 26.08.2019
2845 Clear 28 1011 78 9656 0.94 301.141 08:38 26.08.2019
2846 Clear 28 1011 78 9656 0.94 301.141 08:19 26.08.2019
2847 Clear 28 1011 79 9656 0.94 301.141 07:44 26.08.2019
2848 Clear 28 1011 79 9656 0.94 301.141 07:25 26.08.2019
2849 Clouds 29 1011 79 11265 0.94 301.141 06:57 26.08.2019
2850 Clouds 29 1011 79 11265 0.94 301.141 06:38 26.08.2019
2851 Clouds 29 1011 79 11265 1.28 317.564 06:18 26.08.2019
2852 Clouds 29 1009 74 11265 1.28 317.564 04:54 26.08.2019
2853 Clouds 30 1008 70 11265 1 120 03:49 26.08.2019
2854 Clouds 31 1007 70 11265 2.6 80 02:38 26.08.2019
2855 Clouds 33 1007 59 11265 1.5 90 01:23 26.08.2019
2856 Clouds 33 1008 66 11265 4.1 100 00:44 26.08.2019
2857 Clouds 33 1008 66 11265 4.1 100 00:44 26.08.2019
2858 Clouds 33 1008 66 11265 4.1 100 00:25 26.08.2019
2859 Clouds 34 1008 67 11265 3.6 80 23:44 25.08.2019
2860 Clouds 34 1008 67 11265 3.6 80 23:20 25.08.2019
2861 Clouds 34 1009 71 9656 4.6 80 22:58 25.08.2019
2862 Clouds 34 1009 71 9656 4.6 80 22:40 25.08.2019
2863 Clouds 34 1009 71 9656 4.6 80 22:20 25.08.2019
2864 Clouds 34 1010 71 9656 3.1 80 21:58 25.08.2019
2865 Clouds 34 1010 71 9656 3.1 80 21:39 25.08.2019
2866 Clouds 34 1010 71 9656 3.1 80 21:19 25.08.2019
2867 Clouds 33 1011 70 9656 2.1 160 20:42 25.08.2019
2868 Clouds 33 1011 70 9656 2.1 160 20:42 25.08.2019
2869 Clouds 33 1011 70 9656 2.1 160 20:20 25.08.2019
2870 Clouds 32 1012 75 9656 3.6 90 19:59 25.08.2019
2871 Clouds 32 1012 75 9656 3.6 90 19:39 25.08.2019
2872 Clouds 32 1012 75 9656 3.6 90 19:20 25.08.2019
2873 Clouds 32 1012 75 9656 3.6 90 18:58 25.08.2019
2874 Clouds 32 1013 79 9656 1.5 70 18:40 25.08.2019
2875 Clouds 32 1013 79 9656 1.5 70 18:21 25.08.2019
2876 Clouds 31 1012 79 9656 1.04 115.651 17:46 25.08.2019
2877 Clouds 31 1012 79 9656 1.04 115.651 17:25 25.08.2019
2878 Clouds 29 1012 83 8047 1.04 115.651 16:59 25.08.2019
2879 Clouds 29 1012 83 8047 1.04 115.651 16:37 25.08.2019
2880 Clouds 29 1012 83 8047 1.04 115.651 16:18 25.08.2019
2881 Clouds 28 1012 88 8047 1.04 115.651 15:43 25.08.2019
2882 Clouds 28 1012 88 8047 1.04 115.651 15:25 25.08.2019
2883 Clouds 27 1011 83 9656 1.42 274.858 14:54 25.08.2019
2884 Clouds 27 1011 83 9656 1.42 274.858 14:36 25.08.2019
2885 Clouds 27 1011 83 9656 1.42 274.858 14:18 25.08.2019
2886 Clouds 27 1011 88 9656 1.42 274.858 13:42 25.08.2019
2887 Clouds 27 1011 88 9656 1.25 268.396 13:20 25.08.2019
2888 Clouds 27 1009 81 0 1.25 268.396 12:48 25.08.2019
2889 Clouds 28 1009 81 0 1.25 268.396 12:26 25.08.2019
2890 Clouds 27 1009 81 0 1.39 276.587 11:59 25.08.2019
2891 Clouds 27 1009 81 0 0.45 15 11:40 25.08.2019
2892 Clouds 27 1009 81 0 1.39 276.587 11:22 25.08.2019
2893 Clouds 28 1009 81 0 1.39 276.587 10:58 25.08.2019
2894 Clouds 28 1009 80 0 0.45 15 10:39 25.08.2019
2895 Clouds 28 1009 80 0 0.45 15 10:20 25.08.2019
2896 Clouds 28 1009 80 0 0.45 15 10:20 25.08.2019
2897 Clouds 28 1009 79 0 1.39 276.587 09:44 25.08.2019
2898 Rain 28 1009 78 0 0.45 15 09:25 25.08.2019
2899 Rain 29 1010 77 0 1.41 304.716 08:56 25.08.2019
2900 Rain 29 1010 76 0 1.41 304.716 08:38 25.08.2019
2901 Clouds 29 1012 100 11265 1.41 304.716 08:20 25.08.2019
2902 Clouds 29 1012 100 11265 1.41 304.716 07:34 25.08.2019
2903 Clear 29 1012 100 11265 1.41 304.716 06:45 25.08.2019
2904 Clear 29 1011 100 11265 1.33 336.96 05:42 25.08.2019
2905 Clear 30 1010 100 11265 2.1 100 04:23 25.08.2019
2906 Clouds 31 1009 75 11265 5.1 70 02:58 25.08.2019
2907 Clouds 31 1009 75 11265 5.1 70 02:38 25.08.2019
2908 Clouds 33 1009 66 11265 2.6 110 01:18 25.08.2019
2909 Clouds 33 1009 63 11265 4.1 100 00:37 25.08.2019
2910 Clouds 33 1009 63 11265 4.1 100 00:18 25.08.2019
2911 Clouds 34 1009 67 11265 4.6 110 23:45 24.08.2019
2912 Clouds 34 1009 67 11265 4.6 110 23:22 24.08.2019
2913 Clouds 34 1010 67 11265 2.6 90 22:54 24.08.2019
2914 Clouds 34 1010 67 11265 2.6 90 22:36 24.08.2019
2915 Clouds 34 1010 67 11265 2.6 90 22:18 24.08.2019
2916 Clouds 34 1011 67 11265 2.1 170 21:42 24.08.2019
2917 Clouds 34 1011 67 11265 2.1 170 21:24 24.08.2019
2918 Clouds 34 1012 59 11265 2.6 170 20:59 24.08.2019
2919 Clouds 34 1012 59 11265 2.6 170 20:41 24.08.2019
2920 Clouds 34 1012 59 11265 2.6 170 20:20 24.08.2019
2921 Clouds 33 1012 66 11265 1.5 160 19:59 24.08.2019
2922 Clouds 32 1012 66 11265 1.5 160 19:40 24.08.2019
2923 Clouds 32 1012 66 11265 1.5 160 19:22 24.08.2019
2924 Clouds 31 1013 70 11265 1.5 180 18:56 24.08.2019
2925 Clouds 31 1013 70 11265 1.5 180 18:36 24.08.2019
2926 Clouds 30 1013 70 11265 1.5 180 18:18 24.08.2019
2927 Clouds 30 1013 70 11265 3.6 170 17:41 24.08.2019
2928 Clouds 30 1013 70 11265 3.6 170 17:22 24.08.2019
2929 Clouds 28 1012 78 11265 0.14 80.401 16:42 24.08.2019
2930 Clouds 28 1012 78 11265 0.14 80.401 16:19 24.08.2019
2931 Clouds 27 1012 83 9656 1 190 15:55 24.08.2019
2932 Clouds 26 1012 83 9656 1 190 15:37 24.08.2019
2933 Clouds 26 1012 83 9656 1 190 15:18 24.08.2019
2934 Clouds 26 1012 83 9656 0.86 282.775 14:41 24.08.2019
2935 Clouds 25 1012 83 9656 0.86 282.775 14:19 24.08.2019
2936 Clouds 26 1011 83 9656 0.86 282.775 13:55 24.08.2019
2937 Clouds 26 1011 83 9656 0.86 282.775 13:36 24.08.2019
2938 Clouds 26 1011 83 9656 0.62 283.744 13:18 24.08.2019
2939 Clouds 26 1009 78 0 0.45 274 12:42 24.08.2019
2940 Clouds 26 1009 78 0 0.45 274 12:23 24.08.2019
2941 Clouds 26 1010 77 0 1.05 258.893 11:54 24.08.2019
2942 Clouds 26 1010 77 0 1.05 258.893 11:54 24.08.2019
2943 Clouds 26 1010 77 0 0.45 274 11:36 24.08.2019
2944 Clouds 26 1010 77 0 0.45 274 11:18 24.08.2019
2945 Clouds 26 1009 79 0 1.05 258.893 10:40 24.08.2019
2946 Clouds 27 1010 78 0 0.89 273 10:21 24.08.2019
2947 Clouds 27 1010 79 0 1.05 258.893 09:43 24.08.2019
2948 Clouds 27 1010 79 0 0.45 273 09:19 24.08.2019
2949 Clouds 27 1010 79 0 0.89 259.219 08:44 24.08.2019
2950 Clouds 27 1010 79 0 0.89 259.219 08:26 24.08.2019
2951 Clouds 27 1010 81 0 0.89 259.219 07:53 24.08.2019
2952 Clouds 27 1012 100 11265 0.89 259.219 07:31 24.08.2019
2953 Clouds 28 1012 100 11265 0.89 259.219 06:53 24.08.2019
2954 Clouds 28 1012 100 11265 1.22 321.677 06:23 24.08.2019
2955 Clouds 28 1012 100 11265 1.22 321.677 05:39 24.08.2019
2956 Clouds 29 1010 100 11265 1.22 321.677 03:50 24.08.2019
2957 Clouds 29 1010 100 11265 1.22 321.677 03:31 24.08.2019
2958 Clouds 30 1009 94 11265 2.1 100 02:19 24.08.2019
2959 Clouds 31 1008 79 11265 2.1 110 01:29 24.08.2019
2960 Clouds 32 1009 75 11265 3.1 90 00:48 24.08.2019
2961 Clouds 32 1009 75 11265 3.1 90 00:24 24.08.2019
2962 Clouds 32 1009 70 11265 4.1 80 23:45 23.08.2019
2963 Clouds 32 1009 70 11265 4.1 80 23:21 23.08.2019
2964 Clouds 32 1010 70 11265 3.6 80 22:46 23.08.2019
2965 Clouds 32 1010 70 11265 3.6 80 22:27 23.08.2019
2966 Clouds 32 1011 70 11265 3.67 77.463 21:56 23.08.2019
2967 Clouds 32 1011 70 11265 3.23 96.742 21:37 23.08.2019
2968 Clouds 32 1011 70 11265 2.47 114.595 21:19 23.08.2019
2969 Clouds 32 1012 70 11265 1 150 20:52 23.08.2019
2970 Clouds 32 1012 70 11265 1 150 20:33 23.08.2019
2971 Clouds 32 1012 66 11265 1.5 210 19:47 23.08.2019
2972 Clouds 32 1012 66 11265 1.5 210 19:19 23.08.2019
2973 Clouds 31 1012 70 11265 2.47 114.595 18:58 23.08.2019
2974 Clouds 30 1012 70 11265 2.47 114.595 18:40 23.08.2019
2975 Clouds 30 1012 70 11265 2.47 114.595 18:40 23.08.2019
2976 Clouds 30 1012 70 11265 0.47 329.7 18:21 23.08.2019
2977 -273 0 0 0 0 0 17:45 23.08.2019
2978 Clouds 29 1013 78 11265 0.47 329.7 17:45 23.08.2019
2979 Clouds 29 1013 78 11265 0.47 329.7 17:26 23.08.2019
2980 Mist 27 1013 88 9656 0.47 329.7 16:57 23.08.2019
2981 Mist 27 1013 88 9656 0.47 329.7 16:39 23.08.2019
2982 Mist 26 1013 88 9656 0.47 329.7 16:21 23.08.2019
2983 Mist 26 1013 83 8047 0.47 329.7 15:40 23.08.2019
2984 Mist 26 1013 83 8047 1.3 248.24 15:22 23.08.2019
2985 Mist 25 1012 88 9656 2.6 200 14:57 23.08.2019
2986 Mist 25 1012 88 9656 2.6 200 14:39 23.08.2019
2987 Mist 25 1012 88 9656 2.6 200 14:20 23.08.2019
2988 Clouds 25 1012 88 9656 1.5 210 13:54 23.08.2019
2989 Clouds 25 1012 88 9656 1.5 210 13:36 23.08.2019
2990 Clouds 25 1012 88 9656 1.5 210 13:36 23.08.2019
2991 Clouds 25 1012 88 9656 1.5 210 13:18 23.08.2019
2992 Clouds 24 1010 83 0 0.89 109 12:42 23.08.2019
2993 Rain 24 1009 83 0 0.45 108 12:22 23.08.2019
2994 Rain 24 1009 83 0 0.45 108 11:58 23.08.2019
2995 Rain 24 1009 83 0 0.89 169 11:39 23.08.2019
2996 Rain 24 1009 83 0 0.89 171 11:20 23.08.2019
2997 Rain 24 1009 82 0 1.07 218.819 10:57 23.08.2019
2998 Rain 24 1009 82 0 0.89 269 10:39 23.08.2019
2999 Rain 24 1009 82 0 0.45 293 10:19 23.08.2019
3000 Rain 24 1010 82 0 0.89 293 09:44 23.08.2019
3001 Rain 24 1010 83 0 0.45 293 09:25 23.08.2019
3002 Rain 24 1011 82 0 1.34 293 08:46 23.08.2019
3003 Rain 24 1011 82 0 0.45 327 08:22 23.08.2019
3004 Rain 24 1012 82 0 1.77 248.703 08:00 23.08.2019
3005 Rain 24 1012 82 0 1.34 324 07:41 23.08.2019
3006 Rain 24 1012 82 0 2.24 241 07:23 23.08.2019
3007 Rain 26 1013 100 9656 4.6 160 06:43 23.08.2019
3008 Rain 26 1013 100 9656 4.6 160 06:22 23.08.2019
3009 Thunderstorm 27 1013 100 9656 4.1 170 05:45 23.08.2019
3010 Clouds 28 1012 100 9656 1.5 40 05:25 23.08.2019
3011 Clouds 28 1010 100 9656 1.5 120 03:57 23.08.2019
3012 Clouds 29 1010 94 11265 1.5 120 02:39 23.08.2019
3013 Clouds 29 1010 94 11265 1.5 120 02:20 23.08.2019
3014 Clouds 30 1009 84 11265 3.1 120 01:30 23.08.2019
3015 Clouds 31 1009 74 11265 3.1 130 00:42 23.08.2019
3016 Clouds 31 1009 74 11265 3.1 130 00:18 23.08.2019
3017 Clouds 31 1010 58 11265 4.1 90 23:43 22.08.2019
3018 Clouds 31 1010 58 11265 4.1 90 23:22 22.08.2019
3019 Clouds 31 1011 66 11265 2.6 110 22:43 22.08.2019
3020 Clouds 31 1011 66 11265 2.6 110 22:43 22.08.2019
3021 Clouds 31 1011 66 11265 2.6 110 22:24 22.08.2019
3022 Clouds 31 1012 74 11265 2.6 100 21:59 22.08.2019
3023 Clouds 31 1012 74 11265 2.6 100 21:40 22.08.2019
3024 Clouds 31 1012 74 11265 2.6 100 21:22 22.08.2019
3025 Clouds 32 1012 70 11265 1.97 138.56 20:58 22.08.2019
3026 Clouds 32 1012 70 11265 1.97 138.56 20:40 22.08.2019
3027 Clouds 32 1012 70 11265 1.97 138.56 20:20 22.08.2019
3028 Clouds 31 1013 79 11265 1.97 138.56 19:57 22.08.2019
3029 Clouds 31 1013 79 11265 1.97 138.56 19:38 22.08.2019
3030 Rain 31 1013 79 11265 1.97 138.56 19:20 22.08.2019
3031 Rain 30 1013 74 11265 2.1 200 18:57 22.08.2019
3032 Rain 30 1013 74 11265 2.1 200 18:39 22.08.2019
3033 Clouds 30 1013 74 11265 2.1 200 18:19 22.08.2019
3034 Clouds 29 1014 83 11265 0.6 208.718 17:43 22.08.2019
3035 Clouds 28 1013 88 11265 0.6 208.718 17:24 22.08.2019
3036 Clouds 27 1013 88 11265 0.6 208.718 16:59 22.08.2019
3037 Clouds 27 1013 88 11265 0.6 208.718 16:40 22.08.2019
3038 Clouds 27 1013 88 11265 0.6 208.718 16:40 22.08.2019
3039 Clouds 27 1013 88 11265 0.6 208.718 16:22 22.08.2019
3040 Clouds 27 1013 88 11265 0.6 208.718 16:22 22.08.2019
3041 Clouds 27 1013 88 11265 0.6 208.718 16:22 22.08.2019
3042 Clouds 26 1012 81 0 0.45 220 16:00 22.08.2019
3043 Clouds 25 1011 83 0 0.45 220 15:40 22.08.2019
3044 Clouds 25 1011 83 0 0.45 220 15:40 22.08.2019
3045 Clouds 25 1011 83 0 0.45 220 15:40 22.08.2019
3046 Clouds 25 1012 94 11265 0.93 269.195 15:22 22.08.2019
3047 Clouds 25 1012 94 11265 0.93 269.195 15:22 22.08.2019
3048 Clouds 25 1012 94 11265 0.93 269.195 14:57 22.08.2019
3049 Clouds 25 1012 94 11265 0.93 269.195 14:39 22.08.2019
3050 Clouds 25 1012 94 11265 0.93 269.195 14:19 22.08.2019
3051 Clear 25 1013 94 11265 0.93 269.195 13:56 22.08.2019
3052 Clear 25 1013 94 11265 0.93 269.195 13:38 22.08.2019
3053 Clear 25 1013 94 11265 1.16 259.019 13:18 22.08.2019
3054 Clouds 24 1011 83 0 1.16 259.019 12:40 22.08.2019
3055 Clouds 24 1011 83 0 0.45 220 12:22 22.08.2019
3056 Clouds 24 1011 83 0 1.25 264.847 11:57 22.08.2019
3057 Clouds 25 1011 83 0 0.45 220 11:39 22.08.2019
3058 Rain 25 1011 83 0 1.34 221 11:19 22.08.2019
3059 Rain 25 1011 83 0 1.34 221 11:19 22.08.2019
3060 Rain 25 1011 83 0 1.25 264.847 10:57 22.08.2019
3061 Rain 25 1012 83 0 1.25 264.847 10:37 22.08.2019
3062 Clouds 24 1012 82 0 1.25 264.847 10:19 22.08.2019
3063 Rain 24 1012 82 0 1.03 255.843 09:54 22.08.2019
3064 Rain 24 1012 82 0 1.03 255.843 09:36 22.08.2019
3065 Rain 24 1012 82 0 1.03 255.843 09:36 22.08.2019
3066 Rain 24 1013 82 0 0.45 260 09:18 22.08.2019
3067 Rain 25 1013 80 0 2.68 200 08:40 22.08.2019
3068 Rain 26 1015 100 11265 1.57 283.45 08:21 22.08.2019
3069 Rain 26 1015 100 11265 1.57 283.45 07:43 22.08.2019
3070 Rain 26 1015 100 11265 1.57 283.45 07:24 22.08.2019
3071 Clouds 27 1015 100 11265 1.57 283.45 06:59 22.08.2019
3072 Clouds 27 1015 100 11265 1.57 283.45 06:59 22.08.2019
3073 Clouds 27 1015 100 11265 1.57 283.45 06:41 22.08.2019
3074 Clouds 27 1015 100 11265 1.16 309.843 06:19 22.08.2019
3075 Clouds 27 1014 100 11265 1.16 309.843 04:42 22.08.2019
3076 Clouds 29 1012 74 11265 5.1 50 02:56 22.08.2019
3077 Clouds 29 1012 74 11265 5.1 50 02:35 22.08.2019
3078 Clouds 30 1012 66 11265 3.1 70 01:27 22.08.2019
3079 Clouds 31 1012 62 11265 3.1 100 00:49 22.08.2019
3080 Clouds 31 1012 62 11265 3.1 100 00:30 22.08.2019
3081 Clouds 30 1013 70 11265 3.6 70 23:58 21.08.2019
3082 Clouds 30 1013 70 11265 3.6 70 23:39 21.08.2019
3083 Clouds 30 1013 70 11265 3.6 70 23:20 21.08.2019
3084 Clouds 31 1014 66 11265 2.6 60 22:56 21.08.2019
3085 Clouds 31 1014 66 11265 2.6 60 22:38 21.08.2019
3086 Clouds 31 1014 66 11265 2.6 60 22:19 21.08.2019
3087 Clouds 30 1014 74 11265 3.6 70 21:55 21.08.2019
3088 Clouds 30 1014 74 11265 3.6 70 21:37 21.08.2019
3089 Clouds 30 1014 74 11265 3.6 70 21:18 21.08.2019
3090 Clouds 30 1015 74 11265 2.6 90 20:43 21.08.2019
3091 Clouds 30 1015 74 11265 2.6 90 20:43 21.08.2019
3092 Clouds 29 1015 74 11265 2.6 90 20:24 21.08.2019
3093 Clouds 30 1015 70 11265 1 60 19:58 21.08.2019
3094 Clouds 30 1015 70 11265 1 60 19:39 21.08.2019
3095 Clouds 30 1015 70 11265 1 60 19:20 21.08.2019
3096 Clouds 29 1016 79 11265 0.78 57.102 18:56 21.08.2019
3097 Clouds 29 1016 79 11265 0.78 57.102 18:37 21.08.2019
3098 Clouds 29 1016 79 11265 0.78 57.102 18:37 21.08.2019
3099 Clouds 29 1016 79 11265 0.48 292.092 18:19 21.08.2019
3100 Clouds 28 1015 83 11265 0.48 292.092 17:42 21.08.2019
3101 Clouds 28 1015 83 11265 0.48 292.092 17:42 21.08.2019
3102 Clouds 27 1015 83 11265 0.48 292.092 17:20 21.08.2019
3103 Clouds 27 1015 88 11265 1 310 16:55 21.08.2019
3104 Clouds 27 1015 88 11265 1 310 16:36 21.08.2019
3105 Clouds 27 1015 88 11265 1 310 16:18 21.08.2019
3106 Clouds 26 1015 94 9656 0.48 292.092 15:42 21.08.2019
3107 Clouds 26 1015 94 9656 1.61 282.486 15:22 21.08.2019
3108 Clouds 25 1015 94 9656 1.61 282.486 14:59 21.08.2019
3109 Clouds 24 1015 94 9656 1.61 282.486 14:39 21.08.2019
3110 Clouds 24 1015 94 9656 1.61 282.486 14:21 21.08.2019
3111 Clouds 25 1014 94 9656 1.61 282.486 13:58 21.08.2019
3112 Clouds 25 1014 94 9656 1.61 282.486 13:40 21.08.2019
3113 Clouds 25 1014 94 9656 1.57 284.461 13:19 21.08.2019
3114 Clear 24 1012 79 0 1.57 284.461 12:57 21.08.2019
3115 Clear 24 1012 81 0 0.45 261 12:38 21.08.2019
3116 Rain 24 1012 81 0 1.29 280.737 12:18 21.08.2019
3117 Rain 24 1012 81 0 1.29 280.737 12:18 21.08.2019
3118 Rain 24 1012 82 0 1.34 259 11:43 21.08.2019
3119 Rain 24 1012 82 0 0.45 281 11:22 21.08.2019
3120 Rain 24 1012 82 0 1.29 280.737 10:58 21.08.2019
3121 Rain 24 1012 82 0 0.45 281 10:38 21.08.2019
3122 Rain 24 1013 82 0 0.45 281 10:20 21.08.2019
3123 Rain 24 1013 82 0 0.89 281 09:57 21.08.2019
3124 Rain 25 1013 82 0 1.29 280.737 09:37 21.08.2019
3125 Rain 25 1013 82 0 0.45 281 09:18 21.08.2019
3126 Rain 25 1013 82 0 0.45 281 09:18 21.08.2019
3127 Rain 25 1013 81 0 0.89 281 08:46 21.08.2019
3128 Rain 25 1014 81 0 2.06 291.502 08:24 21.08.2019
3129 Rain 26 1014 81 0 0.89 281 07:44 21.08.2019
3130 Rain 26 1014 80 0 0.89 323 07:24 21.08.2019
3131 Clear 26 1016 100 11265 2.06 291.502 06:50 21.08.2019
3132 Clear 26 1016 100 11265 2.06 291.502 06:32 21.08.2019
3133 Clear 26 1015 100 11265 2.1 360 05:56 21.08.2019
3134 Clear 26 1015 100 11265 2.1 360 05:28 21.08.2019
3135 Clear 27 1014 100 11265 2.6 10 04:26 21.08.2019
3136 Clouds 30 1012 70 11265 5.7 20 01:55 21.08.2019
3137 Clouds 30 1012 70 11265 5.7 20 01:23 21.08.2019
3138 Clouds 30 1013 74 11265 6.2 10 00:38 21.08.2019
3139 Clouds 30 1013 74 11265 6.2 10 00:18 21.08.2019
3140 Clouds 29 1013 79 11265 5.1 360 23:44 20.08.2019
3141 Clouds 29 1013 79 11265 5.1 360 23:19 20.08.2019
3142 Clouds 29 1014 79 11265 6.2 360 22:58 20.08.2019
3143 Clouds 29 1014 79 11265 6.2 360 22:39 20.08.2019
3144 Clouds 29 1014 79 11265 6.2 360 22:21 20.08.2019
3145 Clouds 28 1014 83 11265 5.1 10 21:57 20.08.2019
3146 Clouds 29 1014 83 11265 5.1 10 21:57 20.08.2019
3147 Clouds 28 1014 83 11265 5.1 10 21:38 20.08.2019
3148 Clouds 29 1014 83 11265 5.1 10 21:19 20.08.2019
3149 Clouds 27 1015 88 11265 4.6 360 20:56 20.08.2019
3150 Clouds 27 1015 88 11265 4.6 360 20:56 20.08.2019
3151 Clouds 27 1015 88 11265 4.6 360 20:36 20.08.2019
3152 Clouds 27 1015 88 11265 4.6 360 20:36 20.08.2019
3153 Clouds 27 1015 88 11265 4.6 360 20:18 20.08.2019
3154 Clouds 28 1015 88 11265 2.1 330 19:39 20.08.2019
3155 Clouds 28 1015 88 11265 2.1 330 19:20 20.08.2019
3156 Mist 27 1015 94 9656 2.6 330 18:56 20.08.2019
3157 Clouds 35 1014 40 0 2.22 26.692 18:38 20.08.2019
3158 Clouds 26 1015 94 11265 1.71 327.626 18:19 20.08.2019
3159 Clouds 26 1015 94 11265 1.71 327.626 17:55 20.08.2019
3160 Clouds 26 1015 94 11265 1.71 327.626 17:37 20.08.2019
3161 Clouds 24 1013 82 0 0.89 342 17:18 20.08.2019
3162 Clouds 25 1014 94 9656 1.71 327.626 16:42 20.08.2019
3163 Clouds 25 1014 94 9656 1.71 327.626 16:23 20.08.2019
3164 Rain 24 1014 100 6437 1.71 327.626 15:42 20.08.2019
3165 Rain 24 1015 100 805 2.1 150 15:19 20.08.2019
3166 Rain 24 1015 100 805 2.1 150 14:57 20.08.2019
3167 Rain 25 1014 94 8047 2.02 291.517 14:39 20.08.2019
3168 Clouds 24 1012 79 0 0.89 304 14:20 20.08.2019
3169 Clouds 25 1012 94 8047 2.02 291.517 13:56 20.08.2019
3170 Clouds 25 1012 94 8047 2.02 291.517 13:37 20.08.2019
3171 Clouds 24 1012 94 8047 1.89 289.574 13:19 20.08.2019
3172 Clouds 24 1010 80 0 2.24 277 12:50 20.08.2019
3173 Clouds 24 1011 80 0 1.79 303 12:25 20.08.2019
3174 Clear 24 1011 80 0 2.68 302 11:56 20.08.2019
3175 Rain 24 1011 80 0 3.58 321 11:38 20.08.2019
3176 Rain 24 1011 80 0 1.79 360 11:18 20.08.2019
3177 Rain 24 1011 80 0 1.79 327 10:56 20.08.2019
3178 Rain 24 1011 80 0 2.24 306 10:37 20.08.2019
3179 Rain 24 1011 79 0 2.24 302 10:19 20.08.2019
3180 Rain 24 1011 76 0 4.02 337 09:42 20.08.2019
3181 Rain 27 1012 73 0 0.89 294 09:24 20.08.2019
3182 Rain 27 1012 74 0 0.89 310 08:43 20.08.2019
3183 Rain 27 1012 74 0 0.89 310 08:43 20.08.2019
3184 Rain 27 1012 74 0 0.89 355 08:25 20.08.2019
3185 Rain 27 1012 73 0 0.45 13 07:59 20.08.2019
3186 Rain 28 1013 72 0 0.89 13 07:41 20.08.2019
3187 Rain 27 1013 73 0 1.79 319 07:22 20.08.2019
3188 Clouds 28 1014 74 11265 2.1 350 06:56 20.08.2019
3189 Clouds 28 1014 74 11265 2.1 350 06:24 20.08.2019
3190 Clouds 29 1014 74 11265 1.5 360 05:49 20.08.2019
3191 Clouds 29 1013 74 11265 2.6 60 04:56 20.08.2019
3192 Clouds 29 1012 74 11265 4.6 40 03:52 20.08.2019
3193 Clouds 30 1012 74 11265 4.6 60 02:36 20.08.2019
3194 Clouds 31 1011 70 11265 5.1 60 01:36 20.08.2019
3195 Clouds 32 1012 66 9656 3.6 100 00:51 20.08.2019
3196 Clouds 32 1012 66 9656 3.6 100 00:31 20.08.2019
3197 Clouds 32 1012 62 9656 6.2 90 23:57 19.08.2019
3198 Clouds 32 1012 62 9656 6.2 90 23:38 19.08.2019
3199 Clouds 33 1012 59 9656 4.1 100 23:18 19.08.2019
3200 Clouds 33 1012 59 9656 4.1 100 22:41 19.08.2019
3201 Clouds 33 1012 59 9656 4.1 100 22:21 19.08.2019
3202 Clouds 32 1013 66 9656 7.7 60 21:58 19.08.2019
3203 Clouds 32 1013 66 9656 7.7 60 21:39 19.08.2019
3204 Clouds 32 1013 66 9656 7.7 60 21:20 19.08.2019
3205 Clouds 32 1013 70 9656 5.7 70 21:20 19.08.2019
3206 Clouds 32 1013 70 9656 5.7 70 20:59 19.08.2019
3207 Clouds 32 1013 70 9656 5.7 70 20:38 19.08.2019
3208 Clouds 32 1014 66 8047 4.1 20 20:20 19.08.2019
3209 Clouds 32 1014 66 8047 4.1 20 19:55 19.08.2019
3210 Clouds 32 1014 66 8047 4.1 20 19:55 19.08.2019
3211 Clouds 32 1014 66 8047 4.1 20 19:55 19.08.2019
3212 Clouds 32 1014 66 8047 4.1 20 19:37 19.08.2019
3213 Clouds 32 1014 66 8047 4.1 20 19:18 19.08.2019
3214 Clouds 32 1014 66 8047 4.1 20 19:18 19.08.2019
3215 Clouds 32 1013 74 9656 2.6 50 18:44 19.08.2019
3216 Clouds 32 1013 74 9656 2.6 50 18:26 19.08.2019
3217 Clouds 31 1013 74 9656 3.1 350 17:58 19.08.2019
3218 Clouds 30 1013 74 9656 3.1 350 17:40 19.08.2019
3219 Clouds 29 1013 88 9656 1.5 350 17:19 19.08.2019
3220 Clouds 29 1013 88 9656 1.5 350 16:58 19.08.2019
3221 Clouds 29 1013 88 9656 1.5 350 16:37 19.08.2019
3222 Clouds 28 1013 88 9656 1.5 350 16:18 19.08.2019
3223 Clouds 27 1013 88 9656 1.5 330 15:45 19.08.2019
3224 Clouds 27 1013 88 9656 1.5 330 15:20 19.08.2019
3225 Clouds 26 1013 94 9656 2.6 10 14:57 19.08.2019
3226 Clouds 26 1013 94 9656 2.6 10 14:37 19.08.2019
3227 Clouds 26 1013 94 9656 2.6 10 14:19 19.08.2019
3228 Thunderstorm 25 1012 94 8047 1.5 360 13:56 19.08.2019
3229 Thunderstorm 26 1012 94 8047 1.5 360 13:36 19.08.2019
3230 Thunderstorm 26 1012 94 8047 1.5 360 13:18 19.08.2019
3231 Thunderstorm 26 1012 94 8047 1.5 360 12:43 19.08.2019
3232 Thunderstorm 26 1012 94 8047 1.5 360 12:43 19.08.2019
3233 Clouds 26 1010 80 0 0.45 274 12:23 19.08.2019
3234 Clouds 26 1010 80 0 0.67 330.33 11:56 19.08.2019
3235 Clouds 26 1010 80 0 0.67 330.33 11:36 19.08.2019
3236 Clouds 26 1009 80 0 0.67 330.33 11:18 19.08.2019
3237 Clouds 26 1010 80 0 0.89 281 10:40 19.08.2019
3238 Clouds 26 1010 80 0 1.34 273 10:19 19.08.2019
3239 Clouds 26 1010 80 0 0.89 187 09:56 19.08.2019
3240 Clouds 26 1010 80 0 1.34 159 09:38 19.08.2019
3241 Rain 26 1010 80 0 0.45 159 09:20 19.08.2019
3242 Rain 26 1010 79 0 0.45 103 08:45 19.08.2019
3243 Rain 27 1011 77 0 1.38 298.036 08:25 19.08.2019
3244 Rain 27 1011 78 0 1.38 298.036 07:57 19.08.2019
3245 Rain 27 1011 76 0 1.38 298.036 07:39 19.08.2019
3246 Clouds 28 1013 74 11265 1 80 07:19 19.08.2019
3247 Clouds 28 1013 74 11265 1 80 06:40 19.08.2019
3248 Clouds 29 1012 70 11265 2.26 352.15 05:28 19.08.2019
3249 Clouds 29 1011 70 11265 1.5 70 04:34 19.08.2019
3250 Clouds 29 1010 70 11265 1.5 80 03:58 19.08.2019
3251 Clouds 29 1010 70 11265 1.5 80 03:18 19.08.2019
3252 Clouds 31 1009 70 11265 3.1 70 01:45 19.08.2019
3253 Clouds 32 1009 66 11265 7.2 70 00:59 19.08.2019
3254 Clouds 32 1009 66 11265 7.2 70 00:37 19.08.2019
3255 Clouds 32 1009 66 11265 7.2 70 00:18 19.08.2019
3256 Clouds 33 1010 59 11265 3.6 100 23:39 18.08.2019
3257 Clouds 33 1010 59 11265 3.6 100 23:20 18.08.2019
3258 Clear 34 1011 59 11265 4.6 70 22:40 18.08.2019
3259 Clear 34 1011 59 11265 4.6 70 22:21 18.08.2019
3260 Clouds 34 1012 59 11265 2.6 80 21:57 18.08.2019
3261 Clouds 34 1012 59 11265 2.6 80 21:39 18.08.2019
3262 Clouds 34 1012 59 11265 2.6 80 21:20 18.08.2019
3263 Clouds 34 1012 59 11265 2.1 100 20:55 18.08.2019
3264 Clouds 34 1012 59 11265 2.1 100 20:36 18.08.2019
3265 Clouds 34 1012 59 11265 2.1 100 20:18 18.08.2019
3266 Clouds 34 1012 59 11265 2.6 120 19:41 18.08.2019
3267 Clouds 34 1012 59 11265 2.6 120 19:23 18.08.2019
3268 Clouds 33 1012 66 9656 2.1 90 18:56 18.08.2019
3269 Clouds 33 1012 66 9656 2.1 90 18:56 18.08.2019
3270 Clouds 33 1012 66 9656 2.1 90 18:38 18.08.2019
3271 Clouds 33 1012 66 9656 2.1 90 18:20 18.08.2019
3272 Clouds 30 1012 84 9656 1.5 360 17:54 18.08.2019
3273 Clouds 30 1012 84 9656 1.5 360 17:36 18.08.2019
3274 Clouds 30 1012 84 9656 1.5 360 17:18 18.08.2019
3275 Clouds 29 1012 74 9656 1.12 343.674 16:42 18.08.2019
3276 Clouds 29 1012 74 9656 1.12 343.674 16:23 18.08.2019
3277 Clouds 27 1011 88 8047 1.12 343.674 15:59 18.08.2019
3278 Clouds 27 1011 88 8047 1.12 343.674 15:39 18.08.2019
3279 Clouds 27 1011 88 8047 1.68 294.34 15:20 18.08.2019
3280 Clouds 27 1011 88 8047 1.68 294.34 15:20 18.08.2019
3281 Clouds 26 1010 94 9656 1.68 294.34 14:57 18.08.2019
3282 Clouds 26 1010 94 9656 1.68 294.34 14:57 18.08.2019
3283 Clouds 26 1010 94 9656 1.68 294.34 14:38 18.08.2019
3284 Clouds 26 1010 94 9656 1.68 294.34 14:19 18.08.2019
3285 Clear 26 1010 94 9656 1.68 294.34 13:56 18.08.2019
3286 Clear 25 1010 94 9656 1.68 294.34 13:37 18.08.2019
3287 Clear 25 1010 94 9656 1.68 294.34 13:19 18.08.2019
3288 Clear 25 1010 94 9656 1.68 294.34 12:41 18.08.2019
3289 Clouds 24 1013 91 0 0.82 316.09 12:22 18.08.2019
3290 Clouds 24 1013 91 0 0.82 316.09 11:55 18.08.2019
3291 Clouds 24 1013 91 0 0.82 316.09 11:36 18.08.2019
3292 Clouds 24 1013 91 0 0.82 316.09 11:18 18.08.2019
3293 Clouds 24 1013 91 0 0.82 316.09 10:41 18.08.2019
3294 Clouds 24 1013 91 0 0.82 316.09 10:21 18.08.2019
3295 Clouds 24 1013 91 0 0.82 316.09 09:50 18.08.2019
3296 Clouds 25 1014 88 0 1.43 305.094 09:22 18.08.2019
3297 Clouds 25 1014 88 0 1.43 305.094 08:54 18.08.2019
3298 Clouds 25 1014 88 0 1.43 305.094 08:36 18.08.2019
3299 Clouds 25 1014 88 0 1.43 305.094 08:18 18.08.2019
3300 Clouds 28 1012 100 11265 1.43 305.094 07:43 18.08.2019
3301 Clouds 28 1012 100 11265 1.43 305.094 07:24 18.08.2019
3302 Clouds 29 1011 100 11265 2.1 80 05:47 18.08.2019
3303 Clear 29 1010 100 9656 1.5 90 04:52 18.08.2019
3304 Clouds 29 1009 100 9656 2.6 100 03:23 18.08.2019
3305 Clouds 31 1008 89 9656 2.6 110 02:46 18.08.2019
3306 Clouds 31 1008 89 9656 2.6 110 02:19 18.08.2019
3307 Clouds 32 1008 66 11265 3.6 100 01:30 18.08.2019
3308 Clouds 34 1009 52 11265 2.1 130 00:44 18.08.2019
3309 Clouds 34 1009 52 11265 2.1 130 00:24 18.08.2019
3310 Clouds 34 1010 52 11265 4.6 90 23:58 17.08.2019
3311 Clouds 34 1010 52 11265 4.6 90 23:40 17.08.2019
3312 Clouds 34 1010 52 11265 4.6 90 23:22 17.08.2019
3313 Clouds 34 1010 63 11265 5.1 70 22:59 17.08.2019
3314 Clouds 34 1010 63 11265 5.1 70 22:41 17.08.2019
3315 Clouds 34 1010 63 11265 5.1 70 22:23 17.08.2019
3316 Clouds 34 1011 67 9656 2.6 90 21:56 17.08.2019
3317 Clouds 34 1011 67 9656 2.6 90 21:38 17.08.2019
3318 Clouds 34 1011 67 9656 2.6 90 21:20 17.08.2019
3319 Clouds 34 1012 56 11265 1.5 130 20:39 17.08.2019
3320 Clouds 33 1012 56 11265 1.5 130 20:21 17.08.2019
3321 Clouds 33 1013 63 11265 1 130 19:56 17.08.2019
3322 Clouds 33 1013 63 11265 1 130 19:38 17.08.2019
3323 Clouds 33 1013 63 11265 1 130 19:19 17.08.2019
3324 Clouds 32 1013 70 11265 2.1 200 18:41 17.08.2019
3325 Clouds 32 1013 70 11265 2.1 200 18:19 17.08.2019
3326 Clouds 30 1013 74 9656 1.5 220 17:56 17.08.2019
3327 Clouds 30 1013 74 9656 1.5 220 17:38 17.08.2019
3328 Clouds 30 1013 74 9656 1.5 220 17:38 17.08.2019
3329 Clouds 29 1013 74 9656 1.5 220 17:20 17.08.2019
3330 Clouds 27 1013 78 9656 0.86 163.415 16:44 17.08.2019
3331 Clouds 27 1013 78 9656 0.86 163.415 16:26 17.08.2019
3332 Clouds 26 1013 83 9656 0.86 163.415 15:59 17.08.2019
3333 Clouds 26 1013 83 9656 0.86 163.415 15:39 17.08.2019
3334 Clouds 26 1013 83 9656 1.1 267.749 15:20 17.08.2019
3335 Clouds 26 1013 83 9656 1.1 267.749 15:20 17.08.2019
3336 Clouds 25 1012 83 9656 1.1 267.749 14:41 17.08.2019
3337 Clouds 25 1012 83 9656 1.1 267.749 14:41 17.08.2019
3338 Clouds 25 1012 83 9656 1.1 267.749 14:41 17.08.2019
3339 Clouds 25 1012 83 9656 1.1 267.749 14:23 17.08.2019
3340 Clouds 25 1012 83 9656 1.1 267.749 13:49 17.08.2019
3341 Clouds 25 1012 83 9656 0.98 259.216 13:23 17.08.2019
3342 Clouds 25 1012 83 9656 0.98 259.216 13:23 17.08.2019
3343 Clouds 25 1012 83 9656 0.98 259.216 12:58 17.08.2019
3344 Clouds 25 1010 82 0 0.98 259.216 12:40 17.08.2019
3345 Clouds 26 1010 82 0 1.15 270.497 12:19 17.08.2019
3346 Clouds 25 1010 81 0 1.15 270.497 11:45 17.08.2019
3347 Clouds 26 1010 82 0 1.15 270.497 11:21 17.08.2019
3348 Clouds 26 1011 81 0 1.15 270.497 10:57 17.08.2019
3349 Clouds 26 1011 81 0 1.15 270.497 10:57 17.08.2019
3350 Clouds 26 1011 82 0 1.15 270.497 10:39 17.08.2019
3351 Clouds 26 1011 81 0 1.15 270.497 10:19 17.08.2019
3352 Clouds 26 1011 81 0 1.15 270.497 09:48 17.08.2019
3353 Clouds 26 1012 81 0 1.15 270.497 09:29 17.08.2019
3354 Clouds 26 1012 80 0 0.45 263 08:54 17.08.2019
3355 Clouds 27 1012 80 0 0.87 264.519 08:25 17.08.2019
3356 Clouds 27 1014 100 11265 0.87 264.519 07:51 17.08.2019
3357 Clouds 27 1014 100 11265 0.87 264.519 07:21 17.08.2019
3358 Clouds 27 1014 100 11265 0.87 264.519 06:53 17.08.2019
3359 Clouds 28 1013 100 11265 0.94 341.719 05:32 17.08.2019
3360 Clouds 28 1013 100 11265 0.94 341.719 04:29 17.08.2019
3361 Clouds 29 1012 100 11265 2.6 90 03:20 17.08.2019
3362 Clouds 31 1011 79 11265 2.6 100 01:46 17.08.2019
3363 Clouds 31 1011 79 11265 2.6 100 01:27 17.08.2019
3364 Clouds 32 1012 70 11265 3.6 80 00:54 17.08.2019
3365 Clouds 32 1012 70 11265 3.6 80 00:28 17.08.2019
3366 Clouds 33 1013 63 11265 4.1 100 23:50 16.08.2019
3367 Clouds 33 1013 63 11265 4.1 100 23:27 16.08.2019
3368 Clouds 33 1013 59 11265 2.6 90 22:56 16.08.2019
3369 Clouds 33 1013 59 11265 2.6 90 22:37 16.08.2019
3370 Clouds 33 1013 59 11265 2.6 90 22:19 16.08.2019
3371 Clouds 33 1014 59 11265 5.1 90 21:40 16.08.2019
3372 Clouds 33 1014 59 11265 5.1 90 21:20 16.08.2019
3373 Clouds 33 1014 63 11265 3.6 60 20:55 16.08.2019
3374 Clouds 33 1014 63 11265 3.6 60 20:37 16.08.2019
3375 Clouds 33 1014 63 11265 3.6 60 20:18 16.08.2019
3376 Clouds 32 1014 66 11265 1.36 80.261 19:41 16.08.2019
3377 Clouds 32 1014 66 11265 1.36 80.261 19:22 16.08.2019
3378 Clouds 31 1014 66 11265 2.1 180 18:43 16.08.2019
3379 Clouds 31 1014 66 11265 2.1 180 18:25 16.08.2019
3380 Clouds 31 1014 66 11265 2.1 180 18:25 16.08.2019
3381 Clouds 30 1014 70 9656 0.62 207.468 17:56 16.08.2019
3382 Clouds 30 1014 70 9656 0.62 207.468 17:37 16.08.2019
3383 Clouds 30 1014 70 9656 0.62 207.468 17:18 16.08.2019
3384 Mist 28 1014 78 9656 0.62 207.468 16:41 16.08.2019
3385 Mist 28 1014 78 9656 0.62 207.468 16:21 16.08.2019
3386 Mist 28 1014 78 9656 0.62 207.468 16:21 16.08.2019
3387 Mist 27 1014 88 9656 2.1 310 15:57 16.08.2019
3388 Mist 26 1014 88 9656 2.1 310 15:39 16.08.2019
3389 Mist 25 1014 88 9656 2.1 310 15:21 16.08.2019
3390 Mist 26 1013 88 8047 1.35 267.407 14:57 16.08.2019
3391 Mist 25 1013 88 8047 1.35 267.407 14:38 16.08.2019
3392 Mist 25 1013 88 8047 1.35 267.407 14:18 16.08.2019
3393 Mist 25 1013 88 9656 1.35 267.407 13:41 16.08.2019
3394 Mist 25 1013 88 9656 1.37 270.711 13:23 16.08.2019
3395 Clouds 25 1011 82 0 1.37 270.711 12:56 16.08.2019
3396 Clouds 25 1011 82 0 0.89 286 12:37 16.08.2019
3397 Clouds 25 1011 81 0 0.89 302 12:19 16.08.2019
3398 Clouds 25 1012 81 0 1.65 270.521 11:41 16.08.2019
3399 Clouds 25 1012 81 0 1.65 270.521 11:23 16.08.2019
3400 Clouds 26 1012 80 0 0.45 338 10:43 16.08.2019
3401 Clouds 26 1012 79 0 1.65 270.521 10:22 16.08.2019
3402 Clouds 26 1013 79 0 1.65 270.521 09:55 16.08.2019
3403 Clouds 27 1013 79 0 0.45 338 09:37 16.08.2019
3404 Clear 27 1013 79 0 0.45 338 09:18 16.08.2019
3405 Clear 27 1014 77 0 1.66 266.135 08:40 16.08.2019
3406 Clear 27 1014 77 0 1.66 266.135 08:20 16.08.2019
3407 Clear 27 1014 77 0 1.66 266.135 07:52 16.08.2019
3408 Clear 27 1014 77 0 0.89 338 07:30 16.08.2019
3409 Clouds 27 1016 100 11265 1.66 266.135 06:56 16.08.2019
3410 Clouds 27 1016 100 11265 1.32 318.417 06:19 16.08.2019
3411 Clouds 28 1015 100 11265 1.32 318.417 05:36 16.08.2019
3412 Clouds 29 1014 100 11265 3.1 70 03:22 16.08.2019
3413 Clear 31 1012 84 11265 3.6 40 01:59 16.08.2019
3414 Clear 31 1012 84 11265 3.6 40 01:29 16.08.2019
3415 Clear 32 1012 66 11265 5.7 70 00:57 16.08.2019
3416 Clear 32 1012 66 11265 5.7 70 00:39 16.08.2019
3417 Clear 32 1012 66 11265 5.7 70 00:18 16.08.2019
3418 Clear 33 1013 59 11265 2.1 100 23:42 15.08.2019
3419 Clear 33 1013 59 11265 2.1 100 23:20 15.08.2019
3420 Clouds 33 1014 59 9656 4.1 110 22:57 15.08.2019
3421 Clouds 33 1014 59 9656 4.1 110 22:38 15.08.2019
3422 Clouds 33 1014 59 9656 4.1 110 22:20 15.08.2019
3423 Clouds 33 1014 59 9656 2.6 60 21:40 15.08.2019
3424 Clouds 33 1014 59 9656 2.6 60 21:40 15.08.2019
3425 Clouds 33 1014 59 9656 2.6 60 21:20 15.08.2019
3426 Clouds 32 1014 70 9656 5.1 60 20:59 15.08.2019
3427 Clouds 32 1014 70 9656 5.1 60 20:41 15.08.2019
3428 Clouds 32 1014 70 9656 5.1 60 20:21 15.08.2019
3429 Clouds 32 1014 70 9656 3.6 50 19:56 15.08.2019
3430 Clouds 32 1014 70 9656 3.6 50 19:38 15.08.2019
3431 Clouds 31 1014 70 9656 3.6 50 19:19 15.08.2019
3432 Clouds 31 1014 70 9656 3.1 50 18:45 15.08.2019
3433 Clouds 31 1014 70 9656 3.1 50 18:22 15.08.2019
3434 Clouds 31 1014 74 9656 1 10 17:56 15.08.2019
3435 Clouds 31 1014 74 9656 1 10 17:37 15.08.2019
3436 Clouds 30 1014 74 9656 1 10 17:19 15.08.2019
3437 Clouds 29 1014 88 8047 0.18 34.039 16:48 15.08.2019
3438 Clouds 29 1014 88 8047 0.18 34.039 16:27 15.08.2019
3439 Clouds 27 1014 88 9656 0.18 34.039 15:56 15.08.2019
3440 Clouds 27 1014 88 9656 0.18 34.039 15:38 15.08.2019
3441 Clouds 27 1014 88 9656 1.13 273.557 15:19 15.08.2019
3442 Clouds 26 1014 94 9656 1.13 273.557 14:42 15.08.2019
3443 Clouds 25 1014 94 9656 1.13 273.557 14:23 15.08.2019
3444 Clouds 25 1014 94 8047 1.13 273.557 13:57 15.08.2019
3445 Clouds 25 1014 94 8047 1.13 273.557 13:39 15.08.2019
3446 Clouds 25 1014 94 8047 1.16 270.841 13:20 15.08.2019
3447 Clouds 25 1014 94 8047 1.16 270.841 12:57 15.08.2019
3448 Clouds 25 1014 94 8047 1.16 270.841 12:57 15.08.2019
3449 Clear 25 1012 81 0 1.16 270.841 12:38 15.08.2019
3450 Clear 26 1013 78 0 0.45 259 12:18 15.08.2019
3451 Clear 26 1013 78 0 0.45 259 11:57 15.08.2019
3452 Clear 26 1013 78 0 0.45 259 11:36 15.08.2019
3453 Clear 26 1013 78 0 0.45 259 11:18 15.08.2019
3454 Clear 27 1013 77 0 0.45 279 10:39 15.08.2019
3455 Clear 27 1013 77 0 0.89 279 10:20 15.08.2019
3456 Clear 27 1013 76 0 1.34 279 09:58 15.08.2019
3457 Clear 27 1014 76 0 1.34 279 09:39 15.08.2019
3458 Rain 27 1014 76 0 1.34 279 09:21 15.08.2019
3459 Rain 28 1014 72 0 0.89 259 08:38 15.08.2019
3460 Rain 28 1014 72 0 0.89 259 08:19 15.08.2019
3461 Rain 28 1014 74 0 2.23 279.859 07:46 15.08.2019
3462 Rain 28 1014 75 0 0.89 303 07:28 15.08.2019
3463 Clouds 29 1015 74 11265 2.23 279.859 06:56 15.08.2019
3464 Clouds 29 1015 74 11265 2.23 279.859 06:34 15.08.2019
3465 Clouds 29 1014 74 11265 1.88 300.87 05:54 15.08.2019
3466 Clouds 29 1014 74 11265 1.88 300.87 05:29 15.08.2019
3467 Clouds 29 1013 74 11265 1.5 70 04:50 15.08.2019
3468 Clouds 29 1013 79 11265 2.6 60 03:48 15.08.2019
3469 Clear 30 1011 74 11265 5.7 70 02:47 15.08.2019
3470 Clear 32 1011 66 11265 5.7 70 01:58 15.08.2019
3471 Clear 32 1011 66 11265 5.7 70 01:38 15.08.2019
3472 Clouds 32 1011 63 11265 4.1 100 00:42 15.08.2019
3473 Clouds 33 1011 63 11265 4.1 100 00:22 15.08.2019
3474 Clear 33 1011 56 11265 4.1 80 23:59 14.08.2019
3475 Clear 34 1011 56 11265 4.1 80 23:40 14.08.2019
3476 Clear 34 1011 56 11265 4.1 80 23:19 14.08.2019
3477 Clouds 34 1011 56 11265 3.1 100 22:57 14.08.2019
3478 Clouds 34 1011 56 11265 3.1 100 22:57 14.08.2019
3479 Clouds 34 1011 56 11265 3.1 100 22:39 14.08.2019
3480 Clouds 34 1011 56 11265 3.1 100 22:21 14.08.2019
3481 Clouds 34 1012 53 9656 1.35 75.429 21:56 14.08.2019
3482 Clouds 34 1012 53 9656 1.35 75.429 21:37 14.08.2019
3483 Clouds 34 1012 53 9656 0.98 101.771 21:18 14.08.2019
3484 Clear 33 1013 55 9656 1.5 70 20:42 14.08.2019
3485 Clear 33 1013 55 9656 1.5 70 20:21 14.08.2019
3486 Clear 33 1014 52 9656 1.5 10 19:56 14.08.2019
3487 Clear 33 1014 52 9656 1.5 10 19:38 14.08.2019
3488 Clear 33 1014 52 9656 1.5 10 19:20 14.08.2019
3489 Clouds 31 1014 70 9656 0.98 101.771 18:57 14.08.2019
3490 Clouds 31 1014 70 9656 0.98 101.771 18:38 14.08.2019
3491 Clouds 31 1014 70 9656 0.24 304.496 18:19 14.08.2019
3492 Clouds 30 1014 74 8047 0.24 304.496 17:56 14.08.2019
3493 Clouds 30 1014 74 8047 0.24 304.496 17:37 14.08.2019
3494 Clouds 30 1014 74 8047 0.24 304.496 17:18 14.08.2019
3495 Clouds 28 1014 83 11265 0.24 304.496 16:42 14.08.2019
3496 Clouds 28 1014 83 11265 0.24 304.496 16:20 14.08.2019
3497 Clouds 27 1014 88 9656 0.24 304.496 15:55 14.08.2019
3498 Clouds 27 1014 88 9656 0.24 304.496 15:55 14.08.2019
3499 Clouds 27 1014 88 9656 0.24 304.496 15:36 14.08.2019
3500 Clouds 27 1014 88 9656 1.1 279.032 15:18 14.08.2019
3501 Clouds 26 1013 94 9656 1.1 279.032 14:40 14.08.2019
3502 Clouds 26 1013 94 9656 1.1 279.032 14:19 14.08.2019
3503 Clouds 26 1012 94 9656 1.1 279.032 13:56 14.08.2019
3504 Clouds 26 1012 94 9656 1.1 279.032 13:56 14.08.2019
3505 Clouds 26 1012 94 9656 1.1 279.032 13:38 14.08.2019
3506 Clouds 26 1012 94 9656 1.08 271.968 13:20 14.08.2019
3507 Clouds 26 1012 94 9656 1.08 271.968 12:56 14.08.2019
3508 Clear 21 1015 91 0 1.08 271.968 12:37 14.08.2019
3509 Clear 21 1015 91 0 1.08 271.968 12:37 14.08.2019
3510 Clear 22 1015 93 0 1.89 263.056 12:19 14.08.2019
3511 Clear 22 1015 93 0 1.89 263.056 11:45 14.08.2019
3512 Clear 22 1015 93 0 1.89 263.056 11:23 14.08.2019
3513 Clear 22 1015 93 0 1.89 263.056 10:58 14.08.2019
3514 Clear 22 1015 93 0 1.89 263.056 10:38 14.08.2019
3515 Clear 22 1015 93 0 1.89 263.056 10:20 14.08.2019
3516 Clear 22 1015 93 0 1.89 263.056 09:42 14.08.2019
3517 Rain 24 1016 95 0 1.67 272.679 09:21 14.08.2019
3518 Rain 24 1016 95 0 1.67 272.679 09:21 14.08.2019
3519 Clear 23 1016 94 0 1.58 272.499 08:45 14.08.2019
3520 Clear 23 1016 94 0 1.58 272.499 08:27 14.08.2019
3521 Clear 23 1016 94 0 1.58 272.499 07:57 14.08.2019
3522 Clear 23 1016 94 0 1.58 272.499 07:37 14.08.2019
3523 Clear 23 1016 94 0 1.58 272.499 07:37 14.08.2019
3524 Clear 28 1015 74 11265 1.58 272.499 06:53 14.08.2019
3525 Clear 28 1015 74 11265 1.58 272.499 06:35 14.08.2019
3526 Clouds 29 1014 70 11265 1.31 330.402 05:33 14.08.2019
3527 Clouds 29 1014 70 11265 1.31 330.402 05:33 14.08.2019
3528 Clear 30 1012 70 11265 1.5 70 03:58 14.08.2019
3529 Clear 31 1011 66 11265 3.1 80 02:39 14.08.2019
3530 Clear 31 1011 66 11265 3.1 80 02:18 14.08.2019
3531 Clouds 32 1011 66 11265 4.6 60 01:30 14.08.2019
3532 Clouds 33 1011 63 11265 2.1 90 00:31 14.08.2019
3533 Clouds 33 1011 55 11265 5.1 90 23:43 13.08.2019
3534 Clouds 33 1011 55 11265 5.1 90 23:20 13.08.2019
3535 Clouds 33 1012 63 11265 4.1 60 22:56 13.08.2019
3536 Clouds 33 1012 63 11265 4.1 60 22:38 13.08.2019
3537 Clouds 33 1012 63 11265 4.1 60 22:19 13.08.2019
3538 Clouds 33 1012 59 11265 3.6 100 21:55 13.08.2019
3539 Clouds 33 1012 59 11265 3.6 100 21:36 13.08.2019
3540 Clouds 33 1012 59 11265 3.6 100 21:18 13.08.2019
3541 Clouds 32 1012 66 11265 0.67 132.929 20:42 13.08.2019
3542 Clouds 32 1012 66 11265 0.67 132.929 20:20 13.08.2019
3543 Clouds 32 1012 66 11265 0.67 132.929 19:56 13.08.2019
3544 Clouds 32 1012 66 11265 0.67 132.929 19:38 13.08.2019
3545 Clouds 32 1012 66 11265 0.67 132.929 19:19 13.08.2019
3546 Clouds 31 1013 74 11265 0.67 132.929 18:41 13.08.2019
3547 Clouds 31 1013 74 11265 0.67 132.929 18:41 13.08.2019
3548 Clouds 30 1013 74 11265 0.93 190.205 18:22 13.08.2019
3549 Clouds 29 1013 79 11265 0.93 190.205 17:54 13.08.2019
3550 Clouds 29 1013 79 11265 0.93 190.205 17:36 13.08.2019
3551 Clouds 29 1013 79 11265 0.93 190.205 17:18 13.08.2019
3552 Clouds 28 1013 88 11265 0.93 190.205 16:54 13.08.2019
3553 Clouds 28 1013 88 11265 0.93 190.205 16:54 13.08.2019
3554 Clouds 28 1013 88 11265 0.93 190.205 16:36 13.08.2019
3555 Clouds 27 1013 88 11265 0.93 190.205 16:18 13.08.2019
3556 Clouds 27 1012 88 9656 1.5 320 15:38 13.08.2019
3557 Clouds 26 1012 88 9656 1.5 320 15:20 13.08.2019
3558 Clouds 25 1012 94 9656 1.01 265.161 14:48 13.08.2019
3559 Clouds 25 1012 94 9656 1.01 265.161 14:21 13.08.2019
3560 Clear 25 1012 94 9656 1.01 265.161 13:59 13.08.2019
3561 Clear 24 1012 94 9656 1.01 265.161 13:41 13.08.2019
3562 Clear 24 1012 94 9656 0.79 272.113 13:21 13.08.2019
3563 Clear 24 1012 94 9656 0.79 272.113 12:57 13.08.2019
3564 Clear 24 1010 82 0 0.79 272.113 12:39 13.08.2019
3565 Clear 24 1010 82 0 1.34 163 12:21 13.08.2019
3566 Clear 24 1011 82 0 0.45 61 11:42 13.08.2019
3567 Clear 24 1011 81 0 0.45 61 11:23 13.08.2019
3568 Clear 25 1011 80 0 1.72 270.635 10:58 13.08.2019
3569 Clear 26 1011 81 0 1.72 270.635 10:38 13.08.2019
3570 Clear 26 1011 81 0 1.72 270.635 10:38 13.08.2019
3571 Clear 26 1011 80 0 1.72 270.635 10:20 13.08.2019
3572 Clear 26 1011 80 0 1.72 270.635 10:20 13.08.2019
3573 Clear 25 1011 79 0 1.72 270.635 09:56 13.08.2019
3574 Clear 26 1012 79 0 1.72 270.635 09:38 13.08.2019
3575 Rain 26 1012 80 0 1.6 273.009 09:19 13.08.2019
3576 Rain 26 1012 80 0 0.45 58 08:41 13.08.2019
3577 Rain 26 1012 79 0 0.45 58 08:21 13.08.2019
3578 Rain 27 1013 78 0 1.6 273.009 07:47 13.08.2019
3579 Rain 27 1013 79 0 0.89 58 07:28 13.08.2019
3580 Clouds 28 1015 74 11265 1.6 273.009 06:44 13.08.2019
3581 Clouds 29 1014 74 11265 1.61 309.292 05:59 13.08.2019
3582 Clouds 29 1014 74 11265 1.61 309.292 05:32 13.08.2019
3583 Clear 30 1012 74 11265 4.1 50 02:32 13.08.2019
3584 Clear 31 1012 70 11265 2.6 100 01:46 13.08.2019
3585 Clear 32 1012 70 11265 4.6 80 00:53 13.08.2019
3586 Clear 32 1012 70 11265 4.6 80 00:35 13.08.2019
3587 Clear 32 1012 62 11265 3.6 90 23:47 12.08.2019
3588 Clear 32 1012 62 11265 3.6 90 23:21 12.08.2019
3589 Clear 32 1012 62 11265 2.1 100 22:57 12.08.2019
3590 Clear 32 1012 62 11265 2.1 100 22:38 12.08.2019
3591 Clear 32 1012 62 11265 2.1 100 22:19 12.08.2019
3592 Clear 32 1013 62 11265 2.1 100 21:55 12.08.2019
3593 Clear 32 1013 62 11265 2.1 100 21:36 12.08.2019
3594 Clear 32 1013 62 11265 2.1 100 21:18 12.08.2019
3595 Clouds 32 1014 66 11265 1.5 140 20:42 12.08.2019
3596 Clouds 32 1014 66 11265 1.5 140 20:21 12.08.2019
3597 Clouds 32 1014 66 11265 1.26 75.732 19:59 12.08.2019
3598 Clouds 32 1014 66 11265 1.26 75.732 19:39 12.08.2019
3599 Clouds 32 1014 66 11265 1.26 75.732 19:21 12.08.2019
3600 Clouds 31 1014 84 11265 1.5 90 18:59 12.08.2019
3601 Clouds 31 1014 84 11265 1.5 90 18:40 12.08.2019
3602 Clouds 31 1014 84 11265 1.5 90 18:21 12.08.2019
3603 Clouds 29 1014 83 9656 0.95 262.517 17:56 12.08.2019
3604 Clouds 29 1014 83 9656 0.95 262.517 17:38 12.08.2019
3605 Clouds 29 1014 83 9656 0.95 262.517 17:20 12.08.2019
3606 Clouds 28 1014 88 9656 0.95 262.517 16:55 12.08.2019
3607 Clouds 27 1014 88 9656 0.95 262.517 16:36 12.08.2019
3608 Clouds 27 1014 88 9656 0.95 262.517 16:18 12.08.2019
3609 Clouds 26 1014 94 11265 0.95 262.517 15:42 12.08.2019
3610 -273 0 0 0 0 0 15:41 12.08.2019
3611 Clouds 25 1014 94 11265 1.45 276.04 15:21 12.08.2019
3612 Clouds 24 1014 94 9656 1.45 276.04 14:56 12.08.2019
3613 Clouds 24 1014 94 9656 1.45 276.04 14:56 12.08.2019
3614 Clouds 24 1014 94 9656 1.45 276.04 14:38 12.08.2019
3615 Clouds 24 1014 94 9656 1.45 276.04 14:38 12.08.2019
3616 Clouds 24 1014 94 9656 1.45 276.04 14:19 12.08.2019
3617 Clouds 24 1014 94 9656 3.6 200 13:43 12.08.2019
3618 Rain 24 1014 94 9656 3.6 200 13:24 12.08.2019
3619 Rain 24 1014 94 9656 3.6 200 12:58 12.08.2019
3620 Rain 24 1014 94 9656 3.6 200 12:58 12.08.2019
3621 Rain 24 1012 81 0 3.58 214 12:39 12.08.2019
3622 Rain 24 1013 81 0 3.58 200 12:18 12.08.2019
3623 -273 0 0 0 0 0 11:41 12.08.2019
3624 Clouds 26 1012 82 0 0.89 205 11:41 12.08.2019
3625 Clouds 26 1012 82 0 0.45 229 11:23 12.08.2019
3626 Clouds 26 1012 82 0 0.45 281 10:42 12.08.2019
3627 Clouds 26 1012 81 0 0.45 281 10:23 12.08.2019
3628 Clouds 26 1012 81 0 0.45 281 10:23 12.08.2019
3629 Clouds 26 1013 80 0 1.17 282.523 09:56 12.08.2019
3630 Clouds 26 1013 80 0 1.17 282.523 09:38 12.08.2019
3631 Clear 27 1013 79 0 1.1 265.992 09:19 12.08.2019
3632 Clear 27 1013 78 0 1.1 265.992 08:57 12.08.2019
3633 Clear 27 1014 78 0 0.45 281 08:38 12.08.2019
3634 Clear 27 1014 78 0 0.45 281 08:38 12.08.2019
3635 Clear 27 1014 78 0 0.45 281 08:19 12.08.2019
3636 Clouds 28 1015 74 11265 1.1 265.992 07:49 12.08.2019
3637 Clouds 28 1015 74 11265 1.1 265.992 07:27 12.08.2019
3638 Clouds 29 1015 74 11265 1.5 340 06:47 12.08.2019
3639 Clouds 29 1014 74 11265 1.67 309.7 05:38 12.08.2019
3640 Clouds 30 1012 66 11265 5.7 60 02:44 12.08.2019
3641 Clear 31 1012 70 11265 5.7 50 01:54 12.08.2019
3642 Clear 31 1012 70 11265 5.7 50 01:20 12.08.2019
3643 Clear 32 1012 66 11265 5.7 40 00:57 12.08.2019
3644 Clear 32 1012 66 11265 5.7 40 00:38 12.08.2019
3645 Clear 32 1012 66 11265 5.7 40 00:19 12.08.2019
3646 Clear 33 1013 63 11265 4.1 60 23:42 11.08.2019
3647 Clear 33 1013 63 11265 4.1 60 23:20 11.08.2019
3648 Clear 33 1013 66 11265 3.6 70 22:59 11.08.2019
3649 Clear 33 1013 66 11265 3.6 70 22:40 11.08.2019
3650 Clear 33 1013 66 11265 3.6 70 22:19 11.08.2019
3651 Clear 33 1013 66 11265 3.6 70 22:19 11.08.2019
3652 Clouds 33 1013 63 11265 4.6 80 21:59 11.08.2019
3653 Clouds 33 1013 63 11265 4.6 80 21:40 11.08.2019
3654 Clouds 33 1013 63 11265 4.6 80 21:20 11.08.2019
3655 Clouds 33 1014 63 11265 2.1 110 20:56 11.08.2019
3656 Clouds 33 1014 63 11265 2.1 110 20:38 11.08.2019
3657 Clouds 33 1014 63 11265 2.1 110 20:19 11.08.2019
3658 Clouds 32 1015 62 11265 1.28 92.556 19:42 11.08.2019
3659 Clouds 32 1015 62 11265 1.28 92.556 19:18 11.08.2019
3660 Clouds 31 1015 74 11265 1.28 92.556 18:41 11.08.2019
3661 Clouds 31 1015 74 11265 0.96 262.853 18:21 11.08.2019
3662 Clouds 29 1015 88 9656 2.6 340 17:57 11.08.2019
3663 Clouds 29 1015 88 9656 2.6 340 17:39 11.08.2019
3664 Clouds 29 1015 88 9656 2.6 340 17:20 11.08.2019
3665 Clouds 29 1015 88 9656 2.6 340 17:20 11.08.2019
3666 Clouds 27 1015 94 8047 0.96 262.853 16:56 11.08.2019
3667 Clouds 27 1015 94 8047 0.96 262.853 16:37 11.08.2019
3668 Clouds 27 1015 94 8047 0.96 262.853 16:18 11.08.2019
3669 Clouds 26 1014 94 8047 1.5 300 15:43 11.08.2019
3670 Clouds 25 1014 94 8047 1.5 300 15:24 11.08.2019
3671 Clouds 26 1014 94 9656 1.24 270.923 14:57 11.08.2019
3672 Clouds 26 1014 94 9656 1.24 270.923 14:38 11.08.2019
3673 Clouds 26 1014 94 9656 1.24 270.923 14:19 11.08.2019
3674 Clouds 25 1014 94 8047 1.24 270.923 13:44 11.08.2019
3675 Clouds 25 1014 94 8047 1.28 273.142 13:24 11.08.2019
3676 Clear 26 1012 80 0 1.34 285 12:48 11.08.2019
3677 Rain 25 1011 80 0 1.46 296.688 12:23 11.08.2019
3678 Rain 25 1011 80 0 1.46 296.688 11:57 11.08.2019
3679 Rain 26 1011 80 0 1.46 296.688 11:38 11.08.2019
3680 Rain 26 1012 81 0 1.46 296.688 11:20 11.08.2019
3681 Rain 26 1012 80 0 1.46 296.688 10:41 11.08.2019
3682 Rain 26 1012 80 0 1.46 296.688 10:22 11.08.2019
3683 Rain 26 1013 80 0 1.46 296.688 09:59 11.08.2019
3684 Rain 26 1013 80 0 1.46 296.688 09:39 11.08.2019
3685 Rain 26 1013 80 0 0.45 285 09:20 11.08.2019
3686 Rain 27 1013 79 0 1.4 287.001 08:47 11.08.2019
3687 Rain 27 1014 79 0 1.4 287.001 08:27 11.08.2019
3688 Clear 28 1016 79 11265 1.4 287.001 07:55 11.08.2019
3689 Clear 28 1016 79 11265 1.4 287.001 07:25 11.08.2019
3690 Clear 28 1015 74 11265 1.4 287.001 06:45 11.08.2019
3691 Clear 28 1014 74 11265 1.57 308.803 05:39 11.08.2019
3692 Clouds 29 1012 74 11265 2.1 70 03:43 11.08.2019
3693 Clouds 29 1011 70 11265 2.6 90 02:49 11.08.2019
3694 Clouds 31 1011 59 11265 4.1 80 01:43 11.08.2019
3695 Clouds 31 1011 59 11265 4.1 80 01:20 11.08.2019
3696 Clouds 31 1011 59 11265 4.1 80 01:20 11.08.2019
3697 Clouds 32 1011 59 11265 3.1 100 00:44 11.08.2019
3698 Clouds 32 1011 59 11265 3.1 100 00:25 11.08.2019
3699 Clear 33 1012 59 11265 3.6 100 23:45 10.08.2019
3700 Clear 33 1012 59 11265 3.6 100 23:27 10.08.2019
3701 Clouds 34 1012 59 11265 2.6 90 22:44 10.08.2019
3702 Clouds 34 1012 59 11265 2.6 90 22:25 10.08.2019
3703 Clouds 33 1013 70 11265 1 160 21:58 10.08.2019
3704 Clouds 33 1013 70 11265 1 160 21:38 10.08.2019
3705 Clouds 33 1013 70 11265 1 160 21:20 10.08.2019
3706 Clouds 32 1014 70 11265 1 110 20:56 10.08.2019
3707 Clouds 32 1014 70 11265 1 110 20:37 10.08.2019
3708 Clouds 32 1014 70 11265 1 110 20:18 10.08.2019
3709 Clouds 31 1014 74 9656 1 110 19:39 10.08.2019
3710 Clouds 31 1014 74 9656 1 110 19:21 10.08.2019
3711 Clouds 30 1014 66 11265 1.41 88.984 18:41 10.08.2019
3712 Clouds 30 1014 66 11265 0.67 93.147 18:23 10.08.2019
3713 Clouds 30 1014 70 11265 0.67 93.147 17:46 10.08.2019
3714 Clouds 29 1014 70 11265 0.67 93.147 17:25 10.08.2019
3715 Clouds 29 1014 74 9656 0.67 93.147 16:48 10.08.2019
3716 Clouds 29 1014 74 9656 0.67 93.147 16:29 10.08.2019
3717 Clouds 27 1013 83 9656 0.67 93.147 15:59 10.08.2019
3718 Clouds 27 1013 83 9656 0.67 93.147 15:40 10.08.2019
3719 Clouds 27 1013 83 9656 1.42 278.731 15:21 10.08.2019
3720 Clouds 26 1012 78 9656 1 190 14:43 10.08.2019
3721 Clouds 25 1012 78 9656 1 190 14:19 10.08.2019
3722 Clouds 26 1012 83 9656 1.42 278.731 13:40 10.08.2019
3723 Clouds 26 1012 83 9656 1.71 283.296 13:19 10.08.2019
3724 Clouds 26 1012 83 9656 1.71 283.296 12:43 10.08.2019
3725 Rain 26 1010 81 0 1.61 294.089 12:23 10.08.2019
3726 Rain 26 1010 81 0 0.45 269 11:57 10.08.2019
3727 Rain 26 1010 81 0 1.61 294.089 11:39 10.08.2019
3728 Rain 26 1011 81 0 0.89 269 11:20 10.08.2019
3729 Rain 26 1011 81 0 0.89 269 10:39 10.08.2019
3730 Rain 26 1012 81 0 0.45 269 10:20 10.08.2019
3731 Rain 26 1012 81 0 0.45 269 10:20 10.08.2019
3732 Rain 26 1012 81 0 0.45 269 09:59 10.08.2019
3733 Rain 26 1012 81 0 0.89 269 09:38 10.08.2019
3734 Rain 26 1012 81 0 0.89 269 09:20 10.08.2019
3735 Rain 27 1013 81 0 0.89 259 08:39 10.08.2019
3736 Rain 27 1013 81 0 0.89 259 08:19 10.08.2019
3737 Clouds 28 1015 83 9656 1.37 278.679 07:52 10.08.2019
3738 Clouds 28 1015 83 9656 1.37 278.679 07:27 10.08.2019
3739 Clouds 28 1015 83 9656 1.37 278.679 06:48 10.08.2019
3740 Clouds 28 1015 83 9656 1.02 325.61 06:21 10.08.2019
3741 Clouds 28 1014 79 9656 1.02 325.61 05:24 10.08.2019
3742 Clouds 29 1013 79 9656 1.5 90 04:21 10.08.2019
3743 Clouds 30 1011 79 9656 2.6 70 02:54 10.08.2019
3744 Clouds 31 1012 74 9656 1.5 100 01:59 10.08.2019
3745 Clouds 30 1012 74 9656 1.5 100 01:39 10.08.2019
3746 Clouds 30 1012 74 9656 1.5 100 01:20 10.08.2019
3747 Clouds 31 1012 70 8047 2.6 90 00:43 10.08.2019
3748 Clouds 31 1012 70 8047 2.6 90 00:21 10.08.2019
3749 Clouds 32 1012 70 8047 2.1 90 23:42 09.08.2019
3750 Clouds 32 1012 70 8047 2.1 90 23:22 09.08.2019
3751 Clouds 33 1013 63 8047 1.6 134.721 22:56 09.08.2019
3752 Clouds 33 1013 63 8047 1.6 134.721 22:38 09.08.2019
3753 Clouds 33 1013 63 8047 1.6 134.721 22:19 09.08.2019
3754 Clouds 32 1014 66 8047 2.1 60 21:41 09.08.2019
3755 Clouds 32 1014 66 8047 2.1 60 21:41 09.08.2019
3756 Clouds 32 1014 66 8047 2.1 60 21:23 09.08.2019
3757 Haze 32 1014 75 8047 2.6 80 20:58 09.08.2019
3758 Haze 32 1014 75 8047 2.6 80 20:40 09.08.2019
3759 Haze 32 1014 75 8047 2.6 80 20:20 09.08.2019
3760 Haze 31 1014 79 8047 2.6 10 19:56 09.08.2019
3761 Haze 31 1014 79 8047 2.6 10 19:38 09.08.2019
3762 Haze 31 1014 79 8047 2.6 10 19:18 09.08.2019
3763 Haze 30 1014 89 6437 2.05 186.158 18:39 09.08.2019
3764 Haze 30 1014 89 6437 1.96 223.072 18:21 09.08.2019
3765 Rain 29 1014 94 6437 1.96 223.072 17:46 09.08.2019
3766 Rain 28 1014 94 6437 1.96 223.072 17:26 09.08.2019
3767 Rain 27 1014 94 6437 1.96 223.072 16:59 09.08.2019
3768 Mist 27 1014 94 6437 1.96 223.072 16:39 09.08.2019
3769 Mist 27 1014 94 6437 1.96 223.072 16:20 09.08.2019
3770 Rain 27 1013 94 4828 1.96 223.072 15:56 09.08.2019
3771 -273 0 0 0 0 0 15:56 09.08.2019
3772 Rain 27 1013 94 4828 1.96 223.072 15:37 09.08.2019
3773 Rain 27 1013 94 4828 1.23 313.981 15:18 09.08.2019
3774 Clouds 26 1013 100 8047 1.23 313.981 14:44 09.08.2019
3775 Clouds 26 1013 100 8047 1.23 313.981 14:22 09.08.2019
3776 Rain 26 1013 100 8047 1.23 313.981 13:56 09.08.2019
3777 Rain 26 1013 100 8047 1.23 313.981 13:38 09.08.2019
3778 Rain 26 1013 100 8047 0.92 324.818 13:19 09.08.2019
3779 Clouds 27 1011 81 0 0.45 286 12:44 09.08.2019
3780 Clouds 27 1010 80 0 0.89 294 12:23 09.08.2019
3781 Clouds 27 1010 80 0 0.89 294 11:42 09.08.2019
3782 Clouds 27 1011 80 0 1.34 281 11:22 09.08.2019
3783 Clouds 27 1011 80 0 1.34 281 10:59 09.08.2019
3784 Clouds 27 1012 79 0 0.45 281 10:39 09.08.2019
3785 Clouds 27 1011 79 0 1.34 284 10:21 09.08.2019
3786 Clouds 27 1011 78 0 1.34 254 09:43 09.08.2019
3787 Rain 28 1012 77 0 1.38 297.511 09:20 09.08.2019
3788 Rain 28 1012 77 0 0.45 112 08:55 09.08.2019
3789 Rain 28 1012 76 0 1.34 303.643 08:37 09.08.2019
3790 Rain 28 1012 76 0 1.34 303.643 08:18 09.08.2019
3791 Rain 29 1013 75 0 1.34 105 07:43 09.08.2019
3792 Clouds 29 1014 79 9656 1.5 90 07:21 09.08.2019
3793 Clouds 29 1014 79 9656 1.5 90 06:52 09.08.2019
3794 Clouds 29 1014 79 9656 1.5 90 06:27 09.08.2019
3795 Clouds 29 1013 79 9656 2.1 60 05:50 09.08.2019
3796 Clouds 31 1011 70 11265 2.1 90 02:33 09.08.2019
3797 Clouds 31 1011 70 11265 2.1 90 02:33 09.08.2019
3798 Clouds 32 1011 66 11265 4.1 110 01:45 09.08.2019
3799 Clear 33 1011 66 11265 3.6 90 00:45 09.08.2019
3800 Clear 33 1011 66 11265 3.6 90 00:26 09.08.2019
3801 Clouds 33 1012 70 11265 3.6 110 23:59 08.08.2019
3802 Clouds 33 1012 70 11265 3.6 110 23:38 08.08.2019
3803 Clouds 33 1012 70 11265 3.6 110 23:19 08.08.2019
3804 Clouds 34 1012 63 11265 3.1 110 22:57 08.08.2019
3805 Clouds 34 1012 63 11265 3.1 110 22:36 08.08.2019
3806 Clouds 34 1012 63 11265 3.1 110 22:18 08.08.2019
3807 Clouds 33 1013 70 9656 2.6 160 21:55 08.08.2019
3808 Clouds 33 1013 70 9656 2.6 160 21:37 08.08.2019
3809 Clouds 34 1013 70 9656 2.6 160 21:18 08.08.2019
3810 Clouds 35 1013 63 9656 1.23 137.989 20:42 08.08.2019
3811 Clouds 35 1013 63 9656 1.23 137.989 20:21 08.08.2019
3812 Clouds 33 1014 63 9656 1.23 137.989 19:56 08.08.2019
3813 Clouds 33 1014 63 9656 1.23 137.989 19:37 08.08.2019
3814 Clouds 33 1014 63 9656 1.23 137.989 19:19 08.08.2019
3815 Clouds 30 1014 79 8047 1.23 137.989 18:41 08.08.2019
3816 Clouds 30 1014 79 8047 0.67 210.127 18:21 08.08.2019
3817 Clouds 30 1015 79 8047 0.67 210.127 17:55 08.08.2019
3818 Clouds 30 1015 79 8047 0.67 210.127 17:36 08.08.2019
3819 Clouds 29 1015 79 8047 0.67 210.127 17:18 08.08.2019
3820 Clouds 29 1014 88 8047 0.67 210.127 16:41 08.08.2019
3821 Clouds 28 1014 88 8047 0.67 210.127 16:23 08.08.2019
3822 Clouds 28 1014 88 8047 0.67 210.127 15:57 08.08.2019
3823 Clouds 27 1014 88 8047 0.67 210.127 15:38 08.08.2019
3824 Clouds 27 1014 88 8047 0.96 287.457 15:20 08.08.2019
3825 Clouds 27 1014 88 8047 0.96 287.457 15:20 08.08.2019
3826 Clouds 26 1014 88 8047 0.96 287.457 14:40 08.08.2019
3827 Clouds 26 1014 88 8047 0.96 287.457 14:22 08.08.2019
3828 Clouds 25 1013 94 9656 0.96 287.457 13:56 08.08.2019
3829 Clouds 25 1013 94 9656 0.96 287.457 13:36 08.08.2019
3830 Clouds 25 1013 94 9656 1.03 282.017 13:18 08.08.2019
3831 Clouds 26 1011 81 0 0.45 325 12:38 08.08.2019
3832 Clouds 26 1012 81 0 1.4 264.75 12:19 08.08.2019
3833 Clouds 26 1012 81 0 1.4 264.75 11:44 08.08.2019
3834 -273 0 0 0 0 0 11:26 08.08.2019
3835 Clouds 26 1011 81 0 1.4 264.75 10:56 08.08.2019
3836 Clouds 26 1011 81 0 0.45 257 10:38 08.08.2019
3837 Clouds 26 1011 81 0 0.45 257 10:19 08.08.2019
3838 Clouds 27 1012 80 0 0.89 257 09:42 08.08.2019
3839 Rain 27 1012 80 0 0.89 257 09:22 08.08.2019
3840 Clouds 28 1014 74 9656 1.04 282.064 08:44 08.08.2019
3841 Clouds 28 1014 74 9656 1.04 282.064 08:22 08.08.2019
3842 Clouds 28 1014 74 9656 1.04 282.064 07:58 08.08.2019
3843 Clouds 28 1014 74 9656 1.04 282.064 07:39 08.08.2019
3844 Clouds 28 1014 74 9656 1.04 282.064 07:19 08.08.2019
3845 Clouds 28 1014 74 9656 1.04 282.064 06:45 08.08.2019
3846 Clouds 28 1013 74 9656 2.1 80 05:58 08.08.2019
3847 Clouds 29 1013 74 9656 2.1 80 05:40 08.08.2019
3848 Clear 29 1012 74 9656 1.14 314.291 04:21 08.08.2019
3849 Clouds 29 1011 66 9656 3.1 80 03:47 08.08.2019
3850 Clouds 31 1011 58 11265 1.5 120 01:54 08.08.2019
3851 Clouds 31 1011 58 11265 1.5 120 01:20 08.08.2019
3852 Clouds 32 1011 55 11265 4.6 110 00:25 08.08.2019
3853 Clouds 33 1012 59 11265 2.1 110 23:40 07.08.2019
3854 Clouds 33 1012 59 11265 2.1 110 23:19 07.08.2019
3855 Clouds 33 1012 59 11265 4.32 64.058 22:42 07.08.2019
3856 Clouds 33 1012 59 11265 4.32 64.058 22:21 07.08.2019
3857 Clouds 33 1013 63 11265 1.5 150 21:59 07.08.2019
3858 Clouds 33 1013 63 11265 1.5 150 21:40 07.08.2019
3859 Clouds 33 1013 63 11265 1.5 150 21:21 07.08.2019
3860 Clouds 33 1013 63 11265 4.1 170 20:59 07.08.2019
3861 Clouds 33 1013 63 11265 4.1 170 20:41 07.08.2019
3862 Clouds 33 1013 63 11265 4.1 170 20:22 07.08.2019
3863 Clouds 31 1014 70 9656 3.1 180 19:56 07.08.2019
3864 Clouds 31 1014 70 9656 3.1 180 19:56 07.08.2019
3865 Clouds 30 1014 70 9656 3.1 180 19:37 07.08.2019
3866 Clouds 30 1014 70 9656 3.1 180 19:19 07.08.2019
3867 Clouds 28 1014 78 9656 2.1 200 18:41 07.08.2019
3868 Clouds 28 1014 78 9656 2.1 200 18:20 07.08.2019
3869 Clouds 28 1014 78 9656 2.1 200 18:20 07.08.2019
3870 Clouds 27 1014 74 9656 2.6 200 17:57 07.08.2019
3871 Clouds 27 1014 74 9656 2.6 200 17:38 07.08.2019
3872 Clouds 27 1014 74 9656 2.6 200 17:19 07.08.2019
3873 Clouds 27 1014 83 9656 0.73 281.665 16:56 07.08.2019
3874 Clouds 28 1014 83 9656 0.73 281.665 16:38 07.08.2019
3875 Clouds 26 1014 83 9656 0.73 281.665 16:19 07.08.2019
3876 Clouds 27 1013 83 9656 0.73 281.665 15:43 07.08.2019
3877 Clouds 26 1013 83 9656 0.9 318.688 15:22 07.08.2019
3878 Clouds 26 1012 88 9656 0.9 318.688 14:57 07.08.2019
3879 Clouds 26 1012 88 9656 0.9 318.688 14:38 07.08.2019
3880 Clouds 25 1012 88 9656 0.9 318.688 14:20 07.08.2019
3881 Clouds 25 1012 94 8047 0.9 318.688 13:40 07.08.2019
3882 Clouds 25 1012 94 8047 0.69 291.506 13:19 07.08.2019
3883 Clouds 24 1010 79 0 2.24 248 12:58 07.08.2019
3884 Clouds 24 1010 80 0 2.24 274 12:38 07.08.2019
3885 Clouds 24 1010 80 0 2.24 264 12:19 07.08.2019
3886 Clouds 24 1011 79 0 0.45 221 11:58 07.08.2019
3887 Clouds 24 1012 77 0 0.89 197 11:40 07.08.2019
3888 Clouds 24 1012 77 0 0.89 198 11:18 07.08.2019
3889 Clouds 25 1012 75 0 0.45 227 10:41 07.08.2019
3890 Clouds 26 1012 75 0 2.24 187 10:20 07.08.2019
3891 Clouds 26 1012 80 0 3.13 225 09:59 07.08.2019
3892 Clouds 26 1013 81 0 0.89 265 09:39 07.08.2019
3893 Rain 27 1013 81 0 0.89 265 09:18 07.08.2019
3894 Rain 27 1013 80 0 1.11 274.961 08:45 07.08.2019
3895 Clouds 27 1013 80 0 1.34 265 08:25 07.08.2019
3896 Clouds 28 1015 79 9656 1.34 264.809 07:51 07.08.2019
3897 Clouds 28 1015 79 9656 1.34 264.809 07:30 07.08.2019
3898 Clouds 28 1014 79 9656 1.34 264.809 06:48 07.08.2019
3899 Clouds 28 1014 79 9656 1.34 264.809 06:26 07.08.2019
3900 Clouds 28 1013 79 9656 0.9 337.644 05:42 07.08.2019
3901 Clouds 29 1012 79 9656 0.9 337.644 04:40 07.08.2019
3902 Clouds 30 1011 74 9656 2.6 100 02:58 07.08.2019
3903 Clouds 30 1011 74 9656 2.6 100 02:38 07.08.2019
3904 Clouds 30 1011 74 9656 2.1 80 01:51 07.08.2019
3905 Clouds 30 1011 74 9656 2.6 90 00:57 07.08.2019
3906 Clouds 30 1011 74 9656 2.6 90 00:24 07.08.2019
3907 Clouds 31 1012 70 9656 3.1 100 23:58 06.08.2019
3908 Clouds 31 1012 70 9656 3.1 100 23:37 06.08.2019
3909 Clouds 31 1012 70 9656 3.1 100 23:18 06.08.2019
3910 Clouds 33 1013 66 9656 1.5 110 22:40 06.08.2019
3911 Clouds 33 1013 66 9656 1.5 110 22:21 06.08.2019
3912 Smoke 33 1013 66 9656 2.1 40 21:57 06.08.2019
3913 Smoke 33 1013 66 9656 2.1 40 21:38 06.08.2019
3914 Smoke 32 1013 66 9656 2.1 40 21:19 06.08.2019
3915 Clouds 32 1014 70 9656 2.6 50 20:46 06.08.2019
3916 Clouds 32 1014 70 9656 2.6 50 20:27 06.08.2019
3917 Clouds 30 1014 70 9656 3.1 60 19:56 06.08.2019
3918 Clouds 31 1014 70 9656 3.1 60 19:37 06.08.2019
3919 Clouds 31 1014 70 9656 3.1 60 19:18 06.08.2019
3920 Clouds 31 1013 89 9656 2.3 55.653 18:41 06.08.2019
3921 Clouds 31 1013 89 9656 0.86 49.615 18:21 06.08.2019
3922 Clouds 31 1013 84 8047 1.5 190 17:57 06.08.2019
3923 Clouds 30 1013 84 8047 1.5 190 17:37 06.08.2019
3924 Clouds 30 1013 84 8047 1.5 190 17:19 06.08.2019
3925 Clouds 29 1013 88 9656 0.86 49.615 16:44 06.08.2019
3926 Clouds 29 1013 88 9656 0.86 49.615 16:25 06.08.2019
3927 Clouds 27 1013 94 8047 0.86 49.615 15:58 06.08.2019
3928 Clouds 27 1013 94 8047 0.86 49.615 15:40 06.08.2019
3929 Clouds 27 1013 94 8047 0.97 273.314 15:21 06.08.2019
3930 Clouds 26 1012 94 8047 0.97 273.314 14:54 06.08.2019
3931 Clouds 26 1012 94 8047 0.97 273.314 14:36 06.08.2019
3932 Clouds 26 1012 94 8047 0.97 273.314 14:18 06.08.2019
3933 Clouds 26 1012 94 8047 0.97 273.314 14:18 06.08.2019
3934 Clouds 25 1012 94 9656 0.97 273.314 13:45 06.08.2019
3935 Clouds 25 1012 94 9656 1.26 283.596 13:26 06.08.2019
3936 Clouds 25 1012 94 9656 1.26 283.596 12:59 06.08.2019
3937 Clouds 26 1011 79 0 1.26 283.596 12:39 06.08.2019
3938 Clouds 26 1011 79 0 0.49 277.702 12:21 06.08.2019
3939 Clouds 26 1011 79 0 0.45 210 11:45 06.08.2019
3940 Clouds 26 1011 80 0 0.49 277.702 11:20 06.08.2019
3941 Clouds 26 1011 80 0 0.49 277.702 10:58 06.08.2019
3942 Clouds 26 1011 80 0 0.89 210 10:39 06.08.2019
3943 Clouds 26 1011 79 0 1.34 265 10:21 06.08.2019
3944 Clouds 27 1012 78 0 0.49 277.702 09:41 06.08.2019
3945 Clouds 27 1012 78 0 1.16 267.538 09:21 06.08.2019
3946 Clouds 27 1012 78 0 1.16 267.538 09:21 06.08.2019
3947 Clouds 27 1012 78 0 1.16 267.538 09:21 06.08.2019
3948 Clouds 27 1012 77 0 1.16 267.538 08:49 06.08.2019
3949 Clouds 27 1012 77 0 0.9 268.915 08:28 06.08.2019
3950 Clouds 28 1015 74 9656 0.9 268.915 07:59 06.08.2019
3951 Clouds 28 1015 74 9656 0.9 268.915 07:29 06.08.2019
3952 Clouds 28 1015 74 9656 0.9 268.915 06:44 06.08.2019
3953 Clouds 28 1015 74 9656 0.33 341.893 06:22 06.08.2019
3954 Clouds 29 1014 70 9656 0.33 341.893 05:23 06.08.2019
3955 Clouds 29 1012 70 11265 2.1 110 02:48 06.08.2019
3956 Clouds 30 1012 66 11265 5.1 80 01:25 06.08.2019
3957 Clouds 32 1012 62 11265 4.6 80 00:51 06.08.2019
3958 Clouds 33 1012 52 11265 4.1 80 23:59 05.08.2019
3959 Clouds 33 1012 52 11265 4.1 80 23:20 05.08.2019
3960 Clouds 32 1013 70 11265 3.1 100 22:42 05.08.2019
3961 Clouds 32 1013 70 11265 3.1 100 22:23 05.08.2019
3962 Clouds 32 1014 75 11265 4.65 49.441 21:58 05.08.2019
3963 Clouds 32 1014 75 11265 4.65 49.441 21:40 05.08.2019
3964 Clouds 32 1014 75 11265 2.74 101.601 21:19 05.08.2019
3965 Clouds 32 1014 70 9656 2.6 100 20:56 05.08.2019
3966 Clouds 32 1014 70 9656 2.6 100 20:37 05.08.2019
3967 Clouds 32 1014 70 9656 2.6 100 20:19 05.08.2019
3968 Clouds 31 1014 84 9656 1.5 100 19:43 05.08.2019
3969 Clouds 31 1014 84 9656 1.5 100 19:24 05.08.2019
3970 Clouds 30 1013 79 9656 2.6 60 18:58 05.08.2019
3971 Clouds 30 1013 79 9656 2.6 60 18:40 05.08.2019
3972 Clouds 30 1013 79 9656 2.6 60 18:19 05.08.2019
3973 Clouds 29 1013 83 9656 2.1 100 17:45 05.08.2019
3974 Clouds 29 1013 83 9656 2.1 100 17:45 05.08.2019
3975 Clouds 28 1013 83 9656 2.1 100 17:26 05.08.2019
3976 Clouds 27 1013 88 11265 0.68 298.57 16:46 05.08.2019
3977 Clouds 27 1013 88 11265 0.68 298.57 16:26 05.08.2019
3978 Clouds 26 1012 88 9656 0.68 298.57 15:56 05.08.2019
3979 Clouds 26 1012 88 9656 0.68 298.57 15:38 05.08.2019
3980 Clouds 26 1012 88 9656 1.26 267.222 15:19 05.08.2019
3981 Clouds 25 1013 94 9656 1.26 267.222 14:39 05.08.2019
3982 Clouds 25 1013 94 9656 1.26 267.222 14:19 05.08.2019
3983 Clouds 25 1014 94 9656 3.6 180 13:44 05.08.2019
3984 Clouds 25 1014 94 9656 3.6 180 13:22 05.08.2019
3985 Clouds 25 1014 94 9656 3.6 180 13:22 05.08.2019
3986 Clouds 24 1012 80 0 1.34 222 12:48 05.08.2019
3987 Clouds 24 1012 79 0 0.89 223 12:20 05.08.2019
3988 Clouds 24 1011 79 0 1.34 302 11:47 05.08.2019
3989 Clouds 24 1012 78 0 0.89 301 11:28 05.08.2019
3990 Clouds 24 1012 75 0 1.7 278.306 10:59 05.08.2019
3991 Clouds 25 1012 73 0 1.7 278.306 10:41 05.08.2019
3992 Clouds 26 1012 72 0 0.45 302 10:21 05.08.2019
3993 Clouds 25 1012 75 0 0.45 302 09:43 05.08.2019
3994 Clouds 26 1012 75 0 1.04 277.351 09:24 05.08.2019
3995 Clouds 26 1012 73 0 1.15 279.683 08:51 05.08.2019
3996 Clouds 26 1012 72 0 1.15 279.683 08:28 05.08.2019
3997 Clouds 28 1015 70 11265 1.15 279.683 07:59 05.08.2019
3998 Clouds 28 1015 70 11265 1.15 279.683 07:41 05.08.2019
3999 Clouds 28 1015 70 11265 1.15 279.683 07:20 05.08.2019
4000 Clouds 28 1014 70 11265 1.15 279.683 06:30 05.08.2019
4001 Clouds 29 1013 70 11265 1.5 60 05:51 05.08.2019
4002 Clouds 29 1013 70 11265 1.5 60 05:19 05.08.2019
4003 Clouds 29 1013 74 11265 1.19 341.246 04:24 05.08.2019
4004 Clouds 29 1012 69 11265 1 60 03:30 05.08.2019
4005 Clouds 29 1012 66 11265 1 60 02:34 05.08.2019
4006 Clouds 30 1011 66 11265 2.6 110 01:33 05.08.2019
4007 Clouds 31 1011 70 11265 3.1 110 00:41 05.08.2019
4008 Clouds 31 1011 70 11265 3.1 110 00:21 05.08.2019
4009 Clouds 32 1011 79 11265 4.1 60 23:56 04.08.2019
4010 Clouds 32 1011 79 11265 4.1 60 23:36 04.08.2019
4011 Clouds 32 1011 79 11265 4.1 60 23:18 04.08.2019
4012 Clouds 32 1012 75 11265 3.6 110 22:54 04.08.2019
4013 Clouds 32 1012 75 11265 3.6 110 22:36 04.08.2019
4014 Clouds 32 1012 75 11265 3.6 110 22:18 04.08.2019
4015 Clouds 33 1012 70 11265 5.1 70 21:42 04.08.2019
4016 Clouds 33 1012 70 11265 5.1 70 21:20 04.08.2019
4017 Clouds 33 1012 59 11265 1.71 108 20:44 04.08.2019
4018 Clouds 33 1012 59 11265 1.71 108 20:19 04.08.2019
4019 Clouds 32 1013 62 11265 1.71 108 19:57 04.08.2019
4020 Clouds 32 1013 62 11265 1.71 108 19:37 04.08.2019
4021 Clouds 32 1013 62 11265 1.71 108 19:19 04.08.2019
4022 Clouds 31 1013 74 9656 1.71 108 18:42 04.08.2019
4023 Clouds 31 1013 74 9656 0.56 203.332 18:20 04.08.2019
4024 Clouds 31 1013 74 9656 0.56 203.332 18:20 04.08.2019
4025 Clouds 29 1014 88 9656 2.1 200 17:45 04.08.2019
4026 Clouds 29 1014 88 9656 2.1 200 17:25 04.08.2019
4027 Clouds 29 1014 83 9656 0.56 203.332 16:56 04.08.2019
4028 Clouds 28 1014 83 9656 0.56 203.332 16:38 04.08.2019
4029 Clouds 28 1014 83 9656 0.56 203.332 16:19 04.08.2019
4030 Clouds 27 1014 94 9656 0.56 203.332 15:40 04.08.2019
4031 Clouds 26 1014 94 9656 1.23 258.087 15:20 04.08.2019
4032 Clouds 26 1014 94 9656 1.23 258.087 14:44 04.08.2019
4033 Clouds 25 1014 94 9656 1.23 258.087 14:26 04.08.2019
4034 Clear 25 1013 94 8047 1.23 258.087 13:47 04.08.2019
4035 Clear 25 1013 94 8047 1.21 260.499 13:28 04.08.2019
4036 Clear 25 1012 78 0 1.21 260.499 12:58 04.08.2019
4037 Clear 25 1012 78 0 1.21 260.499 12:40 04.08.2019
4038 Clouds 26 1011 77 0 0.45 269 12:22 04.08.2019
4039 Clouds 26 1012 78 0 0.89 269 11:49 04.08.2019
4040 Clouds 26 1012 78 0 0.45 268 11:23 04.08.2019
4041 Clouds 26 1012 78 0 0.45 268 11:23 04.08.2019
4042 Clouds 26 1012 78 0 0.45 277 10:51 04.08.2019
4043 Clouds 26 1012 77 0 1.14 264.96 10:24 04.08.2019
4044 Clouds 26 1012 77 0 0.89 277 09:55 04.08.2019
4045 Clouds 26 1012 76 0 0.89 277 09:37 04.08.2019
4046 Clouds 28 1015 74 11265 1.06 268.644 09:18 04.08.2019
4047 Clouds 28 1015 74 11265 1.13 272.481 08:38 04.08.2019
4048 Clouds 28 1015 74 11265 1.13 272.481 08:18 04.08.2019
4049 Clouds 29 1015 74 11265 1.13 272.481 07:44 04.08.2019
4050 Clouds 29 1014 74 11265 1 70 06:46 04.08.2019
4051 Clouds 29 1014 74 11265 1 70 06:23 04.08.2019
4052 Clouds 29 1011 70 11265 3.1 80 03:38 04.08.2019
4053 Clear 32 1011 59 11265 4.1 60 01:56 04.08.2019
4054 Clear 32 1011 59 11265 4.1 60 01:33 04.08.2019
4055 Clear 32 1012 62 11265 4.6 60 00:43 04.08.2019
4056 Clear 32 1012 62 11265 4.6 60 00:25 04.08.2019
4057 Clouds 33 1011 59 11265 3.1 100 23:56 03.08.2019
4058 Clouds 33 1011 59 11265 3.1 100 23:37 03.08.2019
4059 Clouds 33 1011 59 11265 3.1 100 23:18 03.08.2019
4060 Clouds 33 1012 63 11265 2.6 110 22:41 03.08.2019
4061 Clouds 33 1012 63 11265 2.6 110 22:20 03.08.2019
4062 Clouds 33 1012 59 11265 3.9 74.809 21:40 03.08.2019
4063 Clouds 33 1012 59 11265 3.9 74.809 21:40 03.08.2019
4064 Clouds 33 1012 59 11265 1.14 148.604 21:22 03.08.2019
4065 Clouds 33 1013 55 11265 0.95 145.435 20:46 03.08.2019
4066 Clouds 33 1013 55 11265 0.95 145.435 20:25 03.08.2019
4067 Clouds 32 1013 59 11265 2.1 160 19:57 03.08.2019
4068 Clouds 32 1013 59 11265 2.1 160 19:39 03.08.2019
4069 Clouds 32 1013 59 11265 2.1 160 19:21 03.08.2019
4070 Clouds 31 1014 66 9656 0.95 145.435 18:46 03.08.2019
4071 Clouds 31 1014 66 9656 0.95 145.435 18:26 03.08.2019
4072 Clear 30 1014 70 9656 0.44 196.338 17:46 03.08.2019
4073 Clear 29 1014 70 9656 0.44 196.338 17:20 03.08.2019
4074 Clear 28 1014 78 9656 0.44 196.338 16:39 03.08.2019
4075 Clear 27 1014 78 9656 0.44 196.338 16:21 03.08.2019
4076 Clear 26 1014 83 8047 0.44 196.338 15:59 03.08.2019
4077 Clear 26 1014 83 8047 0.44 196.338 15:39 03.08.2019
4078 Clear 25 1014 83 8047 1.31 267.718 15:20 03.08.2019
4079 Smoke 24 1013 83 8047 1.31 267.718 14:37 03.08.2019
4080 Smoke 24 1013 83 8047 1.31 267.718 14:18 03.08.2019
4081 Smoke 24 1013 83 8047 1.31 267.718 14:18 03.08.2019
4082 Clear 24 1013 83 8047 1.31 267.718 13:47 03.08.2019
4083 Clear 24 1013 83 8047 1.27 269.457 13:23 03.08.2019
4084 Clouds 24 1012 80 0 0.45 255 12:56 03.08.2019
4085 Clouds 24 1012 80 0 0.45 255 12:37 03.08.2019
4086 Clouds 24 1012 79 0 1.12 281.16 12:19 03.08.2019
4087 Clouds 25 1012 79 0 1.12 281.16 11:40 03.08.2019
4088 Clouds 25 1012 79 0 1.12 281.16 11:22 03.08.2019
4089 Clouds 25 1012 79 0 1.12 281.16 10:39 03.08.2019
4090 Clouds 25 1012 79 0 1.12 281.16 10:20 03.08.2019
4091 Clouds 26 1013 78 0 1.34 255 09:38 03.08.2019
4092 Rain 26 1013 78 0 1.34 255 09:18 03.08.2019
4093 Rain 26 1013 78 0 0.45 143 08:44 03.08.2019
4094 Clouds 27 1015 79 9656 1.04 267.036 07:40 03.08.2019
4095 Clouds 27 1014 79 9656 1.04 267.036 06:58 03.08.2019
4096 Clouds 28 1014 79 9656 1.31 302.451 06:20 03.08.2019
4097 Clouds 29 1013 74 9656 1.5 60 03:35 03.08.2019
4098 Clouds 29 1012 74 9656 2.1 70 02:26 03.08.2019
4099 Clear 31 1012 70 11265 2.1 120 00:59 03.08.2019
4100 Clear 31 1012 70 11265 2.1 120 00:32 03.08.2019
4101 Clouds 32 1012 66 11265 2.1 120 23:42 02.08.2019
4102 Clouds 32 1012 66 11265 2.1 120 23:20 02.08.2019
4103 Clouds 32 1013 62 11265 3.6 70 22:59 02.08.2019
4104 Clouds 32 1013 62 11265 3.6 70 22:40 02.08.2019
4105 Clouds 32 1013 62 11265 3.6 70 22:22 02.08.2019
4106 Clouds 32 1014 59 11265 1.5 90 21:56 02.08.2019
4107 Clouds 32 1014 59 11265 1.5 90 21:38 02.08.2019
4108 Clouds 32 1014 59 11265 1.5 90 21:20 02.08.2019
4109 Clouds 31 1014 62 11265 1 120 20:43 02.08.2019
4110 Clouds 31 1014 62 11265 1 120 20:23 02.08.2019
4111 Clouds 31 1015 70 11265 2.6 35.279 19:55 02.08.2019
4112 Clouds 31 1015 70 11265 2.6 35.279 19:33 02.08.2019
4113 Clouds 30 1015 74 11265 2.6 35.279 18:57 02.08.2019
4114 Clouds 30 1015 74 11265 2.6 35.279 18:38 02.08.2019
4115 Clouds 30 1015 74 11265 0.43 306.333 18:18 02.08.2019
4116 Clouds 30 1015 74 11265 0.43 306.333 17:39 02.08.2019
4117 Clouds 29 1015 74 11265 0.43 306.333 17:20 02.08.2019
4118 Mist 28 1015 78 9656 0.43 306.333 16:40 02.08.2019
4119 Mist 28 1015 78 9656 0.43 306.333 16:21 02.08.2019
4120 Mist 25 1015 83 9656 0.43 306.333 15:57 02.08.2019
4121 Mist 25 1015 83 9656 0.43 306.333 15:37 02.08.2019
4122 Mist 25 1015 83 9656 1.37 279.138 15:18 02.08.2019
4123 Mist 25 1014 83 8047 1.37 279.138 14:43 02.08.2019
4124 Mist 25 1014 83 8047 1.37 279.138 14:18 02.08.2019
4125 Clear 25 1014 83 9656 1.37 279.138 13:46 02.08.2019
4126 Clear 25 1014 83 9656 1.38 282.502 13:21 02.08.2019
4127 Clouds 24 1012 82 0 0.45 271 12:44 02.08.2019
4128 Clouds 24 1012 82 0 1.37 273.224 12:20 02.08.2019
4129 Clouds 24 1012 82 0 0.45 271 11:42 02.08.2019
4130 Clouds 24 1012 81 0 1.37 273.224 11:23 02.08.2019
4131 Clouds 24 1012 81 0 0.45 271 10:48 02.08.2019
4132 Clouds 25 1012 80 0 1.37 273.224 10:24 02.08.2019
4133 Clouds 26 1013 79 0 1.37 273.224 09:58 02.08.2019
4134 Clouds 26 1013 79 0 1.37 273.224 09:40 02.08.2019
4135 Rain 26 1013 79 0 1.43 262.567 09:22 02.08.2019
4136 Clouds 28 1016 79 11265 1.62 258.51 08:41 02.08.2019
4137 Clouds 28 1016 79 11265 1.62 258.51 08:20 02.08.2019
4138 Clouds 28 1016 79 11265 1.62 258.51 07:45 02.08.2019
4139 Clouds 28 1016 79 11265 1.62 258.51 07:26 02.08.2019
4140 Clouds 28 1016 79 11265 1.62 258.51 06:37 02.08.2019
4141 Clouds 28 1015 79 11265 1.5 10 05:47 02.08.2019
4142 Clouds 29 1014 74 11265 1 40 03:42 02.08.2019
4143 Clouds 29 1014 74 11265 1 40 03:23 02.08.2019
4144 Clouds 30 1014 79 11265 3.6 50 01:41 02.08.2019
4145 Clouds 31 1014 70 11265 2.6 70 00:32 02.08.2019
4146 Clouds 32 1014 70 11265 3.1 70 23:45 01.08.2019
4147 Clouds 32 1014 70 11265 3.1 70 23:26 01.08.2019
4148 Clouds 32 1015 62 11265 5.1 60 22:46 01.08.2019
4149 Clouds 32 1015 62 11265 5.1 60 22:25 01.08.2019
4150 Clouds 32 1016 62 11265 4.1 90 21:59 01.08.2019
4151 Clouds 32 1016 62 11265 4.1 90 21:41 01.08.2019
4152 Clouds 32 1016 62 11265 4.1 90 21:21 01.08.2019
4153 Clouds 31 1016 66 11265 3.1 50 20:46 01.08.2019
4154 Clouds 31 1016 66 11265 3.1 50 20:23 01.08.2019
4155 Clouds 31 1016 62 11265 3.6 70 19:58 01.08.2019
4156 Clouds 31 1016 62 11265 3.6 70 19:37 01.08.2019
4157 Clouds 31 1016 62 11265 3.6 70 19:18 01.08.2019
4158 Clouds 31 1015 66 11265 2.23 31.131 18:43 01.08.2019
4159 Clouds 31 1015 66 11265 2.23 31.131 18:43 01.08.2019
4160 Clouds 30 1015 66 11265 0.9 353.569 18:24 01.08.2019
4161 Clouds 29 1016 88 11265 0.9 353.569 17:47 01.08.2019
4162 Clouds 28 1016 88 11265 0.9 353.569 17:29 01.08.2019
4163 Clouds 27 1016 88 9656 0.9 353.569 16:45 01.08.2019
4164 Clouds 27 1016 88 9656 0.9 353.569 16:23 01.08.2019
4165 Clouds 26 1015 94 9656 0.9 353.569 15:46 01.08.2019
4166 Clouds 25 1015 94 9656 1.56 277.417 15:22 01.08.2019
4167 Clouds 24 1015 94 8047 1.5 250 14:59 01.08.2019
4168 Clouds 24 1015 94 8047 1.5 250 14:41 01.08.2019
4169 Clouds 24 1015 94 8047 1.5 250 14:19 01.08.2019
4170 Clouds 25 1015 94 8047 1.56 277.417 13:56 01.08.2019
4171 Clouds 24 1015 94 8047 1.56 277.417 13:56 01.08.2019
4172 Clouds 24 1015 94 8047 1.56 277.417 13:38 01.08.2019
4173 Clouds 24 1015 94 8047 1.73 276.402 13:20 01.08.2019
4174 Clouds 24 1013 81 0 1.73 276.402 12:41 01.08.2019
4175 Clouds 24 1013 81 0 1.14 273.068 12:22 01.08.2019
4176 Clouds 24 1013 81 0 0.45 289 11:43 01.08.2019
4177 Clouds 24 1013 80 0 1.14 273.068 11:24 01.08.2019
4178 Clouds 24 1013 80 0 0.45 289 10:46 01.08.2019
4179 Clouds 25 1013 80 0 0.89 289 10:28 01.08.2019
4180 Clouds 25 1013 80 0 0.89 289 09:59 01.08.2019
4181 Clouds 25 1013 80 0 0.45 351 09:41 01.08.2019
4182 Clouds 25 1014 80 0 1.38 275.45 09:22 01.08.2019
4183 Clouds 24 1014 79 0 0.45 360 08:44 01.08.2019
4184 Clouds 24 1014 79 0 0.45 360 08:20 01.08.2019
4185 Clear 27 1017 79 11265 1.42 273.157 07:49 01.08.2019
4186 Clear 27 1017 79 11265 1.42 273.157 07:25 01.08.2019
4187 Clear 28 1017 79 11265 1.42 273.157 06:48 01.08.2019
4188 Clouds 28 1016 79 11265 1.13 304.097 05:51 01.08.2019
4189 Clouds 29 1016 74 11265 1.5 350 04:23 01.08.2019
4190 Clouds 30 1014 74 11265 2.6 70 02:33 01.08.2019
4191 Clouds 31 1014 70 11265 2.6 80 00:43 01.08.2019
4192 Clouds 31 1014 70 11265 2.6 80 00:24 01.08.2019
4193 Clouds 31 1015 70 11265 3.6 100 23:43 31.07.2019
4194 Clouds 31 1015 70 11265 3.6 100 23:21 31.07.2019
4195 Clouds 31 1015 70 11265 5.7 90 22:56 31.07.2019
4196 Clouds 31 1015 70 11265 5.7 90 22:38 31.07.2019
4197 Clouds 31 1015 70 11265 5.7 90 22:19 31.07.2019
4198 Clouds 31 1015 66 11265 5.7 50 21:38 31.07.2019
4199 Clouds 31 1015 66 11265 5.7 50 21:18 31.07.2019
4200 Clouds 31 1016 66 11265 2.6 30 20:43 31.07.2019
4201 Clouds 31 1016 66 11265 2.6 30 20:21 31.07.2019
4202 Clouds 31 1016 70 11265 1.5 30 19:42 31.07.2019
4203 Clouds 30 1016 70 11265 1.5 30 19:23 31.07.2019
4204 Clouds 31 1016 66 11265 2.14 47.557 18:53 31.07.2019
4205 Clouds 31 1016 66 11265 2.14 47.557 18:26 31.07.2019
4206 Clouds 29 1016 79 11265 0.93 11.298 17:59 31.07.2019
4207 Clouds 30 1016 79 11265 0.93 11.298 17:40 31.07.2019
4208 Clouds 30 1016 79 11265 0.93 11.298 17:19 31.07.2019
4209 Clouds 28 1016 88 9656 0.93 11.298 16:43 31.07.2019
4210 Clouds 27 1016 88 9656 0.93 11.298 16:20 31.07.2019
4211 Clouds 27 1016 88 9656 0.93 11.298 15:45 31.07.2019
4212 Clouds 27 1016 88 9656 1.65 277.159 15:25 31.07.2019
4213 Clouds 25 1015 100 8047 1.65 277.159 14:43 31.07.2019
4214 Clouds 25 1015 100 8047 1.65 277.159 14:22 31.07.2019
4215 Rain 25 1015 100 8047 1.65 277.159 13:58 31.07.2019
4216 Rain 25 1015 100 8047 1.65 277.159 13:38 31.07.2019
4217 Rain 25 1015 100 8047 1.69 276.801 13:20 31.07.2019
4218 Rain 24 1015 100 8047 1.69 276.801 12:45 31.07.2019
4219 Rain 24 1015 100 8047 1.69 276.801 12:45 31.07.2019
4220 Clouds 24 1014 75 0 3.58 99 12:27 31.07.2019
4221 Clouds 24 1013 75 0 1.71 281.409 11:58 31.07.2019
4222 Clouds 25 1014 72 0 0.45 143 11:38 31.07.2019
4223 Clouds 25 1014 70 0 0.45 134 11:19 31.07.2019
4224 Clouds 25 1014 71 0 0.89 131 10:41 31.07.2019
4225 Clouds 25 1014 68 0 1.71 281.409 10:20 31.07.2019
4226 Clouds 26 1014 77 0 0.45 280 09:43 31.07.2019
4227 Rain 27 1014 77 0 1.34 285 09:24 31.07.2019
4228 Rain 26 1015 77 0 2.24 277 08:56 31.07.2019
4229 Clear 26 1015 77 0 2.24 277 08:37 31.07.2019
4230 Clouds 27 1017 83 11265 1.55 280.876 08:19 31.07.2019
4231 Clouds 27 1017 83 11265 1.55 280.876 07:34 31.07.2019
4232 Clouds 27 1017 83 11265 1.55 280.876 07:34 31.07.2019
4233 Clouds 27 1016 83 11265 1.5 350 06:31 31.07.2019
4234 Clear 28 1015 74 11265 1 90 04:50 31.07.2019
4235 Clouds 31 1014 66 11265 2.6 90 01:32 31.07.2019
4236 Clear 32 1014 62 9656 3.1 40 23:58 30.07.2019
4237 Clear 32 1014 62 9656 3.1 40 23:39 30.07.2019
4238 Clear 32 1014 62 9656 3.1 40 23:18 30.07.2019
4239 Clouds 31 1015 66 11265 4.1 70 22:45 30.07.2019
4240 Clouds 31 1015 66 11265 4.1 70 22:25 30.07.2019
4241 Clouds 32 1016 66 9656 4.29 65.989 21:39 30.07.2019
4242 Clouds 32 1016 66 9656 2.17 74.78 21:20 30.07.2019
4243 Clouds 31 1016 66 9656 2.1 90 20:59 30.07.2019
4244 Clouds 31 1016 66 9656 2.1 90 20:41 30.07.2019
4245 Clouds 31 1016 66 9656 2.1 90 20:23 30.07.2019
4246 Clouds 31 1017 62 9656 3.1 90 19:56 30.07.2019
4247 Clouds 31 1017 62 9656 3.1 90 19:36 30.07.2019
4248 Clouds 31 1017 70 8047 2.23 70.085 18:48 30.07.2019
4249 Clouds 31 1017 70 8047 2.23 70.085 18:27 30.07.2019
4250 Clear 29 1017 89 8047 0.61 4.449 17:59 30.07.2019
4251 Clear 29 1017 89 8047 0.61 4.449 17:41 30.07.2019
4252 Clear 29 1017 89 8047 0.61 4.449 17:19 30.07.2019
4253 Clear 28 1017 88 8047 0.61 4.449 16:46 30.07.2019
4254 Clear 27 1017 88 8047 0.61 4.449 16:20 30.07.2019
4255 Clear 26 1016 94 8047 0.61 4.449 15:44 30.07.2019
4256 Clear 25 1016 94 8047 1.5 284.647 15:23 30.07.2019
4257 Clear 25 1015 94 8047 1.5 284.647 14:59 30.07.2019
4258 Clear 24 1015 94 8047 1.5 284.647 14:40 30.07.2019
4259 Clear 24 1015 94 8047 1.5 284.647 14:18 30.07.2019
4260 Clear 24 1015 94 9656 1.5 284.647 13:41 30.07.2019
4261 Clear 24 1015 94 9656 1.48 287.467 13:23 30.07.2019
4262 Clear 24 1013 81 0 1.48 287.467 12:55 30.07.2019
4263 Clear 24 1013 81 0 1.48 287.467 12:37 30.07.2019
4264 Clear 24 1013 81 0 1.38 288.856 12:18 30.07.2019
4265 Clear 25 1014 80 0 1.38 288.856 11:38 30.07.2019
4266 Clear 25 1014 80 0 1.38 288.856 11:18 30.07.2019
4267 Clear 24 1014 80 0 1.19 289.654 10:42 30.07.2019
4268 Clear 25 1014 80 0 0.89 288 10:21 30.07.2019
4269 Clear 24 1014 80 0 0.45 103 09:48 30.07.2019
4270 Clear 25 1014 79 0 1.19 289.654 09:30 30.07.2019
4271 Rain 25 1015 79 0 0.45 103 08:44 30.07.2019
4272 Rain 26 1015 78 0 0.89 103 08:22 30.07.2019
4273 Clouds 26 1017 78 11265 1.65 273.477 07:46 30.07.2019
4274 Clouds 26 1017 78 11265 1.65 273.477 07:25 30.07.2019
4275 Clear 26 1016 74 11265 1.65 273.477 06:46 30.07.2019
4276 Clear 26 1015 74 11265 1.15 340.776 05:52 30.07.2019
4277 Clear 27 1015 74 11265 1.15 340.776 05:32 30.07.2019
4278 Clear 30 1013 70 11265 4.1 70 01:38 30.07.2019
4279 Clouds 31 1014 66 11265 3.1 90 00:40 30.07.2019
4280 Clouds 31 1014 66 11265 3.1 90 00:19 30.07.2019
4281 Clouds 32 1014 62 11265 3.6 100 23:44 29.07.2019
4282 Clouds 32 1014 62 11265 3.6 100 23:25 29.07.2019
4283 Clouds 32 1015 62 11265 2.6 100 22:57 29.07.2019
4284 Clouds 32 1015 62 11265 2.6 100 22:38 29.07.2019
4285 Clouds 32 1015 62 11265 2.6 100 22:19 29.07.2019
4286 Clouds 32 1016 59 11265 4.67 71.763 21:46 29.07.2019
4287 Clouds 32 1016 59 11265 4.67 71.763 21:28 29.07.2019
4288 Clouds 32 1016 59 11265 1.48 72.854 20:58 29.07.2019
4289 Clouds 32 1016 59 11265 1.48 72.854 20:40 29.07.2019
4290 Clouds 32 1016 59 11265 1.48 72.854 20:21 29.07.2019
4291 Clouds 31 1017 58 11265 1.48 72.854 19:50 29.07.2019
4292 Clouds 31 1017 58 11265 1.48 72.854 19:24 29.07.2019
4293 Clouds 31 1017 70 9656 1.48 72.854 18:59 29.07.2019
4294 Clouds 30 1017 70 9656 1.48 72.854 18:40 29.07.2019
4295 Clouds 30 1017 70 9656 0.91 281.67 18:20 29.07.2019
4296 Clouds 28 1016 94 9656 0.91 281.67 17:49 29.07.2019
4297 Clouds 28 1016 94 9656 0.91 281.67 17:31 29.07.2019
4298 Clouds 27 1016 88 9656 0.91 281.67 16:57 29.07.2019
4299 Clouds 26 1016 88 9656 0.91 281.67 16:37 29.07.2019
4300 Clouds 26 1016 88 9656 0.91 281.67 16:19 29.07.2019
4301 Clouds 25 1016 94 9656 0.91 281.67 15:47 29.07.2019
4302 Clouds 25 1016 94 9656 0.91 281.67 15:28 29.07.2019
4303 Clouds 24 1016 100 9656 2.38 282.991 14:43 29.07.2019
4304 Clouds 23 1016 100 9656 2.38 282.991 14:21 29.07.2019
4305 Rain 23 1016 100 8047 2.38 282.991 13:55 29.07.2019
4306 Rain 23 1016 100 8047 2.38 282.991 13:36 29.07.2019
4307 Rain 23 1016 100 8047 2.45 282.473 13:18 29.07.2019
4308 Rain 22 1015 81 0 2.68 269 12:40 29.07.2019
4309 Rain 21 1015 81 0 3.13 287 12:21 29.07.2019
4310 Rain 22 1015 81 0 4.47 257 11:42 29.07.2019
4311 Rain 22 1015 81 0 4.47 243 11:20 29.07.2019
4312 Rain 23 1014 81 0 3.58 258 10:44 29.07.2019
4313 Rain 22 1015 80 0 2.68 197 10:23 29.07.2019
4314 Rain 23 1015 80 0 4.02 238 09:45 29.07.2019
4315 Rain 26 1015 81 0 2.24 194 09:23 29.07.2019
4316 Rain 26 1015 79 0 1.7 263.31 08:55 29.07.2019
4317 Rain 26 1015 78 0 1.34 280 08:27 29.07.2019
4318 Clouds 27 1018 74 11265 1.7 263.31 07:53 29.07.2019
4319 Clouds 27 1018 74 11265 1.7 263.31 07:30 29.07.2019
4320 Clouds 28 1018 69 11265 1.7 263.31 06:40 29.07.2019
4321 Clouds 28 1017 69 11265 1.02 319.429 05:37 29.07.2019
4322 Clouds 28 1016 74 11265 1.02 319.429 04:23 29.07.2019
4323 Clouds 30 1015 66 11265 5.1 60 01:52 29.07.2019
4324 Clouds 30 1015 66 11265 5.1 60 01:34 29.07.2019
4325 Clouds 30 1016 66 11265 3.1 50 00:58 29.07.2019
4326 Clouds 30 1016 66 11265 3.1 50 00:30 29.07.2019
4327 Clouds 30 1016 89 11265 5.7 80 23:44 28.07.2019
4328 Clouds 30 1016 89 11265 5.7 80 23:26 28.07.2019
4329 Clouds 31 1016 74 11265 3.1 80 22:46 28.07.2019
4330 Clouds 31 1016 74 11265 3.1 80 22:28 28.07.2019
4331 Clouds 31 1017 70 11265 1.5 120 21:54 28.07.2019
4332 Clouds 31 1017 70 11265 1.5 120 21:36 28.07.2019
4333 Clouds 31 1017 70 11265 1.5 120 21:18 28.07.2019
4334 Clouds 31 1018 70 11265 2.1 90 20:42 28.07.2019
4335 Clouds 30 1018 70 11265 2.1 90 20:23 28.07.2019
4336 Clouds 30 1019 70 11265 2.6 40 19:40 28.07.2019
4337 Clouds 30 1019 70 11265 2.6 40 19:21 28.07.2019
4338 Clouds 29 1019 83 9656 2.6 60 18:46 28.07.2019
4339 Clouds 30 1019 83 9656 2.6 60 18:27 28.07.2019
4340 Clouds 29 1018 88 9656 1.5 10 17:56 28.07.2019
4341 Clouds 29 1018 88 9656 1.5 10 17:38 28.07.2019
4342 Clouds 29 1018 88 9656 1.5 10 17:19 28.07.2019
4343 Clouds 27 1018 88 9656 2.1 10 16:42 28.07.2019
4344 Clouds 27 1018 88 9656 2.1 10 16:24 28.07.2019
4345 Clouds 26 1018 94 11265 1.03 1.503 15:48 28.07.2019
4346 Clouds 25 1018 94 11265 1.03 1.503 15:27 28.07.2019
4347 Clouds 24 1017 94 9656 1.5 310 14:41 28.07.2019
4348 Clouds 24 1017 94 9656 1.5 310 14:21 28.07.2019
4349 Clouds 23 1017 100 9656 1.8 284.253 13:59 28.07.2019
4350 Clouds 23 1017 100 9656 1.8 284.253 13:39 28.07.2019
4351 Clouds 23 1017 100 9656 1.89 283.934 13:19 28.07.2019
4352 Clouds 23 1017 100 9656 1.89 283.934 12:43 28.07.2019
4353 Rain 22 1015 81 0 0.45 334 12:24 28.07.2019
4354 Rain 23 1015 81 0 1.79 270 11:50 28.07.2019
4355 Rain 23 1015 81 0 2.68 269 11:29 28.07.2019
4356 Rain 23 1016 81 0 3.13 279 10:58 28.07.2019
4357 Rain 23 1017 80 0 1.34 234 10:38 28.07.2019
4358 Rain 24 1018 78 0 4.47 129 10:18 28.07.2019
4359 Rain 26 1016 77 0 3.58 321 09:40 28.07.2019
4360 Rain 26 1017 77 0 1.79 297 09:20 28.07.2019
4361 Rain 26 1017 78 0 1.34 288 08:42 28.07.2019
4362 Rain 26 1018 79 0 1.34 281 08:21 28.07.2019
4363 Rain 26 1019 77 0 0.45 165 07:40 28.07.2019
4364 Rain 27 1018 76 0 0.45 49 07:22 28.07.2019
4365 Clouds 28 1019 78 11265 1.5 40 06:33 28.07.2019
4366 Clear 29 1018 74 11265 2.1 50 05:20 28.07.2019
4367 Clear 30 1016 70 11265 4.1 70 02:37 28.07.2019
4368 Clear 31 1016 66 11265 6.2 60 01:40 28.07.2019
4369 Clear 31 1017 66 11265 4.6 80 00:54 28.07.2019
4370 Clear 31 1017 66 11265 4.6 80 00:30 28.07.2019
4371 Clear 31 1017 70 11265 3.6 60 23:53 27.07.2019
4372 Clear 31 1017 70 11265 3.6 60 23:28 27.07.2019
4373 Clear 31 1018 70 11265 6.2 80 22:46 27.07.2019
4374 Clear 31 1018 70 11265 6.2 80 22:28 27.07.2019
4375 Clear 31 1018 74 11265 3.1 70 21:47 27.07.2019
4376 Clear 31 1018 74 11265 3.1 70 21:25 27.07.2019
4377 Clouds 31 1019 74 11265 2.1 110 20:57 27.07.2019
4378 Clouds 30 1019 74 11265 2.1 110 20:39 27.07.2019
4379 Clouds 30 1019 74 11265 2.1 110 20:19 27.07.2019
4380 Clouds 30 1019 66 11265 3.1 40 19:40 27.07.2019
4381 Clouds 30 1019 66 11265 3.1 40 19:22 27.07.2019
4382 Clouds 30 1019 62 11265 1.5 50 18:47 27.07.2019
4383 Clouds 30 1019 62 11265 1.5 50 18:29 27.07.2019
4384 Rain 27 1019 74 11265 1.5 30 17:51 27.07.2019
4385 Rain 27 1019 74 11265 1.5 30 17:32 27.07.2019
4386 Clouds 26 1019 78 9656 1.11 336.754 16:56 27.07.2019
4387 Clouds 26 1019 78 9656 1.11 336.754 16:37 27.07.2019
4388 Clouds 24 1018 83 9656 2.1 340 15:56 27.07.2019
4389 Clouds 24 1018 83 9656 2.1 340 15:38 27.07.2019
4390 Clouds 24 1018 83 9656 2.1 340 15:18 27.07.2019
4391 Clouds 23 1018 83 9656 1.72 270.902 14:45 27.07.2019
4392 Clouds 23 1018 83 9656 1.72 270.902 14:25 27.07.2019
4393 Clouds 23 1018 83 9656 1.72 270.902 13:48 27.07.2019
4394 Rain 23 1018 83 9656 1.72 270 13:23 27.07.2019
4395 Rain 23 1018 83 9656 1.72 270 12:50 27.07.2019
4396 Rain 23 1016 81 0 1.34 296 12:27 27.07.2019
4397 Rain 23 1016 80 0 0.45 355 11:57 27.07.2019
4398 Rain 23 1017 78 0 0.45 98 11:38 27.07.2019
4399 Rain 23 1017 78 0 0.45 98 11:20 27.07.2019
4400 Clouds 24 1016 79 0 1.01 274.276 10:41 27.07.2019
4401 Clouds 24 1016 78 0 0.45 294 10:21 27.07.2019
4402 Clouds 24 1017 78 0 1.01 274.276 09:41 27.07.2019
4403 Clouds 24 1017 78 0 1.34 294 09:23 27.07.2019
4404 Clouds 25 1017 77 0 0.89 295 08:49 27.07.2019
4405 Clouds 25 1017 77 0 0.89 295 08:29 27.07.2019
4406 Clouds 26 1019 78 9656 1 310 07:54 27.07.2019
4407 Clouds 27 1019 78 9656 1 310 07:29 27.07.2019
4408 Clouds 26 1019 74 9656 1.5 330 06:56 27.07.2019
4409 Clouds 27 1019 74 9656 1.5 330 06:31 27.07.2019
4410 Clouds 27 1018 74 9656 1 330 05:52 27.07.2019
4411 Clouds 27 1018 74 9656 1 330 05:24 27.07.2019
4412 Clouds 26 1018 88 11265 1.5 360 04:31 27.07.2019
4413 Clouds 28 1016 78 11265 2.6 10 02:58 27.07.2019
4414 Clouds 28 1016 78 11265 2.6 10 02:32 27.07.2019
4415 Clouds 29 1016 74 11265 3.6 10 01:47 27.07.2019
4416 Clouds 30 1016 70 11265 4.1 60 01:00 27.07.2019
4417 Clouds 29 1016 70 11265 4.1 60 00:32 27.07.2019
4418 Clouds 30 1016 66 11265 3.6 60 23:53 26.07.2019
4419 Clouds 30 1016 66 11265 3.6 60 23:33 26.07.2019
4420 Clouds 30 1017 66 11265 3.1 60 22:56 26.07.2019
4421 Clouds 30 1017 66 11265 3.1 60 22:38 26.07.2019
4422 Clouds 30 1017 66 11265 3.1 60 22:20 26.07.2019
4423 Clouds 29 1017 74 9656 1.5 100 21:48 26.07.2019
4424 Clouds 30 1017 74 9656 1.5 100 21:19 26.07.2019
4425 Clouds 29 1018 74 11265 2.1 10 20:42 26.07.2019
4426 Clouds 28 1018 74 11265 2.1 10 20:42 26.07.2019
4427 Clouds 28 1018 74 11265 2.1 10 20:23 26.07.2019
4428 Clouds 28 1018 83 11265 3.1 360 19:43 26.07.2019
4429 Clouds 27 1018 83 8047 4.6 350 19:25 26.07.2019
4430 Clouds 27 1018 83 8047 2.6 350 18:57 26.07.2019
4431 Clouds 26 1018 83 8047 3.6 360 18:37 26.07.2019
4432 Rain 26 1018 83 8047 3.6 360 18:19 26.07.2019
4433 Rain 26 1017 88 8047 1.5 330 17:44 26.07.2019
4434 Clouds 26 1017 88 8047 1.5 330 17:19 26.07.2019
4435 Rain 25 1018 88 8047 2.6 70 16:56 26.07.2019
4436 Rain 25 1018 88 8047 2.6 70 16:56 26.07.2019
4437 Rain 25 1018 88 8047 2.6 70 16:37 26.07.2019
4438 Rain 25 1018 88 8047 2.6 70 16:19 26.07.2019
4439 Rain 25 1017 88 9656 1.03 7.228 15:45 26.07.2019
4440 Mist 25 1017 88 9656 1.03 7.228 15:26 26.07.2019
4441 Mist 25 1017 88 8047 1.96 273.719 14:59 26.07.2019
4442 Mist 24 1017 88 8047 1.96 273.719 14:40 26.07.2019
4443 Mist 24 1017 88 8047 1.96 273.719 14:21 26.07.2019
4444 Clouds 24 1016 88 9656 1.96 273.719 13:40 26.07.2019
4445 Clouds 24 1016 88 9656 1.66 282.315 13:22 26.07.2019
4446 Clouds 24 1015 82 0 1.66 282.315 12:47 26.07.2019
4447 Clouds 24 1014 82 0 0.89 280 12:20 26.07.2019
4448 Clouds 24 1014 82 0 1.04 286.757 11:40 26.07.2019
4449 Clouds 24 1014 81 0 1.04 286.757 11:20 26.07.2019
4450 Clouds 24 1014 81 0 0.45 303 10:55 26.07.2019
4451 Clouds 24 1014 80 0 0.45 303 10:37 26.07.2019
4452 Clouds 24 1015 79 0 1.79 12 09:55 26.07.2019
4453 Clouds 24 1015 80 0 3.13 355 09:37 26.07.2019
4454 Clouds 26 1017 88 9656 1.84 263.539 08:44 26.07.2019
4455 Clouds 25 1017 88 9656 1.84 263.539 08:23 26.07.2019
4456 Clouds 26 1018 83 9656 1.84 263.539 07:59 26.07.2019
4457 Clouds 26 1018 83 9656 1.84 263.539 07:29 26.07.2019
4458 Clouds 26 1017 83 9656 1.5 340 06:53 26.07.2019
4459 Clouds 27 1017 83 9656 1.5 340 05:23 26.07.2019
4460 Clouds 27 1016 88 9656 2.6 10 04:28 26.07.2019
4461 Clouds 27 1016 83 11265 2.6 10 03:18 26.07.2019
4462 Clouds 28 1015 78 9656 3.6 360 01:43 26.07.2019
4463 Clouds 28 1015 83 11265 4.1 10 00:45 26.07.2019
4464 Clouds 28 1015 83 8047 4.6 10 23:57 25.07.2019
4465 Clouds 28 1015 83 8047 4.6 10 23:25 25.07.2019
4466 Clouds 29 1015 79 9656 3.1 10 22:58 25.07.2019
4467 Clouds 29 1015 79 9656 3.1 10 22:39 25.07.2019
4468 Clouds 29 1015 79 9656 3.1 10 22:20 25.07.2019
4469 Clouds 28 1017 100 9656 5.7 60 21:44 25.07.2019
4470 Clouds 28 1017 100 9656 5.7 60 21:21 25.07.2019
4471 Clouds 29 1017 79 9656 5.1 140 20:48 25.07.2019
4472 Clouds 29 1017 79 9656 5.1 140 20:23 25.07.2019
4473 Clouds 28 1017 89 9656 5.1 50 19:44 25.07.2019
4474 Clouds 28 1017 89 9656 5.1 50 19:44 25.07.2019
4475 Clouds 29 1017 89 9656 5.1 50 19:26 25.07.2019
4476 Clear 29 1015 66 0 3.58 42 18:58 25.07.2019
4477 Clear 29 1015 65 0 4.92 33 18:39 25.07.2019
4478 Clouds 28 1016 88 9656 1.5 10 18:20 25.07.2019
4479 Clouds 28 1016 88 9656 1.5 10 17:44 25.07.2019
4480 Clouds 28 1016 88 9656 1.5 10 17:24 25.07.2019
4481 Clouds 27 1016 88 9656 1.21 313.632 16:44 25.07.2019
4482 Clouds 27 1016 88 9656 1.21 313.632 16:26 25.07.2019
4483 Clouds 26 1016 88 9656 1.21 313.632 15:56 25.07.2019
4484 Clouds 26 1016 88 9656 1.52 277.43 15:21 25.07.2019
4485 Clouds 25 1015 94 8047 1.52 277.43 14:58 25.07.2019
4486 Clouds 24 1015 94 8047 1.52 277.43 14:40 25.07.2019
4487 Clouds 24 1015 94 8047 1.52 277.43 14:20 25.07.2019
4488 Clouds 23 1015 100 8047 1.52 277.43 13:41 25.07.2019
4489 Clouds 23 1015 100 8047 1.61 283.045 13:23 25.07.2019
4490 Rain 23 1014 82 0 0.89 323 12:39 25.07.2019
4491 Rain 23 1014 82 0 0.45 333 12:20 25.07.2019
4492 Clouds 23 1013 82 0 0.89 280 11:41 25.07.2019
4493 Clouds 23 1014 82 0 1.79 59 11:23 25.07.2019
4494 Clouds 23 1014 82 0 1.79 59 11:23 25.07.2019
4495 Rain 23 1014 82 0 0.45 181 10:45 25.07.2019
4496 Rain 23 1014 81 0 1.34 163 10:25 25.07.2019
4497 Rain 23 1014 81 0 1.34 139 09:47 25.07.2019
4498 Rain 23 1014 80 0 0.45 196 09:28 25.07.2019
4499 Rain 24 1015 78 0 2.24 349 08:53 25.07.2019
4500 Rain 23 1015 77 0 1.79 19 08:33 25.07.2019
4501 Rain 27 1015 71 0 2.24 306 07:41 25.07.2019
4502 Clouds 27 1016 88 9656 3.1 360 06:50 25.07.2019
4503 Clouds 27 1016 88 9656 3.1 360 06:31 25.07.2019
4504 Clouds 28 1016 83 9656 2.6 10 05:36 25.07.2019
4505 Clouds 28 1015 83 9656 2.6 60 04:50 25.07.2019
4506 Clouds 28 1015 83 11265 4.6 10 03:24 25.07.2019
4507 Clouds 30 1013 74 11265 5.1 80 01:21 25.07.2019
4508 Clear 31 1013 66 11265 6.2 60 00:34 25.07.2019
4509 Clouds 31 1013 66 11265 5.1 30 23:56 24.07.2019
4510 Clouds 31 1013 66 11265 5.1 30 23:38 24.07.2019
4511 Clouds 31 1013 66 11265 5.1 30 23:20 24.07.2019
4512 Clouds 32 1014 62 11265 5.1 80 22:44 24.07.2019
4513 Clouds 32 1014 62 11265 5.1 80 22:22 24.07.2019
4514 Clouds 33 1015 55 11265 2.1 210 21:55 24.07.2019
4515 Clouds 33 1015 55 11265 2.1 210 21:37 24.07.2019
4516 Clouds 33 1015 55 11265 2.1 210 21:18 24.07.2019
4517 Clouds 31 1016 66 11265 1.5 20 20:45 24.07.2019
4518 Clouds 31 1016 66 11265 1.5 20 20:26 24.07.2019
4519 Clouds 31 1016 62 9656 2.47 49.416 19:58 24.07.2019
4520 Clouds 30 1016 62 9656 2.47 49.416 19:39 24.07.2019
4521 Clouds 30 1016 62 9656 2.47 49.416 19:19 24.07.2019
4522 Clouds 29 1017 79 9656 1.5 150 18:43 24.07.2019
4523 Clouds 29 1017 79 9656 1.5 150 18:24 24.07.2019
4524 Clouds 29 1017 66 9656 0.43 354.158 17:47 24.07.2019
4525 Clouds 29 1017 66 9656 0.43 354.158 17:21 24.07.2019
4526 Clouds 28 1017 83 9656 0.43 354.158 16:44 24.07.2019
4527 Clouds 28 1017 83 9656 0.43 354.158 16:23 24.07.2019
4528 Clouds 27 1016 88 9656 0.43 354.158 15:59 24.07.2019
4529 Clouds 27 1016 88 9656 0.43 354.158 15:36 24.07.2019
4530 Clouds 27 1016 88 9656 1.21 288.134 15:18 24.07.2019
4531 Clouds 25 1015 94 8047 1.5 10 14:43 24.07.2019
4532 Clouds 25 1015 94 8047 1.5 10 14:19 24.07.2019
4533 Clouds 25 1015 94 8047 1.5 50 13:39 24.07.2019
4534 Clouds 25 1015 94 8047 1.5 50 13:19 24.07.2019
4535 Clouds 26 1013 78 0 1.34 55 12:51 24.07.2019
4536 Clouds 26 1013 78 0 1.34 55 12:51 24.07.2019
4537 Clouds 26 1014 79 0 1.79 50 12:33 24.07.2019
4538 Clouds 25 1013 80 0 2.06 283.74 11:41 24.07.2019
4539 Clouds 25 1013 80 0 2.06 283.74 11:21 24.07.2019
4540 Clouds 25 1014 80 0 2.06 283.74 10:47 24.07.2019
4541 Clouds 25 1014 80 0 0.89 278 10:26 24.07.2019
4542 Clouds 25 1014 80 0 2.06 283.74 09:52 24.07.2019
4543 Clouds 26 1014 80 0 0.45 278 09:26 24.07.2019
4544 Rain 26 1015 80 0 0.89 278 08:59 24.07.2019
4545 Clouds 26 1015 79 0 0.45 278 08:35 24.07.2019
4546 Clouds 26 1017 83 9656 1.5 340 07:52 24.07.2019
4547 Clouds 26 1017 83 9656 1.5 340 07:31 24.07.2019
4548 Clouds 27 1017 83 9656 1.5 320 06:51 24.07.2019
4549 Clouds 27 1017 83 9656 1.5 320 06:27 24.07.2019
4550 Clouds 27 1015 94 9656 2.6 40 04:45 24.07.2019
4551 Clouds 29 1013 89 9656 5.1 20 01:47 24.07.2019
4552 Clouds 30 1012 79 9656 5.1 50 00:57 24.07.2019
4553 Clouds 30 1012 79 9656 5.1 50 00:30 24.07.2019
4554 Clouds 31 1013 62 11265 4.6 70 23:47 23.07.2019
4555 Clouds 31 1013 62 11265 4.6 70 23:26 23.07.2019
4556 Clouds 31 1014 58 11265 2.6 80 22:56 23.07.2019
4557 Clouds 31 1014 58 11265 2.6 80 22:36 23.07.2019
4558 Clouds 31 1014 58 11265 2.6 80 22:18 23.07.2019
4559 Clouds 31 1014 58 11265 5.7 60 21:44 23.07.2019
4560 Clouds 31 1014 58 11265 5.7 60 21:25 23.07.2019
4561 Clouds 32 1014 59 11265 3.28 27.799 20:49 23.07.2019
4562 Clouds 32 1014 59 11265 3.28 27.799 20:29 23.07.2019
4563 Clouds 32 1015 70 11265 3.28 27.799 19:43 23.07.2019
4564 Clouds 31 1015 70 11265 3.28 27.799 19:24 23.07.2019
4565 Clouds 30 1016 84 11265 3.28 27.799 18:56 23.07.2019
4566 Clouds 30 1016 84 11265 3.28 27.799 18:38 23.07.2019
4567 Clouds 30 1016 84 11265 1.56 320.382 18:19 23.07.2019
4568 Clouds 29 1015 83 11265 1.56 320.382 17:42 23.07.2019
4569 Clouds 29 1015 83 11265 1.56 320.382 17:20 23.07.2019
4570 Clouds 28 1016 88 11265 1.56 320.382 16:42 23.07.2019
4571 Clouds 27 1016 88 11265 1.56 320.382 16:24 23.07.2019
4572 Clouds 26 1016 94 11265 1.56 320.382 15:48 23.07.2019
4573 Clouds 26 1016 94 11265 1.56 320.382 15:48 23.07.2019
4574 Clouds 26 1016 94 11265 1.56 320.382 15:29 23.07.2019
4575 Clouds 25 1015 94 9656 1.55 291.993 14:54 23.07.2019
4576 Clouds 25 1015 94 9656 1.55 291.993 14:36 23.07.2019
4577 Clouds 25 1015 94 9656 1.55 291.993 14:18 23.07.2019
4578 Clouds 24 1014 100 9656 1.55 291.993 13:42 23.07.2019
4579 Clouds 24 1014 100 9656 1.74 294.093 13:23 23.07.2019
4580 Clear 24 1012 80 0 0.89 325 12:54 23.07.2019
4581 Clear 25 1012 80 0 0.45 329 12:36 23.07.2019
4582 Clear 25 1013 80 0 1.56 278.835 12:18 23.07.2019
4583 Clear 25 1012 80 0 0.45 329 11:41 23.07.2019
4584 Clear 26 1012 79 0 0.45 329 11:20 23.07.2019
4585 Clear 26 1012 79 0 0.89 288 10:43 23.07.2019
4586 Clear 26 1012 80 0 1.34 283 10:22 23.07.2019
4587 Clear 26 1012 80 0 2.68 296 09:42 23.07.2019
4588 Rain 26 1013 80 0 1.34 274 09:22 23.07.2019
4589 Rain 26 1014 80 0 0.45 71 08:44 23.07.2019
4590 Rain 26 1014 80 0 0.89 71 08:20 23.07.2019
4591 Rain 27 1014 79 0 0.45 71 07:57 23.07.2019
4592 Rain 27 1014 78 0 0.89 71 07:37 23.07.2019
4593 Clouds 27 1015 74 11265 1.33 275.292 06:50 23.07.2019
4594 Clouds 28 1015 74 11265 1.33 275.292 06:31 23.07.2019
4595 Clouds 28 1013 74 11265 1.5 70 03:55 23.07.2019
4596 Clouds 30 1012 74 11265 3.6 70 01:35 23.07.2019
4597 Clouds 31 1012 74 11265 4.1 60 00:32 23.07.2019
4598 Clouds 32 1013 66 11265 3.1 30 23:56 22.07.2019
4599 Clouds 32 1013 66 11265 3.1 30 23:38 22.07.2019
4600 Clouds 32 1013 66 11265 3.1 30 23:18 22.07.2019
4601 Clouds 32 1013 66 11265 5.1 50 22:44 22.07.2019
4602 Clouds 32 1013 66 11265 5.1 50 22:22 22.07.2019
4603 Clouds 32 1014 62 11265 2.1 90 21:43 22.07.2019
4604 Rain 32 1014 62 11265 2.1 90 21:23 22.07.2019
4605 Rain 31 1014 62 9656 2.45 27.318 20:51 22.07.2019
4606 Rain 32 1014 62 9656 2.45 27.318 20:33 22.07.2019
4607 Clear 31 1014 62 11265 1.5 100 19:58 22.07.2019
4608 Clear 31 1014 62 11265 1.5 100 19:38 22.07.2019
4609 Clear 31 1014 62 11265 1.5 100 19:20 22.07.2019
4610 Clouds 30 1014 94 11265 2.45 27.318 18:46 22.07.2019
4611 Clouds 29 1014 94 11265 2.45 27.318 18:27 22.07.2019
4612 Clouds 28 1013 88 9656 1 337.71 17:55 22.07.2019
4613 Clouds 27 1013 88 9656 1 337.71 17:37 22.07.2019
4614 Clouds 27 1013 88 9656 1 337.71 17:18 22.07.2019
4615 Clouds 27 1014 94 11265 1 337.71 16:39 22.07.2019
4616 Clouds 26 1014 94 11265 1 337.71 16:20 22.07.2019
4617 Clouds 24 1014 94 9656 1 337.71 15:44 22.07.2019
4618 Clouds 24 1014 94 9656 1.55 287.57 15:20 22.07.2019
4619 Clouds 24 1014 100 8047 1.55 287.57 14:44 22.07.2019
4620 Clouds 23 1014 100 8047 1.55 287.57 14:24 22.07.2019
4621 Clouds 23 1013 100 8047 1.55 287.57 13:51 22.07.2019
4622 Clouds 23 1013 100 8047 1.55 287.57 13:31 22.07.2019
4623 Clouds 22 1012 82 0 2.24 219 12:51 22.07.2019
4624 Clouds 22 1012 82 0 2.24 262 12:32 22.07.2019
4625 Clouds 23 1013 82 0 1.79 219 11:56 22.07.2019
4626 Clouds 23 1013 82 0 1.79 209 11:36 22.07.2019
4627 Clouds 23 1013 82 0 1.79 209 11:36 22.07.2019
4628 Rain 23 1012 82 0 0.89 159 11:18 22.07.2019
4629 Rain 23 1012 81 0 2.68 306 10:37 22.07.2019
4630 Rain 23 1012 81 0 3.13 277 10:18 22.07.2019
4631 Clouds 25 1013 76 0 4.47 121 09:39 22.07.2019
4632 Rain 25 1013 76 0 4.47 121 09:20 22.07.2019
4633 Rain 27 1013 78 0 0.45 133 08:38 22.07.2019
4634 Rain 27 1015 78 11265 1 340 08:20 22.07.2019
4635 Clouds 27 1015 78 11265 1 340 07:52 22.07.2019
4636 Clouds 27 1015 78 11265 1 340 07:27 22.07.2019
4637 Clouds 27 1014 78 11265 1.18 332.5 05:30 22.07.2019
4638 Clouds 28 1013 74 11265 1 60 03:44 22.07.2019
4639 Clouds 30 1012 74 11265 3.6 70 01:25 22.07.2019
4640 Clouds 31 1012 70 11265 4.1 70 00:42 22.07.2019
4641 Clouds 31 1012 70 11265 4.1 70 00:21 22.07.2019
4642 Clouds 32 1013 62 11265 3.1 60 23:49 21.07.2019
4643 Clouds 32 1014 62 11265 4.6 60 22:59 21.07.2019
4644 Clouds 32 1014 62 11265 4.6 60 22:40 21.07.2019
4645 Clouds 32 1014 62 11265 4.6 60 22:21 21.07.2019
4646 Clouds 32 1014 62 11265 2.1 90 21:49 21.07.2019
4647 Clouds 32 1014 62 11265 2.1 90 21:26 21.07.2019
4648 Clouds 32 1014 66 11265 2.6 120 20:59 21.07.2019
4649 Clouds 32 1014 66 11265 2.6 120 20:41 21.07.2019
4650 Clouds 32 1014 66 11265 2.6 120 20:22 21.07.2019
4651 Clouds 31 1014 89 11265 1.74 81.126 19:49 21.07.2019
4652 Clouds 30 1014 89 11265 1.74 81.126 19:29 21.07.2019
4653 Clouds 29 1014 83 9656 1.74 81.126 18:53 21.07.2019
4654 Clouds 30 1014 83 9656 1.74 81.126 18:34 21.07.2019
4655 Clouds 28 1014 88 9656 0.44 300.379 17:56 21.07.2019
4656 Clouds 28 1014 88 9656 0.44 300.379 17:38 21.07.2019
4657 Clouds 28 1014 88 9656 0.44 300.379 17:18 21.07.2019
4658 Clouds 27 1014 88 8047 0.44 300.379 16:41 21.07.2019
4659 Clouds 27 1014 88 8047 0.44 300.379 16:22 21.07.2019
4660 Clouds 26 1013 94 8047 0.44 300.379 15:41 21.07.2019
4661 Clouds 26 1013 94 8047 1.31 283.083 15:21 21.07.2019
4662 Clouds 26 1013 94 8047 1.31 283.083 15:21 21.07.2019
4663 Rain 25 1013 94 9656 1.31 283.083 14:51 21.07.2019
4664 Rain 25 1013 94 9656 1.31 283.083 14:25 21.07.2019
4665 Clouds 24 1013 100 8047 1.31 283.083 13:53 21.07.2019
4666 Clouds 25 1013 100 8047 1.31 283.083 13:34 21.07.2019
4667 Clouds 26 1011 81 0 1.5 284.742 12:57 21.07.2019
4668 Clouds 26 1011 81 0 1.5 284.742 12:39 21.07.2019
4669 Clouds 26 1011 81 0 1.54 267.656 12:20 21.07.2019
4670 Clouds 26 1011 81 0 1.34 106 11:45 21.07.2019
4671 Clouds 26 1012 79 0 1.54 267.656 11:25 21.07.2019
4672 Clouds 26 1012 78 0 1.54 267.656 10:43 21.07.2019
4673 Clouds 26 1012 79 0 0.45 268 10:24 21.07.2019
4674 Clouds 26 1013 79 0 0.45 279 09:52 21.07.2019
4675 Clouds 26 1013 79 0 1.54 267.656 09:32 21.07.2019
4676 Clouds 27 1013 78 0 1.64 268.181 08:47 21.07.2019
4677 Clouds 27 1013 78 0 1.79 273 08:27 21.07.2019
4678 Clouds 28 1015 100 11265 1.64 268.181 07:40 21.07.2019
4679 Clouds 28 1015 100 11265 1.64 268.181 06:59 21.07.2019
4680 Clouds 28 1015 100 11265 1.93 293.833 05:54 21.07.2019
4681 Clouds 29 1012 100 11265 3.1 80 02:59 21.07.2019
4682 Clouds 30 1012 94 11265 3.6 90 01:33 21.07.2019
4683 Clouds 31 1012 79 9656 4.1 80 00:42 21.07.2019
4684 Clouds 31 1012 79 9656 4.1 80 00:19 21.07.2019
4685 Clouds 32 1013 62 11265 2.6 80 23:43 20.07.2019
4686 Clouds 32 1013 62 11265 2.6 80 23:21 20.07.2019
4687 Clouds 32 1013 62 11265 7.2 80 22:46 20.07.2019
4688 Clouds 32 1013 62 11265 7.2 80 22:22 20.07.2019
4689 Clouds 32 1014 59 11265 2.6 90 21:57 20.07.2019
4690 Clouds 32 1014 59 11265 2.6 90 21:38 20.07.2019
4691 Clouds 32 1014 59 11265 2.6 90 21:20 20.07.2019
4692 Clouds 32 1014 59 11265 4.1 60 20:41 20.07.2019
4693 Clouds 32 1014 59 11265 4.1 60 20:19 20.07.2019
4694 Clouds 32 1014 59 9656 1.19 88.022 19:45 20.07.2019
4695 Clouds 32 1014 59 9656 1.19 88.022 19:45 20.07.2019
4696 Clouds 32 1014 59 9656 1.19 88.022 19:20 20.07.2019
4697 Clouds 29 1014 65 9656 1.19 88.022 18:43 20.07.2019
4698 Clouds 28 1014 65 9656 0.63 267.72 18:20 20.07.2019
4699 Clouds 27 1015 100 8047 1.5 300 17:54 20.07.2019
4700 Clouds 25 1015 100 8047 1.5 300 17:23 20.07.2019
4701 Clouds 24 1015 83 8047 0.63 267.72 16:44 20.07.2019
4702 Clouds 24 1015 83 8047 0.63 267.72 16:26 20.07.2019
4703 Clouds 24 1015 83 8047 2.1 40 15:58 20.07.2019
4704 Clouds 24 1015 83 8047 2.1 40 15:38 20.07.2019
4705 Clouds 24 1015 83 8047 2.1 40 15:20 20.07.2019
4706 Clouds 24 1015 83 8047 1.5 70 14:47 20.07.2019
4707 Clouds 24 1015 83 8047 1.5 70 14:24 20.07.2019
4708 Clouds 24 1014 83 8047 1.65 287.686 13:39 20.07.2019
4709 Clouds 24 1014 83 8047 1.56 286.843 13:20 20.07.2019
4710 Clouds 24 1014 83 8047 1.56 286.843 13:20 20.07.2019
4711 Clouds 24 1012 81 0 1.56 286.843 12:54 20.07.2019
4712 Clouds 24 1012 80 0 1.88 279.692 12:24 20.07.2019
4713 Clouds 24 1012 81 0 1.88 279.692 11:57 20.07.2019
4714 Clouds 24 1012 82 0 1.88 279.692 11:24 20.07.2019
4715 Clouds 24 1012 82 0 0.89 80 10:55 20.07.2019
4716 Clouds 24 1012 82 0 1.88 279.692 10:36 20.07.2019
4717 Clouds 24 1012 82 0 1.88 279.692 10:18 20.07.2019
4718 Clouds 24 1013 82 0 1.88 279.692 09:45 20.07.2019
4719 Clear 24 1013 82 0 0.45 80 09:18 20.07.2019
4720 Clear 24 1013 82 0 1.46 278.08 08:44 20.07.2019
4721 Clear 24 1013 80 0 1.46 278.08 08:20 20.07.2019
4722 Clear 25 1016 100 9656 1.46 278.08 07:20 20.07.2019
4723 Clear 25 1015 100 9656 1.46 278.08 06:41 20.07.2019
4724 Clouds 27 1014 100 9656 1.22 329.294 04:31 20.07.2019
4725 Clouds 29 1013 100 9656 1.5 80 03:28 20.07.2019
4726 Clouds 31 1013 70 9656 3.1 100 01:21 20.07.2019
4727 Clouds 31 1013 70 9656 3.1 100 01:21 20.07.2019
4728 Clouds 32 1014 66 9656 5.1 80 00:46 20.07.2019
4729 Clouds 32 1014 66 9656 5.1 80 00:21 20.07.2019
4730 Clouds 32 1014 66 9656 5.7 80 23:44 19.07.2019
4731 Clouds 32 1014 66 9656 5.7 80 23:25 19.07.2019
4732 Clouds 32 1015 66 9656 4.1 50 22:50 19.07.2019
4733 Clouds 32 1015 66 9656 4.1 50 22:26 19.07.2019
4734 Clouds 33 1015 55 9656 3.1 80 21:51 19.07.2019
4735 Clouds 33 1015 55 9656 3.1 80 21:33 19.07.2019
4736 Clouds 32 1015 62 8047 0.62 70.128 20:58 19.07.2019
4737 Clouds 32 1015 62 8047 0.62 70.128 20:38 19.07.2019
4738 Clouds 32 1015 62 8047 0.62 70.128 20:20 19.07.2019
4739 Clouds 32 1016 74 8047 0.62 70.128 19:35 19.07.2019
4740 Clouds 30 1016 79 8047 0.62 70.128 18:46 19.07.2019
4741 Clouds 30 1016 79 8047 0.85 299.061 18:25 19.07.2019
4742 Clouds 30 1016 74 8047 0.85 299.061 17:56 19.07.2019
4743 Clouds 29 1016 74 8047 0.85 299.061 17:29 19.07.2019
4744 Clouds 27 1016 78 11265 1 300 16:57 19.07.2019
4745 Clouds 27 1016 78 11265 1 300 16:39 19.07.2019
4746 Clouds 27 1016 78 11265 1 300 16:39 19.07.2019
4747 Clouds 27 1016 78 11265 1 300 16:18 19.07.2019
4748 Mist 25 1015 83 11265 0.85 299.061 15:43 19.07.2019
4749 Mist 25 1015 83 11265 1.4 294.087 15:24 19.07.2019
4750 Mist 24 1015 83 11265 1.4 294.087 14:45 19.07.2019
4751 Mist 24 1015 83 11265 1.4 294.087 14:25 19.07.2019
4752 Clear 24 1014 83 11265 1.4 294.087 13:47 19.07.2019
4753 Clear 24 1014 83 11265 1.58 285.233 13:27 19.07.2019
4754 Clouds 24 1012 81 0 1.58 285.233 12:58 19.07.2019
4755 Clouds 24 1012 81 0 1.58 285.233 12:38 19.07.2019
4756 Clear 24 1012 82 0 0.45 92 12:19 19.07.2019
4757 Clear 24 1012 81 0 0.45 92 11:45 19.07.2019
4758 Clear 24 1012 81 0 0.45 92 11:18 19.07.2019
4759 Clear 24 1013 80 0 1.23 284.937 10:48 19.07.2019
4760 Clear 25 1013 80 0 1.23 284.937 10:23 19.07.2019
4761 Clear 25 1013 81 0 0.45 92 09:59 19.07.2019
4762 Clear 25 1013 81 0 1.23 284.937 09:40 19.07.2019
4763 Clouds 25 1013 81 0 1.54 266.866 09:21 19.07.2019
4764 Rain 25 1014 81 0 0.89 92 08:48 19.07.2019
4765 Clouds 26 1016 100 11265 1.5 273.243 07:59 19.07.2019
4766 Clouds 27 1016 100 11265 1.5 273.243 07:29 19.07.2019
4767 Clouds 27 1015 100 11265 1.54 324.363 05:57 19.07.2019
4768 Clouds 29 1013 83 11265 2.1 80 02:43 19.07.2019
4769 Clouds 30 1013 74 11265 1 100 01:20 19.07.2019
4770 Clouds 31 1014 66 11265 1 120 00:45 19.07.2019
4771 Clouds 31 1014 62 11265 4.6 80 23:58 18.07.2019
4772 Clouds 32 1014 62 11265 4.6 80 23:39 18.07.2019
4773 Clouds 32 1014 62 11265 4.6 80 23:21 18.07.2019
4774 Clouds 31 1015 66 11265 3.1 60 22:40 18.07.2019
4775 Clouds 31 1015 66 11265 3.1 60 22:20 18.07.2019
4776 Clouds 32 1016 62 11265 1.5 50 21:44 18.07.2019
4777 Clouds 32 1016 62 11265 1.5 50 21:26 18.07.2019
4778 Clouds 31 1016 70 9656 2.6 360 20:52 18.07.2019
4779 Clouds 31 1016 70 9656 2.6 360 20:29 18.07.2019
4780 Clouds 29 1017 88 9656 2.6 330 19:59 18.07.2019
4781 Clouds 29 1017 88 9656 2.6 330 19:40 18.07.2019
4782 Clouds 29 1017 88 9656 2.6 330 19:19 18.07.2019
4783 Clouds 28 1017 88 9656 1.5 360 18:42 18.07.2019
4784 Clouds 28 1017 88 9656 1.5 360 18:20 18.07.2019
4785 Clouds 28 1017 88 9656 4.6 10 17:44 18.07.2019
4786 Clouds 28 1017 88 9656 4.6 10 17:44 18.07.2019
4787 Clouds 28 1017 88 9656 4.6 10 17:24 18.07.2019
4788 Clouds 27 1016 88 9656 1.57 236.675 16:57 18.07.2019
4789 Clouds 27 1016 88 9656 1.57 236.675 16:39 18.07.2019
4790 Clouds 27 1016 88 9656 1.57 236.675 16:18 18.07.2019
4791 Clouds 26 1016 94 9656 1.57 236.675 15:44 18.07.2019
4792 Clouds 26 1016 94 9656 1.57 236.675 15:44 18.07.2019
4793 Clouds 25 1016 94 9656 1.72 275.439 15:25 18.07.2019
4794 Clouds 25 1015 94 9656 1.72 275.439 14:50 18.07.2019
4795 Clouds 25 1015 94 9656 1.72 275.439 14:32 18.07.2019
4796 Clouds 24 1015 94 9656 1.72 275.439 13:50 18.07.2019
4797 Clouds 25 1015 94 9656 1.45 281.821 13:24 18.07.2019
4798 Clouds 25 1015 94 9656 1.45 281.821 12:54 18.07.2019
4799 Clouds 24 1013 81 0 1.45 281.821 12:36 18.07.2019
4800 Clouds 24 1013 81 0 1.15 278.978 12:18 18.07.2019
4801 Clouds 24 1013 81 0 0.45 90 11:46 18.07.2019
4802 Clouds 24 1013 81 0 0.89 90 11:22 18.07.2019
4803 Clouds 24 1014 81 0 0.89 90 10:51 18.07.2019
4804 Clouds 24 1014 81 0 1.15 278.978 09:50 18.07.2019
4805 Clouds 24 1015 81 0 0.89 90 09:27 18.07.2019
4806 Clouds 25 1015 80 0 0.45 90 08:53 18.07.2019
4807 Clouds 26 1015 79 0 0.45 90 08:25 18.07.2019
4808 Clouds 25 1017 100 11265 1.17 277.155 07:57 18.07.2019
4809 Clouds 25 1017 100 11265 1.17 277.155 07:35 18.07.2019
4810 Clouds 25 1017 100 11265 1.17 277.155 07:35 18.07.2019
4811 Clouds 26 1017 100 11265 1.17 277.155 06:48 18.07.2019
4812 Clouds 26 1017 100 11265 1.17 277.155 06:26 18.07.2019
4813 Clouds 28 1014 74 11265 1.5 80 03:41 18.07.2019
4814 Clouds 29 1014 70 11265 1.5 60 02:23 18.07.2019
4815 Clouds 30 1015 74 11265 4.1 70 01:36 18.07.2019
4816 Clouds 30 1015 74 11265 2.1 90 23:59 17.07.2019
4817 Clouds 30 1015 74 11265 2.1 90 23:22 17.07.2019
4818 Clouds 31 1016 70 11265 4.6 60 22:59 17.07.2019
4819 Clouds 31 1016 70 11265 4.6 60 22:41 17.07.2019
4820 Clouds 31 1016 70 11265 4.6 60 22:22 17.07.2019
4821 Clouds 32 1016 52 11265 2.1 300 21:56 17.07.2019
4822 Clouds 32 1016 52 11265 2.1 300 21:56 17.07.2019
4823 Clouds 32 1016 52 11265 2.1 300 21:37 17.07.2019
4824 Clouds 32 1016 52 11265 2.1 300 21:19 17.07.2019
4825 Clouds 31 1017 62 11265 1.16 343.756 20:41 17.07.2019
4826 Clouds 31 1017 62 11265 1.16 343.756 20:21 17.07.2019
4827 Clouds 29 1017 88 11265 1.16 343.756 19:59 17.07.2019
4828 Clouds 29 1017 88 11265 1.16 343.756 19:40 17.07.2019
4829 Clouds 29 1015 61 0 1.34 305 19:19 17.07.2019
4830 Clouds 27 1017 88 11265 1 80 18:43 17.07.2019
4831 Clouds 27 1016 72 0 0.89 89 18:21 17.07.2019
4832 Clouds 27 1016 72 0 0.89 89 18:21 17.07.2019
4833 Clouds 26 1017 94 11265 0.78 317.969 17:55 17.07.2019
4834 Clouds 26 1017 94 11265 0.78 317.969 17:37 17.07.2019
4835 Clouds 25 1017 94 11265 0.78 317.969 17:18 17.07.2019
4836 Clouds 24 1016 88 8047 3.1 180 16:38 17.07.2019
4837 Clouds 24 1015 100 8047 0.78 317.969 16:19 17.07.2019
4838 Clouds 24 1015 100 8047 0.78 317.969 16:19 17.07.2019
4839 Clouds 24 1015 100 8047 0.78 317.969 15:51 17.07.2019
4840 Clouds 24 1015 100 8047 0.78 317.969 15:29 17.07.2019
4841 Clouds 24 1015 100 9656 0.78 312.755 14:55 17.07.2019
4842 Clouds 24 1015 100 9656 0.78 312.755 14:37 17.07.2019
4843 Clouds 23 1015 100 8047 0.78 312.755 14:19 17.07.2019
4844 Clouds 23 1015 100 8047 0.78 312.755 13:45 17.07.2019
4845 Rain 24 1015 100 8047 0.78 112.101 13:25 17.07.2019
4846 Rain 23 1013 81 0 4.02 236 12:43 17.07.2019
4847 Rain 23 1013 82 0 3.13 266 12:21 17.07.2019
4848 Rain 23 1014 81 0 4.47 247 11:56 17.07.2019
4849 Rain 23 1014 81 0 4.47 247 11:56 17.07.2019
4850 Rain 23 1014 81 0 4.47 247 11:37 17.07.2019
4851 Rain 23 1014 81 0 4.02 254 11:18 17.07.2019
4852 Rain 23 1014 80 0 2.68 257 10:42 17.07.2019
4853 Rain 23 1014 79 0 3.58 242 10:18 17.07.2019
4854 Rain 24 1015 76 0 4.02 188 09:44 17.07.2019
4855 Rain 24 1015 76 0 4.02 188 09:44 17.07.2019
4856 Rain 26 1013 73 0 4.92 251 09:25 17.07.2019
4857 Rain 27 1014 74 0 0.89 16 08:44 17.07.2019
4858 Rain 28 1014 71 0 1.73 268.115 08:22 17.07.2019
4859 Clouds 28 1016 100 11265 1.73 268.115 07:51 17.07.2019
4860 Clouds 28 1016 100 11265 1.73 268.115 07:51 17.07.2019
4861 Clouds 28 1016 100 11265 1.73 268.115 07:51 17.07.2019
4862 Clouds 28 1016 100 11265 1.73 268.115 07:26 17.07.2019
4863 Clouds 28 1016 100 11265 1.73 268.115 06:58 17.07.2019
4864 Clouds 28 1016 100 11265 1.73 268.115 06:31 17.07.2019
4865 Clouds 29 1016 100 11265 1.5 70 05:57 17.07.2019
4866 Clouds 29 1016 100 11265 1.5 70 05:30 17.07.2019
4867 Clouds 29 1015 100 11265 1.5 80 04:46 17.07.2019
4868 Clouds 29 1014 94 11265 1.5 80 03:39 17.07.2019
4869 Clouds 30 1014 89 11265 3.1 100 02:25 17.07.2019
4870 Clouds 31 1014 74 11265 4.6 70 01:28 17.07.2019
4871 Clouds 32 1014 70 11265 5.7 80 00:59 17.07.2019
4872 Clouds 32 1014 70 11265 5.7 80 00:37 17.07.2019
4873 Clouds 32 1012 54 0 4.02 47 00:19 17.07.2019
4874 Clouds 32 1014 66 11265 4.6 60 23:40 16.07.2019
4875 Clouds 32 1014 70 9656 5.7 80 23:20 16.07.2019
4876 Clouds 32 1014 70 9656 5.7 80 22:43 16.07.2019
4877 Clouds 33 1014 70 9656 5.7 80 22:24 16.07.2019
4878 Clouds 33 1015 70 9656 5.1 80 21:47 16.07.2019
4879 Clouds 33 1015 70 9656 5.1 80 21:25 16.07.2019
4880 Clouds 32 1015 70 9656 5.7 80 20:58 16.07.2019
4881 Clouds 32 1015 70 9656 5.7 80 20:40 16.07.2019
4882 Clouds 32 1015 70 9656 5.7 80 20:21 16.07.2019
4883 Clouds 32 1015 75 9656 3.1 80 19:53 16.07.2019
4884 Clouds 32 1015 75 9656 3.1 80 19:29 16.07.2019
4885 Clouds 32 1015 84 9656 2.6 10 18:58 16.07.2019
4886 Clouds 31 1015 84 9656 2.6 10 18:39 16.07.2019
4887 Clouds 31 1016 89 9656 1 350 18:20 16.07.2019
4888 Clouds 30 1016 89 9656 1 350 17:44 16.07.2019
4889 Clouds 30 1016 89 9656 1 350 17:23 16.07.2019
4890 Clouds 28 1015 88 9656 1.21 323.415 16:48 16.07.2019
4891 Clouds 28 1015 88 9656 1.21 323.415 16:25 16.07.2019
4892 Clouds 27 1014 88 9656 1.5 330 15:56 16.07.2019
4893 Clouds 27 1014 88 9656 1.5 330 15:37 16.07.2019
4894 Clouds 27 1014 88 9656 1.5 330 15:18 16.07.2019
4895 Clouds 26 1014 88 9656 1.5 330 14:43 16.07.2019
4896 Clouds 26 1014 88 9656 1.5 330 14:24 16.07.2019
4897 Clouds 26 1013 88 8047 1.5 350 13:46 16.07.2019
4898 Clouds 26 1013 88 8047 1.5 350 13:27 16.07.2019
4899 Clouds 26 1013 88 8047 1.5 350 12:56 16.07.2019
4900 Clear 26 1012 82 0 1.17 314.896 12:38 16.07.2019
4901 Clear 26 1011 82 0 1.44 282.312 12:19 16.07.2019
4902 Clear 26 1011 81 0 1.44 282.312 11:44 16.07.2019
4903 Clear 26 1012 81 0 0.45 130 11:24 16.07.2019
4904 Clear 26 1012 80 0 1.44 282.312 10:57 16.07.2019
4905 Clear 26 1012 80 0 1.44 282.312 10:38 16.07.2019
4906 Clear 26 1012 80 0 1.44 282.312 10:18 16.07.2019
4907 Clear 27 1012 79 0 0.89 130 09:42 16.07.2019
4908 Clouds 27 1015 78 11265 1.39 292.032 09:20 16.07.2019
4909 Clouds 28 1015 78 11265 1.37 287.683 08:46 16.07.2019
4910 Clouds 28 1015 78 11265 1.37 287.683 08:23 16.07.2019
4911 Clouds 28 1015 78 11265 3.1 60 07:49 16.07.2019
4912 Clouds 28 1015 78 11265 3.1 60 07:31 16.07.2019
4913 Clouds 28 1014 74 11265 1.37 287.683 06:53 16.07.2019
4914 Clouds 28 1014 74 11265 1.37 287.683 06:31 16.07.2019
4915 Clouds 28 1013 74 11265 1 80 05:42 16.07.2019
4916 Clouds 28 1013 74 11265 1 80 05:24 16.07.2019
4917 Clouds 28 1012 74 11265 1.54 316.446 04:23 16.07.2019
4918 Clouds 29 1011 74 11265 3.1 90 03:28 16.07.2019
4919 Clouds 30 1011 66 11265 4.1 70 02:36 16.07.2019
4920 Clouds 32 1011 79 9656 7.2 70 01:49 16.07.2019
4921 Clouds 33 1012 70 9656 3.6 100 00:59 16.07.2019
4922 Clouds 33 1012 70 9656 3.6 100 00:22 16.07.2019
4923 Clouds 34 1012 63 9656 4.1 80 23:55 15.07.2019
4924 Clouds 34 1012 63 9656 4.1 80 23:37 15.07.2019
4925 Clouds 34 1013 59 9656 1.5 100 22:56 15.07.2019
4926 Clouds 34 1013 59 9656 1.5 100 22:37 15.07.2019
4927 Clouds 34 1013 59 9656 3.6 90 22:19 15.07.2019
4928 Clouds 34 1013 59 9656 3.6 90 21:42 15.07.2019
4929 Clouds 34 1013 59 9656 3.6 90 21:21 15.07.2019
4930 Clouds 33 1014 63 8047 4.1 80 20:58 15.07.2019
4931 Clouds 33 1014 63 8047 4.1 80 20:39 15.07.2019
4932 Clouds 33 1014 63 8047 4.1 80 20:21 15.07.2019
4933 Clouds 33 1014 70 8047 1.5 120 19:45 15.07.2019
4934 Clouds 33 1014 70 8047 1.5 120 19:22 15.07.2019
4935 Clouds 32 1014 84 8047 1.5 20 18:57 15.07.2019
4936 Clouds 32 1014 84 8047 1.5 20 18:38 15.07.2019
4937 Clouds 32 1012 61 0 1.34 26 18:19 15.07.2019
4938 Clouds 30 1014 89 8047 2.1 40 17:55 15.07.2019
4939 Clouds 30 1014 89 8047 2.1 40 17:37 15.07.2019
4940 Clouds 29 1014 88 8047 2.1 310 17:18 15.07.2019
4941 Clouds 28 1014 88 8047 2.1 310 16:39 15.07.2019
4942 Clouds 28 1014 88 8047 2.1 310 16:20 15.07.2019
4943 Clouds 27 1013 88 8047 2.1 320 15:57 15.07.2019
4944 Clouds 27 1013 88 8047 2.1 320 15:37 15.07.2019
4945 Clouds 27 1013 88 8047 2.1 320 15:37 15.07.2019
4946 Clouds 27 1013 88 8047 2.1 320 15:19 15.07.2019
4947 Clouds 26 1013 94 8047 1.5 30 14:44 15.07.2019
4948 Clouds 25 1013 94 8047 1.5 30 14:25 15.07.2019
4949 Clear 25 1012 94 8047 1.39 269.835 13:51 15.07.2019
4950 Clear 25 1012 94 8047 1.23 274.434 13:25 15.07.2019
4951 Clear 25 1012 94 8047 1.23 274.434 12:59 15.07.2019
4952 Clouds 26 1010 82 0 1.23 274.434 12:41 15.07.2019
4953 Clouds 26 1010 82 0 1.23 274.434 12:41 15.07.2019
4954 Clouds 26 1010 82 0 1.2 280.722 12:20 15.07.2019
4955 Clouds 26 1010 82 0 1.2 280.722 11:42 15.07.2019
4956 Clouds 26 1011 82 0 0.45 355 11:24 15.07.2019
4957 Clouds 26 1011 81 0 1.2 280.722 10:45 15.07.2019
4958 Clouds 26 1011 81 0 1.2 280.722 10:27 15.07.2019
4959 Clouds 26 1011 81 0 1.2 280.722 09:48 15.07.2019
4960 Rain 26 1011 80 0 1.11 294.141 09:28 15.07.2019
4961 Rain 26 1011 79 0 0.45 61 08:59 15.07.2019
4962 Rain 27 1012 78 0 1.18 295.655 08:41 15.07.2019
4963 Rain 27 1012 76 0 1.18 295.655 08:23 15.07.2019
4964 Clouds 28 1014 78 11265 1.18 295.655 07:38 15.07.2019
4965 Clouds 28 1013 78 11265 1.18 295.655 06:59 15.07.2019
4966 Clouds 28 1013 78 11265 1.18 295.655 06:38 15.07.2019
4967 Clouds 28 1013 78 11265 2.1 50 05:44 15.07.2019
4968 Clouds 28 1013 78 11265 2.1 50 05:26 15.07.2019
4969 Clouds 28 1012 78 11265 2.6 60 04:41 15.07.2019
4970 Clouds 29 1011 74 11265 2.1 50 03:39 15.07.2019
4971 Clouds 30 1011 66 11265 1 80 02:37 15.07.2019
4972 Clouds 31 1011 70 9656 2.1 70 01:41 15.07.2019
4973 Clouds 31 1011 70 9656 2.1 70 01:23 15.07.2019
4974 Clouds 31 1011 70 9656 3.1 80 00:48 15.07.2019
4975 Clouds 31 1011 74 11265 2.6 100 00:19 15.07.2019
4976 Clouds 31 1011 74 11265 2.6 100 23:54 14.07.2019
4977 Clouds 31 1011 74 11265 2.6 100 23:36 14.07.2019
4978 Clouds 32 1012 63 9656 3.1 110 23:18 14.07.2019
4979 Clouds 32 1012 63 9656 3.1 110 22:40 14.07.2019
4980 Clouds 33 1012 63 9656 3.1 110 22:21 14.07.2019
4981 Clouds 33 1013 66 8047 1.5 110 21:58 14.07.2019
4982 Clouds 32 1013 66 8047 1.5 110 21:39 14.07.2019
4983 Clouds 33 1013 70 8047 5.7 80 21:18 14.07.2019
4984 Clouds 33 1013 70 8047 5.7 80 21:18 14.07.2019
4985 Clouds 33 1013 70 8047 5.7 80 20:54 14.07.2019
4986 Clouds 33 1013 70 8047 5.7 80 20:36 14.07.2019
4987 Clouds 33 1014 79 8047 1.5 140 20:18 14.07.2019
4988 Clouds 32 1014 79 8047 1.5 140 19:41 14.07.2019
4989 Clouds 32 1014 79 8047 1.5 140 19:22 14.07.2019
4990 Clouds 31 1014 84 9656 1.5 130 18:45 14.07.2019
4991 Clouds 31 1014 84 9656 1.5 130 18:27 14.07.2019
4992 Clouds 30 1013 84 8047 0.75 133.107 17:59 14.07.2019
4993 Clouds 30 1013 84 8047 0.75 133.107 17:39 14.07.2019
4994 Clouds 29 1013 89 8047 0.75 133.107 17:18 14.07.2019
4995 Clouds 29 1013 89 8047 0.75 133.107 16:46 14.07.2019
4996 Clouds 29 1013 89 8047 0.75 133.107 16:23 14.07.2019
4997 Clouds 27 1012 94 8047 0.75 133.107 15:49 14.07.2019
4998 Clouds 27 1012 94 8047 1.71 277.964 15:27 14.07.2019
4999 Clouds 26 1012 94 8047 1.71 277.964 14:48 14.07.2019
5000 Clouds 25 1012 94 8047 1.71 277.964 14:21 14.07.2019
5001 Clear 25 1012 94 8047 1.71 277.964 13:47 14.07.2019
5002 Clear 25 1012 94 8047 1.78 278.462 13:25 14.07.2019
5003 Clear 25 1012 94 8047 1.78 278.462 12:58 14.07.2019
5004 Clouds 26 1010 80 0 0.45 15 12:40 14.07.2019
5005 Clouds 26 1010 80 0 1.21 271.416 12:19 14.07.2019
5006 Clouds 26 1009 79 0 1.21 271.416 11:51 14.07.2019
5007 Clouds 26 1010 79 0 1.21 271.416 11:22 14.07.2019
5008 Clouds 26 1010 79 0 1.21 271.416 10:49 14.07.2019
5009 Clouds 26 1010 79 0 1.21 271.416 10:21 14.07.2019
5010 Clouds 26 1010 79 0 1.21 271.416 09:50 14.07.2019
5011 Clouds 26 1010 78 0 1.21 271.416 09:30 14.07.2019
5012 Clouds 27 1010 77 0 1.21 273.562 08:57 14.07.2019
5013 Clouds 27 1010 77 0 0.45 15 08:39 14.07.2019
5014 Clouds 27 1011 79 0 0.45 15 07:46 14.07.2019
5015 Clouds 27 1012 100 9656 1.21 273.562 07:21 14.07.2019
5016 Clouds 28 1012 100 9656 1.27 316.115 05:46 14.07.2019
5017 Clouds 30 1010 94 9656 3.6 80 03:59 14.07.2019
5018 Clouds 29 1010 94 9656 3.6 80 03:41 14.07.2019
5019 Clouds 30 1010 94 9656 3.6 80 03:23 14.07.2019
5020 Clouds 31 1009 70 8047 4.6 80 02:24 14.07.2019
5021 Clouds 32 1009 66 8047 4.6 80 01:54 14.07.2019
5022 Clouds 32 1009 66 8047 4.6 80 01:30 14.07.2019
5023 Clouds 32 1010 70 8047 3.6 60 00:41 14.07.2019
5024 Clouds 33 1010 66 8047 2.6 50 00:20 14.07.2019
5025 Clouds 33 1010 66 8047 2.6 50 23:58 13.07.2019
5026 Clouds 33 1010 66 8047 2.6 50 23:40 13.07.2019
5027 Clouds 33 1010 66 8047 2.6 50 23:20 13.07.2019
5028 Clouds 32 1010 70 8047 3.6 80 22:42 13.07.2019
5029 Clouds 32 1010 70 8047 3.6 80 22:22 13.07.2019
5030 Clouds 32 1011 70 8047 1 120 21:48 13.07.2019
5031 Clouds 32 1011 70 8047 1 120 21:21 13.07.2019
5032 Clouds 32 1012 70 8047 1 100 20:52 13.07.2019
5033 Clouds 32 1012 70 8047 1 100 20:33 13.07.2019
5034 Clouds 32 1012 66 8047 1.52 90.302 19:50 13.07.2019
5035 Clouds 32 1012 66 8047 1.52 90.302 19:30 13.07.2019
5036 Clouds 30 1012 66 6437 1 90 18:47 13.07.2019
5037 Clouds 30 1012 66 6437 1 90 18:28 13.07.2019
5038 Clouds 30 1012 66 6437 2.1 180 17:58 13.07.2019
5039 Clouds 30 1012 66 6437 2.1 180 17:37 13.07.2019
5040 Clouds 29 1012 66 6437 2.1 180 17:18 13.07.2019
5041 Clouds 28 1011 74 8047 0.6 158.894 16:42 13.07.2019
5042 Clouds 28 1011 74 8047 0.6 158.894 16:24 13.07.2019
5043 Clouds 26 1011 83 8047 0.6 158.894 15:46 13.07.2019
5044 Clouds 25 1011 83 8047 1.36 263.465 15:24 13.07.2019
5045 Clouds 24 1011 83 8047 1.36 263.465 14:47 13.07.2019
5046 Clouds 24 1011 83 8047 1.36 263.465 14:27 13.07.2019
5047 Clouds 25 1010 83 9656 1.36 263.465 13:58 13.07.2019
5048 Clouds 24 1010 83 9656 1.36 263.465 13:39 13.07.2019
5049 Clouds 24 1009 82 0 1.27 267.7 13:18 13.07.2019
5050 Clouds 24 1009 81 0 0.45 236 12:40 13.07.2019
5051 Clear 26 1011 100 8047 1.71 255.272 12:22 13.07.2019
5052 Clear 26 1011 100 8047 1.71 255.272 11:52 13.07.2019
5053 Clear 26 1011 100 8047 1.71 255.272 11:20 13.07.2019
5054 Clouds 26 1011 100 9656 1.71 255.272 10:46 13.07.2019
5055 Clouds 26 1011 100 9656 1.71 255.272 10:25 13.07.2019
5056 Clouds 27 1011 100 9656 1.71 255.272 09:59 13.07.2019
5057 Clouds 27 1011 100 9656 1.71 255.272 09:41 13.07.2019
5058 Clouds 26 1012 100 9656 1.39 289.429 09:18 13.07.2019
5059 Clouds 26 1012 100 9656 1.32 292.65 08:41 13.07.2019
5060 Clouds 26 1012 100 9656 1.32 292.65 08:22 13.07.2019
5061 Clouds 27 1012 100 9656 1.32 292.65 07:30 13.07.2019
5062 Clouds 26 1011 100 8047 1.32 292.65 06:49 13.07.2019
5063 Clouds 28 1011 100 9656 1.32 311.836 05:59 13.07.2019
5064 Clouds 28 1011 100 9656 1.32 311.836 05:29 13.07.2019
5065 Clouds 28 1011 100 11265 1.5 40 04:24 13.07.2019
5066 Clouds 29 1010 89 11265 2.6 100 03:57 13.07.2019
5067 Clouds 29 1010 89 11265 2.6 100 03:38 13.07.2019
5068 Clouds 32 1008 70 11265 4.1 70 01:58 13.07.2019
5069 Clouds 32 1008 70 11265 4.1 70 01:39 13.07.2019
5070 Clouds 32 1008 70 11265 4.1 70 01:18 13.07.2019
5071 Clouds 32 1008 70 11265 4.1 70 00:51 13.07.2019
5072 Clouds 32 1008 75 11265 3.6 100 00:19 13.07.2019
5073 Clouds 32 1008 75 11265 3.6 100 23:46 12.07.2019
5074 Clouds 32 1008 75 11265 3.6 100 23:28 12.07.2019
5075 Clouds 33 1009 70 11265 6.2 60 22:46 12.07.2019
5076 Clouds 33 1009 70 11265 6.2 60 22:24 12.07.2019
5077 Clouds 33 1009 70 11265 3.1 100 21:43 12.07.2019
5078 Clouds 33 1009 70 11265 3.1 100 21:22 12.07.2019
5079 Clouds 34 1010 59 11265 2.1 40 20:56 12.07.2019
5080 Clouds 34 1010 59 11265 2.1 40 20:38 12.07.2019
5081 Clouds 33 1011 66 11265 1.03 135.039 20:19 12.07.2019
5082 Clouds 33 1011 66 11265 1.03 135.039 19:42 12.07.2019
5083 Clouds 33 1011 66 11265 1.03 135.039 19:23 12.07.2019
5084 Clouds 32 1011 70 9656 1.03 135.039 18:44 12.07.2019
5085 Clouds 32 1011 70 9656 0.81 189.951 18:21 12.07.2019
5086 Clouds 30 1011 89 9656 0.81 189.951 17:51 12.07.2019
5087 Clouds 30 1011 89 9656 0.81 189.951 17:28 12.07.2019
5088 Mist 28 1011 83 8047 0.81 189.951 16:48 12.07.2019
5089 Mist 28 1011 83 8047 0.81 189.951 16:22 12.07.2019
5090 Mist 28 1011 83 8047 0.81 189.951 15:43 12.07.2019
5091 Mist 27 1011 83 8047 1.01 232.383 15:22 12.07.2019
5092 Mist 26 1011 88 8047 1.01 232.383 14:58 12.07.2019
5093 Mist 26 1011 88 8047 1.01 232.383 14:39 12.07.2019
5094 Mist 26 1011 88 8047 1.01 232.383 14:20 12.07.2019
5095 Clear 25 1011 88 9656 1.01 232.383 13:42 12.07.2019
5096 Clear 25 1011 88 9656 1.02 237.692 13:20 12.07.2019
5097 Clouds 25 1009 81 0 1.02 237.692 12:41 12.07.2019
5098 Rain 26 1009 80 0 1.47 279.507 12:21 12.07.2019
5099 Rain 26 1009 81 0 0.45 100 11:45 12.07.2019
5100 Rain 26 1009 81 0 0.89 100 11:23 12.07.2019
5101 Rain 26 1009 80 0 1.34 100 10:44 12.07.2019
5102 Rain 26 1009 80 0 0.89 100 10:25 12.07.2019
5103 Clouds 26 1012 100 11265 1.47 279.507 09:55 12.07.2019
5104 Clouds 26 1012 100 11265 1.47 279.507 09:36 12.07.2019
5105 Clouds 27 1012 100 11265 1.25 317.649 09:18 12.07.2019
5106 Clouds 27 1012 100 11265 1.25 297.426 08:42 12.07.2019
5107 Clouds 26 1012 100 11265 1.25 297.426 08:42 12.07.2019
5108 Clear 26 1013 100 11265 1.25 297.426 08:20 12.07.2019
5109 Clear 27 1013 100 11265 1.25 297.426 07:47 12.07.2019
5110 Clear 27 1013 100 11265 1.25 297.426 07:27 12.07.2019
5111 Clear 28 1012 100 11265 1.25 297.426 06:29 12.07.2019
5112 Clear 28 1011 100 11265 1.5 90 05:50 12.07.2019
5113 Clouds 29 1010 94 11265 1.5 90 03:24 12.07.2019
5114 Clouds 31 1009 74 11265 4.6 80 01:46 12.07.2019
5115 Clouds 31 1009 74 11265 4.6 80 01:26 12.07.2019
5116 Clouds 32 1009 75 11265 4.1 60 00:31 12.07.2019
5117 Clouds 32 1011 66 11265 3.6 90 23:50 11.07.2019
5118 Clouds 32 1011 66 11265 3.6 90 23:27 11.07.2019
5119 Clouds 32 1012 62 11265 5.7 60 22:59 11.07.2019
5120 Clouds 32 1012 62 11265 5.7 60 22:40 11.07.2019
5121 Clouds 32 1012 62 11265 5.7 60 22:21 11.07.2019
5122 Clouds 33 1012 63 11265 4.1 90 21:42 11.07.2019
5123 Clouds 32 1013 75 11265 2.6 80 21:19 11.07.2019
5124 Clouds 32 1013 75 11265 2.6 80 20:56 11.07.2019
5125 Clouds 32 1013 75 11265 2.6 80 20:37 11.07.2019
5126 Clouds 32 1013 75 11265 2.6 80 20:37 11.07.2019
5127 Clouds 32 1014 74 11265 2.14 69.146 20:18 11.07.2019
5128 Clouds 32 1014 74 11265 2.14 69.146 20:18 11.07.2019
5129 Clouds 32 1014 74 11265 2.14 69.146 19:45 11.07.2019
5130 Clouds 32 1014 74 11265 2.14 69.146 19:25 11.07.2019
5131 Clouds 32 1014 70 11265 2.1 20 18:53 11.07.2019
5132 Clouds 31 1014 70 11265 2.1 20 18:33 11.07.2019
5133 Clouds 31 1014 84 8047 1.5 310 17:59 11.07.2019
5134 Clouds 31 1014 84 8047 1.5 310 17:40 11.07.2019
5135 Clouds 30 1014 84 8047 1.5 310 17:22 11.07.2019
5136 Clouds 29 1013 88 9656 1.5 310 16:49 11.07.2019
5137 Clouds 28 1013 88 9656 1.5 310 16:23 11.07.2019
5138 Clouds 26 1013 94 8047 2.1 310 15:49 11.07.2019
5139 Clouds 26 1013 94 8047 2.1 310 15:30 11.07.2019
5140 Clouds 25 1013 100 8047 1.4 271.391 14:59 11.07.2019
5141 Clouds 24 1013 100 8047 1.4 271.391 14:40 11.07.2019
5142 Clouds 24 1013 100 8047 1.4 271.391 14:20 11.07.2019
5143 Clouds 25 1012 94 8047 1.4 271.391 13:45 11.07.2019
5144 -273 0 0 0 0 0 13:26 11.07.2019
5145 Clouds 25 1012 94 8047 1.47 277.396 13:26 11.07.2019
5146 Clouds 24 1011 78 0 0.45 288 12:42 11.07.2019
5147 Clouds 25 1010 76 0 0.45 288 12:23 11.07.2019
5148 Clouds 25 1010 76 0 1.48 292.54 11:52 11.07.2019
5149 Clouds 25 1010 76 0 1.48 292.54 11:30 11.07.2019
5150 Clouds 25 1011 74 0 1.48 292.54 10:55 11.07.2019
5151 Clouds 26 1012 74 0 0.45 288 10:21 11.07.2019
5152 Clouds 26 1012 74 0 0.45 288 09:59 11.07.2019
5153 Clouds 26 1012 74 0 1.48 292.54 09:41 11.07.2019
5154 Rain 26 1012 74 0 1.74 278.731 09:22 11.07.2019
5155 Rain 26 1013 75 0 1.75 280.976 08:50 11.07.2019
5156 Rain 27 1013 74 0 1.75 280.976 08:24 11.07.2019
5157 Clouds 27 1015 100 11265 1.75 280.976 07:48 11.07.2019
5158 Clouds 27 1015 100 11265 1.75 280.976 07:48 11.07.2019
5159 Clouds 27 1015 100 11265 1.75 280.976 07:29 11.07.2019
5160 Clouds 27 1015 100 11265 1.78 315.251 06:27 11.07.2019
5161 Clouds 28 1014 94 11265 1.78 315.251 05:48 11.07.2019
5162 Clouds 28 1014 94 11265 1.78 315.251 05:28 11.07.2019
5163 Clouds 28 1014 100 11265 1.78 315.251 04:53 11.07.2019
5164 Clouds 30 1012 79 11265 2.1 90 02:38 11.07.2019
5165 Clouds 32 1012 62 11265 2.1 90 00:50 11.07.2019
5166 Clouds 31 1013 79 9656 3.6 100 23:56 10.07.2019
5167 Clouds 31 1013 79 9656 3.6 100 23:31 10.07.2019
5168 Clouds 31 1014 84 9656 4.29 63.298 22:59 10.07.2019
5169 Clouds 31 1014 84 9656 4.29 63.298 22:41 10.07.2019
5170 Clouds 31 1014 84 9656 3.1 90 22:19 10.07.2019
5171 Clouds 31 1014 84 9656 3.1 90 21:44 10.07.2019
5172 Clouds 31 1014 84 9656 3.1 90 21:26 10.07.2019
5173 Clouds 31 1015 74 9656 1 90 20:54 10.07.2019
5174 Clouds 31 1015 74 9656 1 90 20:36 10.07.2019
5175 Clouds 31 1015 84 9656 1.85 94.882 20:18 10.07.2019
5176 Clouds 31 1015 84 9656 1.85 94.882 19:41 10.07.2019
5177 Clouds 31 1015 84 9656 1.85 94.882 19:21 10.07.2019
5178 Clouds 30 1016 89 9656 1.85 94.882 18:48 10.07.2019
5179 Clouds 30 1016 89 9656 0.62 13.362 18:25 10.07.2019
5180 Clouds 30 1016 84 9656 0.62 13.362 17:51 10.07.2019
5181 Clouds 30 1016 84 9656 0.62 13.362 17:30 10.07.2019
5182 Clouds 28 1015 88 9656 0.62 13.362 16:59 10.07.2019
5183 Clouds 28 1015 88 9656 0.62 13.362 16:22 10.07.2019
5184 Clouds 27 1014 88 8047 0.62 13.362 15:58 10.07.2019
5185 Clouds 27 1014 88 8047 0.62 13.362 15:39 10.07.2019
5186 Clouds 26 1013 79 0 0.89 209 15:18 10.07.2019
5187 Clouds 26 1013 79 0 0.89 209 15:18 10.07.2019
5188 Clouds 25 1014 94 8047 1.14 253.161 14:39 10.07.2019
5189 Clouds 25 1014 94 8047 1.14 253.161 14:19 10.07.2019
5190 Clear 25 1013 94 9656 1.14 253.161 13:41 10.07.2019
5191 Clear 25 1013 94 9656 1.31 272.944 13:19 10.07.2019
5192 Clouds 24 1011 80 0 1.31 272.944 12:42 10.07.2019
5193 Clouds 24 1011 80 0 1.56 280.602 12:22 10.07.2019
5194 Clouds 25 1012 79 0 1.56 280.602 11:51 10.07.2019
5195 Clouds 26 1012 78 0 0.45 209 11:22 10.07.2019
5196 Clouds 26 1012 80 0 0.89 209 10:58 10.07.2019
5197 Clouds 26 1012 81 0 1.56 280.602 10:36 10.07.2019
5198 Clouds 26 1012 81 0 1.56 280.602 10:18 10.07.2019
5199 Clouds 26 1013 81 0 1.34 103 09:41 10.07.2019
5200 Rain 26 1013 80 0 1.38 294.144 09:20 10.07.2019
5201 Clouds 26 1015 100 9656 1.39 282.003 08:49 10.07.2019
5202 Clouds 26 1015 100 9656 1.39 282.003 08:27 10.07.2019
5203 Clouds 26 1016 100 9656 1.39 282.003 07:53 10.07.2019
5204 Clouds 26 1016 100 9656 1.39 282.003 07:24 10.07.2019
5205 Clouds 27 1015 100 9656 1.39 282.003 06:41 10.07.2019
5206 Clouds 27 1015 94 9656 1.14 336.689 05:42 10.07.2019
5207 Clouds 27 1014 100 11265 1.14 336.689 04:34 10.07.2019
5208 Clouds 29 1013 100 9656 2.1 90 02:40 10.07.2019
5209 Clouds 30 1012 70 11265 3.1 120 00:44 10.07.2019
5210 Clouds 31 1013 74 11265 4.6 90 23:57 09.07.2019
5211 Clouds 31 1013 74 11265 4.6 90 23:37 09.07.2019
5212 Clouds 31 1013 74 11265 4.6 90 23:19 09.07.2019
5213 Clouds 31 1014 79 11265 4.1 100 22:40 09.07.2019
5214 Clouds 31 1014 79 11265 4.1 100 22:21 09.07.2019
5215 Clouds 32 1014 70 11265 4.1 110 21:47 09.07.2019
5216 Clouds 32 1014 70 11265 4.1 110 21:26 09.07.2019
5217 Clouds 31 1014 84 9656 2.1 90 20:56 09.07.2019
5218 Clouds 31 1014 84 9656 2.1 90 20:56 09.07.2019
5219 Clouds 31 1014 84 9656 2.1 90 20:36 09.07.2019
5220 Clouds 31 1014 79 9656 1.5 90 20:18 09.07.2019
5221 Clouds 31 1014 79 9656 1.5 90 19:37 09.07.2019
5222 Clouds 30 1014 84 8047 1.7 95.365 19:19 09.07.2019
5223 Clouds 30 1014 84 8047 1.7 95.365 18:39 09.07.2019
5224 Clouds 29 1015 83 8047 0.86 200.04 18:19 09.07.2019
5225 Clouds 29 1015 83 8047 0.86 200.04 17:44 09.07.2019
5226 Clouds 29 1015 83 8047 0.86 200.04 17:22 09.07.2019
5227 Clouds 29 1015 83 8047 0.86 200.04 17:22 09.07.2019
5228 Clouds 27 1015 88 8047 0.86 200.04 16:58 09.07.2019
5229 Clouds 26 1015 88 8047 0.86 200.04 16:40 09.07.2019
5230 Clouds 27 1015 88 8047 0.86 200.04 16:22 09.07.2019
5231 Clouds 26 1014 94 8047 0.86 200.04 15:42 09.07.2019
5232 Rain 25 1014 94 8047 1.27 284.276 15:23 09.07.2019
5233 Rain 25 1014 94 8047 1.27 284.276 14:45 09.07.2019
5234 Clouds 25 1014 94 8047 1.27 284.276 14:23 09.07.2019
5235 Clouds 24 1014 100 8047 2.1 310 13:57 09.07.2019
5236 Clouds 24 1014 100 8047 2.1 310 13:38 09.07.2019
5237 Clouds 24 1014 100 8047 2.1 310 13:19 09.07.2019
5238 Clear 24 1012 80 0 1.34 292 12:39 09.07.2019
5239 Clear 25 1013 80 0 1.95 288.992 12:19 09.07.2019
5240 Clear 25 1013 80 0 1.95 288.992 11:56 09.07.2019
5241 Clear 24 1013 80 0 0.89 279 11:37 09.07.2019
5242 Clear 24 1013 80 0 0.89 279 11:19 09.07.2019
5243 Rain 24 1013 79 0 0.45 279 10:47 09.07.2019
5244 Rain 24 1013 76 0 1.34 289 10:25 09.07.2019
5245 Rain 26 1014 77 0 2.24 81 09:38 09.07.2019
5246 Rain 26 1013 72 0 0.89 260 09:20 09.07.2019
5247 Clouds 28 1014 74 0 1.34 111 08:44 09.07.2019
5248 Clouds 28 1014 73 0 0.89 97 08:19 09.07.2019
5249 Clouds 28 1013 94 11265 3.6 50 03:49 05.07.2019
5250 Clouds 29 1013 94 11265 3.6 50 03:21 05.07.2019
5251 Clouds 30 1013 94 9656 4.1 70 02:52 05.07.2019
5252 Clouds 31 1013 94 9656 4.1 70 02:26 05.07.2019
5253 Clouds 32 1012 75 9656 2.6 100 01:36 05.07.2019
5254 Clouds 32 1013 75 9656 5.1 60 00:52 05.07.2019
5255 Clouds 32 1013 75 9656 5.1 60 00:31 05.07.2019
5256 Clouds 32 1013 70 8047 5.7 60 23:44 04.07.2019
5257 Clouds 32 1013 66 8047 4.1 80 23:19 04.07.2019
5258 Clouds 32 1013 70 8047 5.7 60 23:19 04.07.2019
5259 Clouds 32 1013 66 8047 4.1 80 22:42 04.07.2019
5260 Clouds 32 1013 66 8047 4.1 80 22:23 04.07.2019
5261 Clouds 33 1014 59 8047 1 100 21:45 04.07.2019
5262 Clouds 33 1014 59 8047 1 100 21:26 04.07.2019
5263 Clouds 32 1014 62 8047 1.65 73.63 20:59 04.07.2019
5264 Clouds 32 1014 62 8047 1.65 73.63 20:38 04.07.2019
5265 Clouds 32 1014 70 9656 1.65 73.63 20:20 04.07.2019
5266 Clouds 32 1014 70 9656 1.65 73.63 19:42 04.07.2019
5267 Clouds 32 1014 70 9656 1.65 73.63 19:22 04.07.2019
5268 Clouds 32 1014 70 8047 1.65 73.63 18:56 04.07.2019
5269 Clouds 32 1014 70 8047 1.65 73.63 18:36 04.07.2019
5270 Clouds 31 1014 79 8047 1.09 323.965 18:18 04.07.2019
5271 Clouds 31 1014 79 8047 1.09 323.965 17:42 04.07.2019
5272 Clouds 29 1014 88 9656 2.1 300 17:18 04.07.2019
5273 Clouds 29 1014 88 9656 2.1 300 17:18 04.07.2019
5274 Clouds 26 1014 94 9656 1.5 310 15:55 04.07.2019
5275 Clouds 26 1014 94 9656 1.5 310 15:36 04.07.2019
5276 Clouds 25 1013 94 8047 1.87 284.878 15:18 04.07.2019
5277 Clouds 25 1013 94 8047 1.87 284.878 14:41 04.07.2019
5278 Clouds 25 1013 94 8047 1.87 284.878 14:20 04.07.2019
5279 Clouds 25 1013 94 8047 1.87 284.878 13:57 04.07.2019
5280 Clouds 25 1013 94 8047 1.87 284.878 13:39 04.07.2019
5281 Clouds 25 1013 94 8047 1.85 285.491 13:20 04.07.2019
5282 Clouds 26 1011 80 0 0.89 296 12:40 04.07.2019
5283 Clouds 26 1011 80 0 0.45 296 12:21 04.07.2019
5284 Clouds 26 1011 80 0 0.45 296 11:56 04.07.2019
5285 Clouds 26 1011 80 0 0.45 296 11:37 04.07.2019
5286 Clouds 26 1011 80 0 1.34 296 11:18 04.07.2019
5287 Clouds 26 1011 80 0 0.45 296 10:39 04.07.2019
5288 Clouds 26 1011 80 0 0.45 296 10:18 04.07.2019
5289 Clouds 26 1011 80 0 1.34 295 09:39 04.07.2019
5290 Clouds 26 1011 79 0 0.89 292 09:20 04.07.2019
5291 Clouds 26 1012 78 0 1.34 96 08:54 04.07.2019
5292 Clouds 27 1012 75 0 1.32 276.025 08:19 04.07.2019
5293 Clouds 27 1014 100 11265 1.32 276.025 07:43 04.07.2019
5294 Clouds 27 1014 100 11265 1.32 276.025 07:20 04.07.2019
5295 Clouds 27 1013 100 11265 1.5 70 06:37 04.07.2019
5296 Clouds 27 1013 100 11265 1.5 70 05:47 04.07.2019
5297 Clouds 27 1013 100 11265 1.5 70 05:29 04.07.2019
5298 Clouds 29 1011 89 9656 4.6 70 02:36 04.07.2019
5299 Clouds 31 1011 75 8047 3.6 90 01:28 04.07.2019
5300 Clouds 32 1011 70 9656 4.1 90 00:52 04.07.2019
5301 Clouds 32 1012 70 9656 5.7 80 23:55 03.07.2019
5302 Clouds 32 1012 70 9656 5.7 80 23:55 03.07.2019
5303 Clouds 32 1012 70 9656 5.7 80 23:21 03.07.2019
5304 Clouds 33 1012 63 9656 2.6 90 22:58 03.07.2019
5305 Clouds 33 1012 63 9656 2.6 90 22:39 03.07.2019
5306 Clouds 33 1012 63 9656 2.6 90 22:21 03.07.2019
5307 Clouds 33 1013 59 9656 4.43 57.556 21:56 03.07.2019
5308 Clouds 33 1013 59 9656 4.43 57.556 21:37 03.07.2019
5309 Clouds 34 1013 52 9656 1 70 20:57 03.07.2019
5310 Clouds 34 1013 52 9656 1 70 20:39 03.07.2019
5311 Clouds 33 1013 66 9656 1.5 60 20:19 03.07.2019
5312 Clouds 33 1013 66 9656 1.5 60 19:48 03.07.2019
5313 Clouds 33 1013 66 9656 1.5 60 19:29 03.07.2019
5314 Clouds 31 1014 84 8047 1.54 104.63 18:46 03.07.2019
5315 Clouds 31 1014 84 8047 0.76 197.598 18:24 03.07.2019
5316 Clouds 29 1014 83 8047 0.76 197.598 17:54 03.07.2019
5317 Clouds 29 1014 83 8047 0.76 197.598 17:20 03.07.2019
5318 Clouds 28 1014 88 9656 1.5 80 16:59 03.07.2019
5319 Clouds 28 1014 88 9656 1.5 80 16:40 03.07.2019
5320 Clouds 26 1013 94 8047 0.76 197.598 16:19 03.07.2019
5321 Clouds 26 1013 94 8047 0.76 197.598 15:47 03.07.2019
5322 Clouds 26 1013 94 8047 0.76 197.598 15:27 03.07.2019
5323 Clouds 25 1013 94 8047 0.13 70.408 14:51 03.07.2019
5324 Clouds 25 1013 94 8047 0.13 70.408 14:22 03.07.2019
5325 Clear 25 1012 94 9656 0.13 70.408 13:50 03.07.2019
5326 Clear 25 1012 94 9656 0.32 19.391 13:31 03.07.2019
5327 Clear 25 1012 94 9656 0.32 19.391 12:54 03.07.2019
5328 Clouds 25 1010 82 0 0.45 82 12:20 03.07.2019
5329 Clouds 25 1011 82 0 0.45 82 11:57 03.07.2019
5330 Clouds 25 1011 82 0 0.45 82 11:39 03.07.2019
5331 Clouds 25 1011 81 0 0.45 82 11:19 03.07.2019
5332 Clouds 26 1011 81 0 1.58 283.984 10:40 03.07.2019
5333 Clouds 26 1011 81 0 1.58 283.984 10:21 03.07.2019
5334 Clouds 26 1011 81 0 1.58 283.984 09:42 03.07.2019
5335 Clouds 26 1011 80 0 0.45 82 09:21 03.07.2019
5336 Clouds 26 1011 80 0 1.13 300.509 08:53 03.07.2019
5337 Clouds 26 1012 79 0 0.45 82 08:31 03.07.2019
5338 Clouds 27 1012 77 0 0.45 82 07:51 03.07.2019
5339 Clouds 27 1012 75 0 1.33 312.526 07:33 03.07.2019
5340 Clouds 28 1014 100 9656 1.33 312.526 06:42 03.07.2019
5341 Clouds 28 1013 100 9656 1.26 8.034 05:42 03.07.2019
5342 Clouds 28 1012 100 9656 2.1 30 05:19 03.07.2019
5343 Clouds 28 1012 100 9656 1.5 70 03:30 03.07.2019
5344 Clouds 29 1011 100 9656 3.1 90 02:37 03.07.2019
5345 Clouds 30 1011 79 11265 3.6 80 01:22 03.07.2019
5346 Clouds 31 1011 79 11265 4.1 80 00:55 03.07.2019
5347 Clouds 31 1011 79 11265 4.1 80 00:36 03.07.2019
5348 Clouds 31 1012 79 11265 4.1 70 23:46 02.07.2019
5349 Clouds 32 1010 60 0 4.47 71 23:21 02.07.2019
5350 Clouds 32 1013 70 9656 4.1 90 22:59 02.07.2019
5351 Clouds 32 1013 70 9656 4.1 90 22:40 02.07.2019
5352 Clouds 32 1013 70 9656 4.1 90 22:40 02.07.2019
5353 Clouds 32 1013 70 9656 4.1 90 22:22 02.07.2019
5354 Clouds 32 1014 74 9656 4.1 80 21:47 02.07.2019
5355 Clouds 31 1014 74 9656 4.1 80 21:26 02.07.2019
5356 Clouds 31 1014 74 9656 4.1 80 20:59 02.07.2019
5357 Clouds 32 1014 70 9656 1.48 86.271 20:41 02.07.2019
5358 Clouds 32 1014 70 9656 1.48 86.271 20:22 02.07.2019
5359 Clouds 31 1014 74 9656 3.1 20 19:44 02.07.2019
5360 Clouds 31 1014 74 9656 3.1 20 19:24 02.07.2019
5361 Clouds 31 1014 74 9656 3.1 20 19:24 02.07.2019
5362 Clouds 30 1015 74 9656 1 350 18:59 02.07.2019
5363 Clouds 30 1015 74 9656 1 350 18:37 02.07.2019
5364 Clouds 30 1015 74 9656 1 350 18:18 02.07.2019
5365 Clouds 29 1015 83 8047 1 310 17:37 02.07.2019
5366 Clouds 28 1015 83 8047 1.5 320 17:19 02.07.2019
5367 Clouds 28 1015 83 8047 1.5 320 16:45 02.07.2019
5368 Clouds 28 1015 83 8047 1.5 320 16:26 02.07.2019
5369 Clouds 26 1015 94 8047 1.5 360 15:42 02.07.2019
5370 Clouds 26 1015 94 8047 1.5 360 15:23 02.07.2019
5371 Clouds 25 1013 94 8047 0.39 358.363 14:49 02.07.2019
5372 Clouds 25 1013 94 8047 0.39 358.363 14:28 02.07.2019
5373 Clouds 25 1013 100 9656 0.39 358.363 13:45 02.07.2019
5374 Clouds 25 1013 100 9656 0.58 308.274 13:20 02.07.2019
5375 Clouds 26 1012 80 0 0.45 49 12:45 02.07.2019
5376 Clouds 26 1012 79 0 0.45 49 12:25 02.07.2019
5377 Clouds 26 1012 79 0 0.45 49 11:55 02.07.2019
5378 Clouds 26 1012 80 0 0.89 49 11:37 02.07.2019
5379 Clouds 26 1012 80 0 0.89 49 11:18 02.07.2019
5380 Clouds 26 1012 80 0 0.45 49 10:42 02.07.2019
5381 Clouds 26 1012 80 0 1.59 278.588 10:23 02.07.2019
5382 Clouds 26 1012 80 0 1.59 278.588 10:23 02.07.2019
5383 Clouds 26 1012 79 0 0.45 49 09:43 02.07.2019
5384 Clouds 26 1013 80 0 0.45 49 09:20 02.07.2019
5385 Clouds 26 1014 79 0 0.45 49 08:41 02.07.2019
5386 Clouds 27 1014 77 0 0.63 282.974 08:20 02.07.2019
5387 Clouds 27 1014 77 0 0.63 282.974 07:52 02.07.2019
5388 Clouds 26 1016 83 9656 0.63 282.974 07:20 02.07.2019
5389 Clouds 26 1016 83 9656 0.63 282.974 06:42 02.07.2019
5390 Clouds 26 1015 83 9656 1.07 344.642 05:58 02.07.2019
5391 Clouds 28 1014 78 11265 1 70 03:53 02.07.2019
5392 Clouds 30 1014 83 9656 3.6 70 00:56 02.07.2019
5393 Clouds 30 1014 74 11265 1.5 110 23:46 01.07.2019
5394 Clouds 30 1015 70 11265 2.1 100 23:20 01.07.2019
5395 Clouds 30 1015 70 11265 2.1 100 22:45 01.07.2019
5396 Clouds 30 1015 70 11265 2.1 100 22:26 01.07.2019
5397 Clouds 30 1015 74 11265 1.5 110 21:47 01.07.2019
5398 Clouds 30 1015 74 11265 1.5 110 21:26 01.07.2019
5399 Clouds 30 1015 79 11265 2.6 100 20:51 01.07.2019
5400 Clouds 29 1016 88 11265 2.16 68.445 20:21 01.07.2019
5401 Clouds 29 1016 88 11265 2.16 68.445 19:57 01.07.2019
5402 Clouds 29 1016 88 11265 2.16 68.445 19:39 01.07.2019
5403 Clouds 29 1014 61 0 0.89 60 19:21 01.07.2019
5404 Clouds 28 1016 88 11265 2.16 68.445 18:51 01.07.2019
5405 Clouds 28 1016 88 11265 2.16 68.445 18:29 01.07.2019
5406 Clouds 28 1016 88 11265 0.56 347.259 17:57 01.07.2019
5407 Clouds 28 1016 88 11265 0.56 347.259 17:39 01.07.2019
5408 Clouds 28 1016 88 11265 0.56 347.259 17:19 01.07.2019
5409 Clouds 27 1016 88 9656 0.56 347.259 16:44 01.07.2019
5410 Clouds 27 1016 88 9656 0.56 347.259 16:24 01.07.2019
5411 Clouds 26 1015 94 9656 0.56 347.259 15:46 01.07.2019
5412 Clouds 26 1015 94 9656 0.56 347.259 15:26 01.07.2019
5413 Clouds 25 1015 94 9656 2.6 190 14:45 01.07.2019
5414 Clouds 25 1015 94 9656 2.6 190 14:24 01.07.2019
5415 Clouds 25 1016 100 9656 1.32 280.204 13:55 01.07.2019
5416 Clouds 25 1016 100 9656 1.32 280.204 13:37 01.07.2019
5417 Clouds 25 1016 100 9656 1.17 287.193 13:18 01.07.2019
5418 Clouds 23 1014 82 0 0.45 259 12:39 01.07.2019
5419 Clouds 23 1014 82 0 0.45 259 12:39 01.07.2019
5420 Clouds 23 1014 82 0 0.45 259 12:39 01.07.2019
5421 Clouds 23 1014 82 0 0.45 259 12:20 01.07.2019
5422 Clouds 23 1014 82 0 1.34 274.339 11:56 01.07.2019
5423 Clouds 23 1014 82 0 1.34 274.339 11:56 01.07.2019
5424 Rain 23 1014 82 0 0.45 259 11:37 01.07.2019
5425 Rain 23 1014 82 0 1.34 274.339 11:18 01.07.2019
5426 Rain 23 1014 81 0 1.34 274.339 10:41 01.07.2019
5427 Rain 23 1014 81 0 0.89 259 10:20 01.07.2019
5428 Rain 23 1015 81 0 0.89 263 09:41 01.07.2019
5429 Rain 23 1015 81 0 0.89 327 09:23 01.07.2019
5430 Rain 23 1016 79 0 1.34 217 08:39 01.07.2019
5431 Rain 25 1018 83 11265 1 300 08:21 01.07.2019
5432 Rain 25 1018 83 11265 1 300 07:33 01.07.2019
5433 Clouds 26 1017 83 11265 1 340 06:41 01.07.2019
5434 Clouds 27 1016 83 11265 2.6 360 04:31 01.07.2019
5435 Clouds 29 1014 79 11265 5.1 70 00:53 01.07.2019
5436 Clouds 29 1014 79 11265 5.1 70 00:30 01.07.2019
5437 Clouds 29 1014 79 11265 5.1 70 23:58 30.06.2019
5438 Clouds 30 1014 79 11265 5.1 70 23:23 30.06.2019
5439 Clouds 29 1015 79 11265 3.6 90 22:53 30.06.2019
5440 Clouds 30 1015 79 11265 3.6 90 22:22 30.06.2019
5441 Clouds 30 1015 74 11265 5.1 70 21:48 30.06.2019
5442 Clouds 30 1015 74 11265 5.1 70 21:30 30.06.2019
5443 Clouds 30 1016 62 11265 2.6 70 20:59 30.06.2019
5444 Clouds 30 1016 62 11265 2.6 70 20:40 30.06.2019
5445 Clouds 30 1016 62 11265 2.6 70 20:21 30.06.2019
5446 Clouds 30 1016 66 11265 1 110 19:47 30.06.2019
5447 Clouds 30 1016 66 11265 1 110 19:25 30.06.2019
5448 Clouds 30 1016 70 9656 2.06 64.407 18:47 30.06.2019
5449 Clouds 30 1016 70 9656 0.95 300.334 18:21 30.06.2019
5450 Clouds 28 1017 94 9656 1.5 300 17:40 30.06.2019
5451 Clouds 28 1017 94 9656 1.5 300 17:19 30.06.2019
5452 Clouds 26 1017 94 9656 0.95 300.334 16:52 30.06.2019
5453 Clouds 26 1017 94 9656 0.95 300.334 16:32 30.06.2019
5454 Clouds 24 1017 94 9656 0.95 300.334 15:39 30.06.2019
5455 Clouds 23 1017 94 9656 1.55 288.202 15:19 30.06.2019
5456 Clouds 22 1017 94 8047 1.55 288.202 14:57 30.06.2019
5457 Clouds 22 1017 94 8047 1.55 288.202 14:38 30.06.2019
5458 Clouds 23 1016 100 8047 1.55 288.202 13:57 30.06.2019
5459 Clouds 23 1016 100 8047 1.55 288.202 13:38 30.06.2019
5460 Clouds 23 1016 100 8047 1.63 284.616 13:19 30.06.2019
5461 Clear 23 1014 75 0 0.89 291 12:45 30.06.2019
5462 Clear 23 1014 75 0 0.89 291 12:45 30.06.2019
5463 Clear 23 1014 76 0 0.89 291 12:23 30.06.2019
5464 Clear 23 1015 77 0 1.36 285.544 11:47 30.06.2019
5465 Clear 24 1015 77 0 0.45 291 11:22 30.06.2019
5466 Clear 24 1015 75 0 0.45 291 10:56 30.06.2019
5467 Clear 24 1015 74 0 0.89 291 10:37 30.06.2019
5468 Clear 24 1015 73 0 0.45 291 10:18 30.06.2019
5469 Clear 24 1016 75 0 1.34 291 09:43 30.06.2019
5470 Clear 23 1016 77 0 1.34 271 09:22 30.06.2019
5471 Rain 23 1016 78 0 0.89 271 08:47 30.06.2019
5472 Rain 24 1016 78 0 1.79 275 08:27 30.06.2019
5473 Rain 24 1017 77 0 1.34 5 07:54 30.06.2019
5474 Rain 25 1017 73 0 0.45 15 07:27 30.06.2019
5475 Clear 25 1018 94 9656 1.67 272.823 06:40 30.06.2019
5476 Clear 26 1017 94 9656 2.1 360 04:56 30.06.2019
5477 Clouds 28 1016 69 9656 3.1 10 02:41 30.06.2019
5478 Clouds 29 1016 66 9656 2.6 10 01:24 30.06.2019
5479 Clouds 29 1016 70 9656 5.1 10 00:26 30.06.2019
5480 Clouds 29 1016 70 9656 5.1 10 00:26 30.06.2019
5481 Clouds 29 1016 74 11265 5.38 50.999 23:53 29.06.2019
5482 Clouds 28 1016 74 11265 5.38 50.999 23:24 29.06.2019
5483 Clouds 28 1017 74 11265 3.1 10 22:55 29.06.2019
5484 Clouds 28 1017 74 11265 3.1 10 22:25 29.06.2019
5485 Clouds 28 1018 69 11265 4.6 10 21:57 29.06.2019
5486 Clouds 28 1018 69 11265 4.6 10 21:57 29.06.2019
5487 Clouds 28 1018 69 11265 4.6 10 21:39 29.06.2019
5488 Clouds 28 1018 69 11265 4.6 10 21:20 29.06.2019
5489 Clouds 29 1018 62 11265 2.1 360 20:40 29.06.2019
5490 Clouds 29 1018 62 11265 2.1 360 20:21 29.06.2019
5491 Clouds 28 1019 88 11265 2.6 40 19:43 29.06.2019
5492 Clouds 28 1019 88 11265 2.6 40 19:23 29.06.2019
5493 Clouds 26 1019 78 11265 3.1 340 18:48 29.06.2019
5494 Rain 26 1019 78 11265 3.1 340 18:25 29.06.2019
5495 Rain 25 1019 83 8047 2.6 320 17:40 29.06.2019
5496 Clouds 24 1019 83 8047 2.6 320 17:22 29.06.2019
5497 Clouds 23 1018 94 6437 4.6 340 16:51 29.06.2019
5498 Clouds 23 1018 94 6437 4.6 340 16:28 29.06.2019
5499 Rain 22 1019 100 4828 1.5 340 15:37 29.06.2019
5500 Rain 21 1019 100 4828 1.5 340 15:19 29.06.2019
5501 Rain 22 1019 100 4828 2.01 286.428 14:41 29.06.2019
5502 Rain 22 1019 100 4828 2.01 286.428 14:23 29.06.2019
5503 Rain 22 1018 100 9656 2.1 100 13:44 29.06.2019
5504 Rain 22 1018 100 9656 2.1 100 13:26 29.06.2019
5505 Rain 22 1018 100 9656 2.1 100 12:45 29.06.2019
5506 Rain 23 1015 82 0 1.8 284.523 12:26 29.06.2019
5507 Rain 24 1015 82 0 1.55 287.257 11:51 29.06.2019
5508 Rain 24 1015 82 0 1.55 287.257 11:30 29.06.2019
5509 Rain 24 1015 80 0 0.89 298 10:53 29.06.2019
5510 Rain 24 1015 80 0 0.89 298 10:32 29.06.2019
5511 Rain 24 1015 80 0 0.45 274 09:58 29.06.2019
5512 Rain 24 1016 80 0 0.89 272 09:36 29.06.2019
5513 Rain 24 1017 80 0 1.73 284.286 08:41 29.06.2019
5514 Clear 24 1019 100 11265 1.73 284.286 07:46 29.06.2019
5515 Clear 24 1019 100 11265 1.73 284.286 07:21 29.06.2019
5516 Clear 24 1018 100 11265 1.73 284.286 06:43 29.06.2019
5517 Clear 25 1018 100 11265 1.69 346.777 06:21 29.06.2019
5518 Clouds 28 1016 94 11265 2.6 10 02:30 29.06.2019
5519 Clouds 28 1015 88 11265 7.7 220 00:57 29.06.2019
5520 Clouds 29 1015 88 11265 7.7 220 00:23 29.06.2019
5521 Clouds 31 1016 70 11265 3.6 20 23:26 28.06.2019
5522 Clouds 31 1017 70 11265 5.1 30 22:53 28.06.2019
5523 Clouds 31 1017 70 11265 5.1 30 22:33 28.06.2019
5524 Clouds 31 1017 66 11265 6.2 10 21:47 28.06.2019
5525 Clouds 30 1017 66 11265 6.2 10 21:21 28.06.2019
5526 Clouds 31 1018 84 11265 6.2 30 20:46 28.06.2019
5527 Clouds 30 1018 84 11265 6.2 30 20:26 28.06.2019
5528 Clouds 30 1018 74 11265 5.7 30 19:53 28.06.2019
5529 Clouds 30 1018 74 11265 5.7 30 19:28 28.06.2019
5530 Clouds 28 1018 94 9656 6.2 30 18:56 28.06.2019
5531 Clouds 26 1018 94 9656 6.2 30 18:38 28.06.2019
5532 Clouds 27 1018 94 9656 6.2 30 18:20 28.06.2019
5533 Clouds 28 1018 94 11265 4.1 10 17:29 28.06.2019
5534 Clouds 28 1018 94 11265 2.6 360 16:50 28.06.2019
5535 Clouds 28 1018 94 11265 2.6 360 16:27 28.06.2019
5536 Clouds 26 1017 100 11265 1.55 351.374 15:48 28.06.2019
5537 Clouds 25 1017 100 11265 1.68 288.51 15:23 28.06.2019
5538 Clouds 23 1017 100 11265 1.68 288.51 14:45 28.06.2019
5539 Clouds 22 1017 100 11265 1.68 288.51 14:23 28.06.2019
5540 Clouds 22 1017 100 9656 1.68 288.51 13:58 28.06.2019
5541 Clouds 22 1017 100 9656 1.68 288.51 13:58 28.06.2019
5542 Clouds 22 1017 100 9656 1.68 288.51 13:39 28.06.2019
5543 Clouds 22 1017 100 9656 1.68 289.858 13:19 28.06.2019
5544 Rain 22 1015 78 0 0.45 267 12:45 28.06.2019
5545 Rain 23 1015 77 0 2.24 264 11:54 28.06.2019
5546 Rain 23 1016 79 0 2.68 173 11:25 28.06.2019
5547 Rain 23 1016 79 0 1.85 277.836 10:46 28.06.2019
5548 Rain 23 1016 79 0 0.45 293 10:21 28.06.2019
5549 Rain 24 1016 79 0 0.45 293 09:49 28.06.2019
5550 Rain 24 1016 79 0 0.45 293 09:29 28.06.2019
5551 Rain 24 1016 79 0 1.34 293 08:47 28.06.2019
5552 Rain 24 1017 79 0 0.89 309 08:26 28.06.2019
5553 Clear 24 1019 100 11265 1.5 340 07:47 28.06.2019
5554 Clear 25 1019 100 11265 1.5 340 07:28 28.06.2019
5555 Clouds 25 1019 94 11265 1.5 340 06:21 28.06.2019
5556 Clouds 28 1015 88 11265 5.1 10 01:23 28.06.2019
5557 Clouds 28 1015 100 11265 2.6 60 00:42 28.06.2019
5558 Clouds 28 1016 94 11265 3.6 60 23:51 27.06.2019
5559 Clouds 28 1016 94 11265 3.6 60 23:26 27.06.2019
5560 Clouds 26 1016 100 11265 2.6 60 22:56 27.06.2019
5561 Clouds 26 1016 100 11265 2.6 60 22:37 27.06.2019
5562 Clouds 26 1016 100 11265 2.6 60 22:18 27.06.2019
5563 Clouds 25 1016 100 11265 4.37 48.926 21:48 27.06.2019
5564 Clouds 25 1016 100 11265 4.37 48.926 21:29 27.06.2019
5565 Clouds 25 1017 100 11265 2.43 45.902 20:55 27.06.2019
5566 Clouds 25 1017 100 11265 2.43 45.902 20:37 27.06.2019
5567 Clouds 25 1017 100 11265 2.43 45.902 20:19 27.06.2019
5568 Clouds 26 1018 94 9656 2.43 45.902 19:44 27.06.2019
5569 Clouds 26 1018 94 9656 2.43 45.902 19:24 27.06.2019
5570 Clouds 25 1019 100 9656 2.43 45.902 18:43 27.06.2019
5571 Rain 25 1019 100 9656 1.36 287.741 18:20 27.06.2019
5572 Rain 25 1018 100 9656 1.5 10 17:43 27.06.2019
5573 Clouds 25 1018 100 9656 1.5 10 17:22 27.06.2019
5574 Clouds 25 1018 94 8047 1.5 300 16:40 27.06.2019
5575 Rain 25 1018 94 8047 1.5 300 16:20 27.06.2019
5576 Rain 25 1018 94 8047 2.6 320 15:55 27.06.2019
5577 Rain 25 1018 94 8047 2.6 320 15:36 27.06.2019
5578 Rain 25 1018 94 8047 2.6 320 15:36 27.06.2019
5579 Clouds 23 1017 100 8047 2.6 320 14:58 27.06.2019
5580 Clouds 23 1017 100 8047 2.6 320 14:39 27.06.2019
5581 Clouds 23 1017 100 8047 2.6 320 14:19 27.06.2019
5582 Thunderstorm 23 1016 100 8047 1.5 310 13:43 27.06.2019
5583 Rain 24 1016 100 8047 1.5 310 13:25 27.06.2019
5584 Rain 23 1015 81 0 1.34 333 12:49 27.06.2019
5585 Rain 23 1015 81 0 1.34 333 12:49 27.06.2019
5586 Rain 23 1015 81 0 1.34 333 12:28 27.06.2019
5587 Rain 23 1015 80 0 2.68 68 11:47 27.06.2019
5588 Rain 24 1015 81 0 2.24 74 11:24 27.06.2019
5589 Rain 23 1015 80 0 0.45 188 10:58 27.06.2019
5590 Rain 23 1015 80 0 0.45 188 10:40 27.06.2019
5591 Rain 24 1014 79 0 0.45 282 10:19 27.06.2019
5592 Rain 24 1015 76 0 3.58 306 09:40 27.06.2019
5593 Rain 24 1015 76 0 3.58 306 09:20 27.06.2019
5594 Rain 26 1015 77 0 3.13 324 08:48 27.06.2019
5595 Clouds 26 1015 67 0 2.68 288 08:27 27.06.2019
5596 Clouds 26 1015 67 0 2.68 288 07:45 27.06.2019
5597 Clouds 28 1016 100 11265 2.1 10 06:57 27.06.2019
5598 Clouds 28 1016 100 11265 2.1 10 06:30 27.06.2019
5599 Clouds 28 1014 100 9656 5.1 40 03:51 27.06.2019
5600 Clouds 29 1013 94 11265 3.6 60 02:42 27.06.2019
5601 Clouds 29 1012 83 9656 5.1 80 01:26 27.06.2019
5602 Clouds 30 1013 74 11265 3.6 80 00:49 27.06.2019
5603 Clouds 30 1013 74 11265 3.6 80 00:26 27.06.2019
5604 Clouds 31 1013 79 9656 5.7 80 23:48 26.06.2019
5605 Clouds 31 1013 79 9656 5.7 80 23:23 26.06.2019
5606 Rain 32 1014 75 9656 4.1 70 22:57 26.06.2019
5607 Rain 32 1014 75 9656 4.1 70 22:39 26.06.2019
5608 Clouds 33 1014 75 9656 4.1 70 22:19 26.06.2019
5609 Clouds 33 1014 59 9656 4.1 70 21:42 26.06.2019
5610 Clouds 33 1014 59 9656 4.1 70 21:20 26.06.2019
5611 Clouds 33 1014 59 9656 1.5 60 20:55 26.06.2019
5612 Clouds 33 1014 59 9656 1.5 60 20:37 26.06.2019
5613 Clouds 33 1014 59 9656 1.5 60 20:18 26.06.2019
5614 Clouds 33 1015 59 8047 1.69 38.543 19:41 26.06.2019
5615 Clouds 33 1015 59 8047 1.69 38.543 19:22 26.06.2019
5616 Clouds 31 1015 89 8047 1.69 38.543 18:45 26.06.2019
5617 Clouds 30 1015 89 8047 1.61 332.561 18:22 26.06.2019
5618 Mist 29 1015 100 8047 1.61 332.561 17:57 26.06.2019
5619 Mist 29 1015 100 8047 1.61 332.561 17:28 26.06.2019
5620 Clouds 27 1015 94 8047 1.61 332.561 16:53 26.06.2019
5621 Clouds 27 1015 94 8047 1.61 332.561 16:31 26.06.2019
5622 Clouds 26 1014 94 8047 1.61 332.561 15:58 26.06.2019
5623 Clouds 26 1014 94 8047 1.61 332.561 15:30 26.06.2019
5624 Clouds 25 1014 100 8047 3.1 360 14:58 26.06.2019
5625 -273 0 0 0 0 0 14:37 26.06.2019
5626 Clouds 25 1014 100 8047 3.1 360 14:37 26.06.2019
5627 Clouds 25 1014 100 8047 3.1 360 14:19 26.06.2019
5628 Thunderstorm 25 1013 100 8047 2.1 10 13:41 26.06.2019
5629 Rain 25 1013 100 8047 2.1 10 13:19 26.06.2019
5630 Rain 24 1010 81 0 0.89 300 12:41 26.06.2019
5631 Rain 24 1010 81 0 0.89 300 12:41 26.06.2019
5632 Rain 24 1010 80 0 1.34 275 12:21 26.06.2019
5633 Rain 24 1012 78 0 1.79 360 11:42 26.06.2019
5634 Rain 27 1012 70 0 4.02 152 11:19 26.06.2019
5635 Rain 27 1012 75 0 2.68 194 10:41 26.06.2019
5636 Rain 28 1012 75 0 0.45 327 10:21 26.06.2019
5637 Rain 28 1011 75 0 1.34 327 09:37 26.06.2019
5638 Rain 28 1012 75 0 0.89 59 09:18 26.06.2019
5639 Rain 28 1012 74 0 1.69 317.849 08:39 26.06.2019
5640 Clouds 29 1014 100 11265 2.6 70 08:19 26.06.2019
5641 Clouds 29 1014 100 11265 2.6 70 07:43 26.06.2019
5642 Clouds 29 1013 100 11265 2.6 50 06:34 26.06.2019
5643 Clouds 29 1011 100 9656 3.6 70 03:52 26.06.2019
5644 Clouds 32 1009 70 11265 6.2 50 00:45 26.06.2019
5645 Clouds 32 1009 70 11265 6.2 50 00:19 26.06.2019
5646 Clouds 33 1010 63 9656 5.1 70 23:39 25.06.2019
5647 Clouds 33 1010 63 9656 5.1 70 23:20 25.06.2019
5648 Clouds 33 1011 66 9656 3.1 20 22:43 25.06.2019
5649 Clouds 33 1011 66 9656 3.1 20 22:24 25.06.2019
5650 Clouds 33 1011 55 9656 1 120 21:51 25.06.2019
5651 Clouds 33 1011 55 9656 1 120 21:28 25.06.2019
5652 Clouds 33 1012 55 9656 1.5 130 20:59 25.06.2019
5653 Clouds 33 1012 55 9656 1.5 130 20:37 25.06.2019
5654 Clouds 33 1012 55 9656 1.5 130 20:37 25.06.2019
5655 Clouds 33 1012 55 9656 1.5 130 20:19 25.06.2019
5656 Clouds 33 1013 52 9656 2.6 150 19:45 25.06.2019
5657 Clouds 33 1013 52 9656 2.6 150 19:22 25.06.2019
5658 Clouds 32 1012 62 9656 3.09 86.108 18:43 25.06.2019
5659 Clouds 32 1012 62 9656 1.06 338.601 18:25 25.06.2019
5660 Clouds 32 1012 62 9656 1.06 338.601 18:24 25.06.2019
5661 -273 0 0 0 0 0 17:49 25.06.2019
5662 -273 0 0 0 0 0 17:49 25.06.2019
5663 -273 0 0 0 0 0 17:28 25.06.2019
5664 -273 0 0 0 0 0 17:28 25.06.2019
5665 Clouds 29 1011 94 8047 1.06 338.601 16:55 25.06.2019
5666 Clouds 29 1011 94 8047 1.06 338.601 16:55 25.06.2019
5667 Clouds 28 1011 94 8047 1.06 338.601 16:37 25.06.2019
5668 Clouds 29 1011 94 8047 1.06 338.601 16:18 25.06.2019
5669 Clouds 27 1011 94 9656 1.06 338.601 15:39 25.06.2019
5670 Clouds 27 1011 94 9656 1.25 83.234 15:20 25.06.2019
5671 Clouds 27 1011 94 9656 1.25 83.234 15:20 25.06.2019
5672 Clouds 26 1010 94 9656 1.25 83.234 14:50 25.06.2019
5673 Clouds 25 1010 94 9656 1.25 83.234 14:31 25.06.2019
5674 Clouds 26 1010 94 8047 1.25 83.234 13:43 25.06.2019
5675 Clouds 26 1010 94 8047 1.09 58.523 13:24 25.06.2019
5676 Clouds 25 1008 72 0 0.45 139 12:43 25.06.2019
5677 Clouds 25 1008 73 0 0.45 139 12:24 25.06.2019
5678 Clouds 25 1008 73 0 0.45 139 12:24 25.06.2019
5679 Clouds 24 1008 75 0 1.37 308.81 11:46 25.06.2019
5680 Clouds 26 1008 72 0 1.37 308.81 11:25 25.06.2019
5681 Clouds 26 1008 72 0 0.45 111 10:58 25.06.2019
5682 -273 0 0 0 0 0 10:57 25.06.2019
5683 Clouds 27 1008 72 0 0.45 111 10:37 25.06.2019
5684 Clouds 26 1008 75 0 1.37 308.81 10:18 25.06.2019
5685 Clouds 27 1008 76 0 1.37 308.81 09:39 25.06.2019
5686 Clouds 27 1008 75 0 2.05 324.394 09:21 25.06.2019
5687 Clouds 28 1009 75 0 2.05 324.394 08:52 25.06.2019
5688 Clouds 28 1009 76 0 2.05 324.394 08:31 25.06.2019
5689 Rain 28 1009 77 0 0.89 111 07:44 25.06.2019
5690 Rain 28 1009 77 0 0.89 111 07:25 25.06.2019
5691 Clouds 29 1010 79 9656 2.1 100 06:44 25.06.2019
5692 Clouds 29 1009 79 9656 2.6 90 05:56 25.06.2019
5693 Clouds 31 1007 79 9656 1.5 110 02:43 25.06.2019
5694 Clouds 32 1007 59 9656 2.6 100 00:38 25.06.2019
5695 Clouds 32 1007 59 9656 2.6 100 00:19 25.06.2019
5696 Clouds 34 1007 50 11265 4.1 100 23:51 24.06.2019
5697 Clouds 34 1007 50 11265 4.1 100 23:32 24.06.2019
5698 Clouds 36 1008 42 11265 2.1 150 22:46 24.06.2019
5699 Clouds 37 1008 42 11265 2.1 150 22:20 24.06.2019
5700 Clouds 36 1009 53 11265 2.1 120 21:54 24.06.2019
5701 Clouds 36 1009 53 11265 2.1 120 21:36 24.06.2019
5702 Clouds 36 1009 53 11265 2.1 120 21:18 24.06.2019
5703 Clouds 35 1010 56 9656 3.6 170 20:42 24.06.2019
5704 Clouds 35 1010 56 9656 3.6 170 20:22 24.06.2019
5705 Clear 33 1010 70 9656 2.6 190 19:48 24.06.2019
5706 Clear 33 1010 70 9656 2.6 190 19:26 24.06.2019
5707 Clear 31 1011 89 9656 2.6 160 18:54 24.06.2019
5708 Clear 31 1011 89 9656 2.6 160 18:31 24.06.2019
5709 Clouds 30 1011 94 9656 4.6 170 17:59 24.06.2019
5710 Clouds 30 1011 94 9656 4.6 170 17:37 24.06.2019
5711 Clouds 28 1010 88 9656 3.1 170 16:56 24.06.2019
5712 Clouds 28 1010 88 9656 3.1 170 16:37 24.06.2019
5713 Clouds 28 1010 88 9656 3.1 170 16:19 24.06.2019
5714 Clouds 26 1010 94 9656 1.5 180 15:40 24.06.2019
5715 Clouds 26 1010 94 9656 1.5 180 15:21 24.06.2019
5716 Clouds 27 1009 88 8047 1.5 190 14:35 24.06.2019
5717 Clouds 26 1009 94 9656 1.5 190 13:56 24.06.2019
5718 Clouds 26 1009 94 9656 1.5 190 13:32 24.06.2019
5719 Clouds 24 1012 90 0 0.99 285.077 12:46 24.06.2019
5720 Clouds 25 1012 89 0 0.46 278.326 12:26 24.06.2019
5721 Clouds 25 1012 89 0 0.46 278.326 11:59 24.06.2019
5722 Clouds 25 1012 89 0 0.46 278.326 11:40 24.06.2019
5723 Clouds 25 1012 89 0 0.46 278.326 11:21 24.06.2019
5724 Clouds 25 1012 89 0 0.46 278.326 10:50 24.06.2019
5725 Clouds 25 1012 89 0 0.46 278.326 10:28 24.06.2019
5726 Clouds 25 1012 89 0 0.46 278.326 09:49 24.06.2019
5727 Clouds 25 1012 89 0 0.46 278.326 09:49 24.06.2019
5728 Rain 25 1013 90 0 1.19 292.694 09:23 24.06.2019
5729 Rain 25 1013 90 0 1.19 292.694 08:52 24.06.2019
5730 Rain 26 1013 90 0 0.67 227.426 08:26 24.06.2019
5731 Clouds 29 1012 79 11265 0.67 227.426 07:47 24.06.2019
5732 Clouds 29 1012 79 11265 0.67 227.426 07:26 24.06.2019
5733 Clouds 29 1011 79 11265 1.5 70 06:49 24.06.2019
5734 Clouds 29 1011 79 11265 1.5 70 06:21 24.06.2019
5735 Clouds 29 1011 79 11265 1.56 19.365 05:27 24.06.2019
5736 Clouds 30 1010 79 11265 1.56 19.365 04:25 24.06.2019
5737 Clouds 30 1009 94 11265 2.6 80 03:23 24.06.2019
5738 Clouds 30 1008 84 11265 2.1 80 02:32 24.06.2019
5739 Clouds 31 1008 79 11265 3.6 100 01:53 24.06.2019
5740 Clouds 31 1008 79 11265 3.6 100 01:22 24.06.2019
5741 Clouds 32 1008 70 11265 2.6 100 00:40 24.06.2019
5742 Clouds 32 1008 70 11265 2.6 100 00:19 24.06.2019
5743 Clouds 32 1009 79 11265 5.1 100 23:44 23.06.2019
5744 Clouds 32 1009 79 11265 5.1 100 23:23 23.06.2019
5745 Clouds 32 1010 75 11265 4.1 90 22:43 23.06.2019
5746 Clouds 32 1010 75 11265 4.1 90 22:21 23.06.2019
5747 Clouds 33 1011 66 11265 4.1 110 21:56 23.06.2019
5748 Clouds 33 1011 66 11265 4.1 110 21:36 23.06.2019
5749 Clouds 33 1011 66 11265 4.1 110 21:18 23.06.2019
5750 Clouds 33 1011 66 11265 1.5 120 20:41 23.06.2019
5751 Clouds 33 1011 66 11265 1.5 120 20:22 23.06.2019
5752 Clouds 33 1012 63 11265 2.83 107.755 19:44 23.06.2019
5753 Clouds 33 1012 63 11265 2.83 107.755 19:21 23.06.2019
5754 Clouds 33 1012 70 8047 2.1 160 18:54 23.06.2019
5755 Clouds 33 1012 70 8047 2.1 160 18:24 23.06.2019
5756 Clouds 33 1012 70 9656 1.5 150 17:51 23.06.2019
5757 Clouds 33 1012 70 9656 1.5 150 17:26 23.06.2019
5758 Clouds 29 1012 83 8047 1.46 91.569 16:55 23.06.2019
5759 Clouds 29 1012 83 8047 1.46 91.569 16:37 23.06.2019
5760 Clouds 29 1012 83 8047 1.46 91.569 16:18 23.06.2019
5761 Clouds 27 1012 88 8047 1.46 91.569 15:40 23.06.2019
5762 Clouds 27 1012 88 8047 1.04 282.091 15:21 23.06.2019
5763 Clouds 26 1011 94 9656 1.04 282.091 14:41 23.06.2019
5764 Clouds 26 1011 94 9656 1.04 282.091 14:22 23.06.2019
5765 Clouds 26 1011 94 8047 1.04 282.091 13:58 23.06.2019
5766 Clouds 26 1011 94 8047 1.04 282.091 13:39 23.06.2019
5767 Clouds 26 1011 94 8047 0.99 293.336 13:19 23.06.2019
5768 Clouds 25 1013 88 0 0.99 293.336 12:43 23.06.2019
5769 Clouds 26 1013 88 0 0.81 300.062 12:21 23.06.2019
5770 Clouds 26 1013 88 0 0.81 300.062 11:55 23.06.2019
5771 Clouds 26 1013 88 0 0.81 300.062 11:36 23.06.2019
5772 Clouds 26 1013 88 0 0.81 300.062 11:18 23.06.2019
5773 Clouds 26 1013 88 0 0.81 300.062 10:41 23.06.2019
5774 Clouds 26 1013 88 0 0.81 300.062 10:18 23.06.2019
5775 Clouds 26 1013 88 0 0.81 300.062 09:39 23.06.2019
5776 Rain 26 1014 90 0 1 287.474 09:19 23.06.2019
5777 Rain 26 1014 90 0 1 287.474 08:42 23.06.2019
5778 Rain 26 1014 91 0 1.26 209.445 08:24 23.06.2019
5779 Rain 26 1014 91 0 1.26 209.445 07:52 23.06.2019
5780 Rain 26 1014 91 0 1.26 209.445 07:20 23.06.2019
5781 Clouds 29 1013 100 11265 1.26 209.445 06:53 23.06.2019
5782 Clouds 30 1012 100 11265 1.64 336.108 05:54 23.06.2019
5783 Clouds 30 1010 94 9656 2.6 90 03:41 23.06.2019
5784 Clouds 32 1009 84 8047 3.1 90 01:52 23.06.2019
5785 Clouds 32 1009 84 8047 3.1 90 01:33 23.06.2019
5786 Clouds 32 1009 79 9656 5.1 90 00:34 23.06.2019
5787 Clouds 32 1010 75 9656 2.6 110 23:53 22.06.2019
5788 Clouds 32 1010 75 9656 2.6 110 23:27 22.06.2019
5789 Clouds 33 1011 66 9656 3.1 90 22:49 22.06.2019
5790 Clouds 33 1011 66 9656 3.1 90 22:29 22.06.2019
5791 Clouds 33 1011 70 9656 1.5 120 21:59 22.06.2019
5792 Clouds 33 1011 70 9656 1.5 120 21:37 22.06.2019
5793 Clouds 33 1011 70 9656 1.5 120 21:18 22.06.2019
5794 Clouds 32 1012 84 8047 3.1 110 20:48 22.06.2019
5795 Clouds 32 1012 84 8047 3.1 110 20:25 22.06.2019
5796 Clouds 32 1012 89 8047 1.34 71.552 19:46 22.06.2019
5797 Clouds 32 1012 89 8047 1.34 71.552 19:22 22.06.2019
5798 Clouds 35 1013 42 0 1.34 71.552 18:48 22.06.2019
5799 Clouds 35 1013 42 0 1.34 71.552 18:30 22.06.2019
5800 Clouds 30 1013 79 6437 1 150 17:56 22.06.2019
5801 Clouds 30 1013 79 6437 1 150 17:33 22.06.2019
5802 Clouds 29 1012 83 6437 0.52 307.71 16:50 22.06.2019
5803 Clouds 29 1012 83 6437 0.52 307.71 16:24 22.06.2019
5804 Mist 28 1012 83 6437 0.52 307.71 15:55 22.06.2019
5805 Mist 28 1012 83 6437 0.52 307.71 15:34 22.06.2019
5806 Mist 28 1012 88 3219 1.91 239.047 14:58 22.06.2019
5807 Mist 28 1012 88 3219 1.91 239.047 14:34 22.06.2019
5808 Clouds 28 1011 94 8047 1.91 239.047 13:59 22.06.2019
5809 Clouds 28 1011 94 8047 1.91 239.047 13:40 22.06.2019
5810 Clouds 28 1011 94 8047 1.68 286.964 13:19 22.06.2019
5811 Rain 25 1014 93 0 1.68 286.964 12:50 22.06.2019
5812 Rain 25 1014 93 0 1.68 286.964 12:31 22.06.2019
5813 Clouds 26 1013 90 0 0.87 288.018 11:57 22.06.2019
5814 Clouds 26 1013 90 0 0.87 288.018 11:31 22.06.2019
5815 Clouds 26 1013 90 0 0.87 288.018 10:48 22.06.2019
5816 Clouds 26 1013 90 0 0.87 288.018 10:19 22.06.2019
5817 Clouds 26 1013 90 0 0.87 288.018 09:46 22.06.2019
5818 Clouds 26 1014 90 0 1.73 313.294 09:18 22.06.2019
5819 Clouds 25 1014 92 0 1.82 315.022 08:41 22.06.2019
5820 Clouds 25 1014 92 0 1.82 315.022 08:19 22.06.2019
5821 Clouds 25 1014 92 0 1.82 315.022 07:30 22.06.2019
5822 Clouds 28 1012 100 9656 1.82 315.022 06:47 22.06.2019
5823 Clouds 29 1011 100 9656 1.5 350.757 04:53 22.06.2019
5824 Clouds 30 1009 94 8047 4.1 90 02:32 22.06.2019
5825 Clouds 32 1009 84 9656 3.1 90 00:59 22.06.2019
5826 Clouds 32 1009 84 9656 3.1 90 00:35 22.06.2019
5827 Clouds 33 1009 79 9656 1.5 120 23:59 21.06.2019
5828 Clouds 33 1009 79 9656 1.5 120 23:37 21.06.2019
5829 Clouds 33 1009 79 9656 1.5 120 23:19 21.06.2019
5830 Clouds 34 1010 71 8047 1.5 110 22:41 21.06.2019
5831 Clouds 34 1010 71 8047 1.5 110 22:22 21.06.2019
5832 Clouds 33 1011 70 8047 4.1 90 21:40 21.06.2019
5833 Clouds 33 1011 70 8047 4.1 90 21:22 21.06.2019
5834 Clouds 34 1012 71 8047 5.1 70 20:53 21.06.2019
5835 Clouds 34 1012 71 8047 5.1 70 20:27 21.06.2019
5836 Clouds 33 1012 70 8047 5.1 60 19:55 21.06.2019
5837 Clouds 33 1012 70 8047 5.1 60 19:23 21.06.2019
5838 Clouds 33 1012 70 8047 1.96 85.474 18:43 21.06.2019
5839 Clouds 33 1012 70 8047 1.96 85.474 18:43 21.06.2019
5840 Clouds 33 1012 70 8047 0.3 120.798 18:25 21.06.2019
5841 Clouds 32 1012 84 8047 0.3 120.798 17:41 21.06.2019
5842 Clouds 32 1012 84 8047 0.3 120.798 17:23 21.06.2019
5843 Mist 29 1012 100 9656 0.3 120.798 16:38 21.06.2019
5844 Mist 29 1012 100 9656 0.3 120.798 16:19 21.06.2019
5845 Mist 27 1012 100 8047 0.3 120.798 15:39 21.06.2019
5846 Mist 27 1012 100 8047 1.67 277.731 15:18 21.06.2019
5847 Mist 26 1011 100 6437 1.67 277.731 14:44 21.06.2019
5848 Mist 26 1011 100 6437 1.67 277.731 14:24 21.06.2019
5849 Clouds 26 1010 100 9656 1.67 277.731 13:42 21.06.2019
5850 Clouds 26 1010 100 9656 1.61 283.976 13:23 21.06.2019
5851 Clouds 25 1013 84 0 1.61 283.976 12:54 21.06.2019
5852 Clear 25 1012 91 0 1.03 273.065 12:23 21.06.2019
5853 Clear 25 1012 91 0 1.03 273.065 11:58 21.06.2019
5854 Clear 25 1012 91 0 1.03 273.065 11:40 21.06.2019
5855 Clear 25 1012 91 0 1.03 273.065 11:40 21.06.2019
5856 Clear 25 1012 91 0 1.03 273.065 11:22 21.06.2019
5857 Clear 25 1012 91 0 1.03 273.065 11:22 21.06.2019
5858 Clear 25 1012 91 0 1.03 273.065 10:47 21.06.2019
5859 Clear 25 1012 91 0 1.03 273.065 10:21 21.06.2019
5860 Clear 25 1012 91 0 1.03 273.065 10:21 21.06.2019
5861 Clear 25 1012 91 0 1.03 273.065 09:55 21.06.2019
5862 Clear 25 1012 91 0 1.03 273.065 09:36 21.06.2019
5863 Clouds 25 1014 92 0 0.49 26.724 09:18 21.06.2019
5864 Clouds 25 1014 92 0 0.49 26.724 08:41 21.06.2019
5865 Clear 25 1014 91 0 1.02 359.045 08:20 21.06.2019
5866 Clear 25 1014 91 0 1.02 359.045 07:46 21.06.2019
5867 Clear 25 1014 91 0 1.02 359.045 07:22 21.06.2019
5868 Clouds 29 1012 100 11265 1.02 359.045 06:38 21.06.2019
5869 Clouds 29 1012 100 11265 1.27 348.885 06:18 21.06.2019
5870 Clouds 29 1010 100 11265 2.6 100 04:53 21.06.2019
5871 Clear 30 1009 100 9656 2.6 90 03:49 21.06.2019
5872 Clear 30 1009 100 9656 2.6 90 03:30 21.06.2019
5873 Clear 32 1008 75 11265 2.6 100 02:42 21.06.2019
5874 Clear 33 1008 63 11265 5.1 80 01:32 21.06.2019
5875 Clear 33 1008 66 11265 3.1 90 00:46 21.06.2019
5876 Smoke 34 1009 63 11265 1.5 120 23:59 20.06.2019
5877 Smoke 34 1009 63 11265 1.5 120 23:40 20.06.2019
5878 Smoke 34 1009 63 11265 1.5 120 23:20 20.06.2019
5879 Clouds 34 1010 63 9656 2.6 110 22:44 20.06.2019
5880 Clouds 34 1010 63 9656 2.6 110 22:23 20.06.2019
5881 Clouds 34 1011 67 8047 2.6 120 21:56 20.06.2019
5882 Clouds 34 1011 67 8047 2.6 120 21:38 20.06.2019
5883 Clouds 34 1011 67 8047 2.6 120 21:19 20.06.2019
5884 Clouds 33 1011 70 8047 1 120 20:41 20.06.2019
5885 Clouds 33 1011 70 8047 1 120 20:23 20.06.2019
5886 Clouds 33 1011 75 8047 1 120 19:46 20.06.2019
5887 Clouds 33 1011 75 8047 1 120 19:19 20.06.2019
5888 Clouds 32 1011 75 9656 1.6 146.835 18:58 20.06.2019
5889 Clouds 32 1011 75 9656 1.6 146.835 18:40 20.06.2019
5890 Clouds 32 1011 75 9656 1.08 167.928 18:21 20.06.2019
5891 Clouds 31 1011 84 9656 1.5 360 17:47 20.06.2019
5892 Clouds 31 1011 84 9656 1.5 360 17:29 20.06.2019
5893 Clouds 30 1011 84 8047 1.08 167.928 16:44 20.06.2019
5894 Clouds 30 1011 84 8047 1.08 167.928 16:20 20.06.2019
5895 Clouds 27 1011 88 8047 1.08 167.928 15:57 20.06.2019
5896 Clouds 27 1011 88 8047 1.08 167.928 15:38 20.06.2019
5897 Clouds 27 1011 88 8047 0.73 265.662 15:19 20.06.2019
5898 Clouds 26 1011 94 8047 0.73 265.662 14:44 20.06.2019
5899 Clouds 26 1011 94 8047 0.73 265.662 14:22 20.06.2019
5900 Clouds 26 1010 94 8047 0.73 265.662 13:40 20.06.2019
5901 Clouds 26 1010 94 8047 0.8 269.496 13:19 20.06.2019
5902 Clouds 26 1010 94 8047 0.8 269.496 12:46 20.06.2019
5903 Clouds 25 1012 85 0 1.32 272.168 12:23 20.06.2019
5904 Clouds 25 1012 85 0 1.32 272.168 11:46 20.06.2019
5905 Clouds 25 1012 85 0 1.32 272.168 11:27 20.06.2019
5906 Clouds 25 1012 85 0 1.32 272.168 10:54 20.06.2019
5907 Clouds 25 1012 85 0 1.32 272.168 10:36 20.06.2019
5908 Clouds 25 1012 85 0 1.32 272.168 10:18 20.06.2019
5909 Clouds 25 1012 85 0 1.32 272.168 09:40 20.06.2019
5910 Clouds 26 1014 85 0 0.89 313.496 09:21 20.06.2019
5911 Clouds 26 1014 87 0 0.8 299.186 08:45 20.06.2019
5912 Clouds 26 1014 87 0 0.8 299.186 08:27 20.06.2019
5913 Clouds 26 1014 87 0 0.8 299.186 07:53 20.06.2019
5914 Clouds 26 1014 87 0 0.8 299.186 07:28 20.06.2019
5915 Clouds 28 1012 94 11265 1.34 331.42 06:27 20.06.2019
5916 Clouds 29 1009 100 11265 1.34 331.42 04:54 20.06.2019
5917 Clouds 31 1008 89 11265 4.6 80 02:55 20.06.2019
5918 Clouds 33 1009 66 11265 4.6 70 00:34 20.06.2019
5919 Clouds 34 1010 63 11265 3.6 100 23:58 19.06.2019
5920 Clouds 34 1010 63 11265 3.6 100 23:39 19.06.2019
5921 Clouds 34 1010 63 11265 3.6 100 23:21 19.06.2019
5922 Clouds 34 1011 63 11265 4.1 70 22:45 19.06.2019
5923 Clouds 34 1011 63 11265 4.1 70 22:18 19.06.2019
5924 Clouds 33 1011 66 11265 5.7 90 21:46 19.06.2019
5925 Clouds 33 1011 66 11265 5.7 90 21:25 19.06.2019
5926 Clouds 32 1012 84 9656 1 100 20:43 19.06.2019
5927 Clouds 32 1012 84 9656 1 100 20:22 19.06.2019
5928 Clouds 32 1012 84 9656 2.1 110 19:55 19.06.2019
5929 Clouds 32 1012 84 9656 2.1 110 19:36 19.06.2019
5930 Clouds 32 1012 84 9656 2.1 110 19:18 19.06.2019
5931 Clouds 31 1012 89 8047 1.5 110 18:43 19.06.2019
5932 Clouds 31 1012 89 8047 1.5 110 18:20 19.06.2019
5933 Clouds 30 1013 89 8047 2.1 170 17:35 19.06.2019
5934 Clouds 29 1013 89 8047 1.13 83.677 16:59 19.06.2019
5935 Clouds 29 1013 89 8047 1.13 83.677 16:39 19.06.2019
5936 Clouds 29 1013 89 8047 1.13 83.677 16:21 19.06.2019
5937 Clouds 27 1012 88 8047 1.13 83.677 15:48 19.06.2019
5938 Clouds 27 1012 88 8047 1.29 286.555 15:26 19.06.2019
5939 Clouds 26 1012 94 8047 1.5 320 14:50 19.06.2019
5940 Clouds 26 1012 94 8047 1.5 320 14:31 19.06.2019
5941 Clouds 27 1012 94 8047 1.29 286.555 13:59 19.06.2019
5942 Clouds 27 1012 94 8047 1.29 286.555 13:40 19.06.2019
5943 Clouds 27 1012 94 8047 1.36 287.367 13:21 19.06.2019
5944 Clouds 24 1014 87 0 1.36 287.367 12:43 19.06.2019
5945 Clouds 24 1014 89 0 1.29 281.319 12:21 19.06.2019
5946 Clouds 24 1014 89 0 1.29 281.319 11:45 19.06.2019
5947 Clouds 24 1014 89 0 1.29 281.319 11:25 19.06.2019
5948 Clouds 24 1014 89 0 1.29 281.319 10:57 19.06.2019
5949 Clouds 24 1014 89 0 1.29 281.319 10:38 19.06.2019
5950 Clouds 24 1014 89 0 1.29 281.319 10:19 19.06.2019
5951 Clouds 24 1014 89 0 1.29 281.319 09:39 19.06.2019
5952 Rain 25 1015 89 0 1.25 278.039 09:19 19.06.2019
5953 Clouds 25 1016 89 0 1.23 268.464 08:48 19.06.2019
5954 Clouds 25 1016 89 0 1.23 268.464 08:28 19.06.2019
5955 Clouds 25 1016 89 0 1.23 268.464 07:47 19.06.2019
5956 Clouds 25 1016 89 0 1.23 268.464 07:23 19.06.2019
5957 Clouds 29 1013 100 9656 1.23 268.464 06:49 19.06.2019
5958 Clouds 29 1013 100 9656 1.28 334.038 06:24 19.06.2019
5959 Clouds 29 1012 100 9656 1.28 334.038 05:49 19.06.2019
5960 Clouds 29 1012 100 9656 1.28 334.038 04:19 19.06.2019
5961 Clouds 30 1011 89 8047 1.28 334.038 03:27 19.06.2019
5962 Clouds 32 1010 66 8047 3.1 110 01:49 19.06.2019
5963 Clouds 32 1010 66 8047 3.1 110 01:18 19.06.2019
5964 Clouds 34 1010 59 9656 4.6 80 00:43 19.06.2019
5965 Clouds 34 1010 59 9656 4.6 80 00:20 19.06.2019
5966 Clouds 34 1011 63 9656 3.6 80 23:46 18.06.2019
5967 Clouds 34 1011 63 9656 3.6 80 23:26 18.06.2019
5968 Clouds 35 1012 56 9656 1 140 22:45 18.06.2019
5969 Clouds 35 1012 56 9656 1 140 22:24 18.06.2019
5970 Clouds 33 1012 63 9656 1.5 100 21:56 18.06.2019
5971 Clouds 33 1012 63 9656 1.5 100 21:38 18.06.2019
5972 Clouds 33 1012 63 9656 1.5 100 21:19 18.06.2019
5973 Clouds 33 1012 59 8047 2.01 75.361 20:42 18.06.2019
5974 Clouds 33 1012 59 8047 2.01 75.361 20:24 18.06.2019
5975 Clouds 32 1013 70 8047 2.1 90 19:41 18.06.2019
5976 Clouds 32 1013 70 8047 2.1 90 19:23 18.06.2019
5977 Clouds 31 1013 79 8047 1.5 180 18:57 18.06.2019
5978 Clouds 31 1013 79 8047 1.5 180 18:37 18.06.2019
5979 Clouds 31 1013 79 8047 1.5 180 18:18 18.06.2019
5980 Clouds 28 1013 83 8047 0.43 6.911 17:38 18.06.2019
5981 Clouds 28 1013 83 8047 0.43 6.911 17:19 18.06.2019
5982 Clouds 26 1013 88 8047 3.1 200 16:43 18.06.2019
5983 Clouds 26 1013 88 8047 3.1 200 16:24 18.06.2019
5984 Clouds 24 1012 94 8047 0.43 6.911 15:43 18.06.2019
5985 Clouds 24 1012 94 8047 0.73 303.406 15:24 18.06.2019
5986 Clouds 24 1011 94 8047 2.6 200 14:58 18.06.2019
5987 Clouds 24 1011 94 8047 2.6 200 14:40 18.06.2019
5988 Clouds 24 1011 94 8047 2.6 200 14:20 18.06.2019
5989 Clouds 24 1010 94 8047 0.73 303.406 13:52 18.06.2019
5990 Clouds 24 1010 94 8047 0.98 310.061 13:31 18.06.2019
5991 Clouds 24 1013 87 0 0.98 310.061 12:48 18.06.2019
5992 Clouds 24 1013 87 0 0.98 310.061 12:29 18.06.2019
5993 Clouds 25 1013 88 0 1.14 276.434 11:58 18.06.2019
5994 Clouds 25 1013 88 0 1.14 276.434 11:39 18.06.2019
5995 Clouds 25 1013 88 0 1.14 276.434 11:20 18.06.2019
5996 Clouds 25 1013 88 0 1.14 276.434 10:43 18.06.2019
5997 Clouds 25 1013 88 0 1.14 276.434 10:22 18.06.2019
5998 Clouds 25 1013 88 0 1.14 276.434 09:54 18.06.2019
5999 Rain 25 1014 90 0 1.3 303.849 09:25 18.06.2019
6000 Rain 25 1014 90 0 1.3 303.849 08:58 18.06.2019
6001 Rain 25 1014 90 0 1.3 303.849 08:39 18.06.2019
6002 Rain 25 1014 92 0 1.43 290.33 08:21 18.06.2019
6003 Rain 25 1014 92 0 1.43 290.33 07:27 18.06.2019
6004 Clouds 29 1012 79 9656 3.1 30 06:59 18.06.2019
6005 Clouds 28 1011 83 9656 2.6 10 05:28 18.06.2019
6006 Clouds 29 1011 83 9656 1.93 352.923 04:22 18.06.2019
6007 Clouds 30 1008 84 8047 2.6 60 02:50 18.06.2019
6008 Clouds 30 1008 84 9656 4.1 90 01:49 18.06.2019
6009 Clouds 30 1008 84 9656 4.1 90 01:24 18.06.2019
6010 Clouds 32 1008 75 9656 7.2 70 00:40 18.06.2019
6011 Clouds 32 1008 75 9656 7.2 70 00:22 18.06.2019
6012 Clouds 33 1009 66 9656 5.7 80 23:38 17.06.2019
6013 Clouds 33 1009 66 9656 5.7 80 23:19 17.06.2019
6014 Clouds 33 1009 66 9656 3.1 70 22:41 17.06.2019
6015 Clouds 33 1009 66 9656 3.1 70 22:21 17.06.2019
6016 Clouds 33 1009 66 9656 3.1 70 22:21 17.06.2019
6017 Clouds 33 1009 63 9656 2.6 110 21:55 17.06.2019
6018 Clouds 33 1009 63 9656 2.6 110 21:36 17.06.2019
6019 Clouds 33 1009 63 9656 2.6 110 21:18 17.06.2019
6020 Clouds 32 1010 66 8047 2.1 120 20:36 17.06.2019
6021 Clouds 32 1010 66 8047 2.1 120 20:18 17.06.2019
6022 Haze 32 1010 70 8047 2.6 100 19:41 17.06.2019
6023 Haze 32 1010 70 8047 2.6 100 19:21 17.06.2019
6024 Haze 31 1011 74 6437 2.72 94.536 18:55 17.06.2019
6025 Haze 31 1011 74 6437 2.72 94.536 18:36 17.06.2019
6026 Haze 30 1011 89 6437 1.5 140 18:18 17.06.2019
6027 Haze 30 1011 89 6437 1.5 140 17:42 17.06.2019
6028 Haze 30 1011 89 6437 1.5 140 17:24 17.06.2019
6029 Haze 29 1011 89 6437 1.5 70 16:45 17.06.2019
6030 -273 0 0 0 0 0 16:27 17.06.2019
6031 Haze 27 1010 88 6437 1.5 20 15:56 17.06.2019
6032 Haze 27 1010 88 6437 1.5 20 15:37 17.06.2019
6033 Clouds 26 1010 94 8047 1.17 292.522 15:18 17.06.2019
6034 Clouds 26 1010 94 8047 1.17 292.522 14:43 17.06.2019
6035 Clouds 26 1010 94 8047 1.17 292.522 14:23 17.06.2019
6036 Clouds 26 1009 94 8047 1.17 292.522 13:49 17.06.2019
6037 Clouds 26 1009 94 8047 1.19 298.317 13:23 17.06.2019
6038 Clouds 25 1012 86 0 1.19 298.317 12:50 17.06.2019
6039 Clouds 25 1012 86 0 1.19 298.317 12:31 17.06.2019
6040 Clouds 25 1011 89 0 0.79 310.177 11:48 17.06.2019
6041 Clouds 25 1011 89 0 0.79 310.177 11:26 17.06.2019
6042 Clouds 25 1011 89 0 0.79 310.177 10:58 17.06.2019
6043 Clouds 25 1011 89 0 0.79 310.177 10:40 17.06.2019
6044 Clouds 25 1011 89 0 0.79 310.177 10:21 17.06.2019
6045 Clouds 25 1011 89 0 0.79 310.177 09:51 17.06.2019
6046 -273 0 0 0 0 0 09:28 17.06.2019
6047 Clouds 25 1012 92 0 0.52 285.625 08:41 17.06.2019
6048 Clouds 25 1012 92 0 0.52 285.625 08:23 17.06.2019
6049 Clouds 25 1012 92 0 0.52 285.625 07:46 17.06.2019
6050 Clouds 25 1012 92 0 0.52 285.625 07:27 17.06.2019
6051 Clouds 28 1010 94 9656 0.52 285.625 06:42 17.06.2019
6052 Clouds 28 1009 94 9656 1 60 05:47 17.06.2019
6053 Clouds 29 1009 94 9656 2.6 80 04:41 17.06.2019
6054 Clouds 29 1008 83 9656 2.1 100 03:49 17.06.2019
6055 Clouds 29 1008 83 9656 3.1 80 02:59 17.06.2019
6056 Clouds 29 1008 83 9656 3.1 80 02:41 17.06.2019
6057 Clouds 30 1007 84 9656 2.6 90 01:55 17.06.2019
6058 Clouds 30 1007 84 9656 2.6 90 01:33 17.06.2019
6059 Clouds 32 1007 75 9656 2.6 110 00:44 17.06.2019
6060 Clouds 35 1009 44 0 4.32 89.389 00:22 17.06.2019
6061 Clouds 32 1008 70 9656 3.6 100 23:43 16.06.2019
6062 Clouds 32 1008 70 9656 3.6 100 23:22 16.06.2019
6063 Haze 32 1009 70 9656 3.6 110 22:57 16.06.2019
6064 Haze 32 1009 70 9656 3.6 110 22:39 16.06.2019
6065 Haze 32 1009 75 9656 3.6 100 22:18 16.06.2019
6066 Haze 32 1009 75 9656 3.6 100 21:42 16.06.2019
6067 Haze 32 1010 70 9656 1 120 21:23 16.06.2019
6068 Haze 32 1010 70 9656 1 120 20:59 16.06.2019
6069 Haze 32 1010 70 9656 1 120 20:37 16.06.2019
6070 Haze 32 1011 75 9656 3.1 170 20:18 16.06.2019
6071 Haze 32 1011 75 9656 3.1 170 19:43 16.06.2019
6072 Haze 32 1011 75 9656 3.1 170 19:22 16.06.2019
6073 Haze 31 1012 84 6437 5.1 170 18:59 16.06.2019
6074 Haze 31 1012 84 6437 5.1 170 18:41 16.06.2019
6075 Clouds 32 1013 56 0 0.42 188.457 18:20 16.06.2019
6076 Clouds 32 1013 56 0 0.42 188.457 18:20 16.06.2019
6077 Clear 30 1011 89 6437 0.42 188.457 17:48 16.06.2019
6078 Clear 30 1011 89 6437 0.42 188.457 17:24 16.06.2019
6079 Clear 30 1011 89 6437 0.42 188.457 17:24 16.06.2019
6080 Clouds 28 1011 88 6437 0.42 188.457 16:57 16.06.2019
6081 Clouds 28 1011 88 6437 0.42 188.457 16:57 16.06.2019
6082 Clouds 28 1011 88 6437 0.42 188.457 16:39 16.06.2019
6083 Clouds 26 1011 94 8047 0.42 188.457 16:21 16.06.2019
6084 Clouds 26 1011 94 8047 0.42 188.457 15:44 16.06.2019
6085 Clouds 26 1011 94 8047 1.1 285.981 15:24 16.06.2019
6086 Clouds 25 1011 94 8047 1.1 285.981 14:45 16.06.2019
6087 Clouds 23 1012 87 0 1.1 285.981 14:25 16.06.2019
6088 Clouds 25 1011 94 8047 1.1 285.981 13:57 16.06.2019
6089 Clouds 25 1011 94 8047 1.1 285.981 13:39 16.06.2019
6090 Clouds 25 1011 94 8047 1.22 293.032 13:20 16.06.2019
6091 Clouds 24 1012 89 0 1.22 293.032 12:42 16.06.2019
6092 Clouds 24 1012 90 0 0.95 317.379 12:21 16.06.2019
6093 Clouds 24 1012 90 0 0.95 317.379 11:54 16.06.2019
6094 Clouds 24 1012 90 0 0.95 317.379 11:36 16.06.2019
6095 Clouds 24 1012 90 0 0.95 317.379 11:18 16.06.2019
6096 Clouds 24 1012 90 0 0.95 317.379 10:43 16.06.2019
6097 Clouds 24 1012 90 0 0.95 317.379 10:19 16.06.2019
6098 Clouds 24 1012 90 0 0.95 317.379 09:42 16.06.2019
6099 Rain 25 1014 87 0 0.84 355.924 09:23 16.06.2019
6100 Rain 24 1014 92 0 1.42 339.875 08:45 16.06.2019
6101 Rain 24 1014 92 0 1.42 339.875 08:20 16.06.2019
6102 Rain 24 1014 92 0 1.42 339.875 07:44 16.06.2019
6103 Rain 24 1014 92 0 1.42 339.875 07:26 16.06.2019
6104 Clouds 28 1012 100 11265 1.5 70 06:50 16.06.2019
6105 Clouds 28 1012 100 11265 1.5 80 05:53 16.06.2019
6106 Clouds 28 1011 94 11265 2.6 70 05:19 16.06.2019
6107 Clouds 28 1011 88 11265 1.5 80 04:00 16.06.2019
6108 Clouds 28 1011 88 11265 1.5 80 03:33 16.06.2019
6109 Clouds 30 1010 74 11265 1.5 70 02:48 16.06.2019
6110 Clouds 30 1009 74 11265 2.6 60 01:47 16.06.2019
6111 Clouds 30 1009 74 11265 2.6 60 01:28 16.06.2019
6112 Clouds 32 1009 62 11265 4.1 80 00:42 16.06.2019
6113 Clouds 32 1009 62 11265 4.1 80 00:23 16.06.2019
6114 Clouds 32 1010 62 11265 3.78 47.346 23:55 15.06.2019
6115 Clouds 32 1010 62 11265 3.78 47.346 23:36 15.06.2019
6116 Clouds 32 1011 66 11265 3.78 47.346 23:18 15.06.2019
6117 Clouds 32 1011 66 11265 3.78 47.346 22:41 15.06.2019
6118 Clouds 32 1011 66 11265 3.78 47.346 22:22 15.06.2019
6119 Clouds 31 1012 74 11265 3.78 47.346 21:42 15.06.2019
6120 Clouds 30 1013 84 11265 1 160 21:20 15.06.2019
6121 Clouds 30 1013 84 11265 1 160 20:43 15.06.2019
6122 Clouds 30 1013 84 11265 1 160 20:22 15.06.2019
6123 Clouds 28 1014 88 11265 2.6 170 19:46 15.06.2019
6124 Clouds 28 1014 88 11265 2.6 170 19:46 15.06.2019
6125 Clouds 28 1014 88 11265 2.6 170 19:24 15.06.2019
6126 Clouds 29 1014 83 11265 2.63 36.373 18:42 15.06.2019
6127 Clouds 29 1014 83 11265 1.86 0.741 18:23 15.06.2019
6128 Clouds 28 1014 83 9656 1.86 0.741 17:44 15.06.2019
6129 Clouds 28 1014 83 9656 1.86 0.741 17:25 15.06.2019
6130 Clouds 27 1014 83 9656 1.86 0.741 16:49 15.06.2019
6131 Clouds 25 1014 83 9656 1.86 0.741 16:20 15.06.2019
6132 Clouds 25 1014 83 9656 1.86 0.741 15:45 15.06.2019
6133 Clouds 25 1014 83 9656 1.45 307.614 15:24 15.06.2019
6134 Clouds 24 1013 100 8047 1.45 307.614 14:54 15.06.2019
6135 Clouds 24 1013 100 8047 1.45 307.614 14:36 15.06.2019
6136 Clouds 24 1012 100 9656 1.45 307.614 14:18 15.06.2019
6137 Clouds 24 1012 100 9656 1.45 307.614 13:42 15.06.2019
6138 Clouds 24 1012 100 9656 1.45 307.614 13:19 15.06.2019
6139 Clouds 22 1015 89 0 1.45 307.614 12:52 15.06.2019
6140 Clouds 23 1014 89 0 1.4 308.233 12:26 15.06.2019
6141 Clouds 23 1014 88 0 1.22 314.103 11:53 15.06.2019
6142 Clouds 23 1014 88 0 1.22 314.103 11:34 15.06.2019
6143 Clouds 23 1014 90 0 1.34 307.059 10:55 15.06.2019
6144 Clouds 23 1014 90 0 1.34 307.059 10:37 15.06.2019
6145 Clouds 23 1014 90 0 1.34 307.059 10:18 15.06.2019
6146 Clouds 23 1014 90 0 1.34 307.059 09:43 15.06.2019
6147 Rain 23 1017 91 0 1.44 302.102 09:21 15.06.2019
6148 Rain 23 1017 91 0 1.44 302.102 08:48 15.06.2019
6149 Rain 23 1017 91 0 1.44 302.102 08:29 15.06.2019
6150 Rain 23 1017 91 0 1.44 302.102 07:49 15.06.2019
6151 Rain 23 1017 91 0 1.44 302.102 07:22 15.06.2019
6152 Clouds 26 1015 100 11265 1.44 302.102 06:39 15.06.2019
6153 Clouds 26 1015 100 11265 1.44 302.102 06:39 15.06.2019
6154 Clouds 27 1015 94 11265 2.1 50 05:56 15.06.2019
6155 Clouds 27 1015 94 11265 2.1 50 05:24 15.06.2019
6156 Clouds 27 1014 94 11265 3.1 50 04:41 15.06.2019
6157 Clouds 27 1014 94 11265 3.1 50 04:41 15.06.2019
6158 Clouds 28 1014 78 11265 4.1 40 03:42 15.06.2019
6159 Clouds 29 1013 79 11265 5.7 50 02:49 15.06.2019
6160 Clouds 28 1014 65 0 3.6 45.281 02:20 15.06.2019
6161 Clouds 30 1013 74 11265 5.7 60 01:42 15.06.2019
6162 Clouds 30 1013 74 11265 6.2 40 00:47 15.06.2019
6163 Clouds 30 1013 74 11265 6.2 40 00:29 15.06.2019
6164 Clouds 30 1013 70 11265 4.1 360 23:54 14.06.2019
6165 Clouds 30 1013 70 11265 4.1 360 23:25 14.06.2019
6166 Clouds 30 1014 70 11265 3.6 30 22:43 14.06.2019
6167 Clouds 30 1014 70 11265 3.6 30 22:23 14.06.2019
6168 Clouds 30 1015 70 11265 4.6 20 22:23 14.06.2019
6169 Clouds 30 1014 70 11265 3.6 30 22:23 14.06.2019
6170 Clouds 30 1015 70 11265 4.6 20 21:58 14.06.2019
6171 Clouds 30 1015 70 11265 4.6 20 21:39 14.06.2019
6172 Clouds 27 1017 72 0 1.12 122.643 21:21 14.06.2019
6173 Clouds 29 1016 94 11265 5.7 10 20:42 14.06.2019
6174 Clouds 28 1017 94 11265 2.6 350 20:18 14.06.2019
6175 Clouds 28 1017 94 11265 2.6 350 19:51 14.06.2019
6176 Clouds 28 1017 94 11265 2.6 350 19:23 14.06.2019
6177 Clouds 25 1017 100 11265 1 290 18:58 14.06.2019
6178 Clouds 25 1017 100 11265 1 290 18:40 14.06.2019
6179 Clouds 25 1018 100 11265 1 60 18:22 14.06.2019
6180 Clouds 25 1018 100 11265 1 60 17:46 14.06.2019
6181 Clouds 25 1018 100 11265 1 60 17:27 14.06.2019
6182 Clouds 25 1018 100 11265 1 60 16:56 14.06.2019
6183 Rain 24 1017 94 9656 0.62 262.442 16:38 14.06.2019
6184 Clouds 22 1016 100 6437 0.62 262.442 16:18 14.06.2019
6185 Clouds 22 1016 100 6437 0.62 262.442 15:39 14.06.2019
6186 Rain 22 1016 100 1609 5.1 170 15:21 14.06.2019
6187 Rain 22 1016 100 1609 5.1 170 14:54 14.06.2019
6188 -273 0 0 0 0 0 14:33 14.06.2019
6189 -273 0 0 0 0 0 14:33 14.06.2019
6190 Clouds 24 1015 100 8047 1 190 13:56 14.06.2019
6191 Clouds 24 1015 100 8047 1 190 13:56 14.06.2019
6192 Clouds 24 1015 100 8047 1 190 13:56 14.06.2019
6193 Clouds 24 1015 100 8047 1 190 13:37 14.06.2019
6194 Rain 23 1017 88 0 0.85 225 13:19 14.06.2019
6195 Rain 23 1017 88 0 0.85 225 12:41 14.06.2019
6196 Clouds 23 1016 87 0 1.44 271.277 12:23 14.06.2019
6197 Clouds 23 1016 87 0 1.44 271.277 11:47 14.06.2019
6198 Clouds 23 1016 87 0 1.44 271.277 11:24 14.06.2019
6199 Clouds 23 1016 87 0 1.44 271.277 10:58 14.06.2019
6200 Clouds 23 1016 87 0 1.44 271.277 10:39 14.06.2019
6201 Clouds 23 1016 87 0 1.44 271.277 10:18 14.06.2019
6202 Rain 22 1017 91 0 1.54 268.247 09:39 14.06.2019
6203 Rain 23 1019 93 0 1.82 252.56 09:20 14.06.2019
6204 Rain 23 1019 93 0 1.82 252.56 08:45 14.06.2019
6205 Rain 23 1019 93 0 1.82 252.56 08:18 14.06.2019
6206 Rain 23 1019 93 0 1.82 252.56 07:48 14.06.2019
6207 Clouds 28 1016 100 11265 5.1 360 07:20 14.06.2019
6208 Clouds 28 1016 100 11265 5.1 360 06:31 14.06.2019
6209 Clouds 28 1016 74 11265 5.1 360 05:55 14.06.2019
6210 Clouds 28 1016 74 11265 5.1 360 05:55 14.06.2019
6211 Clouds 28 1015 94 11265 4.6 10 04:57 14.06.2019
6212 Clouds 28 1015 94 11265 4.6 10 04:37 14.06.2019
6213 Clouds 28 1015 94 11265 7.7 10 03:51 14.06.2019
6214 Clouds 28 1015 94 11265 7.7 10 03:25 14.06.2019
6215 Clouds 28 1015 94 11265 7.7 10 03:25 14.06.2019
6216 Clouds 29 1014 89 11265 6.2 20 02:47 14.06.2019
6217 -273 0 0 0 0 0 01:58 14.06.2019
6218 Clouds 30 1014 70 11265 9.3 20 00:49 14.06.2019
6219 Clouds 30 1014 70 11265 9.3 20 00:22 14.06.2019
6220 Clouds 31 1014 66 11265 9.8 40 23:53 13.06.2019
6221 Clouds 31 1014 66 11265 9.8 40 23:27 13.06.2019
6222 Clouds 31 1015 66 11265 8.7 10 22:59 13.06.2019
6223 Clouds 31 1015 66 11265 8.7 10 22:39 13.06.2019
6224 Clouds 32 1015 62 11265 8.7 20 22:20 13.06.2019
6225 Clouds 32 1015 62 11265 8.7 20 21:39 13.06.2019
6226 Clouds 32 1015 70 11265 4.6 350 21:20 13.06.2019
6227 Clouds 32 1015 70 11265 4.6 350 20:45 13.06.2019
6228 Clouds 32 1015 70 11265 4.6 350 20:22 13.06.2019
6229 Clouds 32 1015 62 11265 2.6 350 19:57 13.06.2019
6230 Clouds 32 1015 62 11265 2.6 350 19:37 13.06.2019
6231 Drizzle 29 1016 89 8047 1.5 360 19:19 13.06.2019
6232 Drizzle 29 1016 89 8047 1.5 360 18:46 13.06.2019
6233 Drizzle 29 1016 89 8047 1.5 360 18:28 13.06.2019
6234 Clouds 29 1016 94 9656 1.5 10 17:59 13.06.2019
6235 Clouds 29 1016 94 9656 1.5 10 17:41 13.06.2019
6236 Clouds 27 1016 88 8047 1.4 20.767 17:20 13.06.2019
6237 Clouds 27 1016 88 8047 1.4 20.767 16:46 13.06.2019
6238 Clouds 27 1016 88 8047 1.4 20.767 16:21 13.06.2019
6239 Clouds 26 1015 94 9656 1.5 310 15:56 13.06.2019
6240 Clouds 26 1015 94 9656 1.5 310 15:38 13.06.2019
6241 Clouds 25 1015 94 9656 1.47 285.313 15:18 13.06.2019
6242 Clouds 25 1015 94 9656 1.47 285.313 14:44 13.06.2019
6243 Clouds 25 1015 94 9656 1.47 285.313 14:23 13.06.2019
6244 Clear 25 1014 94 9656 1.47 285.313 13:44 13.06.2019
6245 Clear 25 1014 94 9656 1.47 285.313 13:21 13.06.2019
6246 Rain 23 1017 93 0 1.47 285.313 12:42 13.06.2019
6247 Rain 24 1016 93 0 1.21 290.011 12:22 13.06.2019
6248 Rain 24 1016 93 0 1.21 290.011 11:57 13.06.2019
6249 Rain 24 1016 93 0 1.21 290.011 11:38 13.06.2019
6250 Rain 24 1016 93 0 1.21 290.011 11:19 13.06.2019
6251 Rain 24 1016 93 0 1.21 290.011 10:44 13.06.2019
6252 Rain 24 1016 93 0 1.21 290.011 10:24 13.06.2019
6253 Rain 24 1016 93 0 1.21 290.011 09:44 13.06.2019
6254 Rain 24 1017 94 0 1.57 278.372 09:24 13.06.2019
6255 Rain 24 1017 94 0 1.57 278.372 09:24 13.06.2019
6256 Rain 24 1017 94 0 1.57 278.372 09:24 13.06.2019
6257 Rain 24 1017 94 0 1.57 278.372 08:48 13.06.2019
6258 Rain 24 1017 94 0 1.57 278.372 08:28 13.06.2019
6259 Rain 24 1017 94 0 1.57 278.372 07:56 13.06.2019
6260 Rain 24 1017 94 0 1.57 278.372 07:27 13.06.2019
6261 Clouds 27 1015 100 11265 2.1 360 06:51 13.06.2019
6262 Clouds 27 1015 100 11265 2.1 360 06:24 13.06.2019
6263 Clear 28 1014 88 11265 3.6 50 05:56 13.06.2019
6264 Clear 28 1014 88 11265 3.6 50 05:37 13.06.2019
6265 Clouds 28 1013 94 11265 3.1 50 04:58 13.06.2019
6266 Clouds 29 1012 89 11265 4.1 50 02:42 13.06.2019
6267 Clouds 31 1011 66 11265 6.2 60 01:25 13.06.2019
6268 Clouds 32 1011 59 11265 5.7 60 00:27 13.06.2019
6269 Clouds 32 1011 62 11265 5.7 70 23:24 12.06.2019
6270 Clouds 33 1012 59 11265 4.6 70 22:45 12.06.2019
6271 Clouds 33 1012 59 11265 4.6 70 22:27 12.06.2019
6272 Clouds 34 1012 49 11265 1 140 21:57 12.06.2019
6273 Clouds 34 1012 49 11265 1 140 21:39 12.06.2019
6274 Clouds 34 1013 46 11265 1 80 21:19 12.06.2019
6275 Clouds 34 1013 46 11265 1 80 20:40 12.06.2019
6276 Clouds 34 1013 46 11265 1 80 20:21 12.06.2019
6277 Clouds 32 1013 62 11265 3.6 190 19:42 12.06.2019
6278 Clouds 32 1013 62 11265 3.6 190 19:23 12.06.2019
6279 Clouds 30 1014 74 11265 3.1 190 18:58 12.06.2019
6280 Clouds 30 1014 74 11265 3.1 190 18:39 12.06.2019
6281 Clear 30 1014 74 11265 1.5 200 18:20 12.06.2019
6282 Clear 30 1014 74 11265 1.5 200 17:44 12.06.2019
6283 Clouds 27 1014 88 9656 1.24 181.709 17:21 12.06.2019
6284 Clouds 27 1014 88 9656 1.24 181.709 16:42 12.06.2019
6285 Clouds 27 1014 88 9656 1.24 181.709 16:24 12.06.2019
6286 Clouds 25 1014 94 9656 1.5 180 15:56 12.06.2019
6287 Clouds 25 1014 94 9656 1.5 180 15:32 12.06.2019
6288 Clouds 24 1014 94 9656 1.4 264.728 14:50 12.06.2019
6289 Clouds 24 1014 94 9656 1.4 264.728 14:30 12.06.2019
6290 Clear 24 1014 94 9656 1.4 264.728 13:55 12.06.2019
6291 Clear 24 1014 94 9656 1.4 264.728 13:37 12.06.2019
6292 Clear 24 1014 94 9656 1.41 270.57 13:18 12.06.2019
6293 Clouds 21 1016 87 0 1.41 270.57 12:40 12.06.2019
6294 Clouds 22 1016 90 0 1.39 267.369 12:20 12.06.2019
6295 Clouds 22 1016 90 0 1.39 267.369 11:47 12.06.2019
6296 Clouds 22 1016 90 0 1.39 267.369 11:29 12.06.2019
6297 Clouds 22 1016 90 0 1.39 267.369 10:55 12.06.2019
6298 Clouds 22 1016 90 0 1.39 267.369 10:36 12.06.2019
6299 Clouds 22 1016 90 0 1.39 267.369 09:59 12.06.2019
6300 Clouds 22 1016 90 0 1.39 267.369 09:40 12.06.2019
6301 Rain 23 1017 90 0 1.71 242.687 09:18 12.06.2019
6302 Rain 23 1017 90 0 1.71 242.687 08:27 12.06.2019
6303 Rain 23 1017 90 0 1.71 242.687 07:52 12.06.2019
6304 Rain 23 1017 90 0 1.71 242.687 07:18 12.06.2019
6305 Clouds 28 1015 94 9656 2.6 60 06:33 12.06.2019
6306 Clouds 28 1014 100 9656 3.6 20 05:25 12.06.2019
6307 Rain 27 1015 78 0 2.11 79.535 02:21 12.06.2019
6308 Clouds 32 1013 62 9656 6.2 50 00:46 12.06.2019
6309 Clouds 32 1014 62 9656 7.7 50 23:54 11.06.2019
6310 Clouds 32 1014 62 9656 7.7 50 23:35 11.06.2019
6311 Clouds 32 1015 59 9656 9.8 40 22:57 11.06.2019
6312 Clouds 32 1015 59 9656 9.8 40 22:38 11.06.2019
6313 Clouds 32 1015 59 9656 7.2 20 22:18 11.06.2019
6314 Clouds 32 1015 59 9656 7.2 20 22:18 11.06.2019
6315 Clouds 32 1015 59 9656 7.2 20 21:41 11.06.2019
6316 Clouds 32 1015 59 9656 7.2 20 21:23 11.06.2019
6317 Clouds 32 1016 59 9656 7.2 360 20:58 11.06.2019
6318 Clouds 32 1016 59 9656 7.2 360 20:39 11.06.2019
6319 Clouds 32 1017 42 0 2.11 94.25 20:21 11.06.2019
6320 Clouds 32 1017 59 8047 7.7 360 19:50 11.06.2019
6321 Clouds 32 1017 59 8047 7.7 360 19:28 11.06.2019
6322 Clouds 31 1017 74 8047 5.1 10 18:49 11.06.2019
6323 Clouds 31 1017 74 8047 5.1 10 18:49 11.06.2019
6324 Clouds 28 1019 49 0 1.42 170.112 18:20 11.06.2019
6325 Clouds 30 1017 84 9656 5.7 360 17:41 11.06.2019
6326 Clouds 28 1019 49 0 1.42 170.112 17:21 11.06.2019
6327 Clear 29 1017 89 9656 3.6 350 16:46 11.06.2019
6328 Clear 29 1017 89 9656 3.6 350 16:24 11.06.2019
6329 Clear 26 1017 94 9656 1.42 170.112 15:59 11.06.2019
6330 Clear 26 1017 94 9656 1.42 170.112 15:41 11.06.2019
6331 Clear 26 1017 94 9656 1.5 340 15:18 11.06.2019
6332 Clear 26 1017 94 9656 1.5 340 14:40 11.06.2019
6333 Clear 27 1017 94 9656 1.5 340 14:20 11.06.2019
6334 Clear 27 1017 94 9656 1.5 340 14:20 11.06.2019
6335 Clear 27 1017 94 9656 1.5 340 13:43 11.06.2019
6336 Clear 27 1017 94 9656 1.5 340 13:22 11.06.2019
6337 Clouds 21 1019 74 0 1.4 269.714 12:43 11.06.2019
6338 Clouds 22 1019 83 0 1.58 247.47 12:22 11.06.2019
6339 Clouds 22 1019 83 0 1.58 247.47 11:57 11.06.2019
6340 Clouds 22 1019 83 0 1.58 247.47 11:34 11.06.2019
6341 Clouds 22 1019 83 0 1.58 247.47 10:58 11.06.2019
6342 Clouds 22 1019 83 0 1.58 247.47 10:40 11.06.2019
6343 Clouds 22 1019 83 0 1.58 247.47 10:21 11.06.2019
6344 Clouds 22 1019 83 0 1.58 247.47 09:45 11.06.2019
6345 Rain 23 1020 90 0 1.78 233.426 09:23 11.06.2019
6346 Rain 23 1020 90 0 1.78 233.426 09:23 11.06.2019
6347 Rain 23 1020 90 0 1.78 233.426 08:42 11.06.2019
6348 Rain 23 1020 90 0 1.78 233.426 08:23 11.06.2019
6349 Rain 23 1020 90 0 1.78 233.426 07:36 11.06.2019
6350 Clouds 29 1017 83 11265 4.1 20 06:54 11.06.2019
6351 Rain 24 1019 91 0 0.74 270.696 06:23 11.06.2019
6352 Clouds 29 1016 83 11265 6.2 360 04:48 11.06.2019
6353 Clouds 30 1015 89 11265 6.7 60 02:44 11.06.2019
6354 Clouds 32 1014 79 11265 9.8 40 01:23 11.06.2019
6355 Clouds 33 1014 70 11265 9.3 20 00:44 11.06.2019
6356 Clouds 34 1015 71 9656 6.7 10 23:47 10.06.2019
6357 Clouds 33 1016 48 0 5.03 51.885 23:21 10.06.2019
6358 Clouds 35 1015 67 9656 9.3 40 22:47 10.06.2019
6359 Clouds 35 1015 67 9656 9.3 40 22:29 10.06.2019
6360 Clouds 35 1015 67 9656 8.2 20 21:58 10.06.2019
6361 Clouds 35 1015 67 9656 8.2 20 21:39 10.06.2019
6362 Clouds 34 1017 45 0 4.1 51.72 21:21 10.06.2019
6363 Clear 33 1015 66 9656 6.2 20 20:44 10.06.2019
6364 Clear 33 1015 66 9656 6.2 20 20:44 10.06.2019
6365 Clear 33 1015 66 9656 6.2 20 20:23 10.06.2019
6366 Clouds 34 1015 63 9656 4.6 360 19:51 10.06.2019
6367 Clouds 34 1015 63 9656 4.6 360 19:27 10.06.2019
6368 Clouds 33 1015 63 9656 4.1 51.72 18:59 10.06.2019
6369 Clouds 34 1017 45 0 4.1 51.72 18:40 10.06.2019
6370 Clouds 31 1016 74 9656 1.34 4.418 18:20 10.06.2019
6371 Clouds 31 1016 74 9656 1.34 4.418 17:44 10.06.2019
6372 Clouds 31 1016 74 9656 1.34 4.418 17:24 10.06.2019
6373 Clouds 28 1015 83 9656 1.34 4.418 16:56 10.06.2019
6374 Clouds 28 1015 83 9656 1.34 4.418 16:38 10.06.2019
6375 Clouds 31 1018 49 0 1.34 4.418 16:18 10.06.2019
6376 Clouds 26 1015 94 9656 1.34 4.418 15:41 10.06.2019
6377 Clouds 26 1015 94 9656 1.8 287.128 15:23 10.06.2019
6378 Clouds 25 1014 94 9656 1.8 287.128 14:49 10.06.2019
6379 Clouds 25 1014 94 9656 1.8 287.128 14:30 10.06.2019
6380 Clear 25 1013 94 9656 1.8 287.128 13:56 10.06.2019
6381 Clear 25 1013 94 9656 1.8 287.128 13:38 10.06.2019
6382 Clear 25 1013 94 9656 1.8 287.128 13:19 10.06.2019
6383 Clouds 24 1017 61 0 1.64 282.302 12:40 10.06.2019
6384 Clouds 25 1015 74 0 1.56 274.438 12:22 10.06.2019
6385 Clouds 25 1015 74 0 1.56 274.438 11:43 10.06.2019
6386 Clouds 25 1015 74 0 1.56 274.438 11:19 10.06.2019
6387 Clouds 25 1015 74 0 1.56 274.438 11:19 10.06.2019
6388 Clouds 25 1015 74 0 1.56 274.438 10:42 10.06.2019
6389 Clouds 25 1015 74 0 1.56 274.438 10:20 10.06.2019
6390 Clouds 25 1015 74 0 1.56 274.438 09:55 10.06.2019
6391 Clouds 25 1015 74 0 1.56 274.438 09:32 10.06.2019
6392 Clouds 26 1016 81 0 1.54 284.469 08:50 10.06.2019
6393 Clouds 26 1016 81 0 1.54 284.469 08:27 10.06.2019
6394 Clouds 26 1016 81 0 1.54 284.469 07:46 10.06.2019
6395 Clear 28 1013 100 9656 2.1 350 06:26 10.06.2019
6396 Clouds 30 1011 94 9656 2.1 60 03:46 10.06.2019
6397 Clouds 33 1009 70 9656 4.1 40 01:56 10.06.2019
6398 Clouds 33 1009 70 9656 4.1 40 01:23 10.06.2019
6399 Clear 34 1009 67 9656 3.1 90 00:47 10.06.2019
6400 Clear 34 1010 67 9656 4.6 80 23:49 09.06.2019
6401 Clear 34 1010 67 9656 4.6 80 23:25 09.06.2019
6402 Clouds 33 1010 75 9656 1.5 120 22:59 09.06.2019
6403 Clouds 33 1010 75 9656 1.5 120 22:39 09.06.2019
6404 Clouds 36 1012 46 0 4.14 69.897 22:21 09.06.2019
6405 Clouds 33 1011 84 9656 5.1 70 21:39 09.06.2019
6406 Clouds 32 1012 89 9656 1.5 100 21:21 09.06.2019
6407 Clouds 32 1012 89 9656 1.5 100 20:42 09.06.2019
6408 Clouds 32 1012 89 9656 1.5 100 20:22 09.06.2019
6409 Clouds 32 1012 89 9656 1.5 100 19:46 09.06.2019
6410 Haze 34 1012 63 6437 3.6 110 19:19 09.06.2019
6411 Haze 34 1012 63 6437 3.6 110 18:56 09.06.2019
6412 Haze 34 1012 63 6437 3.6 110 18:36 09.06.2019
6413 Haze 31 1012 84 6437 2.6 160 18:18 09.06.2019
6414 Haze 31 1012 84 6437 2.6 160 17:42 09.06.2019
6415 Haze 31 1012 84 6437 2.6 160 17:23 09.06.2019
6416 Haze 31 1012 79 6437 2.1 160 16:41 09.06.2019
6417 Clouds 32 1014 61 0 0.48 354.266 16:21 09.06.2019
6418 Haze 29 1011 94 6437 0.48 354.266 15:51 09.06.2019
6419 Haze 29 1011 94 6437 1.39 287.759 15:29 09.06.2019
6420 Haze 27 1010 94 6437 1.39 287.759 14:58 09.06.2019
6421 Haze 27 1010 94 6437 1.39 287.759 14:39 09.06.2019
6422 Clouds 25 1014 82 0 1.39 287.759 14:19 09.06.2019
6423 Clear 28 1009 83 9656 1.39 287.759 13:48 09.06.2019
6424 Clear 28 1009 83 9656 1.54 295.104 12:58 09.06.2019
6425 Clouds 25 1013 83 0 1.54 295.104 12:38 09.06.2019
6426 Rain 25 1013 87 0 1.55 289.557 12:19 09.06.2019
6427 Rain 25 1013 87 0 1.55 289.557 11:38 09.06.2019
6428 Rain 25 1013 87 0 1.55 289.557 11:19 09.06.2019
6429 Rain 25 1012 85 0 1.54 284.915 10:43 09.06.2019
6430 Rain 25 1012 85 0 1.54 284.915 10:22 09.06.2019
6431 Rain 25 1012 85 0 1.54 284.915 09:40 09.06.2019
6432 Rain 26 1013 88 0 1.18 296.392 09:21 09.06.2019
6433 Rain 26 1013 88 0 1.21 294.656 08:45 09.06.2019
6434 Rain 26 1013 88 0 1.21 294.656 08:20 09.06.2019
6435 Clear 29 1009 100 9656 1.21 294.656 06:48 09.06.2019
6436 Clear 29 1009 100 9656 1.21 294.656 06:29 09.06.2019
6437 Clouds 31 1007 84 9656 4.1 60 03:26 09.06.2019
6438 Clear 35 1006 67 8047 4.1 70 01:38 09.06.2019
6439 Clouds 33 1009 61 0 2.9 80.71 01:19 09.06.2019
6440 Clear 35 1006 67 9656 5.1 80 00:45 09.06.2019
6441 Clear 35 1006 67 11265 4.1 80 23:43 08.06.2019
6442 Clear 35 1006 67 11265 4.1 80 23:24 08.06.2019
6443 Clouds 36 1007 60 11265 3.1 70 22:56 08.06.2019
6444 Clouds 36 1007 60 11265 3.1 70 22:38 08.06.2019
6445 Clouds 36 1008 60 11265 2.1 90 22:19 08.06.2019
6446 Clouds 36 1008 60 11265 2.1 90 21:49 08.06.2019
6447 Clouds 36 1008 60 11265 2.1 90 21:25 08.06.2019
6448 Clear 36 1009 56 9656 2.1 130 20:46 08.06.2019
6449 Clear 36 1009 56 9656 2.1 130 20:25 08.06.2019
6450 Clear 34 1009 71 9656 2.04 134.363 19:58 08.06.2019
6451 Clear 34 1009 71 9656 2.04 134.363 19:39 08.06.2019
6452 Clear 33 1009 79 9656 1.86 133.303 19:19 08.06.2019
6453 Clear 33 1009 79 9656 1.86 133.303 18:51 08.06.2019
6454 Clear 33 1009 79 9656 1.86 133.303 18:32 08.06.2019
6455 Clear 31 1009 94 9656 0.72 220.05 17:48 08.06.2019
6456 Clear 31 1009 94 9656 0.72 220.05 17:23 08.06.2019
6457 Clear 29 1009 100 9656 1 160 16:54 08.06.2019
6458 Clear 29 1009 100 9656 1 160 16:35 08.06.2019
6459 Clear 28 1009 94 8047 0.72 220.05 15:54 08.06.2019
6460 Clear 28 1009 94 8047 0.72 220.05 15:35 08.06.2019
6461 Clouds 26 1008 100 8047 0.8 269.857 14:49 08.06.2019
6462 Clouds 26 1008 100 8047 0.8 269.857 14:31 08.06.2019
6463 Clear 25 1008 100 9656 0.8 269.857 13:51 08.06.2019
6464 Clear 25 1008 100 9656 0.67 254.7 12:54 08.06.2019
6465 Rain 25 1011 89 0 0.67 254.7 12:35 08.06.2019
6466 Rain 26 1010 87 0 0.74 276.647 11:56 08.06.2019
6467 Rain 26 1010 87 0 0.74 276.647 11:37 08.06.2019
6468 Rain 26 1010 87 0 0.74 276.647 11:19 08.06.2019
6469 Rain 26 1010 87 0 0.74 276.647 10:42 08.06.2019
6470 Rain 26 1010 87 0 0.74 276.647 10:19 08.06.2019
6471 Rain 26 1010 87 0 0.74 276.647 09:33 08.06.2019
6472 Rain 26 1011 88 0 0.76 279.078 08:52 08.06.2019
6473 Rain 26 1011 88 0 0.76 279.078 08:22 08.06.2019
6474 Clear 28 1009 100 11265 0.76 279.078 07:27 08.06.2019
6475 Clouds 28 1008 100 11265 0.97 266.797 06:45 08.06.2019
6476 Clouds 30 1007 89 9656 1.5 70 03:37 08.06.2019
6477 Clouds 33 1006 70 9656 4.1 90 02:20 08.06.2019
6478 Clouds 33 1005 70 9656 6.2 90 00:31 08.06.2019
6479 Clouds 35 1006 56 11265 6.7 80 23:59 07.06.2019
6480 Clouds 35 1006 56 11265 6.7 80 23:21 07.06.2019
6481 Clouds 36 1007 56 11265 3.6 80 22:52 07.06.2019
6482 Clouds 36 1007 56 11265 3.6 80 22:33 07.06.2019
6483 Clouds 36 1007 56 11265 4.1 80 21:55 07.06.2019
6484 Clouds 36 1007 56 11265 4.1 80 21:37 07.06.2019
6485 Clouds 35 1008 56 11265 3.6 190 21:18 07.06.2019
6486 Clouds 35 1008 56 11265 3.6 190 20:42 07.06.2019
6487 Clouds 35 1008 56 11265 3.6 190 20:22 07.06.2019
6488 Clouds 34 1008 56 11265 1.55 113.932 19:41 07.06.2019
6489 Clouds 35 1010 50 0 1.55 113.932 19:19 07.06.2019
6490 Clouds 33 1008 59 11265 2.6 190 18:43 07.06.2019
6491 Clouds 33 1008 59 11265 2.6 190 18:25 07.06.2019
6492 Clouds 30 1008 79 11265 1.5 230 17:44 07.06.2019
6493 Clouds 29 1008 89 11265 3.1 200 17:21 07.06.2019
6494 Clouds 29 1008 89 11265 3.1 200 16:41 07.06.2019
6495 Rain 29 1011 73 0 0.75 232.702 16:20 07.06.2019
6496 Mist 26 1008 100 11265 2.1 190 15:47 07.06.2019
6497 Mist 24 1008 100 9656 0.99 277.182 15:20 07.06.2019
6498 Mist 24 1008 100 9656 0.99 277.182 14:42 07.06.2019
6499 Mist 24 1008 100 9656 0.99 277.182 14:21 07.06.2019
6500 Clouds 25 1007 100 8047 0.99 277.182 13:28 07.06.2019
6501 Rain 25 1011 85 0 1.26 278.124 12:54 07.06.2019
6502 Rain 25 1011 85 0 1.26 278.124 12:30 07.06.2019
6503 Rain 26 1010 86 0 1.15 288.625 11:58 07.06.2019
6504 Rain 26 1010 86 0 1.15 288.625 11:38 07.06.2019
6505 Rain 26 1010 86 0 1.15 288.625 11:20 07.06.2019
6506 Rain 26 1010 86 0 1.15 288.625 10:42 07.06.2019
6507 Rain 26 1010 86 0 1.15 288.625 10:21 07.06.2019
6508 Rain 26 1010 86 0 1.15 288.625 09:48 07.06.2019
6509 Rain 26 1011 90 0 0.74 285.309 09:24 07.06.2019
6510 Clouds 26 1009 100 11265 0.63 240.233 08:48 07.06.2019
6511 Clouds 26 1009 100 11265 0.63 240.233 08:27 07.06.2019
6512 Clouds 27 1009 100 11265 0.63 240.233 07:51 07.06.2019
6513 Clouds 27 1012 84 0 0.63 240.233 07:22 07.06.2019
6514 Clouds 28 1009 100 11265 0.63 240.233 06:48 07.06.2019
6515 Clouds 28 1009 100 11265 0.56 21.366 06:23 07.06.2019
6516 Clouds 29 1009 100 11265 0.56 21.366 05:44 07.06.2019
6517 Clouds 30 1007 94 9656 2.1 60 02:43 07.06.2019
6518 Clouds 32 1006 75 11265 4.6 60 01:38 07.06.2019
6519 Clouds 33 1006 75 11265 3.6 90 00:48 07.06.2019
6520 Clear 34 1006 67 11265 4.6 80 23:46 06.06.2019
6521 Clear 34 1006 67 11265 4.6 80 23:46 06.06.2019
6522 Clear 34 1006 67 11265 4.6 80 23:25 06.06.2019
6523 Clouds 34 1006 67 11265 5.7 80 22:59 06.06.2019
6524 Clouds 34 1006 67 11265 5.7 80 22:37 06.06.2019
6525 Clouds 34 1007 71 9656 5.1 80 22:19 06.06.2019
6526 Clouds 34 1007 71 9656 5.1 80 21:45 06.06.2019
6527 Clouds 34 1011 54 0 2.4 58.319 21:22 06.06.2019
6528 Clouds 36 1008 60 9656 4.1 60 20:55 06.06.2019
6529 Clouds 36 1008 60 9656 4.1 60 20:33 06.06.2019
6530 Clouds 34 1008 71 9656 2.1 180 19:58 06.06.2019
6531 Clouds 34 1008 71 9656 2.1 180 19:37 06.06.2019
6532 Clouds 32 1008 75 9656 2.4 58.319 19:18 06.06.2019
6533 Clouds 32 1008 75 9656 2.4 58.319 18:43 06.06.2019
6534 Clouds 32 1008 75 9656 0.39 16.107 18:23 06.06.2019
6535 Clouds 32 1009 66 9656 2.6 190 17:48 06.06.2019
6536 Clouds 32 1009 66 9656 2.6 190 17:24 06.06.2019
6537 Clouds 29 1009 83 9656 2.1 180 16:49 06.06.2019
6538 Clouds 29 1009 83 9656 2.1 180 16:28 06.06.2019
6539 Clouds 27 1008 88 8047 2.6 160 15:59 06.06.2019
6540 Clouds 27 1008 88 8047 2.6 160 15:38 06.06.2019
6541 Clouds 26 1008 88 8047 0.52 270.328 15:19 06.06.2019
6542 Clouds 26 1008 88 8047 0.52 270.328 14:41 06.06.2019
6543 Clouds 25 1011 93 0 0.52 270.328 14:20 06.06.2019
6544 Clouds 26 1008 94 8047 1.5 170 13:49 06.06.2019
6545 Clouds 26 1008 94 8047 1.5 170 13:30 06.06.2019
6546 Clouds 25 1010 92 0 0.66 255.102 12:48 06.06.2019
6547 Clouds 25 1010 92 0 0.66 255.102 12:28 06.06.2019
6548 Clouds 26 1010 92 0 0.08 291.801 11:57 06.06.2019
6549 Clouds 26 1010 92 0 0.08 291.801 11:38 06.06.2019
6550 Clouds 26 1010 92 0 0.08 291.801 11:20 06.06.2019
6551 Clouds 26 1010 92 0 0.08 291.801 10:39 06.06.2019
6552 Clouds 26 1010 92 0 0.08 291.801 10:20 06.06.2019
6553 Mist 27 1009 100 4828 0.08 291.801 09:43 06.06.2019
6554 Mist 27 1009 100 4828 1.15 318.486 09:23 06.06.2019
6555 Clouds 27 1009 100 6437 1.15 318.486 08:50 06.06.2019
6556 Clouds 27 1009 100 6437 1.15 318.486 08:23 06.06.2019
6557 Clouds 27 1010 100 8047 1.15 318.486 07:52 06.06.2019
6558 Clouds 27 1010 100 8047 1.15 318.486 07:24 06.06.2019
6559 Clouds 27 1009 100 9656 0.78 323.983 06:47 06.06.2019
6560 Clouds 28 1008 94 9656 1.03 355.057 05:34 06.06.2019
6561 Clouds 28 1008 94 9656 1.03 355.057 04:32 06.06.2019
6562 Clouds 30 1009 75 0 1.65 46.765 02:21 06.06.2019
6563 Clouds 31 1007 79 9656 3.1 70 01:44 06.06.2019
6564 Clouds 30 1007 84 9656 4.1 70 00:48 06.06.2019
6565 Clouds 30 1007 84 9656 4.1 70 00:29 06.06.2019
6566 Clouds 32 1008 79 9656 2.37 87.65 23:41 05.06.2019
6567 Clouds 31 1008 74 9656 2.6 190 23:19 05.06.2019
6568 Clouds 31 1008 74 9656 2.6 190 22:40 05.06.2019
6569 Clouds 33 1009 59 0 2.27 93.586 22:21 05.06.2019
6570 Clouds 30 1009 84 9656 1 80 21:44 05.06.2019
6571 Rain 28 1011 85 0 1.74 96.417 21:26 05.06.2019
6572 Clouds 30 1009 84 9656 1 80 21:26 05.06.2019
6573 Clouds 30 1009 84 9656 1.74 96.417 20:54 05.06.2019
6574 Clouds 30 1009 84 9656 1.74 96.417 20:35 05.06.2019
6575 Clouds 30 1010 84 9656 1.74 96.417 19:56 05.06.2019
6576 Clouds 30 1010 84 9656 1.74 96.417 19:37 05.06.2019
6577 Clouds 30 1010 84 9656 1.74 96.417 19:19 05.06.2019
6578 Clouds 30 1010 84 9656 1.74 96.417 18:42 05.06.2019
6579 Clouds 28 1010 88 9656 0.89 139.946 18:23 05.06.2019
6580 Clouds 28 1010 88 9656 0.89 139.946 17:46 05.06.2019
6581 Clouds 28 1010 88 9656 0.89 139.946 17:21 05.06.2019
6582 Clouds 26 1011 88 8047 0.89 139.946 16:41 05.06.2019
6583 Haze 26 1010 100 6437 0.89 139.946 16:19 05.06.2019
6584 Haze 26 1010 100 6437 0.89 139.946 15:43 05.06.2019
6585 Haze 26 1010 100 6437 0.93 177.838 15:25 05.06.2019
6586 Mist 25 1010 100 4828 0.93 177.838 14:58 05.06.2019
6587 Mist 25 1010 100 4828 0.93 177.838 14:37 05.06.2019
6588 Mist 26 1010 100 3219 0.93 177.838 14:19 05.06.2019
6589 Mist 26 1009 100 1609 0.93 177.838 13:40 05.06.2019
6590 Fog 26 1009 100 402 0.93 177.838 13:21 05.06.2019
6591 Clouds 24 1011 98 0 1.04 186.777 12:49 05.06.2019
6592 Rain 24 1011 97 0 0.81 220.47 12:23 05.06.2019
6593 Rain 24 1011 97 0 0.81 220.47 11:48 05.06.2019
6594 Rain 24 1011 97 0 0.81 220.47 11:23 05.06.2019
6595 Rain 24 1011 97 0 0.81 220.47 10:59 05.06.2019
6596 Rain 24 1011 97 0 0.81 220.47 10:40 05.06.2019
6597 Rain 24 1011 97 0 0.81 220.47 10:18 05.06.2019
6598 Rain 24 1011 97 0 0.81 220.47 09:37 05.06.2019
6599 Rain 25 1013 95 0 1.16 283.701 09:18 05.06.2019
6600 Rain 25 1013 95 0 1.16 283.701 08:26 05.06.2019
6601 Rain 25 1013 95 0 1.16 283.701 07:41 05.06.2019
6602 Clouds 27 1011 100 9656 1.2 294.708 06:55 05.06.2019
6603 Clouds 27 1011 100 9656 1.44 16.68 06:23 05.06.2019
6604 Clouds 27 1011 100 9656 1.44 16.68 05:43 05.06.2019
6605 Clouds 28 1009 100 9656 2.6 30 03:31 05.06.2019
6606 Clouds 30 1008 89 9656 2.1 120 01:32 05.06.2019
6607 Clouds 30 1009 84 9656 2.6 90 00:50 05.06.2019
6608 Clouds 31 1010 66 0 2.38 124.761 00:21 05.06.2019
6609 Clouds 32 1009 70 9656 2.1 140 23:45 04.06.2019
6610 Clouds 32 1009 70 9656 2.1 140 23:24 04.06.2019
6611 Clouds 30 1010 89 9656 2.49 147.294 22:57 04.06.2019
6612 Clouds 30 1010 89 9656 2.49 147.294 22:37 04.06.2019
6613 Clouds 29 1011 89 8047 2.1 160 22:18 04.06.2019
6614 Clouds 29 1011 89 8047 2.1 160 21:40 04.06.2019
6615 Rain 30 1013 74 0 2.27 133.249 21:21 04.06.2019
6616 Clouds 29 1012 89 9656 1 120 20:57 04.06.2019
6617 Clouds 29 1012 89 9656 1 120 20:37 04.06.2019
6618 Clouds 28 1013 88 9656 2.27 133.249 20:18 04.06.2019
6619 Clouds 28 1013 88 9656 2.27 133.249 19:39 04.06.2019
6620 Clouds 28 1013 88 9656 2.27 133.249 19:21 04.06.2019
6621 Clouds 28 1012 88 9656 2.27 133.249 18:43 04.06.2019
6622 Rain 25 1013 94 0 1.14 150.199 18:23 04.06.2019
6623 Mist 26 1012 100 8047 1.14 150.199 17:45 04.06.2019
6624 Mist 26 1012 100 8047 1.14 150.199 17:26 04.06.2019
6625 Clouds 26 1012 94 8047 1.14 150.199 16:44 04.06.2019
6626 Clouds 25 1012 94 8047 1.14 150.199 16:19 04.06.2019
6627 Clouds 25 1012 94 8047 1.14 150.199 15:43 04.06.2019
6628 Clouds 25 1012 94 8047 0.47 145.128 15:25 04.06.2019
6629 Clouds 24 1011 88 9656 0.47 145.128 14:40 04.06.2019
6630 Clouds 24 1010 88 8047 0.47 145.128 14:21 04.06.2019
6631 Clouds 24 1010 88 8047 0.47 145.128 13:45 04.06.2019
6632 Clouds 24 1010 88 8047 0.47 145.128 13:22 04.06.2019
6633 Rain 24 1012 98 0 0.44 125.28 12:43 04.06.2019
6634 Rain 24 1012 97 0 0.84 301.433 12:23 04.06.2019
6635 Rain 24 1012 97 0 0.84 301.433 11:57 04.06.2019